<?xml version="1.0" encoding="UTF-8"?>
<gpx version="1.1" creator="https://www.youtrack.es" xsi:schemaLocation="http://www.topografix.com/GPX/1/1 http://www.topografix.com/GPX/1/1/gpx.xsd http://www.garmin.com/xmlschemas/GpxExtensions/v3 http://www.garmin.com/xmlschemas/GpxExtensionsv3.xsd http://www.garmin.com/xmlschemas/TrackPointExtension/v1 http://www.garmin.com/xmlschemas/TrackPointExtensionv1.xsd" xmlns:gpxtpx="http://www.garmin.com/xmlschemas/TrackPointExtension/v1" xmlns:gpxx="http://www.garmin.com/xmlschemas/GpxExtensions/v3" xmlns:xsi="http://www.w3.org/2001/XMLSchema-instance">
  <metadata>
    <link href="https://www.youtrack.es">
      <text>YouTrack.es</text>
    </link>
    <time>2026-05-09T04:50:10Z</time>
  </metadata>
  <trk>
    <src>https://www.youtrack.es</src>
    <link href="https://www.youtrack.es/ruta/35536-01labaien-oitz">
      <text>YouTrack.es</text>
    </link>
    <trkseg>
      <trkpt lat="43.0858901" lon="-1.7496185">
        <ele>422.671997</ele>
        <time>2014-08-17T07:42:25.000Z</time>
      </trkpt>
      <trkpt lat="43.0856920" lon="-1.7495870">
        <ele>422.260986</ele>
        <time>2014-08-17T07:42:26.000Z</time>
      </trkpt>
      <trkpt lat="43.0857294" lon="-1.7497284">
        <ele>422.242981</ele>
        <time>2022-08-25T11:19:29.504Z</time>
      </trkpt>
      <trkpt lat="43.0857530" lon="-1.7498465">
        <ele>422.216003</ele>
        <time>2014-08-17T07:42:28.000Z</time>
      </trkpt>
      <trkpt lat="43.0857589" lon="-1.7499350">
        <ele>421.696014</ele>
        <time>2014-08-17T07:42:29.000Z</time>
      </trkpt>
      <trkpt lat="43.0857530" lon="-1.7500691">
        <ele>421.230988</ele>
        <time>2014-08-17T07:42:31.000Z</time>
      </trkpt>
      <trkpt lat="43.0857491" lon="-1.7501335">
        <ele>420.623993</ele>
        <time>2014-08-17T07:42:32.000Z</time>
      </trkpt>
      <trkpt lat="43.0857589" lon="-1.7502381">
        <ele>420.206970</ele>
        <time>2014-08-17T07:42:33.000Z</time>
      </trkpt>
      <trkpt lat="43.0857551" lon="-1.7503239">
        <ele>419.895996</ele>
        <time>2014-08-17T07:42:34.000Z</time>
      </trkpt>
      <trkpt lat="43.0857629" lon="-1.7504231">
        <ele>419.874023</ele>
        <time>2014-08-17T07:42:35.000Z</time>
      </trkpt>
      <trkpt lat="43.0857551" lon="-1.7506699">
        <ele>419.837006</ele>
        <time>2014-08-17T07:42:38.000Z</time>
      </trkpt>
      <trkpt lat="43.0857865" lon="-1.7508174">
        <ele>419.898987</ele>
        <time>2014-08-17T07:42:39.000Z</time>
      </trkpt>
      <trkpt lat="43.0858540" lon="-1.7510300">
        <ele>419.898010</ele>
        <time>2014-08-17T07:42:44.000Z</time>
      </trkpt>
      <trkpt lat="43.0858800" lon="-1.7511210">
        <ele>420.690002</ele>
        <time>2014-08-17T07:42:46.000Z</time>
      </trkpt>
      <trkpt lat="43.0859040" lon="-1.7512070">
        <ele>421.023010</ele>
        <time>2014-08-17T07:42:48.000Z</time>
      </trkpt>
      <trkpt lat="43.0859170" lon="-1.7512500">
        <ele>421.473999</ele>
        <time>2014-08-17T07:42:49.000Z</time>
      </trkpt>
      <trkpt lat="43.0859300" lon="-1.7512910">
        <ele>421.855988</ele>
        <time>2014-08-17T07:42:50.000Z</time>
      </trkpt>
      <trkpt lat="43.0859440" lon="-1.7513320">
        <ele>421.820984</ele>
        <time>2014-08-17T07:42:51.000Z</time>
      </trkpt>
      <trkpt lat="43.0859720" lon="-1.7514130">
        <ele>422.207001</ele>
        <time>2014-08-17T07:42:53.000Z</time>
      </trkpt>
      <trkpt lat="43.0859870" lon="-1.7514510">
        <ele>422.694000</ele>
        <time>2014-08-17T07:42:54.000Z</time>
      </trkpt>
      <trkpt lat="43.0860000" lon="-1.7514870">
        <ele>423.011993</ele>
        <time>2014-08-17T07:42:55.000Z</time>
      </trkpt>
      <trkpt lat="43.0860140" lon="-1.7515250">
        <ele>423.455017</ele>
        <time>2014-08-17T07:42:56.000Z</time>
      </trkpt>
      <trkpt lat="43.0860310" lon="-1.7515610">
        <ele>423.826996</ele>
        <time>2014-08-17T07:42:57.000Z</time>
      </trkpt>
      <trkpt lat="43.0860480" lon="-1.7515970">
        <ele>424.226013</ele>
        <time>2014-08-17T07:42:58.000Z</time>
      </trkpt>
      <trkpt lat="43.0860940" lon="-1.7517560">
        <ele>424.648010</ele>
        <time>2014-08-17T07:43:02.000Z</time>
      </trkpt>
      <trkpt lat="43.0861020" lon="-1.7517990">
        <ele>425.021027</ele>
        <time>2014-08-17T07:43:03.000Z</time>
      </trkpt>
      <trkpt lat="43.0861130" lon="-1.7518410">
        <ele>425.458008</ele>
        <time>2014-08-17T07:43:04.000Z</time>
      </trkpt>
      <trkpt lat="43.0861230" lon="-1.7518820">
        <ele>425.851990</ele>
        <time>2014-08-17T07:43:05.000Z</time>
      </trkpt>
      <trkpt lat="43.0861320" lon="-1.7519250">
        <ele>425.816986</ele>
        <time>2014-08-17T07:43:06.000Z</time>
      </trkpt>
      <trkpt lat="43.0861520" lon="-1.7521060">
        <ele>425.807007</ele>
        <time>2014-08-17T07:43:10.000Z</time>
      </trkpt>
      <trkpt lat="43.0861620" lon="-1.7521930">
        <ele>426.221985</ele>
        <time>2014-08-17T07:43:12.000Z</time>
      </trkpt>
      <trkpt lat="43.0861670" lon="-1.7522830">
        <ele>426.889984</ele>
        <time>2014-08-17T07:43:14.000Z</time>
      </trkpt>
      <trkpt lat="43.0861700" lon="-1.7523270">
        <ele>427.283020</ele>
        <time>2014-08-17T07:43:15.000Z</time>
      </trkpt>
      <trkpt lat="43.0861710" lon="-1.7523730">
        <ele>427.684998</ele>
        <time>2014-08-17T07:43:16.000Z</time>
      </trkpt>
      <trkpt lat="43.0861720" lon="-1.7524180">
        <ele>428.074005</ele>
        <time>2014-08-17T07:43:17.000Z</time>
      </trkpt>
      <trkpt lat="43.0861740" lon="-1.7524630">
        <ele>428.085968</ele>
        <time>2014-08-17T07:43:18.000Z</time>
      </trkpt>
      <trkpt lat="43.0861810" lon="-1.7525490">
        <ele>428.458984</ele>
        <time>2014-08-17T07:43:20.000Z</time>
      </trkpt>
      <trkpt lat="43.0862020" lon="-1.7527640">
        <ele>428.824982</ele>
        <time>2014-08-17T07:43:25.000Z</time>
      </trkpt>
      <trkpt lat="43.0862110" lon="-1.7528070">
        <ele>429.226013</ele>
        <time>2014-08-17T07:43:26.000Z</time>
      </trkpt>
      <trkpt lat="43.0862210" lon="-1.7528490">
        <ele>429.807983</ele>
        <time>2014-08-17T07:43:27.000Z</time>
      </trkpt>
      <trkpt lat="43.0862300" lon="-1.7528920">
        <ele>430.207001</ele>
        <time>2014-08-17T07:43:28.000Z</time>
      </trkpt>
      <trkpt lat="43.0862370" lon="-1.7529390">
        <ele>430.278992</ele>
        <time>2014-08-17T07:43:29.000Z</time>
      </trkpt>
      <trkpt lat="43.0862900" lon="-1.7531000">
        <ele>431.046997</ele>
        <time>2014-08-17T07:43:33.000Z</time>
      </trkpt>
      <trkpt lat="43.0863760" lon="-1.7532910">
        <ele>431.429993</ele>
        <time>2014-08-17T07:43:38.000Z</time>
      </trkpt>
      <trkpt lat="43.0863890" lon="-1.7533300">
        <ele>431.822021</ele>
        <time>2014-08-17T07:43:39.000Z</time>
      </trkpt>
      <trkpt lat="43.0863970" lon="-1.7533710">
        <ele>432.291016</ele>
        <time>2014-08-17T07:43:40.000Z</time>
      </trkpt>
      <trkpt lat="43.0864070" lon="-1.7534120">
        <ele>432.263000</ele>
        <time>2014-08-17T07:43:41.000Z</time>
      </trkpt>
      <trkpt lat="43.0864310" lon="-1.7536850">
        <ele>432.675995</ele>
        <time>2014-08-17T07:43:47.000Z</time>
      </trkpt>
      <trkpt lat="43.0864400" lon="-1.7538300">
        <ele>433.065979</ele>
        <time>2014-08-17T07:43:50.000Z</time>
      </trkpt>
      <trkpt lat="43.0864390" lon="-1.7538770">
        <ele>433.428986</ele>
        <time>2014-08-17T07:43:51.000Z</time>
      </trkpt>
      <trkpt lat="43.0864380" lon="-1.7539230">
        <ele>433.820984</ele>
        <time>2014-08-17T07:43:52.000Z</time>
      </trkpt>
      <trkpt lat="43.0864360" lon="-1.7539670">
        <ele>434.206970</ele>
        <time>2014-08-17T07:43:53.000Z</time>
      </trkpt>
      <trkpt lat="43.0864340" lon="-1.7540150">
        <ele>434.243011</ele>
        <time>2014-08-17T07:43:54.000Z</time>
      </trkpt>
      <trkpt lat="43.0864400" lon="-1.7542330">
        <ele>434.630981</ele>
        <time>2014-08-17T07:43:59.000Z</time>
      </trkpt>
      <trkpt lat="43.0864480" lon="-1.7544050">
        <ele>435.044006</ele>
        <time>2014-08-17T07:44:03.000Z</time>
      </trkpt>
      <trkpt lat="43.0864500" lon="-1.7544500">
        <ele>435.635986</ele>
        <time>2014-08-17T07:44:04.000Z</time>
      </trkpt>
      <trkpt lat="43.0864510" lon="-1.7544950">
        <ele>436.014984</ele>
        <time>2014-08-17T07:44:05.000Z</time>
      </trkpt>
      <trkpt lat="43.0864520" lon="-1.7545400">
        <ele>436.436981</ele>
        <time>2014-08-17T07:44:06.000Z</time>
      </trkpt>
      <trkpt lat="43.0864530" lon="-1.7545840">
        <ele>436.820007</ele>
        <time>2014-08-17T07:44:07.000Z</time>
      </trkpt>
      <trkpt lat="43.0864280" lon="-1.7548010">
        <ele>437.286011</ele>
        <time>2014-08-17T07:44:12.000Z</time>
      </trkpt>
      <trkpt lat="43.0864200" lon="-1.7548420">
        <ele>437.860016</ele>
        <time>2014-08-17T07:44:13.000Z</time>
      </trkpt>
      <trkpt lat="43.0864080" lon="-1.7548830">
        <ele>438.226013</ele>
        <time>2014-08-17T07:44:14.000Z</time>
      </trkpt>
      <trkpt lat="43.0863970" lon="-1.7549260">
        <ele>438.607025</ele>
        <time>2014-08-17T07:44:15.000Z</time>
      </trkpt>
      <trkpt lat="43.0863850" lon="-1.7549660">
        <ele>438.634979</ele>
        <time>2014-08-17T07:44:16.000Z</time>
      </trkpt>
      <trkpt lat="43.0863280" lon="-1.7551690">
        <ele>439.053009</ele>
        <time>2014-08-17T07:44:21.000Z</time>
      </trkpt>
      <trkpt lat="43.0862800" lon="-1.7553360">
        <ele>439.426025</ele>
        <time>2014-08-17T07:44:25.000Z</time>
      </trkpt>
      <trkpt lat="43.0862680" lon="-1.7553770">
        <ele>440.247986</ele>
        <time>2014-08-17T07:44:26.000Z</time>
      </trkpt>
      <trkpt lat="43.0862550" lon="-1.7554190">
        <ele>440.897003</ele>
        <time>2014-08-17T07:44:27.000Z</time>
      </trkpt>
      <trkpt lat="43.0862420" lon="-1.7554590">
        <ele>440.869019</ele>
        <time>2014-08-17T07:44:28.000Z</time>
      </trkpt>
      <trkpt lat="43.0862210" lon="-1.7555400">
        <ele>440.871979</ele>
        <time>2014-08-17T07:44:30.000Z</time>
      </trkpt>
      <trkpt lat="43.0862100" lon="-1.7555790">
        <ele>441.493988</ele>
        <time>2014-08-17T07:44:31.000Z</time>
      </trkpt>
      <trkpt lat="43.0861650" lon="-1.7557740">
        <ele>442.256989</ele>
        <time>2014-08-17T07:44:36.000Z</time>
      </trkpt>
      <trkpt lat="43.0861530" lon="-1.7558140">
        <ele>442.822021</ele>
        <time>2014-08-17T07:44:37.000Z</time>
      </trkpt>
      <trkpt lat="43.0861470" lon="-1.7558550">
        <ele>443.606995</ele>
        <time>2014-08-17T07:44:38.000Z</time>
      </trkpt>
      <trkpt lat="43.0861420" lon="-1.7558930">
        <ele>444.256012</ele>
        <time>2014-08-17T07:44:39.000Z</time>
      </trkpt>
      <trkpt lat="43.0861370" lon="-1.7559280">
        <ele>444.233978</ele>
        <time>2014-08-17T07:44:40.000Z</time>
      </trkpt>
      <trkpt lat="43.0861050" lon="-1.7560370">
        <ele>444.696991</ele>
        <time>2014-08-17T07:44:43.000Z</time>
      </trkpt>
      <trkpt lat="43.0860740" lon="-1.7562230">
        <ele>445.039001</ele>
        <time>2014-08-17T07:44:48.000Z</time>
      </trkpt>
      <trkpt lat="43.0860680" lon="-1.7562600">
        <ele>445.687988</ele>
        <time>2014-08-17T07:44:49.000Z</time>
      </trkpt>
      <trkpt lat="43.0860610" lon="-1.7562980">
        <ele>446.070007</ele>
        <time>2014-08-17T07:44:50.000Z</time>
      </trkpt>
      <trkpt lat="43.0860580" lon="-1.7563360">
        <ele>446.472992</ele>
        <time>2014-08-17T07:44:51.000Z</time>
      </trkpt>
      <trkpt lat="43.0860580" lon="-1.7563740">
        <ele>446.414001</ele>
        <time>2014-08-17T07:44:52.000Z</time>
      </trkpt>
      <trkpt lat="43.0861140" lon="-1.7565120">
        <ele>446.854004</ele>
        <time>2014-08-17T07:44:56.000Z</time>
      </trkpt>
      <trkpt lat="43.0861760" lon="-1.7565670">
        <ele>447.208984</ele>
        <time>2014-08-17T07:44:59.000Z</time>
      </trkpt>
      <trkpt lat="43.0861970" lon="-1.7565740">
        <ele>447.606995</ele>
        <time>2014-08-17T07:45:00.000Z</time>
      </trkpt>
      <trkpt lat="43.0862300" lon="-1.7565670">
        <ele>448.088013</ele>
        <time>2014-08-17T07:45:01.000Z</time>
      </trkpt>
      <trkpt lat="43.0862610" lon="-1.7565610">
        <ele>448.416016</ele>
        <time>2014-08-17T07:45:02.000Z</time>
      </trkpt>
      <trkpt lat="43.0862910" lon="-1.7565480">
        <ele>448.498993</ele>
        <time>2014-08-17T07:45:03.000Z</time>
      </trkpt>
      <trkpt lat="43.0863970" lon="-1.7564780">
        <ele>449.050995</ele>
        <time>2014-08-17T07:45:07.000Z</time>
      </trkpt>
      <trkpt lat="43.0864700" lon="-1.7564190">
        <ele>449.430023</ele>
        <time>2014-08-17T07:45:10.000Z</time>
      </trkpt>
      <trkpt lat="43.0864940" lon="-1.7564020">
        <ele>449.872009</ele>
        <time>2014-08-17T07:45:11.000Z</time>
      </trkpt>
      <trkpt lat="43.0865190" lon="-1.7563850">
        <ele>450.255005</ele>
        <time>2014-08-17T07:45:12.000Z</time>
      </trkpt>
      <trkpt lat="43.0865420" lon="-1.7563670">
        <ele>450.699005</ele>
        <time>2014-08-17T07:45:13.000Z</time>
      </trkpt>
      <trkpt lat="43.0865660" lon="-1.7563460">
        <ele>450.606995</ele>
        <time>2014-08-17T07:45:14.000Z</time>
      </trkpt>
      <trkpt lat="43.0866130" lon="-1.7563010">
        <ele>451.026978</ele>
        <time>2014-08-17T07:45:16.000Z</time>
      </trkpt>
      <trkpt lat="43.0867110" lon="-1.7562230">
        <ele>451.407013</ele>
        <time>2014-08-17T07:45:20.000Z</time>
      </trkpt>
      <trkpt lat="43.0867360" lon="-1.7562040">
        <ele>451.845978</ele>
        <time>2014-08-17T07:45:21.000Z</time>
      </trkpt>
      <trkpt lat="43.0867640" lon="-1.7561880">
        <ele>452.253998</ele>
        <time>2014-08-17T07:45:22.000Z</time>
      </trkpt>
      <trkpt lat="43.0867930" lon="-1.7561710">
        <ele>452.856995</ele>
        <time>2014-08-17T07:45:23.000Z</time>
      </trkpt>
      <trkpt lat="43.0868220" lon="-1.7561510">
        <ele>453.279022</ele>
        <time>2014-08-17T07:45:24.000Z</time>
      </trkpt>
      <trkpt lat="43.0869550" lon="-1.7560440">
        <ele>453.618011</ele>
        <time>2014-08-17T07:45:29.000Z</time>
      </trkpt>
      <trkpt lat="43.0869780" lon="-1.7560290">
        <ele>454.040009</ele>
        <time>2014-08-17T07:45:30.000Z</time>
      </trkpt>
      <trkpt lat="43.0870040" lon="-1.7560120">
        <ele>454.432983</ele>
        <time>2014-08-17T07:45:31.000Z</time>
      </trkpt>
      <trkpt lat="43.0870290" lon="-1.7559950">
        <ele>454.886993</ele>
        <time>2014-08-17T07:45:32.000Z</time>
      </trkpt>
      <trkpt lat="43.0870550" lon="-1.7559760">
        <ele>454.842010</ele>
        <time>2014-08-17T07:45:33.000Z</time>
      </trkpt>
      <trkpt lat="43.0870780" lon="-1.7559560">
        <ele>412.825989</ele>
        <time>2014-08-17T07:45:34.000Z</time>
      </trkpt>
      <trkpt lat="43.0875040" lon="-1.7556500">
        <ele>414.606995</ele>
        <time>2014-08-17T07:46:29.000Z</time>
      </trkpt>
      <trkpt lat="43.0875030" lon="-1.7556500">
        <ele>454.034973</ele>
        <time>2014-08-17T07:46:30.000Z</time>
      </trkpt>
      <trkpt lat="43.0875480" lon="-1.7556570">
        <ele>454.463013</ele>
        <time>2014-08-17T07:47:14.000Z</time>
      </trkpt>
      <trkpt lat="43.0875760" lon="-1.7556530">
        <ele>454.865997</ele>
        <time>2014-08-17T07:47:15.000Z</time>
      </trkpt>
      <trkpt lat="43.0876040" lon="-1.7556510">
        <ele>455.227997</ele>
        <time>2014-08-17T07:47:16.000Z</time>
      </trkpt>
      <trkpt lat="43.0876360" lon="-1.7556500">
        <ele>455.656982</ele>
        <time>2014-08-17T07:47:17.000Z</time>
      </trkpt>
      <trkpt lat="43.0876690" lon="-1.7556500">
        <ele>456.019012</ele>
        <time>2014-08-17T07:47:18.000Z</time>
      </trkpt>
      <trkpt lat="43.0876990" lon="-1.7556470">
        <ele>456.661987</ele>
        <time>2014-08-17T07:47:19.000Z</time>
      </trkpt>
      <trkpt lat="43.0877300" lon="-1.7556470">
        <ele>457.063019</ele>
        <time>2014-08-17T07:47:20.000Z</time>
      </trkpt>
      <trkpt lat="43.0877560" lon="-1.7556540">
        <ele>457.643982</ele>
        <time>2014-08-17T07:47:21.000Z</time>
      </trkpt>
      <trkpt lat="43.0877840" lon="-1.7556620">
        <ele>458.217987</ele>
        <time>2014-08-17T07:47:22.000Z</time>
      </trkpt>
      <trkpt lat="43.0878150" lon="-1.7556670">
        <ele>459.206970</ele>
        <time>2014-08-17T07:47:23.000Z</time>
      </trkpt>
      <trkpt lat="43.0878440" lon="-1.7556660">
        <ele>459.692993</ele>
        <time>2014-08-17T07:47:24.000Z</time>
      </trkpt>
      <trkpt lat="43.0878690" lon="-1.7556670">
        <ele>460.090973</ele>
        <time>2014-08-17T07:47:25.000Z</time>
      </trkpt>
      <trkpt lat="43.0878960" lon="-1.7556680">
        <ele>460.423981</ele>
        <time>2014-08-17T07:47:26.000Z</time>
      </trkpt>
      <trkpt lat="43.0879240" lon="-1.7556710">
        <ele>460.835968</ele>
        <time>2014-08-17T07:47:27.000Z</time>
      </trkpt>
      <trkpt lat="43.0879530" lon="-1.7556760">
        <ele>461.265015</ele>
        <time>2014-08-17T07:47:28.000Z</time>
      </trkpt>
      <trkpt lat="43.0879810" lon="-1.7556800">
        <ele>461.656982</ele>
        <time>2014-08-17T07:47:29.000Z</time>
      </trkpt>
      <trkpt lat="43.0880390" lon="-1.7556820">
        <ele>462.290009</ele>
        <time>2014-08-17T07:47:31.000Z</time>
      </trkpt>
      <trkpt lat="43.0880680" lon="-1.7556820">
        <ele>462.684998</ele>
        <time>2014-08-17T07:47:32.000Z</time>
      </trkpt>
      <trkpt lat="43.0880970" lon="-1.7556840">
        <ele>463.089020</ele>
        <time>2014-08-17T07:47:33.000Z</time>
      </trkpt>
      <trkpt lat="43.0881270" lon="-1.7556870">
        <ele>463.416992</ele>
        <time>2014-08-17T07:47:34.000Z</time>
      </trkpt>
      <trkpt lat="43.0881560" lon="-1.7556930">
        <ele>463.406982</ele>
        <time>2014-08-17T07:47:35.000Z</time>
      </trkpt>
      <trkpt lat="43.0881820" lon="-1.7556980">
        <ele>463.875031</ele>
        <time>2014-08-17T07:47:36.000Z</time>
      </trkpt>
      <trkpt lat="43.0882100" lon="-1.7556990">
        <ele>464.443024</ele>
        <time>2014-08-17T07:47:37.000Z</time>
      </trkpt>
      <trkpt lat="43.0882400" lon="-1.7556980">
        <ele>464.876007</ele>
        <time>2014-08-17T07:47:38.000Z</time>
      </trkpt>
      <trkpt lat="43.0882720" lon="-1.7556970">
        <ele>465.218018</ele>
        <time>2014-08-17T07:47:39.000Z</time>
      </trkpt>
      <trkpt lat="43.0883030" lon="-1.7556960">
        <ele>465.626984</ele>
        <time>2014-08-17T07:47:40.000Z</time>
      </trkpt>
      <trkpt lat="43.0883340" lon="-1.7556990">
        <ele>465.668976</ele>
        <time>2014-08-17T07:47:41.000Z</time>
      </trkpt>
      <trkpt lat="43.0884010" lon="-1.7557220">
        <ele>466.272003</ele>
        <time>2014-08-17T07:47:43.000Z</time>
      </trkpt>
      <trkpt lat="43.0884330" lon="-1.7557390">
        <ele>466.684998</ele>
        <time>2014-08-17T07:47:44.000Z</time>
      </trkpt>
      <trkpt lat="43.0884620" lon="-1.7557590">
        <ele>467.088989</ele>
        <time>2014-08-17T07:47:45.000Z</time>
      </trkpt>
      <trkpt lat="43.0884890" lon="-1.7557880">
        <ele>467.617004</ele>
        <time>2014-08-17T07:47:46.000Z</time>
      </trkpt>
      <trkpt lat="43.0885140" lon="-1.7558190">
        <ele>468.007019</ele>
        <time>2014-08-17T07:47:47.000Z</time>
      </trkpt>
      <trkpt lat="43.0885370" lon="-1.7558520">
        <ele>468.424988</ele>
        <time>2014-08-17T07:47:48.000Z</time>
      </trkpt>
      <trkpt lat="43.0885570" lon="-1.7558900">
        <ele>468.852997</ele>
        <time>2014-08-17T07:47:49.000Z</time>
      </trkpt>
      <trkpt lat="43.0885700" lon="-1.7559300">
        <ele>469.646027</ele>
        <time>2014-08-17T07:47:50.000Z</time>
      </trkpt>
      <trkpt lat="43.0885860" lon="-1.7560180">
        <ele>469.627991</ele>
        <time>2014-08-17T07:47:51.000Z</time>
      </trkpt>
      <trkpt lat="43.0885860" lon="-1.7560180">
        <ele>470.016998</ele>
        <time>2014-08-17T07:47:52.000Z</time>
      </trkpt>
      <trkpt lat="43.0885870" lon="-1.7560650">
        <ele>470.678986</ele>
        <time>2014-08-17T07:47:53.000Z</time>
      </trkpt>
      <trkpt lat="43.0885770" lon="-1.7561590">
        <ele>471.022003</ele>
        <time>2014-08-17T07:47:55.000Z</time>
      </trkpt>
      <trkpt lat="43.0885700" lon="-1.7562060">
        <ele>471.458008</ele>
        <time>2014-08-17T07:47:56.000Z</time>
      </trkpt>
      <trkpt lat="43.0885650" lon="-1.7562540">
        <ele>472.052002</ele>
        <time>2014-08-17T07:47:57.000Z</time>
      </trkpt>
      <trkpt lat="43.0885590" lon="-1.7563010">
        <ele>472.416992</ele>
        <time>2014-08-17T07:47:58.000Z</time>
      </trkpt>
      <trkpt lat="43.0885530" lon="-1.7563500">
        <ele>472.807007</ele>
        <time>2014-08-17T07:47:59.000Z</time>
      </trkpt>
      <trkpt lat="43.0885280" lon="-1.7564930">
        <ele>473.252014</ele>
        <time>2014-08-17T07:48:02.000Z</time>
      </trkpt>
      <trkpt lat="43.0885190" lon="-1.7565390">
        <ele>473.630005</ele>
        <time>2014-08-17T07:48:03.000Z</time>
      </trkpt>
      <trkpt lat="43.0885090" lon="-1.7565840">
        <ele>474.063019</ele>
        <time>2014-08-17T07:48:04.000Z</time>
      </trkpt>
      <trkpt lat="43.0885030" lon="-1.7566300">
        <ele>474.485016</ele>
        <time>2014-08-17T07:48:05.000Z</time>
      </trkpt>
      <trkpt lat="43.0884980" lon="-1.7566770">
        <ele>474.494019</ele>
        <time>2014-08-17T07:48:06.000Z</time>
      </trkpt>
      <trkpt lat="43.0884860" lon="-1.7567730">
        <ele>476.675995</ele>
        <time>2014-08-17T07:48:08.000Z</time>
      </trkpt>
      <trkpt lat="43.0884820" lon="-1.7568230">
        <ele>477.268982</ele>
        <time>2014-08-17T07:48:09.000Z</time>
      </trkpt>
      <trkpt lat="43.0884800" lon="-1.7568740">
        <ele>477.618988</ele>
        <time>2014-08-17T07:48:10.000Z</time>
      </trkpt>
      <trkpt lat="43.0884780" lon="-1.7569180">
        <ele>478.009003</ele>
        <time>2014-08-17T07:48:11.000Z</time>
      </trkpt>
      <trkpt lat="43.0884780" lon="-1.7569610">
        <ele>478.418976</ele>
        <time>2014-08-17T07:48:12.000Z</time>
      </trkpt>
      <trkpt lat="43.0884760" lon="-1.7570070">
        <ele>478.407013</ele>
        <time>2014-08-17T07:48:13.000Z</time>
      </trkpt>
      <trkpt lat="43.0884780" lon="-1.7571020">
        <ele>478.467987</ele>
        <time>2014-08-17T07:48:15.000Z</time>
      </trkpt>
      <trkpt lat="43.0885080" lon="-1.7575270">
        <ele>478.485992</ele>
        <time>2014-08-17T07:48:23.000Z</time>
      </trkpt>
      <trkpt lat="43.0886160" lon="-1.7577040">
        <ele>478.418976</ele>
        <time>2014-08-17T07:48:27.000Z</time>
      </trkpt>
      <trkpt lat="43.0887500" lon="-1.7577340">
        <ele>478.441010</ele>
        <time>2014-08-17T07:48:30.000Z</time>
      </trkpt>
      <trkpt lat="43.0887970" lon="-1.7577300">
        <ele>478.419983</ele>
        <time>2014-08-17T07:48:31.000Z</time>
      </trkpt>
      <trkpt lat="43.0890260" lon="-1.7577380">
        <ele>478.671997</ele>
        <time>2014-08-17T07:48:36.000Z</time>
      </trkpt>
      <trkpt lat="43.0890670" lon="-1.7577510">
        <ele>478.675018</ele>
        <time>2014-08-17T07:48:37.000Z</time>
      </trkpt>
      <trkpt lat="43.0891050" lon="-1.7577710">
        <ele>478.876007</ele>
        <time>2014-08-17T07:48:38.000Z</time>
      </trkpt>
      <trkpt lat="43.0891420" lon="-1.7577970">
        <ele>478.889984</ele>
        <time>2014-08-17T07:48:39.000Z</time>
      </trkpt>
      <trkpt lat="43.0891790" lon="-1.7578330">
        <ele>478.819000</ele>
        <time>2014-08-17T07:48:40.000Z</time>
      </trkpt>
      <trkpt lat="43.0892420" lon="-1.7579150">
        <ele>479.207001</ele>
        <time>2014-08-17T07:48:42.000Z</time>
      </trkpt>
      <trkpt lat="43.0893100" lon="-1.7581800">
        <ele>479.674011</ele>
        <time>2014-08-17T07:48:47.000Z</time>
      </trkpt>
      <trkpt lat="43.0893080" lon="-1.7582370">
        <ele>480.052002</ele>
        <time>2014-08-17T07:48:48.000Z</time>
      </trkpt>
      <trkpt lat="43.0893070" lon="-1.7582880">
        <ele>480.655029</ele>
        <time>2014-08-17T07:48:49.000Z</time>
      </trkpt>
      <trkpt lat="43.0893050" lon="-1.7583380">
        <ele>481.016998</ele>
        <time>2014-08-17T07:48:50.000Z</time>
      </trkpt>
      <trkpt lat="43.0893020" lon="-1.7583890">
        <ele>481.076019</ele>
        <time>2014-08-17T07:48:51.000Z</time>
      </trkpt>
      <trkpt lat="43.0892890" lon="-1.7586070">
        <ele>481.498016</ele>
        <time>2014-08-17T07:48:55.000Z</time>
      </trkpt>
      <trkpt lat="43.0892780" lon="-1.7588230">
        <ele>481.811005</ele>
        <time>2014-08-17T07:48:59.000Z</time>
      </trkpt>
      <trkpt lat="43.0892770" lon="-1.7588730">
        <ele>482.212006</ele>
        <time>2014-08-17T07:49:00.000Z</time>
      </trkpt>
      <trkpt lat="43.0892780" lon="-1.7589200">
        <ele>482.632019</ele>
        <time>2014-08-17T07:49:01.000Z</time>
      </trkpt>
      <trkpt lat="43.0892790" lon="-1.7589720">
        <ele>483.005005</ele>
        <time>2014-08-17T07:49:02.000Z</time>
      </trkpt>
      <trkpt lat="43.0892800" lon="-1.7590280">
        <ele>483.006989</ele>
        <time>2014-08-17T07:49:03.000Z</time>
      </trkpt>
      <trkpt lat="43.0892910" lon="-1.7592980">
        <ele>483.428009</ele>
        <time>2014-08-17T07:49:08.000Z</time>
      </trkpt>
      <trkpt lat="43.0892980" lon="-1.7594070">
        <ele>483.865967</ele>
        <time>2014-08-17T07:49:10.000Z</time>
      </trkpt>
      <trkpt lat="43.0893050" lon="-1.7594630">
        <ele>484.269012</ele>
        <time>2014-08-17T07:49:11.000Z</time>
      </trkpt>
      <trkpt lat="43.0893130" lon="-1.7595160">
        <ele>484.691010</ele>
        <time>2014-08-17T07:49:12.000Z</time>
      </trkpt>
      <trkpt lat="43.0893240" lon="-1.7595700">
        <ele>485.009979</ele>
        <time>2014-08-17T07:49:13.000Z</time>
      </trkpt>
      <trkpt lat="43.0893380" lon="-1.7596210">
        <ele>485.011993</ele>
        <time>2014-08-17T07:49:14.000Z</time>
      </trkpt>
      <trkpt lat="43.0893590" lon="-1.7596700">
        <ele>485.054993</ele>
        <time>2014-08-17T07:49:15.000Z</time>
      </trkpt>
      <trkpt lat="43.0894680" lon="-1.7598170">
        <ele>485.088013</ele>
        <time>2014-08-17T07:49:19.000Z</time>
      </trkpt>
      <trkpt lat="43.0895010" lon="-1.7598440">
        <ele>485.024017</ele>
        <time>2014-08-17T07:49:20.000Z</time>
      </trkpt>
      <trkpt lat="43.0896940" lon="-1.7599350">
        <ele>485.025970</ele>
        <time>2014-08-17T07:49:25.000Z</time>
      </trkpt>
      <trkpt lat="43.0897420" lon="-1.7599240">
        <ele>485.007019</ele>
        <time>2014-08-17T07:49:26.000Z</time>
      </trkpt>
      <trkpt lat="43.0898950" lon="-1.7598130">
        <ele>485.634979</ele>
        <time>2014-08-17T07:49:30.000Z</time>
      </trkpt>
      <trkpt lat="43.0899700" lon="-1.7597400">
        <ele>486.042999</ele>
        <time>2014-08-17T07:49:32.000Z</time>
      </trkpt>
      <trkpt lat="43.0900060" lon="-1.7596970">
        <ele>486.455994</ele>
        <time>2014-08-17T07:49:33.000Z</time>
      </trkpt>
      <trkpt lat="43.0900370" lon="-1.7596510">
        <ele>487.027985</ele>
        <time>2014-08-17T07:49:34.000Z</time>
      </trkpt>
      <trkpt lat="43.0900610" lon="-1.7596080">
        <ele>487.466980</ele>
        <time>2014-08-17T07:49:35.000Z</time>
      </trkpt>
      <trkpt lat="43.0900900" lon="-1.7595690">
        <ele>487.848999</ele>
        <time>2014-08-17T07:49:36.000Z</time>
      </trkpt>
      <trkpt lat="43.0901620" lon="-1.7594460">
        <ele>488.242004</ele>
        <time>2014-08-17T07:49:39.000Z</time>
      </trkpt>
      <trkpt lat="43.0901880" lon="-1.7594050">
        <ele>488.697998</ele>
        <time>2014-08-17T07:49:40.000Z</time>
      </trkpt>
      <trkpt lat="43.0902180" lon="-1.7593690">
        <ele>489.215027</ele>
        <time>2014-08-17T07:49:41.000Z</time>
      </trkpt>
      <trkpt lat="43.0902480" lon="-1.7593340">
        <ele>489.626007</ele>
        <time>2014-08-17T07:49:42.000Z</time>
      </trkpt>
      <trkpt lat="43.0902820" lon="-1.7593020">
        <ele>490.006989</ele>
        <time>2014-08-17T07:49:43.000Z</time>
      </trkpt>
      <trkpt lat="43.0903790" lon="-1.7592080">
        <ele>490.415985</ele>
        <time>2014-08-17T07:49:46.000Z</time>
      </trkpt>
      <trkpt lat="43.0903950" lon="-1.7591810">
        <ele>490.884003</ele>
        <time>2014-08-17T07:49:47.000Z</time>
      </trkpt>
      <trkpt lat="43.0904160" lon="-1.7591620">
        <ele>491.467010</ele>
        <time>2014-08-17T07:49:48.000Z</time>
      </trkpt>
      <trkpt lat="43.0904480" lon="-1.7591480">
        <ele>491.878998</ele>
        <time>2014-08-17T07:49:49.000Z</time>
      </trkpt>
      <trkpt lat="43.0904830" lon="-1.7591400">
        <ele>492.618011</ele>
        <time>2014-08-17T07:49:50.000Z</time>
      </trkpt>
      <trkpt lat="43.0905630" lon="-1.7591430">
        <ele>493.279999</ele>
        <time>2014-08-17T07:49:52.000Z</time>
      </trkpt>
      <trkpt lat="43.0906020" lon="-1.7591510">
        <ele>493.652985</ele>
        <time>2014-08-17T07:49:53.000Z</time>
      </trkpt>
      <trkpt lat="43.0906420" lon="-1.7591580">
        <ele>494.074005</ele>
        <time>2014-08-17T07:49:54.000Z</time>
      </trkpt>
      <trkpt lat="43.0906830" lon="-1.7591620">
        <ele>494.055969</ele>
        <time>2014-08-17T07:49:55.000Z</time>
      </trkpt>
      <trkpt lat="43.0908430" lon="-1.7591610">
        <ele>494.020996</ele>
        <time>2014-08-17T07:49:59.000Z</time>
      </trkpt>
      <trkpt lat="43.0909160" lon="-1.7591320">
        <ele>494.406982</ele>
        <time>2014-08-17T07:50:01.000Z</time>
      </trkpt>
      <trkpt lat="43.0909960" lon="-1.7590730">
        <ele>494.874023</ele>
        <time>2014-08-17T07:50:03.000Z</time>
      </trkpt>
      <trkpt lat="43.0910300" lon="-1.7590260">
        <ele>495.472015</ele>
        <time>2014-08-17T07:50:04.000Z</time>
      </trkpt>
      <trkpt lat="43.0910570" lon="-1.7589760">
        <ele>495.885010</ele>
        <time>2014-08-17T07:50:05.000Z</time>
      </trkpt>
      <trkpt lat="43.0910780" lon="-1.7589220">
        <ele>496.296997</ele>
        <time>2014-08-17T07:50:06.000Z</time>
      </trkpt>
      <trkpt lat="43.0910950" lon="-1.7588630">
        <ele>496.236023</ele>
        <time>2014-08-17T07:50:07.000Z</time>
      </trkpt>
      <trkpt lat="43.0910970" lon="-1.7587020">
        <ele>496.698029</ele>
        <time>2014-08-17T07:50:10.000Z</time>
      </trkpt>
      <trkpt lat="43.0910830" lon="-1.7586010">
        <ele>497.040985</ele>
        <time>2014-08-17T07:50:12.000Z</time>
      </trkpt>
      <trkpt lat="43.0910840" lon="-1.7585510">
        <ele>497.457001</ele>
        <time>2014-08-17T07:50:13.000Z</time>
      </trkpt>
      <trkpt lat="43.0910870" lon="-1.7585000">
        <ele>497.800018</ele>
        <time>2014-08-17T07:50:14.000Z</time>
      </trkpt>
      <trkpt lat="43.0910850" lon="-1.7584520">
        <ele>498.220001</ele>
        <time>2014-08-17T07:50:15.000Z</time>
      </trkpt>
      <trkpt lat="43.0910820" lon="-1.7584050">
        <ele>498.606995</ele>
        <time>2014-08-17T07:50:16.000Z</time>
      </trkpt>
      <trkpt lat="43.0910910" lon="-1.7581700">
        <ele>499.292023</ele>
        <time>2014-08-17T07:50:21.000Z</time>
      </trkpt>
      <trkpt lat="43.0910910" lon="-1.7581250">
        <ele>499.670013</ele>
        <time>2014-08-17T07:50:22.000Z</time>
      </trkpt>
      <trkpt lat="43.0910930" lon="-1.7580800">
        <ele>500.042999</ele>
        <time>2014-08-17T07:50:23.000Z</time>
      </trkpt>
      <trkpt lat="43.0910950" lon="-1.7580350">
        <ele>500.425018</ele>
        <time>2014-08-17T07:50:24.000Z</time>
      </trkpt>
      <trkpt lat="43.0911000" lon="-1.7579920">
        <ele>500.434021</ele>
        <time>2014-08-17T07:50:25.000Z</time>
      </trkpt>
      <trkpt lat="43.0911600" lon="-1.7577710">
        <ele>500.865997</ele>
        <time>2014-08-17T07:50:30.000Z</time>
      </trkpt>
      <trkpt lat="43.0911920" lon="-1.7576880">
        <ele>501.299011</ele>
        <time>2014-08-17T07:50:32.000Z</time>
      </trkpt>
      <trkpt lat="43.0912100" lon="-1.7576470">
        <ele>501.686005</ele>
        <time>2014-08-17T07:50:33.000Z</time>
      </trkpt>
      <trkpt lat="43.0912250" lon="-1.7576040">
        <ele>502.059998</ele>
        <time>2014-08-17T07:50:34.000Z</time>
      </trkpt>
      <trkpt lat="43.0912410" lon="-1.7575660">
        <ele>502.425995</ele>
        <time>2014-08-17T07:50:35.000Z</time>
      </trkpt>
      <trkpt lat="43.0912590" lon="-1.7575280">
        <ele>502.406982</ele>
        <time>2014-08-17T07:50:36.000Z</time>
      </trkpt>
      <trkpt lat="43.0913180" lon="-1.7574160">
        <ele>502.815002</ele>
        <time>2014-08-17T07:50:39.000Z</time>
      </trkpt>
      <trkpt lat="43.0913600" lon="-1.7573400">
        <ele>503.813019</ele>
        <time>2014-08-17T07:50:41.000Z</time>
      </trkpt>
      <trkpt lat="43.0913810" lon="-1.7573030">
        <ele>504.295990</ele>
        <time>2014-08-17T07:50:42.000Z</time>
      </trkpt>
      <trkpt lat="43.0914020" lon="-1.7572670">
        <ele>504.638000</ele>
        <time>2014-08-17T07:50:43.000Z</time>
      </trkpt>
      <trkpt lat="43.0914210" lon="-1.7572320">
        <ele>504.647003</ele>
        <time>2014-08-17T07:50:44.000Z</time>
      </trkpt>
      <trkpt lat="43.0914850" lon="-1.7571330">
        <ele>505.058990</ele>
        <time>2014-08-17T07:50:47.000Z</time>
      </trkpt>
      <trkpt lat="43.0915360" lon="-1.7570750">
        <ele>505.492004</ele>
        <time>2014-08-17T07:50:49.000Z</time>
      </trkpt>
      <trkpt lat="43.0915630" lon="-1.7570450">
        <ele>505.822998</ele>
        <time>2014-08-17T07:50:50.000Z</time>
      </trkpt>
      <trkpt lat="43.0915870" lon="-1.7570130">
        <ele>506.282990</ele>
        <time>2014-08-17T07:50:51.000Z</time>
      </trkpt>
      <trkpt lat="43.0916110" lon="-1.7569820">
        <ele>506.811005</ele>
        <time>2014-08-17T07:50:52.000Z</time>
      </trkpt>
      <trkpt lat="43.0916390" lon="-1.7569540">
        <ele>507.207001</ele>
        <time>2014-08-17T07:50:53.000Z</time>
      </trkpt>
      <trkpt lat="43.0917460" lon="-1.7568340">
        <ele>507.679016</ele>
        <time>2014-08-17T07:50:57.000Z</time>
      </trkpt>
      <trkpt lat="43.0917700" lon="-1.7567980">
        <ele>508.037018</ele>
        <time>2014-08-17T07:50:58.000Z</time>
      </trkpt>
      <trkpt lat="43.0917920" lon="-1.7567600">
        <ele>508.619995</ele>
        <time>2014-08-17T07:50:59.000Z</time>
      </trkpt>
      <trkpt lat="43.0918160" lon="-1.7567200">
        <ele>509.092010</ele>
        <time>2014-08-17T07:51:00.000Z</time>
      </trkpt>
      <trkpt lat="43.0918410" lon="-1.7566840">
        <ele>509.020996</ele>
        <time>2014-08-17T07:51:01.000Z</time>
      </trkpt>
      <trkpt lat="43.0919180" lon="-1.7565810">
        <ele>509.442993</ele>
        <time>2014-08-17T07:51:04.000Z</time>
      </trkpt>
      <trkpt lat="43.0919440" lon="-1.7565430">
        <ele>510.455994</ele>
        <time>2014-08-17T07:51:05.000Z</time>
      </trkpt>
      <trkpt lat="43.0919690" lon="-1.7565090">
        <ele>510.873993</ele>
        <time>2014-08-17T07:51:06.000Z</time>
      </trkpt>
      <trkpt lat="43.0919920" lon="-1.7564770">
        <ele>511.256012</ele>
        <time>2014-08-17T07:51:07.000Z</time>
      </trkpt>
      <trkpt lat="43.0920150" lon="-1.7564460">
        <ele>511.221008</ele>
        <time>2014-08-17T07:51:08.000Z</time>
      </trkpt>
      <trkpt lat="43.0920880" lon="-1.7563500">
        <ele>511.606995</ele>
        <time>2014-08-17T07:51:11.000Z</time>
      </trkpt>
      <trkpt lat="43.0921130" lon="-1.7563170">
        <ele>512.084045</ele>
        <time>2014-08-17T07:51:12.000Z</time>
      </trkpt>
      <trkpt lat="43.0921410" lon="-1.7562850">
        <ele>512.612000</ele>
        <time>2014-08-17T07:51:13.000Z</time>
      </trkpt>
      <trkpt lat="43.0921670" lon="-1.7562540">
        <ele>513.015015</ele>
        <time>2014-08-17T07:51:14.000Z</time>
      </trkpt>
      <trkpt lat="43.0921930" lon="-1.7562240">
        <ele>513.497009</ele>
        <time>2014-08-17T07:51:15.000Z</time>
      </trkpt>
      <trkpt lat="43.0922180" lon="-1.7561920">
        <ele>513.875977</ele>
        <time>2014-08-17T07:51:16.000Z</time>
      </trkpt>
      <trkpt lat="43.0922940" lon="-1.7560980">
        <ele>514.238037</ele>
        <time>2014-08-17T07:51:19.000Z</time>
      </trkpt>
      <trkpt lat="43.0923210" lon="-1.7560650">
        <ele>514.630981</ele>
        <time>2014-08-17T07:51:20.000Z</time>
      </trkpt>
      <trkpt lat="43.0923450" lon="-1.7560330">
        <ele>515.234985</ele>
        <time>2014-08-17T07:51:21.000Z</time>
      </trkpt>
      <trkpt lat="43.0923710" lon="-1.7560030">
        <ele>515.685974</ele>
        <time>2014-08-17T07:51:22.000Z</time>
      </trkpt>
      <trkpt lat="43.0923960" lon="-1.7559700">
        <ele>515.614014</ele>
        <time>2014-08-17T07:51:23.000Z</time>
      </trkpt>
      <trkpt lat="43.0924720" lon="-1.7558750">
        <ele>516.007019</ele>
        <time>2014-08-17T07:51:26.000Z</time>
      </trkpt>
      <trkpt lat="43.0925240" lon="-1.7558190">
        <ele>516.460022</ele>
        <time>2014-08-17T07:51:28.000Z</time>
      </trkpt>
      <trkpt lat="43.0925490" lon="-1.7557870">
        <ele>516.867981</ele>
        <time>2014-08-17T07:51:29.000Z</time>
      </trkpt>
      <trkpt lat="43.0925750" lon="-1.7557600">
        <ele>517.680969</ele>
        <time>2014-08-17T07:51:30.000Z</time>
      </trkpt>
      <trkpt lat="43.0926000" lon="-1.7557360">
        <ele>517.692993</ele>
        <time>2014-08-17T07:51:31.000Z</time>
      </trkpt>
      <trkpt lat="43.0926490" lon="-1.7556910">
        <ele>518.072021</ele>
        <time>2014-08-17T07:51:33.000Z</time>
      </trkpt>
      <trkpt lat="43.0926750" lon="-1.7556760">
        <ele>518.473999</ele>
        <time>2014-08-17T07:51:34.000Z</time>
      </trkpt>
      <trkpt lat="43.0927000" lon="-1.7556620">
        <ele>518.817017</ele>
        <time>2014-08-17T07:51:35.000Z</time>
      </trkpt>
      <trkpt lat="43.0927260" lon="-1.7556490">
        <ele>519.411011</ele>
        <time>2014-08-17T07:51:36.000Z</time>
      </trkpt>
      <trkpt lat="43.0927510" lon="-1.7556370">
        <ele>519.820984</ele>
        <time>2014-08-17T07:51:37.000Z</time>
      </trkpt>
      <trkpt lat="43.0927780" lon="-1.7556240">
        <ele>520.203003</ele>
        <time>2014-08-17T07:51:38.000Z</time>
      </trkpt>
      <trkpt lat="43.0928800" lon="-1.7555990">
        <ele>520.606995</ele>
        <time>2014-08-17T07:51:42.000Z</time>
      </trkpt>
      <trkpt lat="43.0929100" lon="-1.7555960">
        <ele>521.038025</ele>
        <time>2014-08-17T07:51:43.000Z</time>
      </trkpt>
      <trkpt lat="43.0929380" lon="-1.7555940">
        <ele>521.436035</ele>
        <time>2014-08-17T07:51:44.000Z</time>
      </trkpt>
      <trkpt lat="43.0929660" lon="-1.7555930">
        <ele>521.838989</ele>
        <time>2014-08-17T07:51:45.000Z</time>
      </trkpt>
      <trkpt lat="43.0929950" lon="-1.7555890">
        <ele>522.241028</ele>
        <time>2014-08-17T07:51:46.000Z</time>
      </trkpt>
      <trkpt lat="43.0931410" lon="-1.7555560">
        <ele>522.840027</ele>
        <time>2014-08-17T07:51:51.000Z</time>
      </trkpt>
      <trkpt lat="43.0931690" lon="-1.7555430">
        <ele>523.252014</ele>
        <time>2014-08-17T07:51:52.000Z</time>
      </trkpt>
      <trkpt lat="43.0931970" lon="-1.7555270">
        <ele>523.695007</ele>
        <time>2014-08-17T07:51:53.000Z</time>
      </trkpt>
      <trkpt lat="43.0932230" lon="-1.7555060">
        <ele>524.072021</ele>
        <time>2014-08-17T07:51:54.000Z</time>
      </trkpt>
      <trkpt lat="43.0932490" lon="-1.7554850">
        <ele>524.013000</ele>
        <time>2014-08-17T07:51:55.000Z</time>
      </trkpt>
      <trkpt lat="43.0932740" lon="-1.7554580">
        <ele>524.414001</ele>
        <time>2014-08-17T07:51:56.000Z</time>
      </trkpt>
      <trkpt lat="43.0933510" lon="-1.7553330">
        <ele>524.807007</ele>
        <time>2014-08-17T07:52:00.000Z</time>
      </trkpt>
      <trkpt lat="43.0933700" lon="-1.7553010">
        <ele>525.234009</ele>
        <time>2014-08-17T07:52:01.000Z</time>
      </trkpt>
      <trkpt lat="43.0933860" lon="-1.7552710">
        <ele>525.682007</ele>
        <time>2014-08-17T07:52:02.000Z</time>
      </trkpt>
      <trkpt lat="43.0934010" lon="-1.7552400">
        <ele>526.224976</ele>
        <time>2014-08-17T07:52:03.000Z</time>
      </trkpt>
      <trkpt lat="43.0934150" lon="-1.7552040">
        <ele>526.286987</ele>
        <time>2014-08-17T07:52:04.000Z</time>
      </trkpt>
      <trkpt lat="43.0934600" lon="-1.7550950">
        <ele>526.685974</ele>
        <time>2014-08-17T07:52:07.000Z</time>
      </trkpt>
      <trkpt lat="43.0935120" lon="-1.7549940">
        <ele>527.097961</ele>
        <time>2014-08-17T07:52:10.000Z</time>
      </trkpt>
      <trkpt lat="43.0935310" lon="-1.7549600">
        <ele>527.491028</ele>
        <time>2014-08-17T07:52:11.000Z</time>
      </trkpt>
      <trkpt lat="43.0935510" lon="-1.7549250">
        <ele>527.854004</ele>
        <time>2014-08-17T07:52:12.000Z</time>
      </trkpt>
      <trkpt lat="43.0935690" lon="-1.7548930">
        <ele>528.256042</ele>
        <time>2014-08-17T07:52:13.000Z</time>
      </trkpt>
      <trkpt lat="43.0935880" lon="-1.7548540">
        <ele>528.210999</ele>
        <time>2014-08-17T07:52:14.000Z</time>
      </trkpt>
      <trkpt lat="43.0936210" lon="-1.7547800">
        <ele>528.606995</ele>
        <time>2014-08-17T07:52:16.000Z</time>
      </trkpt>
      <trkpt lat="43.0936840" lon="-1.7546320">
        <ele>529.072021</ele>
        <time>2014-08-17T07:52:20.000Z</time>
      </trkpt>
      <trkpt lat="43.0936980" lon="-1.7545940">
        <ele>529.440002</ele>
        <time>2014-08-17T07:52:21.000Z</time>
      </trkpt>
      <trkpt lat="43.0937120" lon="-1.7545530">
        <ele>529.853027</ele>
        <time>2014-08-17T07:52:22.000Z</time>
      </trkpt>
      <trkpt lat="43.0937290" lon="-1.7545100">
        <ele>530.225037</ele>
        <time>2014-08-17T07:52:23.000Z</time>
      </trkpt>
      <trkpt lat="43.0937480" lon="-1.7544680">
        <ele>530.694031</ele>
        <time>2014-08-17T07:52:24.000Z</time>
      </trkpt>
      <trkpt lat="43.0938770" lon="-1.7542290">
        <ele>531.085999</ele>
        <time>2014-08-17T07:52:30.000Z</time>
      </trkpt>
      <trkpt lat="43.0938990" lon="-1.7541940">
        <ele>531.439026</ele>
        <time>2014-08-17T07:52:31.000Z</time>
      </trkpt>
      <trkpt lat="43.0939170" lon="-1.7541550">
        <ele>532.023987</ele>
        <time>2014-08-17T07:52:32.000Z</time>
      </trkpt>
      <trkpt lat="43.0939360" lon="-1.7541160">
        <ele>532.403992</ele>
        <time>2014-08-17T07:52:33.000Z</time>
      </trkpt>
      <trkpt lat="43.0939560" lon="-1.7540810">
        <ele>532.414001</ele>
        <time>2014-08-17T07:52:34.000Z</time>
      </trkpt>
      <trkpt lat="43.0939900" lon="-1.7540050">
        <ele>532.807007</ele>
        <time>2014-08-17T07:52:36.000Z</time>
      </trkpt>
      <trkpt lat="43.0940110" lon="-1.7539240">
        <ele>533.258972</ele>
        <time>2014-08-17T07:52:38.000Z</time>
      </trkpt>
      <trkpt lat="43.0940220" lon="-1.7538880">
        <ele>533.666992</ele>
        <time>2014-08-17T07:52:39.000Z</time>
      </trkpt>
      <trkpt lat="43.0940340" lon="-1.7538590">
        <ele>534.039978</ele>
        <time>2014-08-17T07:52:40.000Z</time>
      </trkpt>
      <trkpt lat="43.0940480" lon="-1.7538320">
        <ele>534.481995</ele>
        <time>2014-08-17T07:52:41.000Z</time>
      </trkpt>
      <trkpt lat="43.0940630" lon="-1.7538030">
        <ele>534.820984</ele>
        <time>2014-08-17T07:52:42.000Z</time>
      </trkpt>
      <trkpt lat="43.0941370" lon="-1.7536900">
        <ele>535.263000</ele>
        <time>2014-08-17T07:52:46.000Z</time>
      </trkpt>
      <trkpt lat="43.0941560" lon="-1.7536690">
        <ele>535.895996</ele>
        <time>2014-08-17T07:52:47.000Z</time>
      </trkpt>
      <trkpt lat="43.0941730" lon="-1.7536510">
        <ele>536.231018</ele>
        <time>2014-08-17T07:52:48.000Z</time>
      </trkpt>
      <trkpt lat="43.0941890" lon="-1.7536360">
        <ele>536.661011</ele>
        <time>2014-08-17T07:52:49.000Z</time>
      </trkpt>
      <trkpt lat="43.0942030" lon="-1.7536200">
        <ele>536.606995</ele>
        <time>2014-08-17T07:52:50.000Z</time>
      </trkpt>
      <trkpt lat="43.0942420" lon="-1.7535720">
        <ele>536.606995</ele>
        <time>2014-08-17T07:52:53.000Z</time>
      </trkpt>
      <trkpt lat="43.0942830" lon="-1.7535300">
        <ele>536.609985</ele>
        <time>2014-08-17T07:52:56.000Z</time>
      </trkpt>
      <trkpt lat="43.0943150" lon="-1.7535070">
        <ele>536.658020</ele>
        <time>2014-08-17T07:52:58.000Z</time>
      </trkpt>
      <trkpt lat="43.0943300" lon="-1.7534920">
        <ele>537.080994</ele>
        <time>2014-08-17T07:52:59.000Z</time>
      </trkpt>
      <trkpt lat="43.0943500" lon="-1.7534540">
        <ele>537.453003</ele>
        <time>2014-08-17T07:53:01.000Z</time>
      </trkpt>
      <trkpt lat="43.0943620" lon="-1.7534400">
        <ele>537.892029</ele>
        <time>2014-08-17T07:53:02.000Z</time>
      </trkpt>
      <trkpt lat="43.0943730" lon="-1.7534270">
        <ele>538.243958</ele>
        <time>2014-08-17T07:53:03.000Z</time>
      </trkpt>
      <trkpt lat="43.0943830" lon="-1.7534130">
        <ele>538.656982</ele>
        <time>2014-08-17T07:53:04.000Z</time>
      </trkpt>
      <trkpt lat="43.0943930" lon="-1.7534050">
        <ele>538.629028</ele>
        <time>2014-08-17T07:53:05.000Z</time>
      </trkpt>
      <trkpt lat="43.0944030" lon="-1.7534030">
        <ele>538.600037</ele>
        <time>2014-08-17T07:53:06.000Z</time>
      </trkpt>
      <trkpt lat="43.0944450" lon="-1.7533820">
        <ele>538.619995</ele>
        <time>2014-08-17T07:53:10.000Z</time>
      </trkpt>
      <trkpt lat="43.0944880" lon="-1.7533470">
        <ele>538.606995</ele>
        <time>2014-08-17T07:53:14.000Z</time>
      </trkpt>
      <trkpt lat="43.0945060" lon="-1.7533380">
        <ele>539.088989</ele>
        <time>2014-08-17T07:53:15.000Z</time>
      </trkpt>
      <trkpt lat="43.0945230" lon="-1.7533340">
        <ele>539.427002</ele>
        <time>2014-08-17T07:53:16.000Z</time>
      </trkpt>
      <trkpt lat="43.0945400" lon="-1.7533290">
        <ele>539.880005</ele>
        <time>2014-08-17T07:53:17.000Z</time>
      </trkpt>
      <trkpt lat="43.0945560" lon="-1.7533270">
        <ele>540.262024</ele>
        <time>2014-08-17T07:53:18.000Z</time>
      </trkpt>
      <trkpt lat="43.0945730" lon="-1.7533220">
        <ele>540.630981</ele>
        <time>2014-08-17T07:53:19.000Z</time>
      </trkpt>
      <trkpt lat="43.0945860" lon="-1.7533110">
        <ele>540.622986</ele>
        <time>2014-08-17T07:53:20.000Z</time>
      </trkpt>
      <trkpt lat="43.0945980" lon="-1.7533020">
        <ele>540.635986</ele>
        <time>2014-08-17T07:53:21.000Z</time>
      </trkpt>
      <trkpt lat="43.0946490" lon="-1.7532570">
        <ele>540.635986</ele>
        <time>2014-08-17T07:53:25.000Z</time>
      </trkpt>
      <trkpt lat="43.0947000" lon="-1.7532410">
        <ele>541.217041</ele>
        <time>2014-08-17T07:53:28.000Z</time>
      </trkpt>
      <trkpt lat="43.0947310" lon="-1.7532170">
        <ele>541.617981</ele>
        <time>2014-08-17T07:53:30.000Z</time>
      </trkpt>
      <trkpt lat="43.0947460" lon="-1.7532040">
        <ele>542.007019</ele>
        <time>2014-08-17T07:53:31.000Z</time>
      </trkpt>
      <trkpt lat="43.0947640" lon="-1.7532000">
        <ele>542.459961</ele>
        <time>2014-08-17T07:53:32.000Z</time>
      </trkpt>
      <trkpt lat="43.0947790" lon="-1.7531980">
        <ele>542.847961</ele>
        <time>2014-08-17T07:53:33.000Z</time>
      </trkpt>
      <trkpt lat="43.0947930" lon="-1.7531910">
        <ele>543.651001</ele>
        <time>2014-08-17T07:53:34.000Z</time>
      </trkpt>
      <trkpt lat="43.0948090" lon="-1.7531850">
        <ele>544.252991</ele>
        <time>2014-08-17T07:53:35.000Z</time>
      </trkpt>
      <trkpt lat="43.0948240" lon="-1.7531750">
        <ele>544.671997</ele>
        <time>2014-08-17T07:53:36.000Z</time>
      </trkpt>
      <trkpt lat="43.0948400" lon="-1.7531660">
        <ele>545.073975</ele>
        <time>2014-08-17T07:53:37.000Z</time>
      </trkpt>
      <trkpt lat="43.0948570" lon="-1.7531580">
        <ele>545.096985</ele>
        <time>2014-08-17T07:53:38.000Z</time>
      </trkpt>
      <trkpt lat="43.0948710" lon="-1.7531490">
        <ele>545.023987</ele>
        <time>2014-08-17T07:53:39.000Z</time>
      </trkpt>
      <trkpt lat="43.0949720" lon="-1.7531090">
        <ele>545.004028</ele>
        <time>2014-08-17T07:53:45.000Z</time>
      </trkpt>
      <trkpt lat="43.0950250" lon="-1.7530970">
        <ele>545.013977</ele>
        <time>2014-08-17T07:53:48.000Z</time>
      </trkpt>
      <trkpt lat="43.0950990" lon="-1.7530960">
        <ele>545.007019</ele>
        <time>2014-08-17T07:53:52.000Z</time>
      </trkpt>
      <trkpt lat="43.0952190" lon="-1.7531480">
        <ele>545.028992</ele>
        <time>2014-08-17T07:53:58.000Z</time>
      </trkpt>
      <trkpt lat="43.0952880" lon="-1.7531800">
        <ele>545.476990</ele>
        <time>2014-08-17T07:54:01.000Z</time>
      </trkpt>
      <trkpt lat="43.0953530" lon="-1.7532190">
        <ele>545.880005</ele>
        <time>2014-08-17T07:54:04.000Z</time>
      </trkpt>
      <trkpt lat="43.0953780" lon="-1.7532290">
        <ele>546.291992</ele>
        <time>2014-08-17T07:54:05.000Z</time>
      </trkpt>
      <trkpt lat="43.0954030" lon="-1.7532400">
        <ele>546.610962</ele>
        <time>2014-08-17T07:54:06.000Z</time>
      </trkpt>
      <trkpt lat="43.0954290" lon="-1.7532560">
        <ele>547.062988</ele>
        <time>2014-08-17T07:54:07.000Z</time>
      </trkpt>
      <trkpt lat="43.0954540" lon="-1.7532700">
        <ele>547.085999</ele>
        <time>2014-08-17T07:54:08.000Z</time>
      </trkpt>
      <trkpt lat="43.0955330" lon="-1.7533230">
        <ele>547.013000</ele>
        <time>2014-08-17T07:54:12.000Z</time>
      </trkpt>
      <trkpt lat="43.0957070" lon="-1.7534350">
        <ele>547.043030</ele>
        <time>2014-08-17T07:54:19.000Z</time>
      </trkpt>
      <trkpt lat="43.0958940" lon="-1.7535030">
        <ele>547.006958</ele>
        <time>2014-08-17T07:54:25.000Z</time>
      </trkpt>
      <trkpt lat="43.0959180" lon="-1.7535060">
        <ele>547.006958</ele>
        <time>2014-08-17T07:54:26.000Z</time>
      </trkpt>
      <trkpt lat="43.0959970" lon="-1.7535130">
        <ele>547.078003</ele>
        <time>2014-08-17T07:54:29.000Z</time>
      </trkpt>
      <trkpt lat="43.0960660" lon="-1.7535120">
        <ele>547.055969</ele>
        <time>2014-08-17T07:54:31.000Z</time>
      </trkpt>
      <trkpt lat="43.0961000" lon="-1.7535100">
        <ele>547.069031</ele>
        <time>2014-08-17T07:54:32.000Z</time>
      </trkpt>
      <trkpt lat="43.0961700" lon="-1.7534980">
        <ele>547.411011</ele>
        <time>2014-08-17T07:54:34.000Z</time>
      </trkpt>
      <trkpt lat="43.0962440" lon="-1.7534770">
        <ele>547.890015</ele>
        <time>2014-08-17T07:54:36.000Z</time>
      </trkpt>
      <trkpt lat="43.0962810" lon="-1.7534700">
        <ele>548.242004</ele>
        <time>2014-08-17T07:54:37.000Z</time>
      </trkpt>
      <trkpt lat="43.0963190" lon="-1.7534660">
        <ele>548.674988</ele>
        <time>2014-08-17T07:54:38.000Z</time>
      </trkpt>
      <trkpt lat="43.0963630" lon="-1.7534580">
        <ele>549.091003</ele>
        <time>2014-08-17T07:54:39.000Z</time>
      </trkpt>
      <trkpt lat="43.0964150" lon="-1.7534530">
        <ele>549.080994</ele>
        <time>2014-08-17T07:54:40.000Z</time>
      </trkpt>
      <trkpt lat="43.0964660" lon="-1.7534550">
        <ele>549.018982</ele>
        <time>2014-08-17T07:54:41.000Z</time>
      </trkpt>
      <trkpt lat="43.0966080" lon="-1.7535180">
        <ele>549.406982</ele>
        <time>2014-08-17T07:54:44.000Z</time>
      </trkpt>
      <trkpt lat="43.0966960" lon="-1.7536710">
        <ele>550.226013</ele>
        <time>2014-08-17T07:54:47.000Z</time>
      </trkpt>
      <trkpt lat="43.0967120" lon="-1.7537380">
        <ele>550.674011</ele>
        <time>2014-08-17T07:54:48.000Z</time>
      </trkpt>
      <trkpt lat="43.0967230" lon="-1.7538070">
        <ele>551.096985</ele>
        <time>2014-08-17T07:54:49.000Z</time>
      </trkpt>
      <trkpt lat="43.0967290" lon="-1.7538790">
        <ele>551.059021</ele>
        <time>2014-08-17T07:54:50.000Z</time>
      </trkpt>
      <trkpt lat="43.0967340" lon="-1.7540260">
        <ele>551.018005</ele>
        <time>2014-08-17T07:54:52.000Z</time>
      </trkpt>
      <trkpt lat="43.0967350" lon="-1.7540970">
        <ele>551.029968</ele>
        <time>2014-08-17T07:54:53.000Z</time>
      </trkpt>
      <trkpt lat="43.0967530" lon="-1.7545950">
        <ele>551.482971</ele>
        <time>2014-08-17T07:55:00.000Z</time>
      </trkpt>
      <trkpt lat="43.0967560" lon="-1.7546620">
        <ele>551.854004</ele>
        <time>2014-08-17T07:55:01.000Z</time>
      </trkpt>
      <trkpt lat="43.0967610" lon="-1.7547320">
        <ele>552.255981</ele>
        <time>2014-08-17T07:55:02.000Z</time>
      </trkpt>
      <trkpt lat="43.0967660" lon="-1.7548020">
        <ele>552.810974</ele>
        <time>2014-08-17T07:55:03.000Z</time>
      </trkpt>
      <trkpt lat="43.0967720" lon="-1.7548720">
        <ele>553.207031</ele>
        <time>2014-08-17T07:55:04.000Z</time>
      </trkpt>
      <trkpt lat="43.0967770" lon="-1.7549460">
        <ele>553.231995</ele>
        <time>2014-08-17T07:55:05.000Z</time>
      </trkpt>
      <trkpt lat="43.0967800" lon="-1.7551630">
        <ele>553.280029</ele>
        <time>2014-08-17T07:55:08.000Z</time>
      </trkpt>
      <trkpt lat="43.0967010" lon="-1.7555870">
        <ele>553.293030</ele>
        <time>2014-08-17T07:55:14.000Z</time>
      </trkpt>
      <trkpt lat="43.0966750" lon="-1.7556580">
        <ele>553.234985</ele>
        <time>2014-08-17T07:55:15.000Z</time>
      </trkpt>
      <trkpt lat="43.0965580" lon="-1.7559420">
        <ele>553.254028</ele>
        <time>2014-08-17T07:55:19.000Z</time>
      </trkpt>
      <trkpt lat="43.0964560" lon="-1.7562390">
        <ele>553.236023</ele>
        <time>2014-08-17T07:55:23.000Z</time>
      </trkpt>
      <trkpt lat="43.0964220" lon="-1.7563800">
        <ele>553.229004</ele>
        <time>2014-08-17T07:55:25.000Z</time>
      </trkpt>
      <trkpt lat="43.0964190" lon="-1.7564550">
        <ele>553.221008</ele>
        <time>2014-08-17T07:55:26.000Z</time>
      </trkpt>
      <trkpt lat="43.0964400" lon="-1.7566240">
        <ele>553.640991</ele>
        <time>2014-08-17T07:55:28.000Z</time>
      </trkpt>
      <trkpt lat="43.0964830" lon="-1.7571260">
        <ele>554.005005</ele>
        <time>2014-08-17T07:55:34.000Z</time>
      </trkpt>
      <trkpt lat="43.0964820" lon="-1.7572060">
        <ele>554.407043</ele>
        <time>2014-08-17T07:55:35.000Z</time>
      </trkpt>
      <trkpt lat="43.0964810" lon="-1.7572900">
        <ele>554.869019</ele>
        <time>2014-08-17T07:55:36.000Z</time>
      </trkpt>
      <trkpt lat="43.0964780" lon="-1.7573690">
        <ele>555.217041</ele>
        <time>2014-08-17T07:55:37.000Z</time>
      </trkpt>
      <trkpt lat="43.0964740" lon="-1.7574530">
        <ele>555.280029</ele>
        <time>2014-08-17T07:55:38.000Z</time>
      </trkpt>
      <trkpt lat="43.0964550" lon="-1.7576090">
        <ele>555.231995</ele>
        <time>2014-08-17T07:55:40.000Z</time>
      </trkpt>
      <trkpt lat="43.0963220" lon="-1.7581370">
        <ele>555.270996</ele>
        <time>2014-08-17T07:55:47.000Z</time>
      </trkpt>
      <trkpt lat="43.0962270" lon="-1.7585060">
        <ele>555.292969</ele>
        <time>2014-08-17T07:55:52.000Z</time>
      </trkpt>
      <trkpt lat="43.0961980" lon="-1.7586620">
        <ele>555.276001</ele>
        <time>2014-08-17T07:55:54.000Z</time>
      </trkpt>
      <trkpt lat="43.0961830" lon="-1.7588080">
        <ele>555.676025</ele>
        <time>2014-08-17T07:55:56.000Z</time>
      </trkpt>
      <trkpt lat="43.0961810" lon="-1.7588780">
        <ele>556.090027</ele>
        <time>2014-08-17T07:55:57.000Z</time>
      </trkpt>
      <trkpt lat="43.0961850" lon="-1.7589500">
        <ele>556.419006</ele>
        <time>2014-08-17T07:55:58.000Z</time>
      </trkpt>
      <trkpt lat="43.0961940" lon="-1.7590250">
        <ele>556.807007</ele>
        <time>2014-08-17T07:55:59.000Z</time>
      </trkpt>
      <trkpt lat="43.0962080" lon="-1.7590990">
        <ele>557.473999</ele>
        <time>2014-08-17T07:56:00.000Z</time>
      </trkpt>
      <trkpt lat="43.0962280" lon="-1.7591700">
        <ele>557.462036</ele>
        <time>2014-08-17T07:56:01.000Z</time>
      </trkpt>
      <trkpt lat="43.0962910" lon="-1.7593860">
        <ele>557.484985</ele>
        <time>2014-08-17T07:56:04.000Z</time>
      </trkpt>
      <trkpt lat="43.0963060" lon="-1.7594570">
        <ele>557.877014</ele>
        <time>2014-08-17T07:56:05.000Z</time>
      </trkpt>
      <trkpt lat="43.0963400" lon="-1.7597410">
        <ele>558.216003</ele>
        <time>2014-08-17T07:56:09.000Z</time>
      </trkpt>
      <trkpt lat="43.0963420" lon="-1.7598090">
        <ele>558.658020</ele>
        <time>2014-08-17T07:56:10.000Z</time>
      </trkpt>
      <trkpt lat="43.0963440" lon="-1.7598750">
        <ele>559.041016</ele>
        <time>2014-08-17T07:56:11.000Z</time>
      </trkpt>
      <trkpt lat="43.0963420" lon="-1.7599420">
        <ele>559.494995</ele>
        <time>2014-08-17T07:56:12.000Z</time>
      </trkpt>
      <trkpt lat="43.0963380" lon="-1.7600080">
        <ele>559.449036</ele>
        <time>2014-08-17T07:56:13.000Z</time>
      </trkpt>
      <trkpt lat="43.0963380" lon="-1.7600750">
        <ele>559.423035</ele>
        <time>2014-08-17T07:56:14.000Z</time>
      </trkpt>
      <trkpt lat="43.0963300" lon="-1.7601420">
        <ele>559.406982</ele>
        <time>2014-08-17T07:56:15.000Z</time>
      </trkpt>
      <trkpt lat="43.0963140" lon="-1.7603400">
        <ele>559.855957</ele>
        <time>2014-08-17T07:56:18.000Z</time>
      </trkpt>
      <trkpt lat="43.0963060" lon="-1.7604060">
        <ele>560.283997</ele>
        <time>2014-08-17T07:56:19.000Z</time>
      </trkpt>
      <trkpt lat="43.0962990" lon="-1.7604690">
        <ele>560.677002</ele>
        <time>2014-08-17T07:56:20.000Z</time>
      </trkpt>
      <trkpt lat="43.0962900" lon="-1.7605320">
        <ele>561.049011</ele>
        <time>2014-08-17T07:56:21.000Z</time>
      </trkpt>
      <trkpt lat="43.0962860" lon="-1.7605890">
        <ele>561.468018</ele>
        <time>2014-08-17T07:56:22.000Z</time>
      </trkpt>
      <trkpt lat="43.0962760" lon="-1.7606540">
        <ele>561.489990</ele>
        <time>2014-08-17T07:56:23.000Z</time>
      </trkpt>
      <trkpt lat="43.0962710" lon="-1.7607110">
        <ele>561.442993</ele>
        <time>2014-08-17T07:56:24.000Z</time>
      </trkpt>
      <trkpt lat="43.0962490" lon="-1.7608320">
        <ele>561.427979</ele>
        <time>2014-08-17T07:56:26.000Z</time>
      </trkpt>
      <trkpt lat="43.0961990" lon="-1.7610300">
        <ele>561.489014</ele>
        <time>2014-08-17T07:56:29.000Z</time>
      </trkpt>
      <trkpt lat="43.0961820" lon="-1.7610920">
        <ele>561.816956</ele>
        <time>2014-08-17T07:56:30.000Z</time>
      </trkpt>
      <trkpt lat="43.0961660" lon="-1.7611550">
        <ele>562.206970</ele>
        <time>2014-08-17T07:56:31.000Z</time>
      </trkpt>
      <trkpt lat="43.0961510" lon="-1.7612140">
        <ele>562.619019</ele>
        <time>2014-08-17T07:56:32.000Z</time>
      </trkpt>
      <trkpt lat="43.0961370" lon="-1.7612740">
        <ele>563.096985</ele>
        <time>2014-08-17T07:56:33.000Z</time>
      </trkpt>
      <trkpt lat="43.0961200" lon="-1.7613320">
        <ele>563.619995</ele>
        <time>2014-08-17T07:56:34.000Z</time>
      </trkpt>
      <trkpt lat="43.0961070" lon="-1.7613860">
        <ele>563.632019</ele>
        <time>2014-08-17T07:56:35.000Z</time>
      </trkpt>
      <trkpt lat="43.0960530" lon="-1.7616670">
        <ele>564.080994</ele>
        <time>2014-08-17T07:56:40.000Z</time>
      </trkpt>
      <trkpt lat="43.0960100" lon="-1.7618330">
        <ele>564.473022</ele>
        <time>2014-08-17T07:56:43.000Z</time>
      </trkpt>
      <trkpt lat="43.0959930" lon="-1.7618830">
        <ele>564.825989</ele>
        <time>2014-08-17T07:56:44.000Z</time>
      </trkpt>
      <trkpt lat="43.0959790" lon="-1.7619310">
        <ele>565.255005</ele>
        <time>2014-08-17T07:56:45.000Z</time>
      </trkpt>
      <trkpt lat="43.0959680" lon="-1.7619840">
        <ele>565.606995</ele>
        <time>2014-08-17T07:56:46.000Z</time>
      </trkpt>
      <trkpt lat="43.0959590" lon="-1.7620400">
        <ele>565.617004</ele>
        <time>2014-08-17T07:56:47.000Z</time>
      </trkpt>
      <trkpt lat="43.0959450" lon="-1.7620930">
        <ele>565.606995</ele>
        <time>2014-08-17T07:56:48.000Z</time>
      </trkpt>
      <trkpt lat="43.0958890" lon="-1.7623000">
        <ele>566.022034</ele>
        <time>2014-08-17T07:56:52.000Z</time>
      </trkpt>
      <trkpt lat="43.0958750" lon="-1.7623520">
        <ele>566.440002</ele>
        <time>2014-08-17T07:56:53.000Z</time>
      </trkpt>
      <trkpt lat="43.0958630" lon="-1.7624020">
        <ele>567.033020</ele>
        <time>2014-08-17T07:56:54.000Z</time>
      </trkpt>
      <trkpt lat="43.0958530" lon="-1.7624560">
        <ele>567.494995</ele>
        <time>2014-08-17T07:56:55.000Z</time>
      </trkpt>
      <trkpt lat="43.0958430" lon="-1.7625110">
        <ele>567.864014</ele>
        <time>2014-08-17T07:56:56.000Z</time>
      </trkpt>
      <trkpt lat="43.0958330" lon="-1.7625610">
        <ele>567.835999</ele>
        <time>2014-08-17T07:56:57.000Z</time>
      </trkpt>
      <trkpt lat="43.0958220" lon="-1.7626140">
        <ele>568.239014</ele>
        <time>2014-08-17T07:56:58.000Z</time>
      </trkpt>
      <trkpt lat="43.0957410" lon="-1.7629980">
        <ele>568.646973</ele>
        <time>2014-08-17T07:57:05.000Z</time>
      </trkpt>
      <trkpt lat="43.0957360" lon="-1.7630500">
        <ele>569.229004</ele>
        <time>2014-08-17T07:57:06.000Z</time>
      </trkpt>
      <trkpt lat="43.0957330" lon="-1.7631050">
        <ele>569.621033</ele>
        <time>2014-08-17T07:57:07.000Z</time>
      </trkpt>
      <trkpt lat="43.0957270" lon="-1.7631600">
        <ele>570.007019</ele>
        <time>2014-08-17T07:57:08.000Z</time>
      </trkpt>
      <trkpt lat="43.0957200" lon="-1.7632110">
        <ele>570.441040</ele>
        <time>2014-08-17T07:57:09.000Z</time>
      </trkpt>
      <trkpt lat="43.0956890" lon="-1.7634270">
        <ele>570.898987</ele>
        <time>2014-08-17T07:57:13.000Z</time>
      </trkpt>
      <trkpt lat="43.0956860" lon="-1.7634760">
        <ele>571.231995</ele>
        <time>2014-08-17T07:57:14.000Z</time>
      </trkpt>
      <trkpt lat="43.0956780" lon="-1.7635290">
        <ele>572.294006</ele>
        <time>2014-08-17T07:57:15.000Z</time>
      </trkpt>
      <trkpt lat="43.0956710" lon="-1.7635790">
        <ele>572.213013</ele>
        <time>2014-08-17T07:57:16.000Z</time>
      </trkpt>
      <trkpt lat="43.0956600" lon="-1.7636810">
        <ele>572.625000</ele>
        <time>2014-08-17T07:57:18.000Z</time>
      </trkpt>
      <trkpt lat="43.0956420" lon="-1.7638360">
        <ele>573.098022</ele>
        <time>2014-08-17T07:57:21.000Z</time>
      </trkpt>
      <trkpt lat="43.0956360" lon="-1.7638810">
        <ele>573.484009</ele>
        <time>2014-08-17T07:57:22.000Z</time>
      </trkpt>
      <trkpt lat="43.0956310" lon="-1.7639300">
        <ele>573.807007</ele>
        <time>2014-08-17T07:57:23.000Z</time>
      </trkpt>
      <trkpt lat="43.0956190" lon="-1.7639800">
        <ele>574.216980</ele>
        <time>2014-08-17T07:57:24.000Z</time>
      </trkpt>
      <trkpt lat="43.0956020" lon="-1.7640370">
        <ele>574.206970</ele>
        <time>2014-08-17T07:57:25.000Z</time>
      </trkpt>
      <trkpt lat="43.0954990" lon="-1.7643910">
        <ele>574.655029</ele>
        <time>2014-08-17T07:57:32.000Z</time>
      </trkpt>
      <trkpt lat="43.0953390" lon="-1.7646650">
        <ele>575.093018</ele>
        <time>2014-08-17T07:57:38.000Z</time>
      </trkpt>
      <trkpt lat="43.0953100" lon="-1.7647090">
        <ele>575.466003</ele>
        <time>2014-08-17T07:57:39.000Z</time>
      </trkpt>
      <trkpt lat="43.0952770" lon="-1.7647540">
        <ele>575.817993</ele>
        <time>2014-08-17T07:57:40.000Z</time>
      </trkpt>
      <trkpt lat="43.0952490" lon="-1.7648000">
        <ele>576.237000</ele>
        <time>2014-08-17T07:57:41.000Z</time>
      </trkpt>
      <trkpt lat="43.0952230" lon="-1.7648400">
        <ele>576.239014</ele>
        <time>2014-08-17T07:57:42.000Z</time>
      </trkpt>
      <trkpt lat="43.0950930" lon="-1.7649940">
        <ele>576.661987</ele>
        <time>2014-08-17T07:57:46.000Z</time>
      </trkpt>
      <trkpt lat="43.0950100" lon="-1.7651130">
        <ele>577.299011</ele>
        <time>2014-08-17T07:57:49.000Z</time>
      </trkpt>
      <trkpt lat="43.0949840" lon="-1.7651530">
        <ele>577.606995</ele>
        <time>2014-08-17T07:57:50.000Z</time>
      </trkpt>
      <trkpt lat="43.0949620" lon="-1.7651930">
        <ele>578.026978</ele>
        <time>2014-08-17T07:57:51.000Z</time>
      </trkpt>
      <trkpt lat="43.0949400" lon="-1.7652400">
        <ele>578.406982</ele>
        <time>2014-08-17T07:57:52.000Z</time>
      </trkpt>
      <trkpt lat="43.0949170" lon="-1.7652910">
        <ele>578.485962</ele>
        <time>2014-08-17T07:57:53.000Z</time>
      </trkpt>
      <trkpt lat="43.0948750" lon="-1.7655100">
        <ele>578.833984</ele>
        <time>2014-08-17T07:57:57.000Z</time>
      </trkpt>
      <trkpt lat="43.0948750" lon="-1.7656170">
        <ele>579.416992</ele>
        <time>2014-08-17T07:57:59.000Z</time>
      </trkpt>
      <trkpt lat="43.0948700" lon="-1.7656690">
        <ele>579.859009</ele>
        <time>2014-08-17T07:58:00.000Z</time>
      </trkpt>
      <trkpt lat="43.0948580" lon="-1.7657240">
        <ele>580.298035</ele>
        <time>2014-08-17T07:58:01.000Z</time>
      </trkpt>
      <trkpt lat="43.0948470" lon="-1.7657810">
        <ele>580.619995</ele>
        <time>2014-08-17T07:58:02.000Z</time>
      </trkpt>
      <trkpt lat="43.0948380" lon="-1.7658320">
        <ele>580.692993</ele>
        <time>2014-08-17T07:58:03.000Z</time>
      </trkpt>
      <trkpt lat="43.0947600" lon="-1.7660750">
        <ele>581.062012</ele>
        <time>2014-08-17T07:58:08.000Z</time>
      </trkpt>
      <trkpt lat="43.0947460" lon="-1.7661140">
        <ele>581.483032</ele>
        <time>2014-08-17T07:58:09.000Z</time>
      </trkpt>
      <trkpt lat="43.0947290" lon="-1.7661600">
        <ele>581.810974</ele>
        <time>2014-08-17T07:58:10.000Z</time>
      </trkpt>
      <trkpt lat="43.0947040" lon="-1.7662100">
        <ele>582.206970</ele>
        <time>2014-08-17T07:58:11.000Z</time>
      </trkpt>
      <trkpt lat="43.0946830" lon="-1.7662570">
        <ele>582.643005</ele>
        <time>2014-08-17T07:58:12.000Z</time>
      </trkpt>
      <trkpt lat="43.0946620" lon="-1.7663020">
        <ele>583.020996</ele>
        <time>2014-08-17T07:58:13.000Z</time>
      </trkpt>
      <trkpt lat="43.0945170" lon="-1.7666440">
        <ele>583.674011</ele>
        <time>2014-08-17T07:58:20.000Z</time>
      </trkpt>
      <trkpt lat="43.0945020" lon="-1.7666930">
        <ele>584.065979</ele>
        <time>2014-08-17T07:58:21.000Z</time>
      </trkpt>
      <trkpt lat="43.0944870" lon="-1.7667490">
        <ele>584.434998</ele>
        <time>2014-08-17T07:58:22.000Z</time>
      </trkpt>
      <trkpt lat="43.0944690" lon="-1.7668000">
        <ele>584.887024</ele>
        <time>2014-08-17T07:58:23.000Z</time>
      </trkpt>
      <trkpt lat="43.0944570" lon="-1.7668570">
        <ele>584.849976</ele>
        <time>2014-08-17T07:58:24.000Z</time>
      </trkpt>
      <trkpt lat="43.0944190" lon="-1.7670670">
        <ele>585.241028</ele>
        <time>2014-08-17T07:58:28.000Z</time>
      </trkpt>
      <trkpt lat="43.0944140" lon="-1.7671180">
        <ele>585.880981</ele>
        <time>2014-08-17T07:58:29.000Z</time>
      </trkpt>
      <trkpt lat="43.0944180" lon="-1.7671620">
        <ele>586.609009</ele>
        <time>2014-08-17T07:58:30.000Z</time>
      </trkpt>
      <trkpt lat="43.0944180" lon="-1.7672110">
        <ele>587.007019</ele>
        <time>2014-08-17T07:58:31.000Z</time>
      </trkpt>
      <trkpt lat="43.0944110" lon="-1.7672600">
        <ele>587.070984</ele>
        <time>2014-08-17T07:58:32.000Z</time>
      </trkpt>
      <trkpt lat="43.0944050" lon="-1.7673020">
        <ele>587.439026</ele>
        <time>2014-08-17T07:58:33.000Z</time>
      </trkpt>
      <trkpt lat="43.0943710" lon="-1.7674620">
        <ele>588.091980</ele>
        <time>2014-08-17T07:58:37.000Z</time>
      </trkpt>
      <trkpt lat="43.0943610" lon="-1.7674990">
        <ele>588.494019</ele>
        <time>2014-08-17T07:58:38.000Z</time>
      </trkpt>
      <trkpt lat="43.0943530" lon="-1.7675370">
        <ele>588.852966</ele>
        <time>2014-08-17T07:58:39.000Z</time>
      </trkpt>
      <trkpt lat="43.0943450" lon="-1.7675730">
        <ele>589.274963</ele>
        <time>2014-08-17T07:58:40.000Z</time>
      </trkpt>
      <trkpt lat="43.0943370" lon="-1.7676070">
        <ele>589.638000</ele>
        <time>2014-08-17T07:58:41.000Z</time>
      </trkpt>
      <trkpt lat="43.0942840" lon="-1.7677930">
        <ele>590.028992</ele>
        <time>2014-08-17T07:58:46.000Z</time>
      </trkpt>
      <trkpt lat="43.0942720" lon="-1.7678320">
        <ele>590.400024</ele>
        <time>2014-08-17T07:58:47.000Z</time>
      </trkpt>
      <trkpt lat="43.0942630" lon="-1.7678700">
        <ele>591.020020</ele>
        <time>2014-08-17T07:58:48.000Z</time>
      </trkpt>
      <trkpt lat="43.0942560" lon="-1.7679080">
        <ele>591.406982</ele>
        <time>2014-08-17T07:58:49.000Z</time>
      </trkpt>
      <trkpt lat="43.0942460" lon="-1.7679460">
        <ele>591.838989</ele>
        <time>2014-08-17T07:58:50.000Z</time>
      </trkpt>
      <trkpt lat="43.0941980" lon="-1.7681750">
        <ele>592.276978</ele>
        <time>2014-08-17T07:58:56.000Z</time>
      </trkpt>
      <trkpt lat="43.0941930" lon="-1.7682160">
        <ele>592.690002</ele>
        <time>2014-08-17T07:58:57.000Z</time>
      </trkpt>
      <trkpt lat="43.0941910" lon="-1.7682560">
        <ele>593.082031</ele>
        <time>2014-08-17T07:58:58.000Z</time>
      </trkpt>
      <trkpt lat="43.0941860" lon="-1.7682990">
        <ele>593.490967</ele>
        <time>2014-08-17T07:58:59.000Z</time>
      </trkpt>
      <trkpt lat="43.0941830" lon="-1.7683390">
        <ele>593.442993</ele>
        <time>2014-08-17T07:59:00.000Z</time>
      </trkpt>
      <trkpt lat="43.0941800" lon="-1.7683800">
        <ele>593.856018</ele>
        <time>2014-08-17T07:59:01.000Z</time>
      </trkpt>
      <trkpt lat="43.0941940" lon="-1.7684990">
        <ele>594.296997</ele>
        <time>2014-08-17T07:59:04.000Z</time>
      </trkpt>
      <trkpt lat="43.0942000" lon="-1.7685380">
        <ele>594.623047</ele>
        <time>2014-08-17T07:59:05.000Z</time>
      </trkpt>
      <trkpt lat="43.0942080" lon="-1.7685800">
        <ele>595.025024</ele>
        <time>2014-08-17T07:59:06.000Z</time>
      </trkpt>
      <trkpt lat="43.0942130" lon="-1.7686240">
        <ele>595.606995</ele>
        <time>2014-08-17T07:59:07.000Z</time>
      </trkpt>
      <trkpt lat="43.0942230" lon="-1.7686670">
        <ele>596.056030</ele>
        <time>2014-08-17T07:59:08.000Z</time>
      </trkpt>
      <trkpt lat="43.0942630" lon="-1.7688910">
        <ele>596.424011</ele>
        <time>2014-08-17T07:59:13.000Z</time>
      </trkpt>
      <trkpt lat="43.0942760" lon="-1.7689340">
        <ele>596.877014</ele>
        <time>2014-08-17T07:59:14.000Z</time>
      </trkpt>
      <trkpt lat="43.0942880" lon="-1.7689750">
        <ele>597.289001</ele>
        <time>2014-08-17T07:59:15.000Z</time>
      </trkpt>
      <trkpt lat="43.0942980" lon="-1.7690170">
        <ele>597.638000</ele>
        <time>2014-08-17T07:59:16.000Z</time>
      </trkpt>
      <trkpt lat="43.0943070" lon="-1.7690610">
        <ele>597.669983</ele>
        <time>2014-08-17T07:59:17.000Z</time>
      </trkpt>
      <trkpt lat="43.0943140" lon="-1.7691970">
        <ele>598.033020</ele>
        <time>2014-08-17T07:59:20.000Z</time>
      </trkpt>
      <trkpt lat="43.0943010" lon="-1.7693360">
        <ele>598.656006</ele>
        <time>2014-08-17T07:59:23.000Z</time>
      </trkpt>
      <trkpt lat="43.0942950" lon="-1.7693870">
        <ele>599.058960</ele>
        <time>2014-08-17T07:59:24.000Z</time>
      </trkpt>
      <trkpt lat="43.0942850" lon="-1.7694370">
        <ele>599.414001</ele>
        <time>2014-08-17T07:59:25.000Z</time>
      </trkpt>
      <trkpt lat="43.0942730" lon="-1.7694850">
        <ele>599.807007</ele>
        <time>2014-08-17T07:59:26.000Z</time>
      </trkpt>
      <trkpt lat="43.0942520" lon="-1.7695340">
        <ele>599.892029</ele>
        <time>2014-08-17T07:59:27.000Z</time>
      </trkpt>
      <trkpt lat="43.0941630" lon="-1.7697280">
        <ele>599.809998</ele>
        <time>2014-08-17T07:59:31.000Z</time>
      </trkpt>
      <trkpt lat="43.0940890" lon="-1.7699110">
        <ele>599.882996</ele>
        <time>2014-08-17T07:59:34.000Z</time>
      </trkpt>
      <trkpt lat="43.0940580" lon="-1.7700610">
        <ele>599.835022</ele>
        <time>2014-08-17T07:59:36.000Z</time>
      </trkpt>
      <trkpt lat="43.0940530" lon="-1.7703060">
        <ele>599.893982</ele>
        <time>2014-08-17T07:59:39.000Z</time>
      </trkpt>
      <trkpt lat="43.0940550" lon="-1.7704850">
        <ele>599.286011</ele>
        <time>2014-08-17T07:59:41.000Z</time>
      </trkpt>
      <trkpt lat="43.0940670" lon="-1.7708640">
        <ele>598.898987</ele>
        <time>2014-08-17T07:59:45.000Z</time>
      </trkpt>
      <trkpt lat="43.0940760" lon="-1.7709650">
        <ele>598.471008</ele>
        <time>2014-08-17T07:59:46.000Z</time>
      </trkpt>
      <trkpt lat="43.0940890" lon="-1.7710730">
        <ele>598.041016</ele>
        <time>2014-08-17T07:59:47.000Z</time>
      </trkpt>
      <trkpt lat="43.0941040" lon="-1.7711770">
        <ele>597.614990</ele>
        <time>2014-08-17T07:59:48.000Z</time>
      </trkpt>
      <trkpt lat="43.0941180" lon="-1.7712830">
        <ele>597.207031</ele>
        <time>2014-08-17T07:59:49.000Z</time>
      </trkpt>
      <trkpt lat="43.0941780" lon="-1.7716070">
        <ele>596.874023</ele>
        <time>2014-08-17T07:59:52.000Z</time>
      </trkpt>
      <trkpt lat="43.0941980" lon="-1.7717150">
        <ele>596.442017</ele>
        <time>2014-08-17T07:59:53.000Z</time>
      </trkpt>
      <trkpt lat="43.0942130" lon="-1.7718240">
        <ele>595.835022</ele>
        <time>2014-08-17T07:59:54.000Z</time>
      </trkpt>
      <trkpt lat="43.0942230" lon="-1.7719420">
        <ele>595.427002</ele>
        <time>2014-08-17T07:59:55.000Z</time>
      </trkpt>
      <trkpt lat="43.0942300" lon="-1.7720570">
        <ele>595.486023</ele>
        <time>2014-08-17T07:59:56.000Z</time>
      </trkpt>
      <trkpt lat="43.0942220" lon="-1.7721640">
        <ele>595.458008</ele>
        <time>2014-08-17T07:59:57.000Z</time>
      </trkpt>
      <trkpt lat="43.0942030" lon="-1.7722710">
        <ele>595.070984</ele>
        <time>2014-08-17T07:59:58.000Z</time>
      </trkpt>
      <trkpt lat="43.0941320" lon="-1.7725860">
        <ele>594.446960</ele>
        <time>2014-08-17T08:00:01.000Z</time>
      </trkpt>
      <trkpt lat="43.0941040" lon="-1.7726960">
        <ele>594.028992</ele>
        <time>2014-08-17T08:00:02.000Z</time>
      </trkpt>
      <trkpt lat="43.0940740" lon="-1.7727940">
        <ele>593.421021</ele>
        <time>2014-08-17T08:00:03.000Z</time>
      </trkpt>
      <trkpt lat="43.0940330" lon="-1.7728780">
        <ele>593.007019</ele>
        <time>2014-08-17T08:00:04.000Z</time>
      </trkpt>
      <trkpt lat="43.0939640" lon="-1.7729500">
        <ele>593.010986</ele>
        <time>2014-08-17T08:00:05.000Z</time>
      </trkpt>
      <trkpt lat="43.0938680" lon="-1.7729890">
        <ele>592.468994</ele>
        <time>2014-08-17T08:00:06.000Z</time>
      </trkpt>
      <trkpt lat="43.0936880" lon="-1.7729890">
        <ele>592.071960</ele>
        <time>2014-08-17T08:00:08.000Z</time>
      </trkpt>
      <trkpt lat="43.0935980" lon="-1.7729390">
        <ele>591.234009</ele>
        <time>2014-08-17T08:00:09.000Z</time>
      </trkpt>
      <trkpt lat="43.0935210" lon="-1.7728720">
        <ele>590.872986</ele>
        <time>2014-08-17T08:00:10.000Z</time>
      </trkpt>
      <trkpt lat="43.0934490" lon="-1.7727920">
        <ele>590.445007</ele>
        <time>2014-08-17T08:00:11.000Z</time>
      </trkpt>
      <trkpt lat="43.0933760" lon="-1.7727090">
        <ele>590.078003</ele>
        <time>2014-08-17T08:00:12.000Z</time>
      </trkpt>
      <trkpt lat="43.0933020" lon="-1.7726300">
        <ele>589.455017</ele>
        <time>2014-08-17T08:00:13.000Z</time>
      </trkpt>
      <trkpt lat="43.0932270" lon="-1.7725610">
        <ele>589.006958</ele>
        <time>2014-08-17T08:00:14.000Z</time>
      </trkpt>
      <trkpt lat="43.0931420" lon="-1.7725100">
        <ele>588.416992</ele>
        <time>2014-08-17T08:00:15.000Z</time>
      </trkpt>
      <trkpt lat="43.0930460" lon="-1.7724860">
        <ele>588.007019</ele>
        <time>2014-08-17T08:00:16.000Z</time>
      </trkpt>
      <trkpt lat="43.0929420" lon="-1.7724960">
        <ele>587.481995</ele>
        <time>2014-08-17T08:00:17.000Z</time>
      </trkpt>
      <trkpt lat="43.0928490" lon="-1.7725380">
        <ele>586.809998</ele>
        <time>2014-08-17T08:00:18.000Z</time>
      </trkpt>
      <trkpt lat="43.0927650" lon="-1.7726050">
        <ele>586.263000</ele>
        <time>2014-08-17T08:00:19.000Z</time>
      </trkpt>
      <trkpt lat="43.0926830" lon="-1.7726760">
        <ele>586.244995</ele>
        <time>2014-08-17T08:00:20.000Z</time>
      </trkpt>
      <trkpt lat="43.0926040" lon="-1.7727520">
        <ele>585.864014</ele>
        <time>2014-08-17T08:00:21.000Z</time>
      </trkpt>
      <trkpt lat="43.0925270" lon="-1.7728320">
        <ele>585.416016</ele>
        <time>2014-08-17T08:00:22.000Z</time>
      </trkpt>
      <trkpt lat="43.0924550" lon="-1.7729140">
        <ele>585.068970</ele>
        <time>2014-08-17T08:00:23.000Z</time>
      </trkpt>
      <trkpt lat="43.0923820" lon="-1.7729960">
        <ele>584.636963</ele>
        <time>2014-08-17T08:00:24.000Z</time>
      </trkpt>
      <trkpt lat="43.0922970" lon="-1.7730780">
        <ele>584.049011</ele>
        <time>2014-08-17T08:00:25.000Z</time>
      </trkpt>
      <trkpt lat="43.0922060" lon="-1.7731440">
        <ele>583.613037</ele>
        <time>2014-08-17T08:00:26.000Z</time>
      </trkpt>
      <trkpt lat="43.0921110" lon="-1.7731560">
        <ele>583.207031</ele>
        <time>2014-08-17T08:00:27.000Z</time>
      </trkpt>
      <trkpt lat="43.0920080" lon="-1.7731270">
        <ele>582.830017</ele>
        <time>2014-08-17T08:00:28.000Z</time>
      </trkpt>
      <trkpt lat="43.0919020" lon="-1.7730740">
        <ele>582.228027</ele>
        <time>2014-08-17T08:00:29.000Z</time>
      </trkpt>
      <trkpt lat="43.0917940" lon="-1.7729960">
        <ele>581.620972</ele>
        <time>2014-08-17T08:00:30.000Z</time>
      </trkpt>
      <trkpt lat="43.0917030" lon="-1.7729160">
        <ele>581.033020</ele>
        <time>2014-08-17T08:00:31.000Z</time>
      </trkpt>
      <trkpt lat="43.0916150" lon="-1.7728500">
        <ele>580.211975</ele>
        <time>2014-08-17T08:00:32.000Z</time>
      </trkpt>
      <trkpt lat="43.0915340" lon="-1.7727950">
        <ele>579.693970</ele>
        <time>2014-08-17T08:00:33.000Z</time>
      </trkpt>
      <trkpt lat="43.0914560" lon="-1.7727450">
        <ele>578.276978</ele>
        <time>2014-08-17T08:00:34.000Z</time>
      </trkpt>
      <trkpt lat="43.0913850" lon="-1.7727010">
        <ele>577.828979</ele>
        <time>2014-08-17T08:00:35.000Z</time>
      </trkpt>
      <trkpt lat="43.0913180" lon="-1.7726630">
        <ele>577.200012</ele>
        <time>2014-08-17T08:00:36.000Z</time>
      </trkpt>
      <trkpt lat="43.0912480" lon="-1.7726560">
        <ele>576.619995</ele>
        <time>2014-08-17T08:00:37.000Z</time>
      </trkpt>
      <trkpt lat="43.0911740" lon="-1.7726710">
        <ele>576.007019</ele>
        <time>2014-08-17T08:00:38.000Z</time>
      </trkpt>
      <trkpt lat="43.0910670" lon="-1.7727370">
        <ele>575.258972</ele>
        <time>2014-08-17T08:00:39.000Z</time>
      </trkpt>
      <trkpt lat="43.0909570" lon="-1.7728240">
        <ele>574.687012</ele>
        <time>2014-08-17T08:00:40.000Z</time>
      </trkpt>
      <trkpt lat="43.0908580" lon="-1.7729300">
        <ele>573.859985</ele>
        <time>2014-08-17T08:00:41.000Z</time>
      </trkpt>
      <trkpt lat="43.0907700" lon="-1.7730580">
        <ele>573.222046</ele>
        <time>2014-08-17T08:00:42.000Z</time>
      </trkpt>
      <trkpt lat="43.0907000" lon="-1.7732020">
        <ele>572.460999</ele>
        <time>2014-08-17T08:00:43.000Z</time>
      </trkpt>
      <trkpt lat="43.0906360" lon="-1.7733430">
        <ele>571.612976</ele>
        <time>2014-08-17T08:00:44.000Z</time>
      </trkpt>
      <trkpt lat="43.0905730" lon="-1.7734790">
        <ele>571.096008</ele>
        <time>2014-08-17T08:00:45.000Z</time>
      </trkpt>
      <trkpt lat="43.0905080" lon="-1.7736110">
        <ele>570.232971</ele>
        <time>2014-08-17T08:00:46.000Z</time>
      </trkpt>
      <trkpt lat="43.0904300" lon="-1.7737410">
        <ele>569.422974</ele>
        <time>2014-08-17T08:00:47.000Z</time>
      </trkpt>
      <trkpt lat="43.0903610" lon="-1.7738500">
        <ele>568.815002</ele>
        <time>2014-08-17T08:00:48.000Z</time>
      </trkpt>
      <trkpt lat="43.0902820" lon="-1.7739340">
        <ele>568.007019</ele>
        <time>2014-08-17T08:00:49.000Z</time>
      </trkpt>
      <trkpt lat="43.0901940" lon="-1.7740200">
        <ele>567.260010</ele>
        <time>2014-08-17T08:00:50.000Z</time>
      </trkpt>
      <trkpt lat="43.0901080" lon="-1.7741080">
        <ele>566.627991</ele>
        <time>2014-08-17T08:00:51.000Z</time>
      </trkpt>
      <trkpt lat="43.0900210" lon="-1.7741950">
        <ele>566.680969</ele>
        <time>2014-08-17T08:00:52.000Z</time>
      </trkpt>
      <trkpt lat="43.0899450" lon="-1.7742890">
        <ele>566.612976</ele>
        <time>2014-08-17T08:00:53.000Z</time>
      </trkpt>
      <trkpt lat="43.0898980" lon="-1.7744050">
        <ele>566.661987</ele>
        <time>2014-08-17T08:00:54.000Z</time>
      </trkpt>
      <trkpt lat="43.0898230" lon="-1.7749310">
        <ele>566.643982</ele>
        <time>2014-08-17T08:00:58.000Z</time>
      </trkpt>
      <trkpt lat="43.0897880" lon="-1.7750210">
        <ele>566.627014</ele>
        <time>2014-08-17T08:00:59.000Z</time>
      </trkpt>
      <trkpt lat="43.0897580" lon="-1.7751180">
        <ele>566.617981</ele>
        <time>2014-08-17T08:01:00.000Z</time>
      </trkpt>
      <trkpt lat="43.0897270" lon="-1.7752060">
        <ele>566.697998</ele>
        <time>2014-08-17T08:01:01.000Z</time>
      </trkpt>
      <trkpt lat="43.0896840" lon="-1.7752860">
        <ele>566.617004</ele>
        <time>2014-08-17T08:01:02.000Z</time>
      </trkpt>
      <trkpt lat="43.0896050" lon="-1.7754330">
        <ele>567.007019</ele>
        <time>2014-08-17T08:01:04.000Z</time>
      </trkpt>
      <trkpt lat="43.0895290" lon="-1.7755730">
        <ele>567.467957</ele>
        <time>2014-08-17T08:01:06.000Z</time>
      </trkpt>
      <trkpt lat="43.0894890" lon="-1.7756340">
        <ele>567.835999</ele>
        <time>2014-08-17T08:01:07.000Z</time>
      </trkpt>
      <trkpt lat="43.0894560" lon="-1.7756870">
        <ele>568.259033</ele>
        <time>2014-08-17T08:01:08.000Z</time>
      </trkpt>
      <trkpt lat="43.0894220" lon="-1.7757410">
        <ele>568.681030</ele>
        <time>2014-08-17T08:01:09.000Z</time>
      </trkpt>
      <trkpt lat="43.0893900" lon="-1.7757940">
        <ele>568.640015</ele>
        <time>2014-08-17T08:01:10.000Z</time>
      </trkpt>
      <trkpt lat="43.0892320" lon="-1.7760700">
        <ele>568.622009</ele>
        <time>2014-08-17T08:01:15.000Z</time>
      </trkpt>
      <trkpt lat="43.0889170" lon="-1.7766300">
        <ele>568.625000</ele>
        <time>2014-08-17T08:01:24.000Z</time>
      </trkpt>
      <trkpt lat="43.0887770" lon="-1.7768640">
        <ele>568.684998</ele>
        <time>2014-08-17T08:01:28.000Z</time>
      </trkpt>
      <trkpt lat="43.0887110" lon="-1.7769800">
        <ele>568.689026</ele>
        <time>2014-08-17T08:01:30.000Z</time>
      </trkpt>
      <trkpt lat="43.0886790" lon="-1.7770360">
        <ele>568.617004</ele>
        <time>2014-08-17T08:01:31.000Z</time>
      </trkpt>
      <trkpt lat="43.0885230" lon="-1.7772980">
        <ele>568.606995</ele>
        <time>2014-08-17T08:01:36.000Z</time>
      </trkpt>
      <trkpt lat="43.0884420" lon="-1.7774560">
        <ele>568.614990</ele>
        <time>2014-08-17T08:01:39.000Z</time>
      </trkpt>
      <trkpt lat="43.0882880" lon="-1.7778210">
        <ele>568.643005</ele>
        <time>2014-08-17T08:01:46.000Z</time>
      </trkpt>
      <trkpt lat="43.0882640" lon="-1.7778480">
        <ele>568.675964</ele>
        <time>2014-08-17T08:01:47.000Z</time>
      </trkpt>
      <trkpt lat="43.0882350" lon="-1.7778430">
        <ele>568.667969</ele>
        <time>2014-08-17T08:01:49.000Z</time>
      </trkpt>
      <trkpt lat="43.0882340" lon="-1.7778430">
        <ele>571.086975</ele>
        <time>2014-08-17T08:01:50.000Z</time>
      </trkpt>
      <trkpt lat="43.0881900" lon="-1.7778490">
        <ele>571.018982</ele>
        <time>2014-08-17T08:17:23.000Z</time>
      </trkpt>
      <trkpt lat="43.0881590" lon="-1.7778720">
        <ele>571.052002</ele>
        <time>2014-08-17T08:17:26.000Z</time>
      </trkpt>
      <trkpt lat="43.0881220" lon="-1.7778920">
        <ele>571.026978</ele>
        <time>2014-08-17T08:17:29.000Z</time>
      </trkpt>
      <trkpt lat="43.0880920" lon="-1.7779050">
        <ele>571.067993</ele>
        <time>2014-08-17T08:17:31.000Z</time>
      </trkpt>
      <trkpt lat="43.0880460" lon="-1.7779090">
        <ele>571.013977</ele>
        <time>2014-08-17T08:17:33.000Z</time>
      </trkpt>
      <trkpt lat="43.0880230" lon="-1.7779300">
        <ele>571.007019</ele>
        <time>2014-08-17T08:17:34.000Z</time>
      </trkpt>
      <trkpt lat="43.0879700" lon="-1.7779470">
        <ele>571.039001</ele>
        <time>2014-08-17T08:17:36.000Z</time>
      </trkpt>
      <trkpt lat="43.0879520" lon="-1.7779600">
        <ele>571.677002</ele>
        <time>2014-08-17T08:17:37.000Z</time>
      </trkpt>
      <trkpt lat="43.0878580" lon="-1.7780120">
        <ele>572.070007</ele>
        <time>2014-08-17T08:17:42.000Z</time>
      </trkpt>
      <trkpt lat="43.0878400" lon="-1.7780170">
        <ele>572.432007</ele>
        <time>2014-08-17T08:17:43.000Z</time>
      </trkpt>
      <trkpt lat="43.0878170" lon="-1.7780230">
        <ele>572.851013</ele>
        <time>2014-08-17T08:17:44.000Z</time>
      </trkpt>
      <trkpt lat="43.0877970" lon="-1.7780260">
        <ele>573.293030</ele>
        <time>2014-08-17T08:17:45.000Z</time>
      </trkpt>
      <trkpt lat="43.0877770" lon="-1.7780320">
        <ele>573.255981</ele>
        <time>2014-08-17T08:17:46.000Z</time>
      </trkpt>
      <trkpt lat="43.0876950" lon="-1.7780450">
        <ele>573.294006</ele>
        <time>2014-08-17T08:17:50.000Z</time>
      </trkpt>
      <trkpt lat="43.0875070" lon="-1.7780900">
        <ele>573.257019</ele>
        <time>2014-08-17T08:17:57.000Z</time>
      </trkpt>
      <trkpt lat="43.0874120" lon="-1.7780980">
        <ele>573.622009</ele>
        <time>2014-08-17T08:18:01.000Z</time>
      </trkpt>
      <trkpt lat="43.0873910" lon="-1.7781080">
        <ele>574.007019</ele>
        <time>2014-08-17T08:18:02.000Z</time>
      </trkpt>
      <trkpt lat="43.0873690" lon="-1.7781130">
        <ele>574.495972</ele>
        <time>2014-08-17T08:18:03.000Z</time>
      </trkpt>
      <trkpt lat="43.0873450" lon="-1.7781070">
        <ele>574.884033</ele>
        <time>2014-08-17T08:18:04.000Z</time>
      </trkpt>
      <trkpt lat="43.0873210" lon="-1.7781150">
        <ele>575.216980</ele>
        <time>2014-08-17T08:18:05.000Z</time>
      </trkpt>
      <trkpt lat="43.0872980" lon="-1.7781220">
        <ele>575.218994</ele>
        <time>2014-08-17T08:18:06.000Z</time>
      </trkpt>
      <trkpt lat="43.0872690" lon="-1.7781240">
        <ele>575.257996</ele>
        <time>2014-08-17T08:18:07.000Z</time>
      </trkpt>
      <trkpt lat="43.0870520" lon="-1.7781690">
        <ele>575.209961</ele>
        <time>2014-08-17T08:18:14.000Z</time>
      </trkpt>
      <trkpt lat="43.0868980" lon="-1.7782020">
        <ele>575.282959</ele>
        <time>2014-08-17T08:18:18.000Z</time>
      </trkpt>
      <trkpt lat="43.0867780" lon="-1.7782190">
        <ele>575.211975</ele>
        <time>2014-08-17T08:18:21.000Z</time>
      </trkpt>
      <trkpt lat="43.0866100" lon="-1.7782560">
        <ele>575.231995</ele>
        <time>2014-08-17T08:18:25.000Z</time>
      </trkpt>
      <trkpt lat="43.0864880" lon="-1.7782290">
        <ele>575.205017</ele>
        <time>2014-08-17T08:18:28.000Z</time>
      </trkpt>
      <trkpt lat="43.0863500" lon="-1.7781250">
        <ele>575.207031</ele>
        <time>2014-08-17T08:18:32.000Z</time>
      </trkpt>
      <trkpt lat="43.0863220" lon="-1.7780920">
        <ele>575.288025</ele>
        <time>2014-08-17T08:18:33.000Z</time>
      </trkpt>
      <trkpt lat="43.0862050" lon="-1.7779210">
        <ele>575.226013</ele>
        <time>2014-08-17T08:18:38.000Z</time>
      </trkpt>
      <trkpt lat="43.0861670" lon="-1.7778540">
        <ele>575.669006</ele>
        <time>2014-08-17T08:18:40.000Z</time>
      </trkpt>
      <trkpt lat="43.0861460" lon="-1.7778200">
        <ele>576.031006</ele>
        <time>2014-08-17T08:18:41.000Z</time>
      </trkpt>
      <trkpt lat="43.0861280" lon="-1.7777880">
        <ele>576.460022</ele>
        <time>2014-08-17T08:18:42.000Z</time>
      </trkpt>
      <trkpt lat="43.0861110" lon="-1.7777580">
        <ele>577.261963</ele>
        <time>2014-08-17T08:18:43.000Z</time>
      </trkpt>
      <trkpt lat="43.0860890" lon="-1.7777320">
        <ele>577.265015</ele>
        <time>2014-08-17T08:18:44.000Z</time>
      </trkpt>
      <trkpt lat="43.0860060" lon="-1.7776120">
        <ele>577.291992</ele>
        <time>2014-08-17T08:18:48.000Z</time>
      </trkpt>
      <trkpt lat="43.0859060" lon="-1.7774780">
        <ele>577.273010</ele>
        <time>2014-08-17T08:18:53.000Z</time>
      </trkpt>
      <trkpt lat="43.0858540" lon="-1.7773500">
        <ele>577.619995</ele>
        <time>2014-08-17T08:18:56.000Z</time>
      </trkpt>
      <trkpt lat="43.0858120" lon="-1.7772550">
        <ele>578.007019</ele>
        <time>2014-08-17T08:18:58.000Z</time>
      </trkpt>
      <trkpt lat="43.0857890" lon="-1.7772020">
        <ele>578.455994</ele>
        <time>2014-08-17T08:18:59.000Z</time>
      </trkpt>
      <trkpt lat="43.0857660" lon="-1.7771510">
        <ele>578.883972</ele>
        <time>2014-08-17T08:19:00.000Z</time>
      </trkpt>
      <trkpt lat="43.0857500" lon="-1.7770980">
        <ele>579.296997</ele>
        <time>2014-08-17T08:19:01.000Z</time>
      </trkpt>
      <trkpt lat="43.0857320" lon="-1.7770450">
        <ele>579.289001</ele>
        <time>2014-08-17T08:19:02.000Z</time>
      </trkpt>
      <trkpt lat="43.0856720" lon="-1.7768900">
        <ele>579.268005</ele>
        <time>2014-08-17T08:19:05.000Z</time>
      </trkpt>
      <trkpt lat="43.0856570" lon="-1.7768360">
        <ele>579.650024</ele>
        <time>2014-08-17T08:19:06.000Z</time>
      </trkpt>
      <trkpt lat="43.0856420" lon="-1.7767220">
        <ele>580.463013</ele>
        <time>2014-08-17T08:19:08.000Z</time>
      </trkpt>
      <trkpt lat="43.0856400" lon="-1.7766650">
        <ele>580.812988</ele>
        <time>2014-08-17T08:19:09.000Z</time>
      </trkpt>
      <trkpt lat="43.0856410" lon="-1.7766070">
        <ele>581.242981</ele>
        <time>2014-08-17T08:19:10.000Z</time>
      </trkpt>
      <trkpt lat="43.0856510" lon="-1.7765440">
        <ele>581.207031</ele>
        <time>2014-08-17T08:19:11.000Z</time>
      </trkpt>
      <trkpt lat="43.0856570" lon="-1.7764790">
        <ele>581.207031</ele>
        <time>2014-08-17T08:19:12.000Z</time>
      </trkpt>
      <trkpt lat="43.0856690" lon="-1.7764200">
        <ele>581.268005</ele>
        <time>2014-08-17T08:19:13.000Z</time>
      </trkpt>
      <trkpt lat="43.0857200" lon="-1.7761740">
        <ele>581.226013</ele>
        <time>2014-08-17T08:19:17.000Z</time>
      </trkpt>
      <trkpt lat="43.0857450" lon="-1.7760540">
        <ele>581.239014</ele>
        <time>2014-08-17T08:19:19.000Z</time>
      </trkpt>
      <trkpt lat="43.0857920" lon="-1.7758160">
        <ele>581.630981</ele>
        <time>2014-08-17T08:19:23.000Z</time>
      </trkpt>
      <trkpt lat="43.0858400" lon="-1.7754910">
        <ele>582.210022</ele>
        <time>2014-08-17T08:19:28.000Z</time>
      </trkpt>
      <trkpt lat="43.0858460" lon="-1.7754260">
        <ele>582.651978</ele>
        <time>2014-08-17T08:19:29.000Z</time>
      </trkpt>
      <trkpt lat="43.0858520" lon="-1.7753620">
        <ele>583.085022</ele>
        <time>2014-08-17T08:19:30.000Z</time>
      </trkpt>
      <trkpt lat="43.0858620" lon="-1.7752910">
        <ele>583.497009</ele>
        <time>2014-08-17T08:19:31.000Z</time>
      </trkpt>
      <trkpt lat="43.0858740" lon="-1.7752250">
        <ele>583.422974</ele>
        <time>2014-08-17T08:19:32.000Z</time>
      </trkpt>
      <trkpt lat="43.0859010" lon="-1.7749260">
        <ele>583.424988</ele>
        <time>2014-08-17T08:19:36.000Z</time>
      </trkpt>
      <trkpt lat="43.0858830" lon="-1.7748450">
        <ele>583.406982</ele>
        <time>2014-08-17T08:19:37.000Z</time>
      </trkpt>
      <trkpt lat="43.0857390" lon="-1.7746010">
        <ele>583.495972</ele>
        <time>2014-08-17T08:19:41.000Z</time>
      </trkpt>
      <trkpt lat="43.0856990" lon="-1.7745530">
        <ele>583.434021</ele>
        <time>2014-08-17T08:19:42.000Z</time>
      </trkpt>
      <trkpt lat="43.0854510" lon="-1.7742320">
        <ele>583.456970</ele>
        <time>2014-08-17T08:19:48.000Z</time>
      </trkpt>
      <trkpt lat="43.0852820" lon="-1.7740120">
        <ele>583.479004</ele>
        <time>2014-08-17T08:19:52.000Z</time>
      </trkpt>
      <trkpt lat="43.0851320" lon="-1.7738590">
        <ele>583.428040</ele>
        <time>2014-08-17T08:19:55.000Z</time>
      </trkpt>
      <trkpt lat="43.0849830" lon="-1.7738550">
        <ele>583.440002</ele>
        <time>2014-08-17T08:19:58.000Z</time>
      </trkpt>
      <trkpt lat="43.0848920" lon="-1.7739330">
        <ele>583.463013</ele>
        <time>2014-08-17T08:20:00.000Z</time>
      </trkpt>
      <trkpt lat="43.0848530" lon="-1.7739800">
        <ele>583.875977</ele>
        <time>2014-08-17T08:20:01.000Z</time>
      </trkpt>
      <trkpt lat="43.0845850" lon="-1.7743440">
        <ele>584.489990</ele>
        <time>2014-08-17T08:20:08.000Z</time>
      </trkpt>
      <trkpt lat="43.0845400" lon="-1.7743960">
        <ele>584.819031</ele>
        <time>2014-08-17T08:20:09.000Z</time>
      </trkpt>
      <trkpt lat="43.0844990" lon="-1.7744380">
        <ele>585.206970</ele>
        <time>2014-08-17T08:20:10.000Z</time>
      </trkpt>
      <trkpt lat="43.0844560" lon="-1.7744800">
        <ele>585.693970</ele>
        <time>2014-08-17T08:20:11.000Z</time>
      </trkpt>
      <trkpt lat="43.0844110" lon="-1.7745190">
        <ele>585.622009</ele>
        <time>2014-08-17T08:20:12.000Z</time>
      </trkpt>
      <trkpt lat="43.0843170" lon="-1.7745930">
        <ele>585.614990</ele>
        <time>2014-08-17T08:20:14.000Z</time>
      </trkpt>
      <trkpt lat="43.0840430" lon="-1.7748450">
        <ele>585.637024</ele>
        <time>2014-08-17T08:20:19.000Z</time>
      </trkpt>
      <trkpt lat="43.0839910" lon="-1.7749120">
        <ele>585.665955</ele>
        <time>2014-08-17T08:20:20.000Z</time>
      </trkpt>
      <trkpt lat="43.0838920" lon="-1.7750650">
        <ele>585.677979</ele>
        <time>2014-08-17T08:20:22.000Z</time>
      </trkpt>
      <trkpt lat="43.0838100" lon="-1.7752350">
        <ele>585.640991</ele>
        <time>2014-08-17T08:20:24.000Z</time>
      </trkpt>
      <trkpt lat="43.0836680" lon="-1.7756750">
        <ele>585.664001</ele>
        <time>2014-08-17T08:20:29.000Z</time>
      </trkpt>
      <trkpt lat="43.0834570" lon="-1.7762290">
        <ele>585.606018</ele>
        <time>2014-08-17T08:20:36.000Z</time>
      </trkpt>
      <trkpt lat="43.0832220" lon="-1.7767000">
        <ele>586.015991</ele>
        <time>2014-08-17T08:20:43.000Z</time>
      </trkpt>
      <trkpt lat="43.0830890" lon="-1.7768110">
        <ele>586.406982</ele>
        <time>2014-08-17T08:20:46.000Z</time>
      </trkpt>
      <trkpt lat="43.0830360" lon="-1.7768320">
        <ele>587.442993</ele>
        <time>2014-08-17T08:20:47.000Z</time>
      </trkpt>
      <trkpt lat="43.0829830" lon="-1.7768480">
        <ele>587.870972</ele>
        <time>2014-08-17T08:20:48.000Z</time>
      </trkpt>
      <trkpt lat="43.0829290" lon="-1.7768620">
        <ele>587.814026</ele>
        <time>2014-08-17T08:20:49.000Z</time>
      </trkpt>
      <trkpt lat="43.0825780" lon="-1.7769330">
        <ele>587.856018</ele>
        <time>2014-08-17T08:20:55.000Z</time>
      </trkpt>
      <trkpt lat="43.0824570" lon="-1.7769510">
        <ele>587.895020</ele>
        <time>2014-08-17T08:20:57.000Z</time>
      </trkpt>
      <trkpt lat="43.0822180" lon="-1.7769640">
        <ele>588.216980</ele>
        <time>2014-08-17T08:21:01.000Z</time>
      </trkpt>
      <trkpt lat="43.0819310" lon="-1.7769740">
        <ele>588.630005</ele>
        <time>2014-08-17T08:21:06.000Z</time>
      </trkpt>
      <trkpt lat="43.0818780" lon="-1.7769630">
        <ele>589.069031</ele>
        <time>2014-08-17T08:21:07.000Z</time>
      </trkpt>
      <trkpt lat="43.0818240" lon="-1.7769520">
        <ele>589.403992</ele>
        <time>2014-08-17T08:21:08.000Z</time>
      </trkpt>
      <trkpt lat="43.0817730" lon="-1.7769340">
        <ele>589.824036</ele>
        <time>2014-08-17T08:21:09.000Z</time>
      </trkpt>
      <trkpt lat="43.0817230" lon="-1.7769130">
        <ele>589.807007</ele>
        <time>2014-08-17T08:21:10.000Z</time>
      </trkpt>
      <trkpt lat="43.0816270" lon="-1.7768510">
        <ele>589.843018</ele>
        <time>2014-08-17T08:21:12.000Z</time>
      </trkpt>
      <trkpt lat="43.0814470" lon="-1.7766670">
        <ele>589.820984</ele>
        <time>2014-08-17T08:21:16.000Z</time>
      </trkpt>
      <trkpt lat="43.0813780" lon="-1.7765350">
        <ele>589.833984</ele>
        <time>2014-08-17T08:21:18.000Z</time>
      </trkpt>
      <trkpt lat="43.0810740" lon="-1.7759610">
        <ele>589.816040</ele>
        <time>2014-08-17T08:21:26.000Z</time>
      </trkpt>
      <trkpt lat="43.0809160" lon="-1.7757680">
        <ele>589.815002</ele>
        <time>2014-08-17T08:21:29.000Z</time>
      </trkpt>
      <trkpt lat="43.0807940" lon="-1.7756860">
        <ele>589.897034</ele>
        <time>2014-08-17T08:21:31.000Z</time>
      </trkpt>
      <trkpt lat="43.0806810" lon="-1.7755850">
        <ele>589.489990</ele>
        <time>2014-08-17T08:21:33.000Z</time>
      </trkpt>
      <trkpt lat="43.0806310" lon="-1.7755270">
        <ele>589.023010</ele>
        <time>2014-08-17T08:21:34.000Z</time>
      </trkpt>
      <trkpt lat="43.0805810" lon="-1.7754640">
        <ele>588.283020</ele>
        <time>2014-08-17T08:21:35.000Z</time>
      </trkpt>
      <trkpt lat="43.0805270" lon="-1.7753920">
        <ele>587.611023</ele>
        <time>2014-08-17T08:21:36.000Z</time>
      </trkpt>
      <trkpt lat="43.0804850" lon="-1.7753390">
        <ele>587.606995</ele>
        <time>2014-08-17T08:21:37.000Z</time>
      </trkpt>
      <trkpt lat="43.0803380" lon="-1.7751590">
        <ele>587.689026</ele>
        <time>2014-08-17T08:21:40.000Z</time>
      </trkpt>
      <trkpt lat="43.0802100" lon="-1.7750790">
        <ele>587.666992</ele>
        <time>2014-08-17T08:21:42.000Z</time>
      </trkpt>
      <trkpt lat="43.0801410" lon="-1.7750530">
        <ele>587.660034</ele>
        <time>2014-08-17T08:21:43.000Z</time>
      </trkpt>
      <trkpt lat="43.0799300" lon="-1.7749830">
        <ele>587.692017</ele>
        <time>2014-08-17T08:21:46.000Z</time>
      </trkpt>
      <trkpt lat="43.0798730" lon="-1.7749170">
        <ele>587.671021</ele>
        <time>2014-08-17T08:21:47.000Z</time>
      </trkpt>
      <trkpt lat="43.0798280" lon="-1.7748370">
        <ele>587.653015</ele>
        <time>2014-08-17T08:21:48.000Z</time>
      </trkpt>
      <trkpt lat="43.0797560" lon="-1.7746480">
        <ele>587.265991</ele>
        <time>2014-08-17T08:21:50.000Z</time>
      </trkpt>
      <trkpt lat="43.0797040" lon="-1.7744420">
        <ele>586.898987</ele>
        <time>2014-08-17T08:21:52.000Z</time>
      </trkpt>
      <trkpt lat="43.0796730" lon="-1.7743430">
        <ele>586.406982</ele>
        <time>2014-08-17T08:21:53.000Z</time>
      </trkpt>
      <trkpt lat="43.0796070" lon="-1.7742660">
        <ele>586.026978</ele>
        <time>2014-08-17T08:21:54.000Z</time>
      </trkpt>
      <trkpt lat="43.0795110" lon="-1.7742750">
        <ele>585.606995</ele>
        <time>2014-08-17T08:21:55.000Z</time>
      </trkpt>
      <trkpt lat="43.0794240" lon="-1.7742880">
        <ele>585.665955</ele>
        <time>2014-08-17T08:21:56.000Z</time>
      </trkpt>
      <trkpt lat="43.0792590" lon="-1.7743460">
        <ele>585.253967</ele>
        <time>2014-08-17T08:21:58.000Z</time>
      </trkpt>
      <trkpt lat="43.0791800" lon="-1.7743870">
        <ele>584.697021</ele>
        <time>2014-08-17T08:21:59.000Z</time>
      </trkpt>
      <trkpt lat="43.0791010" lon="-1.7744330">
        <ele>584.278992</ele>
        <time>2014-08-17T08:22:00.000Z</time>
      </trkpt>
      <trkpt lat="43.0790220" lon="-1.7744790">
        <ele>583.497986</ele>
        <time>2014-08-17T08:22:01.000Z</time>
      </trkpt>
      <trkpt lat="43.0789390" lon="-1.7745200">
        <ele>583.440002</ele>
        <time>2014-08-17T08:22:02.000Z</time>
      </trkpt>
      <trkpt lat="43.0788580" lon="-1.7745380">
        <ele>583.072998</ele>
        <time>2014-08-17T08:22:03.000Z</time>
      </trkpt>
      <trkpt lat="43.0786950" lon="-1.7745120">
        <ele>582.663025</ele>
        <time>2014-08-17T08:22:05.000Z</time>
      </trkpt>
      <trkpt lat="43.0786140" lon="-1.7744910">
        <ele>582.044006</ele>
        <time>2014-08-17T08:22:06.000Z</time>
      </trkpt>
      <trkpt lat="43.0785330" lon="-1.7744700">
        <ele>581.617981</ele>
        <time>2014-08-17T08:22:07.000Z</time>
      </trkpt>
      <trkpt lat="43.0784520" lon="-1.7744460">
        <ele>581.207031</ele>
        <time>2014-08-17T08:22:08.000Z</time>
      </trkpt>
      <trkpt lat="43.0783700" lon="-1.7744190">
        <ele>581.242981</ele>
        <time>2014-08-17T08:22:09.000Z</time>
      </trkpt>
      <trkpt lat="43.0782080" lon="-1.7743530">
        <ele>581.210999</ele>
        <time>2014-08-17T08:22:11.000Z</time>
      </trkpt>
      <trkpt lat="43.0780430" lon="-1.7742870">
        <ele>580.843994</ele>
        <time>2014-08-17T08:22:13.000Z</time>
      </trkpt>
      <trkpt lat="43.0779680" lon="-1.7742480">
        <ele>580.416016</ele>
        <time>2014-08-17T08:22:14.000Z</time>
      </trkpt>
      <trkpt lat="43.0778970" lon="-1.7742000">
        <ele>579.864990</ele>
        <time>2014-08-17T08:22:15.000Z</time>
      </trkpt>
      <trkpt lat="43.0778310" lon="-1.7741420">
        <ele>579.416992</ele>
        <time>2014-08-17T08:22:16.000Z</time>
      </trkpt>
      <trkpt lat="43.0777750" lon="-1.7740700">
        <ele>579.019958</ele>
        <time>2014-08-17T08:22:17.000Z</time>
      </trkpt>
      <trkpt lat="43.0777290" lon="-1.7739860">
        <ele>579.010986</ele>
        <time>2014-08-17T08:22:18.000Z</time>
      </trkpt>
      <trkpt lat="43.0776530" lon="-1.7737910">
        <ele>579.020996</ele>
        <time>2014-08-17T08:22:20.000Z</time>
      </trkpt>
      <trkpt lat="43.0775720" lon="-1.7736010">
        <ele>578.402954</ele>
        <time>2014-08-17T08:22:22.000Z</time>
      </trkpt>
      <trkpt lat="43.0775100" lon="-1.7735310">
        <ele>578.007019</ele>
        <time>2014-08-17T08:22:23.000Z</time>
      </trkpt>
      <trkpt lat="43.0774340" lon="-1.7735010">
        <ele>577.697998</ele>
        <time>2014-08-17T08:22:24.000Z</time>
      </trkpt>
      <trkpt lat="43.0773560" lon="-1.7735110">
        <ele>577.065979</ele>
        <time>2014-08-17T08:22:25.000Z</time>
      </trkpt>
      <trkpt lat="43.0772860" lon="-1.7735500">
        <ele>575.898987</ele>
        <time>2014-08-17T08:22:26.000Z</time>
      </trkpt>
      <trkpt lat="43.0772170" lon="-1.7736080">
        <ele>575.430969</ele>
        <time>2014-08-17T08:22:27.000Z</time>
      </trkpt>
      <trkpt lat="43.0771610" lon="-1.7736910">
        <ele>574.840027</ele>
        <time>2014-08-17T08:22:28.000Z</time>
      </trkpt>
      <trkpt lat="43.0771070" lon="-1.7737780">
        <ele>574.252014</ele>
        <time>2014-08-17T08:22:29.000Z</time>
      </trkpt>
      <trkpt lat="43.0770470" lon="-1.7738530">
        <ele>574.284973</ele>
        <time>2014-08-17T08:22:30.000Z</time>
      </trkpt>
      <trkpt lat="43.0769830" lon="-1.7738960">
        <ele>574.288025</ele>
        <time>2014-08-17T08:22:31.000Z</time>
      </trkpt>
      <trkpt lat="43.0768510" lon="-1.7739360">
        <ele>574.223999</ele>
        <time>2014-08-17T08:22:33.000Z</time>
      </trkpt>
      <trkpt lat="43.0767170" lon="-1.7739600">
        <ele>574.226013</ele>
        <time>2014-08-17T08:22:35.000Z</time>
      </trkpt>
      <trkpt lat="43.0764150" lon="-1.7739810">
        <ele>574.206970</ele>
        <time>2014-08-17T08:22:40.000Z</time>
      </trkpt>
      <trkpt lat="43.0763600" lon="-1.7739820">
        <ele>574.294983</ele>
        <time>2014-08-17T08:22:41.000Z</time>
      </trkpt>
      <trkpt lat="43.0763040" lon="-1.7739830">
        <ele>574.252991</ele>
        <time>2014-08-17T08:22:42.000Z</time>
      </trkpt>
      <trkpt lat="43.0762440" lon="-1.7739840">
        <ele>574.235962</ele>
        <time>2014-08-17T08:22:43.000Z</time>
      </trkpt>
      <trkpt lat="43.0761350" lon="-1.7739820">
        <ele>574.697998</ele>
        <time>2014-08-17T08:22:45.000Z</time>
      </trkpt>
      <trkpt lat="43.0760830" lon="-1.7739800">
        <ele>575.046997</ele>
        <time>2014-08-17T08:22:46.000Z</time>
      </trkpt>
      <trkpt lat="43.0760350" lon="-1.7739770">
        <ele>575.479004</ele>
        <time>2014-08-17T08:22:47.000Z</time>
      </trkpt>
      <trkpt lat="43.0759900" lon="-1.7739740">
        <ele>575.832031</ele>
        <time>2014-08-17T08:22:48.000Z</time>
      </trkpt>
      <trkpt lat="43.0759480" lon="-1.7739700">
        <ele>576.275024</ele>
        <time>2014-08-17T08:22:49.000Z</time>
      </trkpt>
      <trkpt lat="43.0759050" lon="-1.7739650">
        <ele>576.228027</ele>
        <time>2014-08-17T08:22:50.000Z</time>
      </trkpt>
      <trkpt lat="43.0757670" lon="-1.7739390">
        <ele>576.220032</ele>
        <time>2014-08-17T08:22:53.000Z</time>
      </trkpt>
      <trkpt lat="43.0756670" lon="-1.7739140">
        <ele>576.606995</ele>
        <time>2014-08-17T08:22:55.000Z</time>
      </trkpt>
      <trkpt lat="43.0756150" lon="-1.7738970">
        <ele>577.023987</ele>
        <time>2014-08-17T08:22:56.000Z</time>
      </trkpt>
      <trkpt lat="43.0755660" lon="-1.7738780">
        <ele>577.432007</ele>
        <time>2014-08-17T08:22:57.000Z</time>
      </trkpt>
      <trkpt lat="43.0755170" lon="-1.7738530">
        <ele>577.844971</ele>
        <time>2014-08-17T08:22:58.000Z</time>
      </trkpt>
      <trkpt lat="43.0754730" lon="-1.7738270">
        <ele>578.286987</ele>
        <time>2014-08-17T08:22:59.000Z</time>
      </trkpt>
      <trkpt lat="43.0754330" lon="-1.7737970">
        <ele>578.256042</ele>
        <time>2014-08-17T08:23:00.000Z</time>
      </trkpt>
      <trkpt lat="43.0753950" lon="-1.7737660">
        <ele>578.238037</ele>
        <time>2014-08-17T08:23:01.000Z</time>
      </trkpt>
      <trkpt lat="43.0753540" lon="-1.7737370">
        <ele>578.851013</ele>
        <time>2014-08-17T08:23:02.000Z</time>
      </trkpt>
      <trkpt lat="43.0752240" lon="-1.7736900">
        <ele>579.224976</ele>
        <time>2014-08-17T08:23:05.000Z</time>
      </trkpt>
      <trkpt lat="43.0751830" lon="-1.7736790">
        <ele>579.626038</ele>
        <time>2014-08-17T08:23:06.000Z</time>
      </trkpt>
      <trkpt lat="43.0751430" lon="-1.7736680">
        <ele>580.007996</ele>
        <time>2014-08-17T08:23:07.000Z</time>
      </trkpt>
      <trkpt lat="43.0751060" lon="-1.7736550">
        <ele>580.606995</ele>
        <time>2014-08-17T08:23:08.000Z</time>
      </trkpt>
      <trkpt lat="43.0750700" lon="-1.7736420">
        <ele>580.648987</ele>
        <time>2014-08-17T08:23:09.000Z</time>
      </trkpt>
      <trkpt lat="43.0750380" lon="-1.7736240">
        <ele>581.096985</ele>
        <time>2014-08-17T08:23:10.000Z</time>
      </trkpt>
      <trkpt lat="43.0750090" lon="-1.7736010">
        <ele>581.459961</ele>
        <time>2014-08-17T08:23:11.000Z</time>
      </trkpt>
      <trkpt lat="43.0749770" lon="-1.7735730">
        <ele>581.822021</ele>
        <time>2014-08-17T08:23:12.000Z</time>
      </trkpt>
      <trkpt lat="43.0749480" lon="-1.7735470">
        <ele>582.231018</ele>
        <time>2014-08-17T08:23:13.000Z</time>
      </trkpt>
      <trkpt lat="43.0749220" lon="-1.7735170">
        <ele>582.692993</ele>
        <time>2014-08-17T08:23:14.000Z</time>
      </trkpt>
      <trkpt lat="43.0749020" lon="-1.7734850">
        <ele>582.695984</ele>
        <time>2014-08-17T08:23:15.000Z</time>
      </trkpt>
      <trkpt lat="43.0748650" lon="-1.7734170">
        <ele>583.061035</ele>
        <time>2014-08-17T08:23:17.000Z</time>
      </trkpt>
      <trkpt lat="43.0748470" lon="-1.7733820">
        <ele>583.420959</ele>
        <time>2014-08-17T08:23:18.000Z</time>
      </trkpt>
      <trkpt lat="43.0748290" lon="-1.7733480">
        <ele>583.812988</ele>
        <time>2014-08-17T08:23:19.000Z</time>
      </trkpt>
      <trkpt lat="43.0748110" lon="-1.7733120">
        <ele>584.206970</ele>
        <time>2014-08-17T08:23:20.000Z</time>
      </trkpt>
      <trkpt lat="43.0747940" lon="-1.7732770">
        <ele>584.682983</ele>
        <time>2014-08-17T08:23:21.000Z</time>
      </trkpt>
      <trkpt lat="43.0747750" lon="-1.7732440">
        <ele>584.630981</ele>
        <time>2014-08-17T08:23:22.000Z</time>
      </trkpt>
      <trkpt lat="43.0747290" lon="-1.7731380">
        <ele>585.064026</ele>
        <time>2014-08-17T08:23:25.000Z</time>
      </trkpt>
      <trkpt lat="43.0747120" lon="-1.7731020">
        <ele>585.645996</ele>
        <time>2014-08-17T08:23:26.000Z</time>
      </trkpt>
      <trkpt lat="43.0746950" lon="-1.7730630">
        <ele>586.255005</ele>
        <time>2014-08-17T08:23:27.000Z</time>
      </trkpt>
      <trkpt lat="43.0746780" lon="-1.7730250">
        <ele>586.877014</ele>
        <time>2014-08-17T08:23:28.000Z</time>
      </trkpt>
      <trkpt lat="43.0746610" lon="-1.7729870">
        <ele>587.220032</ele>
        <time>2014-08-17T08:23:29.000Z</time>
      </trkpt>
      <trkpt lat="43.0746470" lon="-1.7729500">
        <ele>587.281982</ele>
        <time>2014-08-17T08:23:30.000Z</time>
      </trkpt>
      <trkpt lat="43.0746220" lon="-1.7728770">
        <ele>587.843018</ele>
        <time>2014-08-17T08:23:32.000Z</time>
      </trkpt>
      <trkpt lat="43.0745990" lon="-1.7728030">
        <ele>588.216980</ele>
        <time>2014-08-17T08:23:34.000Z</time>
      </trkpt>
      <trkpt lat="43.0745940" lon="-1.7727680">
        <ele>588.606995</ele>
        <time>2014-08-17T08:23:35.000Z</time>
      </trkpt>
      <trkpt lat="43.0745890" lon="-1.7727320">
        <ele>589.094971</ele>
        <time>2014-08-17T08:23:36.000Z</time>
      </trkpt>
      <trkpt lat="43.0745870" lon="-1.7726960">
        <ele>589.682983</ele>
        <time>2014-08-17T08:23:37.000Z</time>
      </trkpt>
      <trkpt lat="43.0745850" lon="-1.7726620">
        <ele>589.695984</ele>
        <time>2014-08-17T08:23:38.000Z</time>
      </trkpt>
      <trkpt lat="43.0745970" lon="-1.7724470">
        <ele>590.067993</ele>
        <time>2014-08-17T08:23:44.000Z</time>
      </trkpt>
      <trkpt lat="43.0746110" lon="-1.7722090">
        <ele>590.447021</ele>
        <time>2014-08-17T08:23:50.000Z</time>
      </trkpt>
      <trkpt lat="43.0746120" lon="-1.7721680">
        <ele>591.018982</ele>
        <time>2014-08-17T08:23:51.000Z</time>
      </trkpt>
      <trkpt lat="43.0746140" lon="-1.7721250">
        <ele>591.461975</ele>
        <time>2014-08-17T08:23:52.000Z</time>
      </trkpt>
      <trkpt lat="43.0746120" lon="-1.7720820">
        <ele>591.880981</ele>
        <time>2014-08-17T08:23:53.000Z</time>
      </trkpt>
      <trkpt lat="43.0746080" lon="-1.7720380">
        <ele>591.860962</ele>
        <time>2014-08-17T08:23:54.000Z</time>
      </trkpt>
      <trkpt lat="43.0745800" lon="-1.7718690">
        <ele>591.817017</ele>
        <time>2014-08-17T08:23:58.000Z</time>
      </trkpt>
      <trkpt lat="43.0745210" lon="-1.7716200">
        <ele>591.807007</ele>
        <time>2014-08-17T08:24:04.000Z</time>
      </trkpt>
      <trkpt lat="43.0744430" lon="-1.7713440">
        <ele>592.264954</ele>
        <time>2014-08-17T08:24:11.000Z</time>
      </trkpt>
      <trkpt lat="43.0744200" lon="-1.7712660">
        <ele>592.613037</ele>
        <time>2014-08-17T08:24:13.000Z</time>
      </trkpt>
      <trkpt lat="43.0744060" lon="-1.7712290">
        <ele>593.286011</ele>
        <time>2014-08-17T08:24:14.000Z</time>
      </trkpt>
      <trkpt lat="43.0743900" lon="-1.7711930">
        <ele>593.697998</ele>
        <time>2014-08-17T08:24:15.000Z</time>
      </trkpt>
      <trkpt lat="43.0743730" lon="-1.7711580">
        <ele>594.077026</ele>
        <time>2014-08-17T08:24:16.000Z</time>
      </trkpt>
      <trkpt lat="43.0743560" lon="-1.7711190">
        <ele>594.489014</ele>
        <time>2014-08-17T08:24:17.000Z</time>
      </trkpt>
      <trkpt lat="43.0742660" lon="-1.7709170">
        <ele>594.891968</ele>
        <time>2014-08-17T08:24:22.000Z</time>
      </trkpt>
      <trkpt lat="43.0742480" lon="-1.7708770">
        <ele>595.223022</ele>
        <time>2014-08-17T08:24:23.000Z</time>
      </trkpt>
      <trkpt lat="43.0742310" lon="-1.7708380">
        <ele>595.682983</ele>
        <time>2014-08-17T08:24:24.000Z</time>
      </trkpt>
      <trkpt lat="43.0742120" lon="-1.7708000">
        <ele>596.010986</ele>
        <time>2014-08-17T08:24:25.000Z</time>
      </trkpt>
      <trkpt lat="43.0741940" lon="-1.7707610">
        <ele>596.007019</ele>
        <time>2014-08-17T08:24:26.000Z</time>
      </trkpt>
      <trkpt lat="43.0741340" lon="-1.7706090">
        <ele>596.618958</ele>
        <time>2014-08-17T08:24:30.000Z</time>
      </trkpt>
      <trkpt lat="43.0740760" lon="-1.7704720">
        <ele>597.046997</ele>
        <time>2014-08-17T08:24:34.000Z</time>
      </trkpt>
      <trkpt lat="43.0740560" lon="-1.7704290">
        <ele>597.479980</ele>
        <time>2014-08-17T08:24:35.000Z</time>
      </trkpt>
      <trkpt lat="43.0740360" lon="-1.7703920">
        <ele>597.812012</ele>
        <time>2014-08-17T08:24:36.000Z</time>
      </trkpt>
      <trkpt lat="43.0740130" lon="-1.7703560">
        <ele>598.230957</ele>
        <time>2014-08-17T08:24:37.000Z</time>
      </trkpt>
      <trkpt lat="43.0739890" lon="-1.7703200">
        <ele>598.643005</ele>
        <time>2014-08-17T08:24:38.000Z</time>
      </trkpt>
      <trkpt lat="43.0738740" lon="-1.7701550">
        <ele>599.226013</ele>
        <time>2014-08-17T08:24:43.000Z</time>
      </trkpt>
      <trkpt lat="43.0738520" lon="-1.7701170">
        <ele>599.677002</ele>
        <time>2014-08-17T08:24:44.000Z</time>
      </trkpt>
      <trkpt lat="43.0738330" lon="-1.7700800">
        <ele>600.061035</ele>
        <time>2014-08-17T08:24:45.000Z</time>
      </trkpt>
      <trkpt lat="43.0738160" lon="-1.7700370">
        <ele>600.427002</ele>
        <time>2014-08-17T08:24:46.000Z</time>
      </trkpt>
      <trkpt lat="43.0737940" lon="-1.7699950">
        <ele>600.406982</ele>
        <time>2014-08-17T08:24:47.000Z</time>
      </trkpt>
      <trkpt lat="43.0737060" lon="-1.7698460">
        <ele>600.864014</ele>
        <time>2014-08-17T08:24:51.000Z</time>
      </trkpt>
      <trkpt lat="43.0736910" lon="-1.7698100">
        <ele>601.262024</ele>
        <time>2014-08-17T08:24:52.000Z</time>
      </trkpt>
      <trkpt lat="43.0736750" lon="-1.7697770">
        <ele>601.625000</ele>
        <time>2014-08-17T08:24:53.000Z</time>
      </trkpt>
      <trkpt lat="43.0736600" lon="-1.7697430">
        <ele>602.296997</ele>
        <time>2014-08-17T08:24:54.000Z</time>
      </trkpt>
      <trkpt lat="43.0736390" lon="-1.7697130">
        <ele>602.625977</ele>
        <time>2014-08-17T08:24:55.000Z</time>
      </trkpt>
      <trkpt lat="43.0736160" lon="-1.7696810">
        <ele>602.638000</ele>
        <time>2014-08-17T08:24:56.000Z</time>
      </trkpt>
      <trkpt lat="43.0735520" lon="-1.7695800">
        <ele>603.051025</ele>
        <time>2014-08-17T08:24:59.000Z</time>
      </trkpt>
      <trkpt lat="43.0735170" lon="-1.7695070">
        <ele>603.427979</ele>
        <time>2014-08-17T08:25:01.000Z</time>
      </trkpt>
      <trkpt lat="43.0735020" lon="-1.7694700">
        <ele>603.889038</ele>
        <time>2014-08-17T08:25:02.000Z</time>
      </trkpt>
      <trkpt lat="43.0734860" lon="-1.7694330">
        <ele>604.216980</ele>
        <time>2014-08-17T08:25:03.000Z</time>
      </trkpt>
      <trkpt lat="43.0734700" lon="-1.7694000">
        <ele>604.606995</ele>
        <time>2014-08-17T08:25:04.000Z</time>
      </trkpt>
      <trkpt lat="43.0734540" lon="-1.7693690">
        <ele>604.679016</ele>
        <time>2014-08-17T08:25:05.000Z</time>
      </trkpt>
      <trkpt lat="43.0734380" lon="-1.7693350">
        <ele>605.016968</ele>
        <time>2014-08-17T08:25:06.000Z</time>
      </trkpt>
      <trkpt lat="43.0733790" lon="-1.7692120">
        <ele>605.429993</ele>
        <time>2014-08-17T08:25:10.000Z</time>
      </trkpt>
      <trkpt lat="43.0733680" lon="-1.7691860">
        <ele>606.031982</ele>
        <time>2014-08-17T08:25:11.000Z</time>
      </trkpt>
      <trkpt lat="43.0733520" lon="-1.7691610">
        <ele>606.450989</ele>
        <time>2014-08-17T08:25:12.000Z</time>
      </trkpt>
      <trkpt lat="43.0733340" lon="-1.7691350">
        <ele>606.882996</ele>
        <time>2014-08-17T08:25:13.000Z</time>
      </trkpt>
      <trkpt lat="43.0733180" lon="-1.7691110">
        <ele>607.236023</ele>
        <time>2014-08-17T08:25:14.000Z</time>
      </trkpt>
      <trkpt lat="43.0732590" lon="-1.7690070">
        <ele>607.838989</ele>
        <time>2014-08-17T08:25:18.000Z</time>
      </trkpt>
      <trkpt lat="43.0732450" lon="-1.7689810">
        <ele>608.601013</ele>
        <time>2014-08-17T08:25:19.000Z</time>
      </trkpt>
      <trkpt lat="43.0732300" lon="-1.7689580">
        <ele>609.221008</ele>
        <time>2014-08-17T08:25:20.000Z</time>
      </trkpt>
      <trkpt lat="43.0732100" lon="-1.7689350">
        <ele>609.606995</ele>
        <time>2014-08-17T08:25:21.000Z</time>
      </trkpt>
      <trkpt lat="43.0731620" lon="-1.7688620">
        <ele>610.220032</ele>
        <time>2014-08-17T08:25:24.000Z</time>
      </trkpt>
      <trkpt lat="43.0731490" lon="-1.7688390">
        <ele>610.697998</ele>
        <time>2014-08-17T08:25:25.000Z</time>
      </trkpt>
      <trkpt lat="43.0731360" lon="-1.7688120">
        <ele>611.010986</ele>
        <time>2014-08-17T08:25:26.000Z</time>
      </trkpt>
      <trkpt lat="43.0731240" lon="-1.7687850">
        <ele>611.653015</ele>
        <time>2014-08-17T08:25:27.000Z</time>
      </trkpt>
      <trkpt lat="43.0731110" lon="-1.7687610">
        <ele>611.651978</ele>
        <time>2014-08-17T08:25:28.000Z</time>
      </trkpt>
      <trkpt lat="43.0730770" lon="-1.7687150">
        <ele>612.084045</ele>
        <time>2014-08-17T08:25:30.000Z</time>
      </trkpt>
      <trkpt lat="43.0730180" lon="-1.7686220">
        <ele>612.487000</ele>
        <time>2014-08-17T08:25:34.000Z</time>
      </trkpt>
      <trkpt lat="43.0730050" lon="-1.7685960">
        <ele>613.046021</ele>
        <time>2014-08-17T08:25:35.000Z</time>
      </trkpt>
      <trkpt lat="43.0729930" lon="-1.7685670">
        <ele>613.487976</ele>
        <time>2014-08-17T08:25:36.000Z</time>
      </trkpt>
      <trkpt lat="43.0729760" lon="-1.7685400">
        <ele>613.815979</ele>
        <time>2014-08-17T08:25:37.000Z</time>
      </trkpt>
      <trkpt lat="43.0729590" lon="-1.7685140">
        <ele>614.207031</ele>
        <time>2014-08-17T08:25:38.000Z</time>
      </trkpt>
      <trkpt lat="43.0729010" lon="-1.7684100">
        <ele>614.851013</ele>
        <time>2014-08-17T08:25:42.000Z</time>
      </trkpt>
      <trkpt lat="43.0728840" lon="-1.7683860">
        <ele>615.289001</ele>
        <time>2014-08-17T08:25:43.000Z</time>
      </trkpt>
      <trkpt lat="43.0728710" lon="-1.7683600">
        <ele>616.041992</ele>
        <time>2014-08-17T08:25:44.000Z</time>
      </trkpt>
      <trkpt lat="43.0728620" lon="-1.7683280">
        <ele>616.014038</ele>
        <time>2014-08-17T08:25:45.000Z</time>
      </trkpt>
      <trkpt lat="43.0728400" lon="-1.7682240">
        <ele>616.042969</ele>
        <time>2014-08-17T08:25:48.000Z</time>
      </trkpt>
      <trkpt lat="43.0728100" lon="-1.7678960">
        <ele>616.034973</ele>
        <time>2014-08-17T08:25:56.000Z</time>
      </trkpt>
      <trkpt lat="43.0727980" lon="-1.7676220">
        <ele>616.428040</ele>
        <time>2014-08-17T08:26:02.000Z</time>
      </trkpt>
      <trkpt lat="43.0727950" lon="-1.7675760">
        <ele>617.085022</ele>
        <time>2014-08-17T08:26:03.000Z</time>
      </trkpt>
      <trkpt lat="43.0727940" lon="-1.7675290">
        <ele>617.489014</ele>
        <time>2014-08-17T08:26:04.000Z</time>
      </trkpt>
      <trkpt lat="43.0727920" lon="-1.7674810">
        <ele>618.017029</ele>
        <time>2014-08-17T08:26:05.000Z</time>
      </trkpt>
      <trkpt lat="43.0727910" lon="-1.7674350">
        <ele>618.407043</ele>
        <time>2014-08-17T08:26:06.000Z</time>
      </trkpt>
      <trkpt lat="43.0727900" lon="-1.7673910">
        <ele>618.434998</ele>
        <time>2014-08-17T08:26:07.000Z</time>
      </trkpt>
      <trkpt lat="43.0727870" lon="-1.7673030">
        <ele>618.472961</ele>
        <time>2014-08-17T08:26:09.000Z</time>
      </trkpt>
      <trkpt lat="43.0727960" lon="-1.7670730">
        <ele>618.415955</ele>
        <time>2014-08-17T08:26:14.000Z</time>
      </trkpt>
      <trkpt lat="43.0727960" lon="-1.7670340">
        <ele>618.848022</ele>
        <time>2014-08-17T08:26:15.000Z</time>
      </trkpt>
      <trkpt lat="43.0727700" lon="-1.7668290">
        <ele>619.416992</ele>
        <time>2014-08-17T08:26:20.000Z</time>
      </trkpt>
      <trkpt lat="43.0727610" lon="-1.7667880">
        <ele>619.899048</ele>
        <time>2014-08-17T08:26:21.000Z</time>
      </trkpt>
      <trkpt lat="43.0727550" lon="-1.7667440">
        <ele>620.291992</ele>
        <time>2014-08-17T08:26:22.000Z</time>
      </trkpt>
      <trkpt lat="43.0727500" lon="-1.7667030">
        <ele>620.863037</ele>
        <time>2014-08-17T08:26:23.000Z</time>
      </trkpt>
      <trkpt lat="43.0727440" lon="-1.7666620">
        <ele>621.244019</ele>
        <time>2014-08-17T08:26:24.000Z</time>
      </trkpt>
      <trkpt lat="43.0727260" lon="-1.7665470">
        <ele>621.617981</ele>
        <time>2014-08-17T08:26:27.000Z</time>
      </trkpt>
      <trkpt lat="43.0727220" lon="-1.7665120">
        <ele>622.006958</ele>
        <time>2014-08-17T08:26:28.000Z</time>
      </trkpt>
      <trkpt lat="43.0727180" lon="-1.7664750">
        <ele>622.432983</ele>
        <time>2014-08-17T08:26:29.000Z</time>
      </trkpt>
      <trkpt lat="43.0727150" lon="-1.7664420">
        <ele>622.841003</ele>
        <time>2014-08-17T08:26:30.000Z</time>
      </trkpt>
      <trkpt lat="43.0727100" lon="-1.7664100">
        <ele>623.294006</ele>
        <time>2014-08-17T08:26:31.000Z</time>
      </trkpt>
      <trkpt lat="43.0726980" lon="-1.7662870">
        <ele>623.855957</ele>
        <time>2014-08-17T08:26:35.000Z</time>
      </trkpt>
      <trkpt lat="43.0726920" lon="-1.7662580">
        <ele>624.265015</ele>
        <time>2014-08-17T08:26:36.000Z</time>
      </trkpt>
      <trkpt lat="43.0726850" lon="-1.7662240">
        <ele>624.867004</ele>
        <time>2014-08-17T08:26:37.000Z</time>
      </trkpt>
      <trkpt lat="43.0726790" lon="-1.7661930">
        <ele>625.280029</ele>
        <time>2014-08-17T08:26:38.000Z</time>
      </trkpt>
      <trkpt lat="43.0726750" lon="-1.7661700">
        <ele>625.664001</ele>
        <time>2014-08-17T08:26:39.000Z</time>
      </trkpt>
      <trkpt lat="43.0726690" lon="-1.7661410">
        <ele>626.005981</ele>
        <time>2014-08-17T08:26:40.000Z</time>
      </trkpt>
      <trkpt lat="43.0726670" lon="-1.7661090">
        <ele>626.416016</ele>
        <time>2014-08-17T08:26:41.000Z</time>
      </trkpt>
      <trkpt lat="43.0726630" lon="-1.7660790">
        <ele>626.807007</ele>
        <time>2014-08-17T08:26:42.000Z</time>
      </trkpt>
      <trkpt lat="43.0726580" lon="-1.7660500">
        <ele>627.283020</ele>
        <time>2014-08-17T08:26:43.000Z</time>
      </trkpt>
      <trkpt lat="43.0726570" lon="-1.7660180">
        <ele>627.830994</ele>
        <time>2014-08-17T08:26:44.000Z</time>
      </trkpt>
      <trkpt lat="43.0726520" lon="-1.7659250">
        <ele>628.253967</ele>
        <time>2014-08-17T08:26:47.000Z</time>
      </trkpt>
      <trkpt lat="43.0726510" lon="-1.7659030">
        <ele>628.686035</ele>
        <time>2014-08-17T08:26:48.000Z</time>
      </trkpt>
      <trkpt lat="43.0726470" lon="-1.7658720">
        <ele>629.015015</ele>
        <time>2014-08-17T08:26:49.000Z</time>
      </trkpt>
      <trkpt lat="43.0726380" lon="-1.7658410">
        <ele>629.457031</ele>
        <time>2014-08-17T08:26:50.000Z</time>
      </trkpt>
      <trkpt lat="43.0726280" lon="-1.7658110">
        <ele>629.450012</ele>
        <time>2014-08-17T08:26:51.000Z</time>
      </trkpt>
      <trkpt lat="43.0726070" lon="-1.7657500">
        <ele>629.854004</ele>
        <time>2014-08-17T08:26:53.000Z</time>
      </trkpt>
      <trkpt lat="43.0725980" lon="-1.7657150">
        <ele>630.255981</ele>
        <time>2014-08-17T08:26:54.000Z</time>
      </trkpt>
      <trkpt lat="43.0725880" lon="-1.7656810">
        <ele>631.010986</ele>
        <time>2014-08-17T08:26:55.000Z</time>
      </trkpt>
      <trkpt lat="43.0725800" lon="-1.7656490">
        <ele>631.406982</ele>
        <time>2014-08-17T08:26:56.000Z</time>
      </trkpt>
      <trkpt lat="43.0725660" lon="-1.7655990">
        <ele>631.862000</ele>
        <time>2014-08-17T08:26:58.000Z</time>
      </trkpt>
      <trkpt lat="43.0725450" lon="-1.7655560">
        <ele>632.209961</ele>
        <time>2014-08-17T08:27:00.000Z</time>
      </trkpt>
      <trkpt lat="43.0725360" lon="-1.7655380">
        <ele>632.893005</ele>
        <time>2014-08-17T08:27:01.000Z</time>
      </trkpt>
      <trkpt lat="43.0725220" lon="-1.7655260">
        <ele>633.274963</ele>
        <time>2014-08-17T08:27:02.000Z</time>
      </trkpt>
      <trkpt lat="43.0725070" lon="-1.7655140">
        <ele>633.674011</ele>
        <time>2014-08-17T08:27:03.000Z</time>
      </trkpt>
      <trkpt lat="43.0724870" lon="-1.7655080">
        <ele>633.696045</ele>
        <time>2014-08-17T08:27:04.000Z</time>
      </trkpt>
      <trkpt lat="43.0724750" lon="-1.7655070">
        <ele>634.068970</ele>
        <time>2014-08-17T08:27:05.000Z</time>
      </trkpt>
      <trkpt lat="43.0724260" lon="-1.7655610">
        <ele>634.440979</ele>
        <time>2014-08-17T08:27:08.000Z</time>
      </trkpt>
      <trkpt lat="43.0724150" lon="-1.7655950">
        <ele>634.880981</ele>
        <time>2014-08-17T08:27:09.000Z</time>
      </trkpt>
      <trkpt lat="43.0724030" lon="-1.7656290">
        <ele>635.208984</ele>
        <time>2014-08-17T08:27:10.000Z</time>
      </trkpt>
      <trkpt lat="43.0723910" lon="-1.7656670">
        <ele>635.606995</ele>
        <time>2014-08-17T08:27:11.000Z</time>
      </trkpt>
      <trkpt lat="43.0723820" lon="-1.7657100">
        <ele>635.681030</ele>
        <time>2014-08-17T08:27:12.000Z</time>
      </trkpt>
      <trkpt lat="43.0723670" lon="-1.7658180">
        <ele>636.299011</ele>
        <time>2014-08-17T08:27:15.000Z</time>
      </trkpt>
      <trkpt lat="43.0723480" lon="-1.7660160">
        <ele>636.621948</ele>
        <time>2014-08-17T08:27:20.000Z</time>
      </trkpt>
      <trkpt lat="43.0723440" lon="-1.7660560">
        <ele>637.023987</ele>
        <time>2014-08-17T08:27:21.000Z</time>
      </trkpt>
      <trkpt lat="43.0723430" lon="-1.7660970">
        <ele>637.463013</ele>
        <time>2014-08-17T08:27:22.000Z</time>
      </trkpt>
      <trkpt lat="43.0723420" lon="-1.7661350">
        <ele>638.075012</ele>
        <time>2014-08-17T08:27:23.000Z</time>
      </trkpt>
      <trkpt lat="43.0723380" lon="-1.7661750">
        <ele>638.028015</ele>
        <time>2014-08-17T08:27:24.000Z</time>
      </trkpt>
      <trkpt lat="43.0723190" lon="-1.7663380">
        <ele>638.017029</ele>
        <time>2014-08-17T08:27:28.000Z</time>
      </trkpt>
      <trkpt lat="43.0722970" lon="-1.7664830">
        <ele>638.086975</ele>
        <time>2014-08-17T08:27:31.000Z</time>
      </trkpt>
      <trkpt lat="43.0722720" lon="-1.7666250">
        <ele>638.015015</ele>
        <time>2014-08-17T08:27:34.000Z</time>
      </trkpt>
      <trkpt lat="43.0722590" lon="-1.7667390">
        <ele>638.006958</ele>
        <time>2014-08-17T08:27:36.000Z</time>
      </trkpt>
      <trkpt lat="43.0722300" lon="-1.7669510">
        <ele>638.028015</ele>
        <time>2014-08-17T08:27:39.000Z</time>
      </trkpt>
      <trkpt lat="43.0722140" lon="-1.7670170">
        <ele>638.026001</ele>
        <time>2014-08-17T08:27:40.000Z</time>
      </trkpt>
      <trkpt lat="43.0722000" lon="-1.7670860">
        <ele>638.078979</ele>
        <time>2014-08-17T08:27:41.000Z</time>
      </trkpt>
      <trkpt lat="43.0721740" lon="-1.7672370">
        <ele>638.051025</ele>
        <time>2014-08-17T08:27:43.000Z</time>
      </trkpt>
      <trkpt lat="43.0721590" lon="-1.7673190">
        <ele>638.010010</ele>
        <time>2014-08-17T08:27:44.000Z</time>
      </trkpt>
      <trkpt lat="43.0721470" lon="-1.7673980">
        <ele>637.431946</ele>
        <time>2014-08-17T08:27:45.000Z</time>
      </trkpt>
      <trkpt lat="43.0721300" lon="-1.7674830">
        <ele>637.064941</ele>
        <time>2014-08-17T08:27:46.000Z</time>
      </trkpt>
      <trkpt lat="43.0721100" lon="-1.7675710">
        <ele>636.696960</ele>
        <time>2014-08-17T08:27:47.000Z</time>
      </trkpt>
      <trkpt lat="43.0720880" lon="-1.7676580">
        <ele>635.622986</ele>
        <time>2014-08-17T08:27:48.000Z</time>
      </trkpt>
      <trkpt lat="43.0720690" lon="-1.7677370">
        <ele>635.625000</ele>
        <time>2014-08-17T08:27:49.000Z</time>
      </trkpt>
      <trkpt lat="43.0720490" lon="-1.7678120">
        <ele>635.606995</ele>
        <time>2014-08-17T08:27:50.000Z</time>
      </trkpt>
      <trkpt lat="43.0720280" lon="-1.7678830">
        <ele>635.645935</ele>
        <time>2014-08-17T08:27:51.000Z</time>
      </trkpt>
      <trkpt lat="43.0719820" lon="-1.7680090">
        <ele>635.683960</ele>
        <time>2014-08-17T08:27:53.000Z</time>
      </trkpt>
      <trkpt lat="43.0719570" lon="-1.7680560">
        <ele>635.647034</ele>
        <time>2014-08-17T08:27:54.000Z</time>
      </trkpt>
      <trkpt lat="43.0719260" lon="-1.7680910">
        <ele>635.628967</ele>
        <time>2014-08-17T08:27:55.000Z</time>
      </trkpt>
      <trkpt lat="43.0718460" lon="-1.7681340">
        <ele>635.647949</ele>
        <time>2014-08-17T08:27:58.000Z</time>
      </trkpt>
      <trkpt lat="43.0718100" lon="-1.7681380">
        <ele>635.660034</ele>
        <time>2014-08-17T08:27:59.000Z</time>
      </trkpt>
      <trkpt lat="43.0717440" lon="-1.7681480">
        <ele>635.622986</ele>
        <time>2014-08-17T08:28:01.000Z</time>
      </trkpt>
      <trkpt lat="43.0716620" lon="-1.7681700">
        <ele>635.640991</ele>
        <time>2014-08-17T08:28:04.000Z</time>
      </trkpt>
      <trkpt lat="43.0716390" lon="-1.7681730">
        <ele>636.080994</ele>
        <time>2014-08-17T08:28:05.000Z</time>
      </trkpt>
      <trkpt lat="43.0715790" lon="-1.7681800">
        <ele>636.408997</ele>
        <time>2014-08-17T08:28:08.000Z</time>
      </trkpt>
      <trkpt lat="43.0715600" lon="-1.7681840">
        <ele>636.806946</ele>
        <time>2014-08-17T08:28:09.000Z</time>
      </trkpt>
      <trkpt lat="43.0715380" lon="-1.7681890">
        <ele>637.250977</ele>
        <time>2014-08-17T08:28:10.000Z</time>
      </trkpt>
      <trkpt lat="43.0715080" lon="-1.7681930">
        <ele>637.638977</ele>
        <time>2014-08-17T08:28:11.000Z</time>
      </trkpt>
      <trkpt lat="43.0714770" lon="-1.7682010">
        <ele>637.672058</ele>
        <time>2014-08-17T08:28:12.000Z</time>
      </trkpt>
      <trkpt lat="43.0714190" lon="-1.7682230">
        <ele>637.654053</ele>
        <time>2014-08-17T08:28:14.000Z</time>
      </trkpt>
      <trkpt lat="43.0713500" lon="-1.7682400">
        <ele>637.692993</ele>
        <time>2014-08-17T08:28:16.000Z</time>
      </trkpt>
      <trkpt lat="43.0713230" lon="-1.7682470">
        <ele>638.075012</ele>
        <time>2014-08-17T08:28:17.000Z</time>
      </trkpt>
      <trkpt lat="43.0712610" lon="-1.7682510">
        <ele>638.487976</ele>
        <time>2014-08-17T08:28:19.000Z</time>
      </trkpt>
      <trkpt lat="43.0712320" lon="-1.7682460">
        <ele>638.813049</ele>
        <time>2014-08-17T08:28:20.000Z</time>
      </trkpt>
      <trkpt lat="43.0712030" lon="-1.7682410">
        <ele>639.242981</ele>
        <time>2014-08-17T08:28:21.000Z</time>
      </trkpt>
      <trkpt lat="43.0711770" lon="-1.7682360">
        <ele>639.606995</ele>
        <time>2014-08-17T08:28:22.000Z</time>
      </trkpt>
      <trkpt lat="43.0711510" lon="-1.7682270">
        <ele>639.606995</ele>
        <time>2014-08-17T08:28:23.000Z</time>
      </trkpt>
      <trkpt lat="43.0710820" lon="-1.7682100">
        <ele>640.067993</ele>
        <time>2014-08-17T08:28:26.000Z</time>
      </trkpt>
      <trkpt lat="43.0710640" lon="-1.7682120">
        <ele>640.445984</ele>
        <time>2014-08-17T08:28:27.000Z</time>
      </trkpt>
      <trkpt lat="43.0710530" lon="-1.7682110">
        <ele>641.088989</ele>
        <time>2014-08-17T08:28:28.000Z</time>
      </trkpt>
      <trkpt lat="43.0710370" lon="-1.7682090">
        <ele>641.430969</ele>
        <time>2014-08-17T08:28:29.000Z</time>
      </trkpt>
      <trkpt lat="43.0710200" lon="-1.7682050">
        <ele>641.850037</ele>
        <time>2014-08-17T08:28:30.000Z</time>
      </trkpt>
      <trkpt lat="43.0710010" lon="-1.7682010">
        <ele>641.841980</ele>
        <time>2014-08-17T08:28:31.000Z</time>
      </trkpt>
      <trkpt lat="43.0709560" lon="-1.7681870">
        <ele>642.235046</ele>
        <time>2014-08-17T08:28:33.000Z</time>
      </trkpt>
      <trkpt lat="43.0709270" lon="-1.7681840">
        <ele>642.678955</ele>
        <time>2014-08-17T08:28:34.000Z</time>
      </trkpt>
      <trkpt lat="43.0708990" lon="-1.7681800">
        <ele>643.005005</ele>
        <time>2014-08-17T08:28:35.000Z</time>
      </trkpt>
      <trkpt lat="43.0708740" lon="-1.7681770">
        <ele>643.625000</ele>
        <time>2014-08-17T08:28:36.000Z</time>
      </trkpt>
      <trkpt lat="43.0708450" lon="-1.7681700">
        <ele>644.006958</ele>
        <time>2014-08-17T08:28:37.000Z</time>
      </trkpt>
      <trkpt lat="43.0708140" lon="-1.7681620">
        <ele>644.453979</ele>
        <time>2014-08-17T08:28:38.000Z</time>
      </trkpt>
      <trkpt lat="43.0707610" lon="-1.7681400">
        <ele>644.812012</ele>
        <time>2014-08-17T08:28:40.000Z</time>
      </trkpt>
      <trkpt lat="43.0707330" lon="-1.7681310">
        <ele>645.275024</ele>
        <time>2014-08-17T08:28:41.000Z</time>
      </trkpt>
      <trkpt lat="43.0707060" lon="-1.7681220">
        <ele>645.666992</ele>
        <time>2014-08-17T08:28:42.000Z</time>
      </trkpt>
      <trkpt lat="43.0706770" lon="-1.7681090">
        <ele>646.026001</ele>
        <time>2014-08-17T08:28:43.000Z</time>
      </trkpt>
      <trkpt lat="43.0706460" lon="-1.7680980">
        <ele>646.068054</ele>
        <time>2014-08-17T08:28:44.000Z</time>
      </trkpt>
      <trkpt lat="43.0705510" lon="-1.7680630">
        <ele>646.440979</ele>
        <time>2014-08-17T08:28:47.000Z</time>
      </trkpt>
      <trkpt lat="43.0704890" lon="-1.7680370">
        <ele>646.828003</ele>
        <time>2014-08-17T08:28:49.000Z</time>
      </trkpt>
      <trkpt lat="43.0704640" lon="-1.7680290">
        <ele>647.289001</ele>
        <time>2014-08-17T08:28:50.000Z</time>
      </trkpt>
      <trkpt lat="43.0704370" lon="-1.7680180">
        <ele>647.617004</ele>
        <time>2014-08-17T08:28:51.000Z</time>
      </trkpt>
      <trkpt lat="43.0704090" lon="-1.7680090">
        <ele>648.206970</ele>
        <time>2014-08-17T08:28:52.000Z</time>
      </trkpt>
      <trkpt lat="43.0703790" lon="-1.7679980">
        <ele>648.688965</ele>
        <time>2014-08-17T08:28:53.000Z</time>
      </trkpt>
      <trkpt lat="43.0701990" lon="-1.7679270">
        <ele>649.497009</ele>
        <time>2014-08-17T08:28:59.000Z</time>
      </trkpt>
      <trkpt lat="43.0701670" lon="-1.7679080">
        <ele>649.809998</ele>
        <time>2014-08-17T08:29:00.000Z</time>
      </trkpt>
      <trkpt lat="43.0701170" lon="-1.7678690">
        <ele>650.231995</ele>
        <time>2014-08-17T08:29:02.000Z</time>
      </trkpt>
      <trkpt lat="43.0700930" lon="-1.7678450">
        <ele>650.670959</ele>
        <time>2014-08-17T08:29:03.000Z</time>
      </trkpt>
      <trkpt lat="43.0699850" lon="-1.7677480">
        <ele>651.062988</ele>
        <time>2014-08-17T08:29:07.000Z</time>
      </trkpt>
      <trkpt lat="43.0699560" lon="-1.7677200">
        <ele>651.445984</ele>
        <time>2014-08-17T08:29:08.000Z</time>
      </trkpt>
      <trkpt lat="43.0699300" lon="-1.7676950">
        <ele>651.849060</ele>
        <time>2014-08-17T08:29:09.000Z</time>
      </trkpt>
      <trkpt lat="43.0699040" lon="-1.7676690">
        <ele>652.201965</ele>
        <time>2014-08-17T08:29:10.000Z</time>
      </trkpt>
      <trkpt lat="43.0698760" lon="-1.7676440">
        <ele>652.221985</ele>
        <time>2014-08-17T08:29:11.000Z</time>
      </trkpt>
      <trkpt lat="43.0698210" lon="-1.7676130">
        <ele>652.207031</ele>
        <time>2014-08-17T08:29:13.000Z</time>
      </trkpt>
      <trkpt lat="43.0696170" lon="-1.7675930">
        <ele>652.611023</ele>
        <time>2014-08-17T08:29:19.000Z</time>
      </trkpt>
      <trkpt lat="43.0695810" lon="-1.7675990">
        <ele>653.049011</ele>
        <time>2014-08-17T08:29:20.000Z</time>
      </trkpt>
      <trkpt lat="43.0695470" lon="-1.7676070">
        <ele>653.481995</ele>
        <time>2014-08-17T08:29:21.000Z</time>
      </trkpt>
      <trkpt lat="43.0695110" lon="-1.7676160">
        <ele>654.044006</ele>
        <time>2014-08-17T08:29:22.000Z</time>
      </trkpt>
      <trkpt lat="43.0694720" lon="-1.7676260">
        <ele>654.462952</ele>
        <time>2014-08-17T08:29:23.000Z</time>
      </trkpt>
      <trkpt lat="43.0694440" lon="-1.7676340">
        <ele>654.464966</ele>
        <time>2014-08-17T08:29:24.000Z</time>
      </trkpt>
      <trkpt lat="43.0693840" lon="-1.7676420">
        <ele>654.828003</ele>
        <time>2014-08-17T08:29:26.000Z</time>
      </trkpt>
      <trkpt lat="43.0691970" lon="-1.7676800">
        <ele>655.226990</ele>
        <time>2014-08-17T08:29:32.000Z</time>
      </trkpt>
      <trkpt lat="43.0691690" lon="-1.7676900">
        <ele>655.668030</ele>
        <time>2014-08-17T08:29:33.000Z</time>
      </trkpt>
      <trkpt lat="43.0691400" lon="-1.7677010">
        <ele>656.013977</ele>
        <time>2014-08-17T08:29:34.000Z</time>
      </trkpt>
      <trkpt lat="43.0691090" lon="-1.7677170">
        <ele>656.406982</ele>
        <time>2014-08-17T08:29:35.000Z</time>
      </trkpt>
      <trkpt lat="43.0690760" lon="-1.7677270">
        <ele>656.488953</ele>
        <time>2014-08-17T08:29:36.000Z</time>
      </trkpt>
      <trkpt lat="43.0690140" lon="-1.7677350">
        <ele>656.456970</ele>
        <time>2014-08-17T08:29:38.000Z</time>
      </trkpt>
      <trkpt lat="43.0688770" lon="-1.7678010">
        <ele>656.830017</ele>
        <time>2014-08-17T08:29:43.000Z</time>
      </trkpt>
      <trkpt lat="43.0688340" lon="-1.7678490">
        <ele>657.261963</ele>
        <time>2014-08-17T08:29:45.000Z</time>
      </trkpt>
      <trkpt lat="43.0688150" lon="-1.7678720">
        <ele>657.811035</ele>
        <time>2014-08-17T08:29:46.000Z</time>
      </trkpt>
      <trkpt lat="43.0687940" lon="-1.7678990">
        <ele>658.283020</ele>
        <time>2014-08-17T08:29:47.000Z</time>
      </trkpt>
      <trkpt lat="43.0687720" lon="-1.7679230">
        <ele>658.666016</ele>
        <time>2014-08-17T08:29:48.000Z</time>
      </trkpt>
      <trkpt lat="43.0687480" lon="-1.7679500">
        <ele>659.082031</ele>
        <time>2014-08-17T08:29:49.000Z</time>
      </trkpt>
      <trkpt lat="43.0686660" lon="-1.7680550">
        <ele>659.643005</ele>
        <time>2014-08-17T08:29:53.000Z</time>
      </trkpt>
      <trkpt lat="43.0686450" lon="-1.7680830">
        <ele>660.017029</ele>
        <time>2014-08-17T08:29:54.000Z</time>
      </trkpt>
      <trkpt lat="43.0686250" lon="-1.7681080">
        <ele>660.407043</ele>
        <time>2014-08-17T08:29:55.000Z</time>
      </trkpt>
      <trkpt lat="43.0686060" lon="-1.7681360">
        <ele>660.825012</ele>
        <time>2014-08-17T08:29:56.000Z</time>
      </trkpt>
      <trkpt lat="43.0685860" lon="-1.7681700">
        <ele>661.242981</ele>
        <time>2014-08-17T08:29:57.000Z</time>
      </trkpt>
      <trkpt lat="43.0684960" lon="-1.7683450">
        <ele>661.696045</ele>
        <time>2014-08-17T08:30:02.000Z</time>
      </trkpt>
      <trkpt lat="43.0684730" lon="-1.7683710">
        <ele>662.237976</ele>
        <time>2014-08-17T08:30:03.000Z</time>
      </trkpt>
      <trkpt lat="43.0684480" lon="-1.7683970">
        <ele>662.696960</ele>
        <time>2014-08-17T08:30:04.000Z</time>
      </trkpt>
      <trkpt lat="43.0684230" lon="-1.7684270">
        <ele>663.078979</ele>
        <time>2014-08-17T08:30:05.000Z</time>
      </trkpt>
      <trkpt lat="43.0684000" lon="-1.7684610">
        <ele>663.081970</ele>
        <time>2014-08-17T08:30:06.000Z</time>
      </trkpt>
      <trkpt lat="43.0683680" lon="-1.7685590">
        <ele>663.096985</ele>
        <time>2014-08-17T08:30:08.000Z</time>
      </trkpt>
      <trkpt lat="43.0683690" lon="-1.7686960">
        <ele>663.423035</ele>
        <time>2014-08-17T08:30:12.000Z</time>
      </trkpt>
      <trkpt lat="43.0683940" lon="-1.7686960">
        <ele>663.825012</ele>
        <time>2014-08-17T08:30:13.000Z</time>
      </trkpt>
      <trkpt lat="43.0684190" lon="-1.7686940">
        <ele>664.206970</ele>
        <time>2014-08-17T08:30:14.000Z</time>
      </trkpt>
      <trkpt lat="43.0684450" lon="-1.7686920">
        <ele>664.876038</ele>
        <time>2014-08-17T08:30:15.000Z</time>
      </trkpt>
      <trkpt lat="43.0684770" lon="-1.7686950">
        <ele>665.264038</ele>
        <time>2014-08-17T08:30:16.000Z</time>
      </trkpt>
      <trkpt lat="43.0685070" lon="-1.7686950">
        <ele>665.216980</ele>
        <time>2014-08-17T08:30:17.000Z</time>
      </trkpt>
      <trkpt lat="43.0685370" lon="-1.7686970">
        <ele>665.669006</ele>
        <time>2014-08-17T08:30:18.000Z</time>
      </trkpt>
      <trkpt lat="43.0686290" lon="-1.7686900">
        <ele>666.047974</ele>
        <time>2014-08-17T08:30:21.000Z</time>
      </trkpt>
      <trkpt lat="43.0686600" lon="-1.7686810">
        <ele>666.450012</ele>
        <time>2014-08-17T08:30:22.000Z</time>
      </trkpt>
      <trkpt lat="43.0686920" lon="-1.7686720">
        <ele>667.023010</ele>
        <time>2014-08-17T08:30:23.000Z</time>
      </trkpt>
      <trkpt lat="43.0687200" lon="-1.7686640">
        <ele>667.418030</ele>
        <time>2014-08-17T08:30:24.000Z</time>
      </trkpt>
      <trkpt lat="43.0687490" lon="-1.7686600">
        <ele>667.497986</ele>
        <time>2014-08-17T08:30:25.000Z</time>
      </trkpt>
      <trkpt lat="43.0688930" lon="-1.7686400">
        <ele>667.817017</ele>
        <time>2014-08-17T08:30:30.000Z</time>
      </trkpt>
      <trkpt lat="43.0689490" lon="-1.7686360">
        <ele>668.207031</ele>
        <time>2014-08-17T08:30:32.000Z</time>
      </trkpt>
      <trkpt lat="43.0689770" lon="-1.7686350">
        <ele>668.677979</ele>
        <time>2014-08-17T08:30:33.000Z</time>
      </trkpt>
      <trkpt lat="43.0690040" lon="-1.7686340">
        <ele>669.045959</ele>
        <time>2014-08-17T08:30:34.000Z</time>
      </trkpt>
      <trkpt lat="43.0690320" lon="-1.7686380">
        <ele>669.658997</ele>
        <time>2014-08-17T08:30:35.000Z</time>
      </trkpt>
      <trkpt lat="43.0690600" lon="-1.7686440">
        <ele>669.690979</ele>
        <time>2014-08-17T08:30:36.000Z</time>
      </trkpt>
      <trkpt lat="43.0690910" lon="-1.7686470">
        <ele>670.090027</ele>
        <time>2014-08-17T08:30:37.000Z</time>
      </trkpt>
      <trkpt lat="43.0692180" lon="-1.7687120">
        <ele>670.492004</ele>
        <time>2014-08-17T08:30:42.000Z</time>
      </trkpt>
      <trkpt lat="43.0692430" lon="-1.7687290">
        <ele>670.875000</ele>
        <time>2014-08-17T08:30:43.000Z</time>
      </trkpt>
      <trkpt lat="43.0692660" lon="-1.7687460">
        <ele>671.263000</ele>
        <time>2014-08-17T08:30:44.000Z</time>
      </trkpt>
      <trkpt lat="43.0692860" lon="-1.7687720">
        <ele>671.643982</ele>
        <time>2014-08-17T08:30:45.000Z</time>
      </trkpt>
      <trkpt lat="43.0693020" lon="-1.7688030">
        <ele>671.618042</ele>
        <time>2014-08-17T08:30:46.000Z</time>
      </trkpt>
      <trkpt lat="43.0693680" lon="-1.7689260">
        <ele>672.006958</ele>
        <time>2014-08-17T08:30:50.000Z</time>
      </trkpt>
      <trkpt lat="43.0694310" lon="-1.7691350">
        <ele>672.473022</ele>
        <time>2014-08-17T08:30:56.000Z</time>
      </trkpt>
      <trkpt lat="43.0694410" lon="-1.7691660">
        <ele>672.880981</ele>
        <time>2014-08-17T08:30:57.000Z</time>
      </trkpt>
      <trkpt lat="43.0694580" lon="-1.7691960">
        <ele>673.213989</ele>
        <time>2014-08-17T08:30:58.000Z</time>
      </trkpt>
      <trkpt lat="43.0694730" lon="-1.7692260">
        <ele>673.616028</ele>
        <time>2014-08-17T08:30:59.000Z</time>
      </trkpt>
      <trkpt lat="43.0694860" lon="-1.7692580">
        <ele>673.684998</ele>
        <time>2014-08-17T08:31:00.000Z</time>
      </trkpt>
      <trkpt lat="43.0695430" lon="-1.7693590">
        <ele>674.077026</ele>
        <time>2014-08-17T08:31:03.000Z</time>
      </trkpt>
      <trkpt lat="43.0696190" lon="-1.7694720">
        <ele>674.459961</ele>
        <time>2014-08-17T08:31:07.000Z</time>
      </trkpt>
      <trkpt lat="43.0696410" lon="-1.7694960">
        <ele>675.031982</ele>
        <time>2014-08-17T08:31:08.000Z</time>
      </trkpt>
      <trkpt lat="43.0696630" lon="-1.7695220">
        <ele>675.492004</ele>
        <time>2014-08-17T08:31:09.000Z</time>
      </trkpt>
      <trkpt lat="43.0696830" lon="-1.7695460">
        <ele>675.811035</ele>
        <time>2014-08-17T08:31:10.000Z</time>
      </trkpt>
      <trkpt lat="43.0697070" lon="-1.7695660">
        <ele>675.807007</ele>
        <time>2014-08-17T08:31:11.000Z</time>
      </trkpt>
      <trkpt lat="43.0698000" lon="-1.7696640">
        <ele>676.250000</ele>
        <time>2014-08-17T08:31:16.000Z</time>
      </trkpt>
      <trkpt lat="43.0698180" lon="-1.7696800">
        <ele>676.627991</ele>
        <time>2014-08-17T08:31:17.000Z</time>
      </trkpt>
      <trkpt lat="43.0698360" lon="-1.7696970">
        <ele>677.061035</ele>
        <time>2014-08-17T08:31:18.000Z</time>
      </trkpt>
      <trkpt lat="43.0698540" lon="-1.7697140">
        <ele>677.482971</ele>
        <time>2014-08-17T08:31:19.000Z</time>
      </trkpt>
      <trkpt lat="43.0698770" lon="-1.7697300">
        <ele>677.862000</ele>
        <time>2014-08-17T08:31:20.000Z</time>
      </trkpt>
      <trkpt lat="43.0699010" lon="-1.7697480">
        <ele>677.843994</ele>
        <time>2014-08-17T08:31:21.000Z</time>
      </trkpt>
      <trkpt lat="43.0699990" lon="-1.7697780">
        <ele>678.246948</ele>
        <time>2014-08-17T08:31:24.000Z</time>
      </trkpt>
      <trkpt lat="43.0700980" lon="-1.7698030">
        <ele>678.856995</ele>
        <time>2014-08-17T08:31:27.000Z</time>
      </trkpt>
      <trkpt lat="43.0701390" lon="-1.7698090">
        <ele>679.200012</ele>
        <time>2014-08-17T08:31:28.000Z</time>
      </trkpt>
      <trkpt lat="43.0701780" lon="-1.7698120">
        <ele>679.619995</ele>
        <time>2014-08-17T08:31:29.000Z</time>
      </trkpt>
      <trkpt lat="43.0702180" lon="-1.7698170">
        <ele>680.007019</ele>
        <time>2014-08-17T08:31:30.000Z</time>
      </trkpt>
      <trkpt lat="43.0702600" lon="-1.7698250">
        <ele>680.041992</ele>
        <time>2014-08-17T08:31:31.000Z</time>
      </trkpt>
      <trkpt lat="43.0704730" lon="-1.7698790">
        <ele>680.470032</ele>
        <time>2014-08-17T08:31:37.000Z</time>
      </trkpt>
      <trkpt lat="43.0705750" lon="-1.7699040">
        <ele>680.862976</ele>
        <time>2014-08-17T08:31:40.000Z</time>
      </trkpt>
      <trkpt lat="43.0706100" lon="-1.7699100">
        <ele>681.294983</ele>
        <time>2014-08-17T08:31:41.000Z</time>
      </trkpt>
      <trkpt lat="43.0706440" lon="-1.7699150">
        <ele>681.624023</ele>
        <time>2014-08-17T08:31:42.000Z</time>
      </trkpt>
      <trkpt lat="43.0706790" lon="-1.7699210">
        <ele>682.095947</ele>
        <time>2014-08-17T08:31:43.000Z</time>
      </trkpt>
      <trkpt lat="43.0707140" lon="-1.7699300">
        <ele>682.069031</ele>
        <time>2014-08-17T08:31:44.000Z</time>
      </trkpt>
      <trkpt lat="43.0709100" lon="-1.7699820">
        <ele>682.463989</ele>
        <time>2014-08-17T08:31:50.000Z</time>
      </trkpt>
      <trkpt lat="43.0709430" lon="-1.7699890">
        <ele>682.806030</ele>
        <time>2014-08-17T08:31:51.000Z</time>
      </trkpt>
      <trkpt lat="43.0709770" lon="-1.7700050">
        <ele>683.215942</ele>
        <time>2014-08-17T08:31:52.000Z</time>
      </trkpt>
      <trkpt lat="43.0710130" lon="-1.7700200">
        <ele>683.606995</ele>
        <time>2014-08-17T08:31:53.000Z</time>
      </trkpt>
      <trkpt lat="43.0710520" lon="-1.7700270">
        <ele>684.013000</ele>
        <time>2014-08-17T08:31:54.000Z</time>
      </trkpt>
      <trkpt lat="43.0710890" lon="-1.7700320">
        <ele>684.091003</ele>
        <time>2014-08-17T08:31:55.000Z</time>
      </trkpt>
      <trkpt lat="43.0713100" lon="-1.7700770">
        <ele>684.693970</ele>
        <time>2014-08-17T08:32:01.000Z</time>
      </trkpt>
      <trkpt lat="43.0715020" lon="-1.7701100">
        <ele>685.085999</ele>
        <time>2014-08-17T08:32:06.000Z</time>
      </trkpt>
      <trkpt lat="43.0715370" lon="-1.7701190">
        <ele>685.475037</ele>
        <time>2014-08-17T08:32:07.000Z</time>
      </trkpt>
      <trkpt lat="43.0715690" lon="-1.7701310">
        <ele>685.827026</ele>
        <time>2014-08-17T08:32:08.000Z</time>
      </trkpt>
      <trkpt lat="43.0715980" lon="-1.7701390">
        <ele>686.260010</ele>
        <time>2014-08-17T08:32:09.000Z</time>
      </trkpt>
      <trkpt lat="43.0716290" lon="-1.7701420">
        <ele>686.235046</ele>
        <time>2014-08-17T08:32:10.000Z</time>
      </trkpt>
      <trkpt lat="43.0717330" lon="-1.7701320">
        <ele>686.885986</ele>
        <time>2014-08-17T08:32:13.000Z</time>
      </trkpt>
      <trkpt lat="43.0718050" lon="-1.7701350">
        <ele>687.213989</ele>
        <time>2014-08-17T08:32:15.000Z</time>
      </trkpt>
      <trkpt lat="43.0718450" lon="-1.7701460">
        <ele>687.606995</ele>
        <time>2014-08-17T08:32:16.000Z</time>
      </trkpt>
      <trkpt lat="43.0718820" lon="-1.7701680">
        <ele>688.279968</ele>
        <time>2014-08-17T08:32:17.000Z</time>
      </trkpt>
      <trkpt lat="43.0719130" lon="-1.7701910">
        <ele>688.628052</ele>
        <time>2014-08-17T08:32:18.000Z</time>
      </trkpt>
      <trkpt lat="43.0719430" lon="-1.7702120">
        <ele>689.071045</ele>
        <time>2014-08-17T08:32:19.000Z</time>
      </trkpt>
      <trkpt lat="43.0719940" lon="-1.7702750">
        <ele>689.442993</ele>
        <time>2014-08-17T08:32:21.000Z</time>
      </trkpt>
      <trkpt lat="43.0720210" lon="-1.7703160">
        <ele>689.812012</ele>
        <time>2014-08-17T08:32:22.000Z</time>
      </trkpt>
      <trkpt lat="43.0720460" lon="-1.7703590">
        <ele>690.294006</ele>
        <time>2014-08-17T08:32:23.000Z</time>
      </trkpt>
      <trkpt lat="43.0720690" lon="-1.7704010">
        <ele>690.846985</ele>
        <time>2014-08-17T08:32:24.000Z</time>
      </trkpt>
      <trkpt lat="43.0720890" lon="-1.7704460">
        <ele>690.864014</ele>
        <time>2014-08-17T08:32:25.000Z</time>
      </trkpt>
      <trkpt lat="43.0721390" lon="-1.7706390">
        <ele>691.206055</ele>
        <time>2014-08-17T08:32:29.000Z</time>
      </trkpt>
      <trkpt lat="43.0721340" lon="-1.7708000">
        <ele>691.615967</ele>
        <time>2014-08-17T08:32:32.000Z</time>
      </trkpt>
      <trkpt lat="43.0721290" lon="-1.7708540">
        <ele>692.007019</ele>
        <time>2014-08-17T08:32:33.000Z</time>
      </trkpt>
      <trkpt lat="43.0721250" lon="-1.7709060">
        <ele>692.482971</ele>
        <time>2014-08-17T08:32:34.000Z</time>
      </trkpt>
      <trkpt lat="43.0721190" lon="-1.7709570">
        <ele>692.870972</ele>
        <time>2014-08-17T08:32:35.000Z</time>
      </trkpt>
      <trkpt lat="43.0721150" lon="-1.7710050">
        <ele>692.893982</ele>
        <time>2014-08-17T08:32:36.000Z</time>
      </trkpt>
      <trkpt lat="43.0720990" lon="-1.7711980">
        <ele>693.246033</ele>
        <time>2014-08-17T08:32:40.000Z</time>
      </trkpt>
      <trkpt lat="43.0720920" lon="-1.7712570">
        <ele>693.614990</ele>
        <time>2014-08-17T08:32:41.000Z</time>
      </trkpt>
      <trkpt lat="43.0720790" lon="-1.7713130">
        <ele>694.077026</ele>
        <time>2014-08-17T08:32:42.000Z</time>
      </trkpt>
      <trkpt lat="43.0720750" lon="-1.7713700">
        <ele>694.480042</ele>
        <time>2014-08-17T08:32:43.000Z</time>
      </trkpt>
      <trkpt lat="43.0720720" lon="-1.7714290">
        <ele>694.816956</ele>
        <time>2014-08-17T08:32:44.000Z</time>
      </trkpt>
      <trkpt lat="43.0720690" lon="-1.7714920">
        <ele>695.286987</ele>
        <time>2014-08-17T08:32:45.000Z</time>
      </trkpt>
      <trkpt lat="43.0720540" lon="-1.7715990">
        <ele>695.815002</ele>
        <time>2014-08-17T08:32:47.000Z</time>
      </trkpt>
      <trkpt lat="43.0720530" lon="-1.7716480">
        <ele>696.207031</ele>
        <time>2014-08-17T08:32:48.000Z</time>
      </trkpt>
      <trkpt lat="43.0720490" lon="-1.7716930">
        <ele>696.677979</ele>
        <time>2014-08-17T08:32:49.000Z</time>
      </trkpt>
      <trkpt lat="43.0720420" lon="-1.7717390">
        <ele>697.045959</ele>
        <time>2014-08-17T08:32:50.000Z</time>
      </trkpt>
      <trkpt lat="43.0720390" lon="-1.7717780">
        <ele>697.619019</ele>
        <time>2014-08-17T08:32:51.000Z</time>
      </trkpt>
      <trkpt lat="43.0720290" lon="-1.7718850">
        <ele>698.071045</ele>
        <time>2014-08-17T08:32:54.000Z</time>
      </trkpt>
      <trkpt lat="43.0720300" lon="-1.7719180">
        <ele>698.470032</ele>
        <time>2014-08-17T08:32:55.000Z</time>
      </trkpt>
      <trkpt lat="43.0720310" lon="-1.7719510">
        <ele>699.082031</ele>
        <time>2014-08-17T08:32:56.000Z</time>
      </trkpt>
      <trkpt lat="43.0720280" lon="-1.7719910">
        <ele>699.415039</ele>
        <time>2014-08-17T08:32:57.000Z</time>
      </trkpt>
      <trkpt lat="43.0720250" lon="-1.7720270">
        <ele>699.465027</ele>
        <time>2014-08-17T08:32:58.000Z</time>
      </trkpt>
      <trkpt lat="43.0720170" lon="-1.7721050">
        <ele>699.867981</ele>
        <time>2014-08-17T08:33:00.000Z</time>
      </trkpt>
      <trkpt lat="43.0720040" lon="-1.7722360">
        <ele>700.213989</ele>
        <time>2014-08-17T08:33:03.000Z</time>
      </trkpt>
      <trkpt lat="43.0719980" lon="-1.7722820">
        <ele>700.606995</ele>
        <time>2014-08-17T08:33:04.000Z</time>
      </trkpt>
      <trkpt lat="43.0719940" lon="-1.7723280">
        <ele>701.233032</ele>
        <time>2014-08-17T08:33:05.000Z</time>
      </trkpt>
      <trkpt lat="43.0719880" lon="-1.7723750">
        <ele>701.651001</ele>
        <time>2014-08-17T08:33:06.000Z</time>
      </trkpt>
      <trkpt lat="43.0719820" lon="-1.7724210">
        <ele>702.463989</ele>
        <time>2014-08-17T08:33:07.000Z</time>
      </trkpt>
      <trkpt lat="43.0719490" lon="-1.7725970">
        <ele>702.825989</ele>
        <time>2014-08-17T08:33:11.000Z</time>
      </trkpt>
      <trkpt lat="43.0719350" lon="-1.7726380">
        <ele>703.465027</ele>
        <time>2014-08-17T08:33:12.000Z</time>
      </trkpt>
      <trkpt lat="43.0719160" lon="-1.7726840">
        <ele>703.896973</ele>
        <time>2014-08-17T08:33:13.000Z</time>
      </trkpt>
      <trkpt lat="43.0718980" lon="-1.7727310">
        <ele>703.890015</ele>
        <time>2014-08-17T08:33:14.000Z</time>
      </trkpt>
      <trkpt lat="43.0717650" lon="-1.7728470">
        <ele>704.263000</ele>
        <time>2014-08-17T08:33:18.000Z</time>
      </trkpt>
      <trkpt lat="43.0716620" lon="-1.7728550">
        <ele>704.644043</ele>
        <time>2014-08-17T08:33:21.000Z</time>
      </trkpt>
      <trkpt lat="43.0716310" lon="-1.7728440">
        <ele>705.018005</ele>
        <time>2014-08-17T08:33:22.000Z</time>
      </trkpt>
      <trkpt lat="43.0715980" lon="-1.7728330">
        <ele>705.406982</ele>
        <time>2014-08-17T08:33:23.000Z</time>
      </trkpt>
      <trkpt lat="43.0715670" lon="-1.7728250">
        <ele>706.082947</ele>
        <time>2014-08-17T08:33:24.000Z</time>
      </trkpt>
      <trkpt lat="43.0715360" lon="-1.7728100">
        <ele>706.421021</ele>
        <time>2014-08-17T08:33:25.000Z</time>
      </trkpt>
      <trkpt lat="43.0714310" lon="-1.7727600">
        <ele>706.853943</ele>
        <time>2014-08-17T08:33:29.000Z</time>
      </trkpt>
      <trkpt lat="43.0714070" lon="-1.7727450">
        <ele>707.236023</ele>
        <time>2014-08-17T08:33:30.000Z</time>
      </trkpt>
      <trkpt lat="43.0713860" lon="-1.7727310">
        <ele>707.695007</ele>
        <time>2014-08-17T08:33:31.000Z</time>
      </trkpt>
      <trkpt lat="43.0713650" lon="-1.7727210">
        <ele>708.076965</ele>
        <time>2014-08-17T08:33:32.000Z</time>
      </trkpt>
      <trkpt lat="43.0713420" lon="-1.7727130">
        <ele>708.030029</ele>
        <time>2014-08-17T08:33:33.000Z</time>
      </trkpt>
      <trkpt lat="43.0712650" lon="-1.7726780">
        <ele>708.436951</ele>
        <time>2014-08-17T08:33:36.000Z</time>
      </trkpt>
      <trkpt lat="43.0712330" lon="-1.7726650">
        <ele>709.049011</ele>
        <time>2014-08-17T08:33:37.000Z</time>
      </trkpt>
      <trkpt lat="43.0712070" lon="-1.7726570">
        <ele>709.413025</ele>
        <time>2014-08-17T08:33:38.000Z</time>
      </trkpt>
      <trkpt lat="43.0711820" lon="-1.7726490">
        <ele>709.807007</ele>
        <time>2014-08-17T08:33:39.000Z</time>
      </trkpt>
      <trkpt lat="43.0711600" lon="-1.7726380">
        <ele>710.220032</ele>
        <time>2014-08-17T08:33:40.000Z</time>
      </trkpt>
      <trkpt lat="43.0711390" lon="-1.7726270">
        <ele>710.268005</ele>
        <time>2014-08-17T08:33:41.000Z</time>
      </trkpt>
      <trkpt lat="43.0711000" lon="-1.7726020">
        <ele>710.681030</ele>
        <time>2014-08-17T08:33:43.000Z</time>
      </trkpt>
      <trkpt lat="43.0710160" lon="-1.7725570">
        <ele>711.092957</ele>
        <time>2014-08-17T08:33:46.000Z</time>
      </trkpt>
      <trkpt lat="43.0709880" lon="-1.7725480">
        <ele>711.411987</ele>
        <time>2014-08-17T08:33:47.000Z</time>
      </trkpt>
      <trkpt lat="43.0709630" lon="-1.7725310">
        <ele>712.093994</ele>
        <time>2014-08-17T08:33:48.000Z</time>
      </trkpt>
      <trkpt lat="43.0709330" lon="-1.7725170">
        <ele>712.467041</ele>
        <time>2014-08-17T08:33:49.000Z</time>
      </trkpt>
      <trkpt lat="43.0709040" lon="-1.7725020">
        <ele>712.892029</ele>
        <time>2014-08-17T08:33:50.000Z</time>
      </trkpt>
      <trkpt lat="43.0707420" lon="-1.7724510">
        <ele>713.273010</ele>
        <time>2014-08-17T08:33:55.000Z</time>
      </trkpt>
      <trkpt lat="43.0707090" lon="-1.7724420">
        <ele>713.619995</ele>
        <time>2014-08-17T08:33:56.000Z</time>
      </trkpt>
      <trkpt lat="43.0706580" lon="-1.7724330">
        <ele>714.007019</ele>
        <time>2014-08-17T08:33:57.000Z</time>
      </trkpt>
      <trkpt lat="43.0706080" lon="-1.7724220">
        <ele>714.425964</ele>
        <time>2014-08-17T08:33:58.000Z</time>
      </trkpt>
      <trkpt lat="43.0705620" lon="-1.7724110">
        <ele>714.494019</ele>
        <time>2014-08-17T08:33:59.000Z</time>
      </trkpt>
      <trkpt lat="43.0704340" lon="-1.7723720">
        <ele>714.817017</ele>
        <time>2014-08-17T08:34:02.000Z</time>
      </trkpt>
      <trkpt lat="43.0703590" lon="-1.7723480">
        <ele>715.258972</ele>
        <time>2014-08-17T08:34:04.000Z</time>
      </trkpt>
      <trkpt lat="43.0703240" lon="-1.7723330">
        <ele>715.848022</ele>
        <time>2014-08-17T08:34:05.000Z</time>
      </trkpt>
      <trkpt lat="43.0702910" lon="-1.7723180">
        <ele>716.280029</ele>
        <time>2014-08-17T08:34:06.000Z</time>
      </trkpt>
      <trkpt lat="43.0702580" lon="-1.7723050">
        <ele>716.672974</ele>
        <time>2014-08-17T08:34:07.000Z</time>
      </trkpt>
      <trkpt lat="43.0702250" lon="-1.7722890">
        <ele>717.071045</ele>
        <time>2014-08-17T08:34:08.000Z</time>
      </trkpt>
      <trkpt lat="43.0700870" lon="-1.7722260">
        <ele>717.440979</ele>
        <time>2014-08-17T08:34:13.000Z</time>
      </trkpt>
      <trkpt lat="43.0700640" lon="-1.7722130">
        <ele>717.815002</ele>
        <time>2014-08-17T08:34:14.000Z</time>
      </trkpt>
      <trkpt lat="43.0700380" lon="-1.7722040">
        <ele>718.207031</ele>
        <time>2014-08-17T08:34:15.000Z</time>
      </trkpt>
      <trkpt lat="43.0700130" lon="-1.7721960">
        <ele>718.634033</ele>
        <time>2014-08-17T08:34:16.000Z</time>
      </trkpt>
      <trkpt lat="43.0699850" lon="-1.7721870">
        <ele>719.022034</ele>
        <time>2014-08-17T08:34:17.000Z</time>
      </trkpt>
      <trkpt lat="43.0698690" lon="-1.7721490">
        <ele>719.484985</ele>
        <time>2014-08-17T08:34:22.000Z</time>
      </trkpt>
      <trkpt lat="43.0698560" lon="-1.7721380">
        <ele>720.217041</ele>
        <time>2014-08-17T08:34:23.000Z</time>
      </trkpt>
      <trkpt lat="43.0698390" lon="-1.7721250">
        <ele>720.685974</ele>
        <time>2014-08-17T08:34:24.000Z</time>
      </trkpt>
      <trkpt lat="43.0698130" lon="-1.7721090">
        <ele>721.267944</ele>
        <time>2014-08-17T08:34:25.000Z</time>
      </trkpt>
      <trkpt lat="43.0697420" lon="-1.7720970">
        <ele>721.620972</ele>
        <time>2014-08-17T08:34:28.000Z</time>
      </trkpt>
      <trkpt lat="43.0697150" lon="-1.7720890">
        <ele>722.054993</ele>
        <time>2014-08-17T08:34:29.000Z</time>
      </trkpt>
      <trkpt lat="43.0696800" lon="-1.7720740">
        <ele>722.407043</ele>
        <time>2014-08-17T08:34:30.000Z</time>
      </trkpt>
      <trkpt lat="43.0696390" lon="-1.7720590">
        <ele>723.017029</ele>
        <time>2014-08-17T08:34:31.000Z</time>
      </trkpt>
      <trkpt lat="43.0695980" lon="-1.7720450">
        <ele>723.406982</ele>
        <time>2014-08-17T08:34:32.000Z</time>
      </trkpt>
      <trkpt lat="43.0694750" lon="-1.7719940">
        <ele>723.822021</ele>
        <time>2014-08-17T08:34:35.000Z</time>
      </trkpt>
      <trkpt lat="43.0694400" lon="-1.7719870">
        <ele>724.280029</ele>
        <time>2014-08-17T08:34:36.000Z</time>
      </trkpt>
      <trkpt lat="43.0694100" lon="-1.7719790">
        <ele>724.653015</ele>
        <time>2014-08-17T08:34:37.000Z</time>
      </trkpt>
      <trkpt lat="43.0693860" lon="-1.7719730">
        <ele>725.024963</ele>
        <time>2014-08-17T08:34:38.000Z</time>
      </trkpt>
      <trkpt lat="43.0693610" lon="-1.7719650">
        <ele>725.083984</ele>
        <time>2014-08-17T08:34:39.000Z</time>
      </trkpt>
      <trkpt lat="43.0693320" lon="-1.7719510">
        <ele>725.485962</ele>
        <time>2014-08-17T08:34:40.000Z</time>
      </trkpt>
      <trkpt lat="43.0692680" lon="-1.7719270">
        <ele>725.838989</ele>
        <time>2014-08-17T08:34:42.000Z</time>
      </trkpt>
      <trkpt lat="43.0692410" lon="-1.7719210">
        <ele>726.218018</ele>
        <time>2014-08-17T08:34:43.000Z</time>
      </trkpt>
      <trkpt lat="43.0692100" lon="-1.7719110">
        <ele>726.898010</ele>
        <time>2014-08-17T08:34:44.000Z</time>
      </trkpt>
      <trkpt lat="43.0691800" lon="-1.7719040">
        <ele>727.216980</ele>
        <time>2014-08-17T08:34:45.000Z</time>
      </trkpt>
      <trkpt lat="43.0691470" lon="-1.7718930">
        <ele>727.207031</ele>
        <time>2014-08-17T08:34:46.000Z</time>
      </trkpt>
      <trkpt lat="43.0691130" lon="-1.7718880">
        <ele>727.697998</ele>
        <time>2014-08-17T08:34:47.000Z</time>
      </trkpt>
      <trkpt lat="43.0689770" lon="-1.7718510">
        <ele>728.085999</ele>
        <time>2014-08-17T08:34:51.000Z</time>
      </trkpt>
      <trkpt lat="43.0689420" lon="-1.7718420">
        <ele>728.449036</ele>
        <time>2014-08-17T08:34:52.000Z</time>
      </trkpt>
      <trkpt lat="43.0689080" lon="-1.7718340">
        <ele>728.811035</ele>
        <time>2014-08-17T08:34:53.000Z</time>
      </trkpt>
      <trkpt lat="43.0688760" lon="-1.7718270">
        <ele>729.259949</ele>
        <time>2014-08-17T08:34:54.000Z</time>
      </trkpt>
      <trkpt lat="43.0688470" lon="-1.7718190">
        <ele>729.692017</ele>
        <time>2014-08-17T08:34:55.000Z</time>
      </trkpt>
      <trkpt lat="43.0687040" lon="-1.7717850">
        <ele>730.044983</ele>
        <time>2014-08-17T08:35:00.000Z</time>
      </trkpt>
      <trkpt lat="43.0686770" lon="-1.7717750">
        <ele>730.474976</ele>
        <time>2014-08-17T08:35:01.000Z</time>
      </trkpt>
      <trkpt lat="43.0686510" lon="-1.7717660">
        <ele>730.828003</ele>
        <time>2014-08-17T08:35:02.000Z</time>
      </trkpt>
      <trkpt lat="43.0686280" lon="-1.7717600">
        <ele>731.419983</ele>
        <time>2014-08-17T08:35:03.000Z</time>
      </trkpt>
      <trkpt lat="43.0686060" lon="-1.7717570">
        <ele>731.807007</ele>
        <time>2014-08-17T08:35:04.000Z</time>
      </trkpt>
      <trkpt lat="43.0684230" lon="-1.7717200">
        <ele>732.254028</ele>
        <time>2014-08-17T08:35:09.000Z</time>
      </trkpt>
      <trkpt lat="43.0683900" lon="-1.7717140">
        <ele>732.642029</ele>
        <time>2014-08-17T08:35:10.000Z</time>
      </trkpt>
      <trkpt lat="43.0683580" lon="-1.7717080">
        <ele>733.075012</ele>
        <time>2014-08-17T08:35:11.000Z</time>
      </trkpt>
      <trkpt lat="43.0683280" lon="-1.7717020">
        <ele>733.497009</ele>
        <time>2014-08-17T08:35:12.000Z</time>
      </trkpt>
      <trkpt lat="43.0682960" lon="-1.7716930">
        <ele>733.456055</ele>
        <time>2014-08-17T08:35:13.000Z</time>
      </trkpt>
      <trkpt lat="43.0682230" lon="-1.7716820">
        <ele>733.858032</ele>
        <time>2014-08-17T08:35:15.000Z</time>
      </trkpt>
      <trkpt lat="43.0681120" lon="-1.7716670">
        <ele>734.250977</ele>
        <time>2014-08-17T08:35:18.000Z</time>
      </trkpt>
      <trkpt lat="43.0680620" lon="-1.7716560">
        <ele>734.679016</ele>
        <time>2014-08-17T08:35:19.000Z</time>
      </trkpt>
      <trkpt lat="43.0680160" lon="-1.7716460">
        <ele>735.005005</ele>
        <time>2014-08-17T08:35:20.000Z</time>
      </trkpt>
      <trkpt lat="43.0679830" lon="-1.7716420">
        <ele>735.425049</ele>
        <time>2014-08-17T08:35:21.000Z</time>
      </trkpt>
      <trkpt lat="43.0679420" lon="-1.7716370">
        <ele>735.407043</ele>
        <time>2014-08-17T08:35:22.000Z</time>
      </trkpt>
      <trkpt lat="43.0677740" lon="-1.7716460">
        <ele>735.873962</ele>
        <time>2014-08-17T08:35:27.000Z</time>
      </trkpt>
      <trkpt lat="43.0677410" lon="-1.7716480">
        <ele>736.231995</ele>
        <time>2014-08-17T08:35:28.000Z</time>
      </trkpt>
      <trkpt lat="43.0677080" lon="-1.7716500">
        <ele>736.655029</ele>
        <time>2014-08-17T08:35:29.000Z</time>
      </trkpt>
      <trkpt lat="43.0676790" lon="-1.7716520">
        <ele>737.016968</ele>
        <time>2014-08-17T08:35:30.000Z</time>
      </trkpt>
      <trkpt lat="43.0676480" lon="-1.7716560">
        <ele>737.486023</ele>
        <time>2014-08-17T08:35:31.000Z</time>
      </trkpt>
      <trkpt lat="43.0676140" lon="-1.7716610">
        <ele>737.428040</ele>
        <time>2014-08-17T08:35:32.000Z</time>
      </trkpt>
      <trkpt lat="43.0675760" lon="-1.7716690">
        <ele>737.880981</ele>
        <time>2014-08-17T08:35:33.000Z</time>
      </trkpt>
      <trkpt lat="43.0674330" lon="-1.7716840">
        <ele>738.854980</ele>
        <time>2014-08-17T08:35:37.000Z</time>
      </trkpt>
      <trkpt lat="43.0673990" lon="-1.7716850">
        <ele>739.206970</ele>
        <time>2014-08-17T08:35:38.000Z</time>
      </trkpt>
      <trkpt lat="43.0673640" lon="-1.7716860">
        <ele>739.617004</ele>
        <time>2014-08-17T08:35:39.000Z</time>
      </trkpt>
      <trkpt lat="43.0673280" lon="-1.7716850">
        <ele>739.606995</ele>
        <time>2014-08-17T08:35:40.000Z</time>
      </trkpt>
      <trkpt lat="43.0672930" lon="-1.7716840">
        <ele>739.671997</ele>
        <time>2014-08-17T08:35:41.000Z</time>
      </trkpt>
      <trkpt lat="43.0672280" lon="-1.7716950">
        <ele>740.059998</ele>
        <time>2014-08-17T08:35:43.000Z</time>
      </trkpt>
      <trkpt lat="43.0671370" lon="-1.7717120">
        <ele>740.483032</ele>
        <time>2014-08-17T08:35:46.000Z</time>
      </trkpt>
      <trkpt lat="43.0671060" lon="-1.7717180">
        <ele>740.894958</ele>
        <time>2014-08-17T08:35:47.000Z</time>
      </trkpt>
      <trkpt lat="43.0670750" lon="-1.7717200">
        <ele>741.273987</ele>
        <time>2014-08-17T08:35:48.000Z</time>
      </trkpt>
      <trkpt lat="43.0670450" lon="-1.7717230">
        <ele>741.626038</ele>
        <time>2014-08-17T08:35:49.000Z</time>
      </trkpt>
      <trkpt lat="43.0670160" lon="-1.7717210">
        <ele>741.658997</ele>
        <time>2014-08-17T08:35:50.000Z</time>
      </trkpt>
      <trkpt lat="43.0669210" lon="-1.7717330">
        <ele>742.210999</ele>
        <time>2014-08-17T08:35:53.000Z</time>
      </trkpt>
      <trkpt lat="43.0668620" lon="-1.7717410">
        <ele>742.621033</ele>
        <time>2014-08-17T08:35:55.000Z</time>
      </trkpt>
      <trkpt lat="43.0668300" lon="-1.7717450">
        <ele>743.002991</ele>
        <time>2014-08-17T08:35:56.000Z</time>
      </trkpt>
      <trkpt lat="43.0668020" lon="-1.7717610">
        <ele>743.406982</ele>
        <time>2014-08-17T08:35:57.000Z</time>
      </trkpt>
      <trkpt lat="43.0667720" lon="-1.7717690">
        <ele>743.828003</ele>
        <time>2014-08-17T08:35:58.000Z</time>
      </trkpt>
      <trkpt lat="43.0667410" lon="-1.7717700">
        <ele>743.866028</ele>
        <time>2014-08-17T08:35:59.000Z</time>
      </trkpt>
      <trkpt lat="43.0666470" lon="-1.7717890">
        <ele>744.658997</ele>
        <time>2014-08-17T08:36:02.000Z</time>
      </trkpt>
      <trkpt lat="43.0666150" lon="-1.7717960">
        <ele>745.071045</ele>
        <time>2014-08-17T08:36:03.000Z</time>
      </trkpt>
      <trkpt lat="43.0665810" lon="-1.7718010">
        <ele>745.409973</ele>
        <time>2014-08-17T08:36:04.000Z</time>
      </trkpt>
      <trkpt lat="43.0665460" lon="-1.7718060">
        <ele>745.842041</ele>
        <time>2014-08-17T08:36:05.000Z</time>
      </trkpt>
      <trkpt lat="43.0665100" lon="-1.7718110">
        <ele>746.244995</ele>
        <time>2014-08-17T08:36:06.000Z</time>
      </trkpt>
      <trkpt lat="43.0664070" lon="-1.7718250">
        <ele>746.691040</ele>
        <time>2014-08-17T08:36:09.000Z</time>
      </trkpt>
      <trkpt lat="43.0663730" lon="-1.7718310">
        <ele>747.080994</ele>
        <time>2014-08-17T08:36:10.000Z</time>
      </trkpt>
      <trkpt lat="43.0663390" lon="-1.7718400">
        <ele>747.619019</ele>
        <time>2014-08-17T08:36:11.000Z</time>
      </trkpt>
      <trkpt lat="43.0663050" lon="-1.7718480">
        <ele>748.007019</ele>
        <time>2014-08-17T08:36:12.000Z</time>
      </trkpt>
      <trkpt lat="43.0662710" lon="-1.7718600">
        <ele>748.055969</ele>
        <time>2014-08-17T08:36:13.000Z</time>
      </trkpt>
      <trkpt lat="43.0661910" lon="-1.7719000">
        <ele>748.463989</ele>
        <time>2014-08-17T08:36:16.000Z</time>
      </trkpt>
      <trkpt lat="43.0661690" lon="-1.7719190">
        <ele>748.867004</ele>
        <time>2014-08-17T08:36:17.000Z</time>
      </trkpt>
      <trkpt lat="43.0661450" lon="-1.7719430">
        <ele>749.218994</ele>
        <time>2014-08-17T08:36:18.000Z</time>
      </trkpt>
      <trkpt lat="43.0661190" lon="-1.7719650">
        <ele>749.648010</ele>
        <time>2014-08-17T08:36:19.000Z</time>
      </trkpt>
      <trkpt lat="43.0660950" lon="-1.7719840">
        <ele>750.090027</ele>
        <time>2014-08-17T08:36:20.000Z</time>
      </trkpt>
      <trkpt lat="43.0660660" lon="-1.7719970">
        <ele>750.033020</ele>
        <time>2014-08-17T08:36:21.000Z</time>
      </trkpt>
      <trkpt lat="43.0660420" lon="-1.7720140">
        <ele>750.424011</ele>
        <time>2014-08-17T08:36:22.000Z</time>
      </trkpt>
      <trkpt lat="43.0659320" lon="-1.7721330">
        <ele>751.203979</ele>
        <time>2014-08-17T08:36:27.000Z</time>
      </trkpt>
      <trkpt lat="43.0659090" lon="-1.7721540">
        <ele>751.614014</ele>
        <time>2014-08-17T08:36:28.000Z</time>
      </trkpt>
      <trkpt lat="43.0658830" lon="-1.7721740">
        <ele>752.007019</ele>
        <time>2014-08-17T08:36:29.000Z</time>
      </trkpt>
      <trkpt lat="43.0658540" lon="-1.7721950">
        <ele>752.078979</ele>
        <time>2014-08-17T08:36:30.000Z</time>
      </trkpt>
      <trkpt lat="43.0657310" lon="-1.7722680">
        <ele>752.497009</ele>
        <time>2014-08-17T08:36:34.000Z</time>
      </trkpt>
      <trkpt lat="43.0656810" lon="-1.7723050">
        <ele>752.830017</ele>
        <time>2014-08-17T08:36:36.000Z</time>
      </trkpt>
      <trkpt lat="43.0656590" lon="-1.7723220">
        <ele>753.271973</ele>
        <time>2014-08-17T08:36:37.000Z</time>
      </trkpt>
      <trkpt lat="43.0656350" lon="-1.7723430">
        <ele>753.611023</ele>
        <time>2014-08-17T08:36:38.000Z</time>
      </trkpt>
      <trkpt lat="43.0656110" lon="-1.7723640">
        <ele>754.293030</ele>
        <time>2014-08-17T08:36:39.000Z</time>
      </trkpt>
      <trkpt lat="43.0655870" lon="-1.7723930">
        <ele>754.635986</ele>
        <time>2014-08-17T08:36:40.000Z</time>
      </trkpt>
      <trkpt lat="43.0654370" lon="-1.7725200">
        <ele>755.087952</ele>
        <time>2014-08-17T08:36:46.000Z</time>
      </trkpt>
      <trkpt lat="43.0654160" lon="-1.7725370">
        <ele>755.424011</ele>
        <time>2014-08-17T08:36:47.000Z</time>
      </trkpt>
      <trkpt lat="43.0653880" lon="-1.7725570">
        <ele>755.825989</ele>
        <time>2014-08-17T08:36:48.000Z</time>
      </trkpt>
      <trkpt lat="43.0653580" lon="-1.7725730">
        <ele>756.207031</ele>
        <time>2014-08-17T08:36:49.000Z</time>
      </trkpt>
      <trkpt lat="43.0653350" lon="-1.7725910">
        <ele>756.225037</ele>
        <time>2014-08-17T08:36:50.000Z</time>
      </trkpt>
      <trkpt lat="43.0652900" lon="-1.7726360">
        <ele>757.042969</ele>
        <time>2014-08-17T08:36:52.000Z</time>
      </trkpt>
      <trkpt lat="43.0652650" lon="-1.7726600">
        <ele>757.445984</ele>
        <time>2014-08-17T08:36:53.000Z</time>
      </trkpt>
      <trkpt lat="43.0652410" lon="-1.7726860">
        <ele>757.817993</ele>
        <time>2014-08-17T08:36:54.000Z</time>
      </trkpt>
      <trkpt lat="43.0652160" lon="-1.7727140">
        <ele>758.217041</ele>
        <time>2014-08-17T08:36:55.000Z</time>
      </trkpt>
      <trkpt lat="43.0651950" lon="-1.7727520">
        <ele>758.269043</ele>
        <time>2014-08-17T08:36:56.000Z</time>
      </trkpt>
      <trkpt lat="43.0650800" lon="-1.7729180">
        <ele>758.692017</ele>
        <time>2014-08-17T08:37:01.000Z</time>
      </trkpt>
      <trkpt lat="43.0650520" lon="-1.7729470">
        <ele>759.072998</ele>
        <time>2014-08-17T08:37:02.000Z</time>
      </trkpt>
      <trkpt lat="43.0650210" lon="-1.7729750">
        <ele>759.684998</ele>
        <time>2014-08-17T08:37:03.000Z</time>
      </trkpt>
      <trkpt lat="43.0649870" lon="-1.7730030">
        <ele>760.013000</ele>
        <time>2014-08-17T08:37:04.000Z</time>
      </trkpt>
      <trkpt lat="43.0649560" lon="-1.7730300">
        <ele>760.407043</ele>
        <time>2014-08-17T08:37:05.000Z</time>
      </trkpt>
      <trkpt lat="43.0649240" lon="-1.7730570">
        <ele>760.473999</ele>
        <time>2014-08-17T08:37:06.000Z</time>
      </trkpt>
      <trkpt lat="43.0648670" lon="-1.7731230">
        <ele>760.492004</ele>
        <time>2014-08-17T08:37:08.000Z</time>
      </trkpt>
      <trkpt lat="43.0645780" lon="-1.7732750">
        <ele>760.865051</ele>
        <time>2014-08-17T08:37:14.000Z</time>
      </trkpt>
      <trkpt lat="43.0644800" lon="-1.7733080">
        <ele>761.267029</ele>
        <time>2014-08-17T08:37:16.000Z</time>
      </trkpt>
      <trkpt lat="43.0644430" lon="-1.7733380">
        <ele>762.085999</ele>
        <time>2014-08-17T08:37:17.000Z</time>
      </trkpt>
      <trkpt lat="43.0644060" lon="-1.7733560">
        <ele>762.638000</ele>
        <time>2014-08-17T08:37:18.000Z</time>
      </trkpt>
      <trkpt lat="43.0643720" lon="-1.7733730">
        <ele>762.690979</ele>
        <time>2014-08-17T08:37:19.000Z</time>
      </trkpt>
      <trkpt lat="43.0642570" lon="-1.7734270">
        <ele>763.098999</ele>
        <time>2014-08-17T08:37:23.000Z</time>
      </trkpt>
      <trkpt lat="43.0641920" lon="-1.7734560">
        <ele>763.407043</ele>
        <time>2014-08-17T08:37:25.000Z</time>
      </trkpt>
      <trkpt lat="43.0641620" lon="-1.7734630">
        <ele>764.026978</ele>
        <time>2014-08-17T08:37:26.000Z</time>
      </trkpt>
      <trkpt lat="43.0641330" lon="-1.7734710">
        <ele>764.406982</ele>
        <time>2014-08-17T08:37:27.000Z</time>
      </trkpt>
      <trkpt lat="43.0641080" lon="-1.7734800">
        <ele>764.856018</ele>
        <time>2014-08-17T08:37:28.000Z</time>
      </trkpt>
      <trkpt lat="43.0640750" lon="-1.7734960">
        <ele>765.294006</ele>
        <time>2014-08-17T08:37:29.000Z</time>
      </trkpt>
      <trkpt lat="43.0639420" lon="-1.7735830">
        <ele>765.857056</ele>
        <time>2014-08-17T08:37:34.000Z</time>
      </trkpt>
      <trkpt lat="43.0639160" lon="-1.7735920">
        <ele>766.279053</ele>
        <time>2014-08-17T08:37:35.000Z</time>
      </trkpt>
      <trkpt lat="43.0638890" lon="-1.7735960">
        <ele>766.647949</ele>
        <time>2014-08-17T08:37:36.000Z</time>
      </trkpt>
      <trkpt lat="43.0638600" lon="-1.7735980">
        <ele>767.050049</ele>
        <time>2014-08-17T08:37:37.000Z</time>
      </trkpt>
      <trkpt lat="43.0638240" lon="-1.7735940">
        <ele>767.083008</ele>
        <time>2014-08-17T08:37:38.000Z</time>
      </trkpt>
      <trkpt lat="43.0637090" lon="-1.7736110">
        <ele>767.612000</ele>
        <time>2014-08-17T08:37:41.000Z</time>
      </trkpt>
      <trkpt lat="43.0635770" lon="-1.7736010">
        <ele>768.031982</ele>
        <time>2014-08-17T08:37:45.000Z</time>
      </trkpt>
      <trkpt lat="43.0635440" lon="-1.7735980">
        <ele>768.604980</ele>
        <time>2014-08-17T08:37:46.000Z</time>
      </trkpt>
      <trkpt lat="43.0635120" lon="-1.7735940">
        <ele>769.006958</ele>
        <time>2014-08-17T08:37:47.000Z</time>
      </trkpt>
      <trkpt lat="43.0634780" lon="-1.7735900">
        <ele>769.638000</ele>
        <time>2014-08-17T08:37:48.000Z</time>
      </trkpt>
      <trkpt lat="43.0634460" lon="-1.7735900">
        <ele>769.645996</ele>
        <time>2014-08-17T08:37:49.000Z</time>
      </trkpt>
      <trkpt lat="43.0632800" lon="-1.7735560">
        <ele>769.649048</ele>
        <time>2014-08-17T08:37:55.000Z</time>
      </trkpt>
      <trkpt lat="43.0630970" lon="-1.7735190">
        <ele>769.611023</ele>
        <time>2014-08-17T08:38:01.000Z</time>
      </trkpt>
      <trkpt lat="43.0630660" lon="-1.7735150">
        <ele>770.080017</ele>
        <time>2014-08-17T08:38:02.000Z</time>
      </trkpt>
      <trkpt lat="43.0629970" lon="-1.7735110">
        <ele>770.411987</ele>
        <time>2014-08-17T08:38:04.000Z</time>
      </trkpt>
      <trkpt lat="43.0629650" lon="-1.7735080">
        <ele>771.014954</ele>
        <time>2014-08-17T08:38:05.000Z</time>
      </trkpt>
      <trkpt lat="43.0629330" lon="-1.7735040">
        <ele>771.420959</ele>
        <time>2014-08-17T08:38:06.000Z</time>
      </trkpt>
      <trkpt lat="43.0629020" lon="-1.7735040">
        <ele>771.841064</ele>
        <time>2014-08-17T08:38:07.000Z</time>
      </trkpt>
      <trkpt lat="43.0628700" lon="-1.7735030">
        <ele>771.804993</ele>
        <time>2014-08-17T08:38:08.000Z</time>
      </trkpt>
      <trkpt lat="43.0628440" lon="-1.7734980">
        <ele>772.207031</ele>
        <time>2014-08-17T08:38:09.000Z</time>
      </trkpt>
      <trkpt lat="43.0627120" lon="-1.7734760">
        <ele>772.619019</ele>
        <time>2014-08-17T08:38:13.000Z</time>
      </trkpt>
      <trkpt lat="43.0626760" lon="-1.7734710">
        <ele>773.057007</ele>
        <time>2014-08-17T08:38:14.000Z</time>
      </trkpt>
      <trkpt lat="43.0626450" lon="-1.7734700">
        <ele>773.479980</ele>
        <time>2014-08-17T08:38:15.000Z</time>
      </trkpt>
      <trkpt lat="43.0626130" lon="-1.7734670">
        <ele>773.872009</ele>
        <time>2014-08-17T08:38:16.000Z</time>
      </trkpt>
      <trkpt lat="43.0625770" lon="-1.7734570">
        <ele>773.890991</ele>
        <time>2014-08-17T08:38:17.000Z</time>
      </trkpt>
      <trkpt lat="43.0624920" lon="-1.7733790">
        <ele>774.223022</ele>
        <time>2014-08-17T08:38:20.000Z</time>
      </trkpt>
      <trkpt lat="43.0624840" lon="-1.7733360">
        <ele>774.695984</ele>
        <time>2014-08-17T08:38:21.000Z</time>
      </trkpt>
      <trkpt lat="43.0624850" lon="-1.7732850">
        <ele>775.255005</ele>
        <time>2014-08-17T08:38:22.000Z</time>
      </trkpt>
      <trkpt lat="43.0624950" lon="-1.7732390">
        <ele>775.606995</ele>
        <time>2014-08-17T08:38:23.000Z</time>
      </trkpt>
      <trkpt lat="43.0625190" lon="-1.7731990">
        <ele>776.017029</ele>
        <time>2014-08-17T08:38:24.000Z</time>
      </trkpt>
      <trkpt lat="43.0625510" lon="-1.7731790">
        <ele>776.007019</ele>
        <time>2014-08-17T08:38:25.000Z</time>
      </trkpt>
      <trkpt lat="43.0625900" lon="-1.7731640">
        <ele>776.092041</ele>
        <time>2014-08-17T08:38:26.000Z</time>
      </trkpt>
      <trkpt lat="43.0627080" lon="-1.7731530">
        <ele>776.479980</ele>
        <time>2014-08-17T08:38:29.000Z</time>
      </trkpt>
      <trkpt lat="43.0627450" lon="-1.7731470">
        <ele>776.833008</ele>
        <time>2014-08-17T08:38:30.000Z</time>
      </trkpt>
      <trkpt lat="43.0627820" lon="-1.7731450">
        <ele>777.694946</ele>
        <time>2014-08-17T08:38:31.000Z</time>
      </trkpt>
      <trkpt lat="43.0628180" lon="-1.7731400">
        <ele>778.043945</ele>
        <time>2014-08-17T08:38:32.000Z</time>
      </trkpt>
      <trkpt lat="43.0628560" lon="-1.7731360">
        <ele>778.065979</ele>
        <time>2014-08-17T08:38:33.000Z</time>
      </trkpt>
      <trkpt lat="43.0630520" lon="-1.7731180">
        <ele>778.499023</ele>
        <time>2014-08-17T08:38:38.000Z</time>
      </trkpt>
      <trkpt lat="43.0630870" lon="-1.7731170">
        <ele>778.895996</ele>
        <time>2014-08-17T08:38:39.000Z</time>
      </trkpt>
      <trkpt lat="43.0631170" lon="-1.7731170">
        <ele>779.430969</ele>
        <time>2014-08-17T08:38:40.000Z</time>
      </trkpt>
      <trkpt lat="43.0631530" lon="-1.7731120">
        <ele>779.824036</ele>
        <time>2014-08-17T08:38:41.000Z</time>
      </trkpt>
      <trkpt lat="43.0631910" lon="-1.7731060">
        <ele>780.206970</ele>
        <time>2014-08-17T08:38:42.000Z</time>
      </trkpt>
      <trkpt lat="43.0632290" lon="-1.7730980">
        <ele>780.215942</ele>
        <time>2014-08-17T08:38:43.000Z</time>
      </trkpt>
      <trkpt lat="43.0632690" lon="-1.7730930">
        <ele>780.674011</ele>
        <time>2014-08-17T08:38:44.000Z</time>
      </trkpt>
      <trkpt lat="43.0635070" lon="-1.7730500">
        <ele>781.036987</ele>
        <time>2014-08-17T08:38:50.000Z</time>
      </trkpt>
      <trkpt lat="43.0635450" lon="-1.7730460">
        <ele>781.488953</ele>
        <time>2014-08-17T08:38:51.000Z</time>
      </trkpt>
      <trkpt lat="43.0635850" lon="-1.7730450">
        <ele>781.848022</ele>
        <time>2014-08-17T08:38:52.000Z</time>
      </trkpt>
      <trkpt lat="43.0636260" lon="-1.7730410">
        <ele>782.220032</ele>
        <time>2014-08-17T08:38:53.000Z</time>
      </trkpt>
      <trkpt lat="43.0636630" lon="-1.7730300">
        <ele>782.222961</ele>
        <time>2014-08-17T08:38:54.000Z</time>
      </trkpt>
      <trkpt lat="43.0638130" lon="-1.7729780">
        <ele>782.687988</ele>
        <time>2014-08-17T08:38:58.000Z</time>
      </trkpt>
      <trkpt lat="43.0640030" lon="-1.7728510">
        <ele>783.023987</ele>
        <time>2014-08-17T08:39:03.000Z</time>
      </trkpt>
      <trkpt lat="43.0640370" lon="-1.7728190">
        <ele>783.425964</ele>
        <time>2014-08-17T08:39:04.000Z</time>
      </trkpt>
      <trkpt lat="43.0640700" lon="-1.7727850">
        <ele>783.806946</ele>
        <time>2014-08-17T08:39:05.000Z</time>
      </trkpt>
      <trkpt lat="43.0640990" lon="-1.7727550">
        <ele>784.225037</ele>
        <time>2014-08-17T08:39:06.000Z</time>
      </trkpt>
      <trkpt lat="43.0641270" lon="-1.7727250">
        <ele>784.252991</ele>
        <time>2014-08-17T08:39:07.000Z</time>
      </trkpt>
      <trkpt lat="43.0642720" lon="-1.7725290">
        <ele>784.695984</ele>
        <time>2014-08-17T08:39:12.000Z</time>
      </trkpt>
      <trkpt lat="43.0643730" lon="-1.7723630">
        <ele>785.028015</ele>
        <time>2014-08-17T08:39:16.000Z</time>
      </trkpt>
      <trkpt lat="43.0643990" lon="-1.7723190">
        <ele>785.437012</ele>
        <time>2014-08-17T08:39:17.000Z</time>
      </trkpt>
      <trkpt lat="43.0644280" lon="-1.7722670">
        <ele>785.859009</ele>
        <time>2014-08-17T08:39:18.000Z</time>
      </trkpt>
      <trkpt lat="43.0644580" lon="-1.7722160">
        <ele>786.212036</ele>
        <time>2014-08-17T08:39:19.000Z</time>
      </trkpt>
      <trkpt lat="43.0644890" lon="-1.7721620">
        <ele>786.273987</ele>
        <time>2014-08-17T08:39:20.000Z</time>
      </trkpt>
      <trkpt lat="43.0646970" lon="-1.7718160">
        <ele>786.656006</ele>
        <time>2014-08-17T08:39:28.000Z</time>
      </trkpt>
      <trkpt lat="43.0647890" lon="-1.7716950">
        <ele>787.020996</ele>
        <time>2014-08-17T08:39:31.000Z</time>
      </trkpt>
      <trkpt lat="43.0648190" lon="-1.7716600">
        <ele>787.406982</ele>
        <time>2014-08-17T08:39:32.000Z</time>
      </trkpt>
      <trkpt lat="43.0648490" lon="-1.7716260">
        <ele>787.854004</ele>
        <time>2014-08-17T08:39:33.000Z</time>
      </trkpt>
      <trkpt lat="43.0648780" lon="-1.7715930">
        <ele>788.252014</ele>
        <time>2014-08-17T08:39:34.000Z</time>
      </trkpt>
      <trkpt lat="43.0649030" lon="-1.7715590">
        <ele>788.825012</ele>
        <time>2014-08-17T08:39:35.000Z</time>
      </trkpt>
      <trkpt lat="43.0650220" lon="-1.7713970">
        <ele>789.267029</ele>
        <time>2014-08-17T08:39:40.000Z</time>
      </trkpt>
      <trkpt lat="43.0650480" lon="-1.7713680">
        <ele>789.635986</ele>
        <time>2014-08-17T08:39:41.000Z</time>
      </trkpt>
      <trkpt lat="43.0650740" lon="-1.7713450">
        <ele>790.228027</ele>
        <time>2014-08-17T08:39:42.000Z</time>
      </trkpt>
      <trkpt lat="43.0651070" lon="-1.7713240">
        <ele>790.620972</ele>
        <time>2014-08-17T08:39:43.000Z</time>
      </trkpt>
      <trkpt lat="43.0651350" lon="-1.7712970">
        <ele>790.696960</ele>
        <time>2014-08-17T08:39:44.000Z</time>
      </trkpt>
      <trkpt lat="43.0652270" lon="-1.7712190">
        <ele>791.022949</ele>
        <time>2014-08-17T08:39:47.000Z</time>
      </trkpt>
      <trkpt lat="43.0652640" lon="-1.7711910">
        <ele>791.425049</ele>
        <time>2014-08-17T08:39:48.000Z</time>
      </trkpt>
      <trkpt lat="43.0653040" lon="-1.7711590">
        <ele>792.007019</ele>
        <time>2014-08-17T08:39:49.000Z</time>
      </trkpt>
      <trkpt lat="43.0653430" lon="-1.7711330">
        <ele>792.455994</ele>
        <time>2014-08-17T08:39:50.000Z</time>
      </trkpt>
      <trkpt lat="43.0653710" lon="-1.7711080">
        <ele>792.883972</ele>
        <time>2014-08-17T08:39:51.000Z</time>
      </trkpt>
      <trkpt lat="43.0654070" lon="-1.7710800">
        <ele>792.886963</ele>
        <time>2014-08-17T08:39:52.000Z</time>
      </trkpt>
      <trkpt lat="43.0654370" lon="-1.7710560">
        <ele>793.249023</ele>
        <time>2014-08-17T08:39:53.000Z</time>
      </trkpt>
      <trkpt lat="43.0655010" lon="-1.7710130">
        <ele>793.648010</ele>
        <time>2014-08-17T08:39:55.000Z</time>
      </trkpt>
      <trkpt lat="43.0655330" lon="-1.7709870">
        <ele>794.270020</ele>
        <time>2014-08-17T08:39:56.000Z</time>
      </trkpt>
      <trkpt lat="43.0655650" lon="-1.7709670">
        <ele>794.663025</ele>
        <time>2014-08-17T08:39:57.000Z</time>
      </trkpt>
      <trkpt lat="43.0655930" lon="-1.7709450">
        <ele>795.023987</ele>
        <time>2014-08-17T08:39:58.000Z</time>
      </trkpt>
      <trkpt lat="43.0656220" lon="-1.7709150">
        <ele>795.404053</ele>
        <time>2014-08-17T08:39:59.000Z</time>
      </trkpt>
      <trkpt lat="43.0656940" lon="-1.7708200">
        <ele>795.813965</ele>
        <time>2014-08-17T08:40:02.000Z</time>
      </trkpt>
      <trkpt lat="43.0657100" lon="-1.7707790">
        <ele>796.207031</ele>
        <time>2014-08-17T08:40:03.000Z</time>
      </trkpt>
      <trkpt lat="43.0657160" lon="-1.7707270">
        <ele>796.689026</ele>
        <time>2014-08-17T08:40:04.000Z</time>
      </trkpt>
      <trkpt lat="43.0657180" lon="-1.7706780">
        <ele>797.017029</ele>
        <time>2014-08-17T08:40:05.000Z</time>
      </trkpt>
      <trkpt lat="43.0657150" lon="-1.7706240">
        <ele>797.040039</ele>
        <time>2014-08-17T08:40:06.000Z</time>
      </trkpt>
      <trkpt lat="43.0656830" lon="-1.7705190">
        <ele>797.092041</ele>
        <time>2014-08-17T08:40:08.000Z</time>
      </trkpt>
      <trkpt lat="43.0655300" lon="-1.7703330">
        <ele>797.430969</ele>
        <time>2014-08-17T08:40:13.000Z</time>
      </trkpt>
      <trkpt lat="43.0654060" lon="-1.7702210">
        <ele>797.872986</ele>
        <time>2014-08-17T08:40:17.000Z</time>
      </trkpt>
      <trkpt lat="43.0653800" lon="-1.7701940">
        <ele>798.245972</ele>
        <time>2014-08-17T08:40:18.000Z</time>
      </trkpt>
      <trkpt lat="43.0653560" lon="-1.7701750">
        <ele>798.819031</ele>
        <time>2014-08-17T08:40:19.000Z</time>
      </trkpt>
      <trkpt lat="43.0653310" lon="-1.7701500">
        <ele>799.208984</ele>
        <time>2014-08-17T08:40:20.000Z</time>
      </trkpt>
      <trkpt lat="43.0652990" lon="-1.7701220">
        <ele>799.218994</ele>
        <time>2014-08-17T08:40:21.000Z</time>
      </trkpt>
      <trkpt lat="43.0651710" lon="-1.7700180">
        <ele>799.606995</ele>
        <time>2014-08-17T08:40:25.000Z</time>
      </trkpt>
      <trkpt lat="43.0648570" lon="-1.7698160">
        <ele>800.078003</ele>
        <time>2014-08-17T08:40:33.000Z</time>
      </trkpt>
      <trkpt lat="43.0648190" lon="-1.7697940">
        <ele>800.435974</ele>
        <time>2014-08-17T08:40:34.000Z</time>
      </trkpt>
      <trkpt lat="43.0647770" lon="-1.7697740">
        <ele>801.098999</ele>
        <time>2014-08-17T08:40:35.000Z</time>
      </trkpt>
      <trkpt lat="43.0647380" lon="-1.7697510">
        <ele>801.491028</ele>
        <time>2014-08-17T08:40:36.000Z</time>
      </trkpt>
      <trkpt lat="43.0647000" lon="-1.7697290">
        <ele>801.869995</ele>
        <time>2014-08-17T08:40:37.000Z</time>
      </trkpt>
      <trkpt lat="43.0646630" lon="-1.7697070">
        <ele>802.251953</ele>
        <time>2014-08-17T08:40:38.000Z</time>
      </trkpt>
      <trkpt lat="43.0646310" lon="-1.7696830">
        <ele>802.675049</ele>
        <time>2014-08-17T08:40:39.000Z</time>
      </trkpt>
      <trkpt lat="43.0645920" lon="-1.7696620">
        <ele>803.026062</ele>
        <time>2014-08-17T08:40:40.000Z</time>
      </trkpt>
      <trkpt lat="43.0645520" lon="-1.7696410">
        <ele>803.447021</ele>
        <time>2014-08-17T08:40:41.000Z</time>
      </trkpt>
      <trkpt lat="43.0645110" lon="-1.7696190">
        <ele>803.410950</ele>
        <time>2014-08-17T08:40:42.000Z</time>
      </trkpt>
      <trkpt lat="43.0643430" lon="-1.7695300">
        <ele>803.407043</ele>
        <time>2014-08-17T08:40:47.000Z</time>
      </trkpt>
      <trkpt lat="43.0641270" lon="-1.7694670">
        <ele>803.419006</ele>
        <time>2014-08-17T08:40:53.000Z</time>
      </trkpt>
      <trkpt lat="43.0640820" lon="-1.7694610">
        <ele>803.467041</ele>
        <time>2014-08-17T08:40:54.000Z</time>
      </trkpt>
      <trkpt lat="43.0639520" lon="-1.7694430">
        <ele>803.449951</ele>
        <time>2014-08-17T08:40:57.000Z</time>
      </trkpt>
      <trkpt lat="43.0637760" lon="-1.7694130">
        <ele>803.462036</ele>
        <time>2014-08-17T08:41:02.000Z</time>
      </trkpt>
      <trkpt lat="43.0636170" lon="-1.7693820">
        <ele>803.811035</ele>
        <time>2014-08-17T08:41:07.000Z</time>
      </trkpt>
      <trkpt lat="43.0634980" lon="-1.7693770">
        <ele>804.482971</ele>
        <time>2014-08-17T08:41:11.000Z</time>
      </trkpt>
      <trkpt lat="43.0634680" lon="-1.7693720">
        <ele>804.866028</ele>
        <time>2014-08-17T08:41:12.000Z</time>
      </trkpt>
      <trkpt lat="43.0634380" lon="-1.7693660">
        <ele>805.285034</ele>
        <time>2014-08-17T08:41:13.000Z</time>
      </trkpt>
      <trkpt lat="43.0634030" lon="-1.7693630">
        <ele>805.689026</ele>
        <time>2014-08-17T08:41:14.000Z</time>
      </trkpt>
      <trkpt lat="43.0633720" lon="-1.7693560">
        <ele>805.617004</ele>
        <time>2014-08-17T08:41:15.000Z</time>
      </trkpt>
      <trkpt lat="43.0632790" lon="-1.7693420">
        <ele>806.207031</ele>
        <time>2014-08-17T08:41:18.000Z</time>
      </trkpt>
      <trkpt lat="43.0632550" lon="-1.7693390">
        <ele>806.815002</ele>
        <time>2014-08-17T08:41:19.000Z</time>
      </trkpt>
      <trkpt lat="43.0632320" lon="-1.7693370">
        <ele>807.423035</ele>
        <time>2014-08-17T08:41:20.000Z</time>
      </trkpt>
      <trkpt lat="43.0632080" lon="-1.7693380">
        <ele>808.046021</ele>
        <time>2014-08-17T08:41:21.000Z</time>
      </trkpt>
      <trkpt lat="43.0631820" lon="-1.7693340">
        <ele>808.687988</ele>
        <time>2014-08-17T08:41:22.000Z</time>
      </trkpt>
      <trkpt lat="43.0631560" lon="-1.7693290">
        <ele>808.617004</ele>
        <time>2014-08-17T08:41:23.000Z</time>
      </trkpt>
      <trkpt lat="43.0631250" lon="-1.7693260">
        <ele>808.628967</ele>
        <time>2014-08-17T08:41:24.000Z</time>
      </trkpt>
      <trkpt lat="43.0629150" lon="-1.7693000">
        <ele>809.011963</ele>
        <time>2014-08-17T08:41:31.000Z</time>
      </trkpt>
      <trkpt lat="43.0627260" lon="-1.7692690">
        <ele>809.465027</ele>
        <time>2014-08-17T08:41:37.000Z</time>
      </trkpt>
      <trkpt lat="43.0626930" lon="-1.7692660">
        <ele>809.868042</ele>
        <time>2014-08-17T08:41:38.000Z</time>
      </trkpt>
      <trkpt lat="43.0626600" lon="-1.7692610">
        <ele>810.213989</ele>
        <time>2014-08-17T08:41:39.000Z</time>
      </trkpt>
      <trkpt lat="43.0626300" lon="-1.7692580">
        <ele>810.606995</ele>
        <time>2014-08-17T08:41:40.000Z</time>
      </trkpt>
      <trkpt lat="43.0626010" lon="-1.7692560">
        <ele>810.612976</ele>
        <time>2014-08-17T08:41:41.000Z</time>
      </trkpt>
      <trkpt lat="43.0625460" lon="-1.7692400">
        <ele>811.091003</ele>
        <time>2014-08-17T08:41:43.000Z</time>
      </trkpt>
      <trkpt lat="43.0623780" lon="-1.7692230">
        <ele>811.463989</ele>
        <time>2014-08-17T08:41:49.000Z</time>
      </trkpt>
      <trkpt lat="43.0623470" lon="-1.7692210">
        <ele>812.255981</ele>
        <time>2014-08-17T08:41:50.000Z</time>
      </trkpt>
      <trkpt lat="43.0623120" lon="-1.7692180">
        <ele>812.645020</ele>
        <time>2014-08-17T08:41:51.000Z</time>
      </trkpt>
      <trkpt lat="43.0622840" lon="-1.7692170">
        <ele>813.266968</ele>
        <time>2014-08-17T08:41:52.000Z</time>
      </trkpt>
      <trkpt lat="43.0621640" lon="-1.7692060">
        <ele>813.619995</ele>
        <time>2014-08-17T08:41:56.000Z</time>
      </trkpt>
      <trkpt lat="43.0621340" lon="-1.7692020">
        <ele>814.034058</ele>
        <time>2014-08-17T08:41:57.000Z</time>
      </trkpt>
      <trkpt lat="43.0621070" lon="-1.7691930">
        <ele>814.455017</ele>
        <time>2014-08-17T08:41:58.000Z</time>
      </trkpt>
      <trkpt lat="43.0620810" lon="-1.7691860">
        <ele>814.809998</ele>
        <time>2014-08-17T08:41:59.000Z</time>
      </trkpt>
      <trkpt lat="43.0620540" lon="-1.7691770">
        <ele>814.806946</ele>
        <time>2014-08-17T08:42:00.000Z</time>
      </trkpt>
      <trkpt lat="43.0619900" lon="-1.7691590">
        <ele>815.250061</ele>
        <time>2014-08-17T08:42:02.000Z</time>
      </trkpt>
      <trkpt lat="43.0619570" lon="-1.7691540">
        <ele>815.697998</ele>
        <time>2014-08-17T08:42:03.000Z</time>
      </trkpt>
      <trkpt lat="43.0619280" lon="-1.7691500">
        <ele>816.080994</ele>
        <time>2014-08-17T08:42:04.000Z</time>
      </trkpt>
      <trkpt lat="43.0618970" lon="-1.7691420">
        <ele>816.683044</ele>
        <time>2014-08-17T08:42:05.000Z</time>
      </trkpt>
      <trkpt lat="43.0618660" lon="-1.7691340">
        <ele>817.082031</ele>
        <time>2014-08-17T08:42:06.000Z</time>
      </trkpt>
      <trkpt lat="43.0618360" lon="-1.7691240">
        <ele>817.044006</ele>
        <time>2014-08-17T08:42:07.000Z</time>
      </trkpt>
      <trkpt lat="43.0617830" lon="-1.7691000">
        <ele>817.477051</ele>
        <time>2014-08-17T08:42:09.000Z</time>
      </trkpt>
      <trkpt lat="43.0616670" lon="-1.7690600">
        <ele>817.826965</ele>
        <time>2014-08-17T08:42:13.000Z</time>
      </trkpt>
      <trkpt lat="43.0616380" lon="-1.7690540">
        <ele>818.267944</ele>
        <time>2014-08-17T08:42:14.000Z</time>
      </trkpt>
      <trkpt lat="43.0616100" lon="-1.7690440">
        <ele>819.213989</ele>
        <time>2014-08-17T08:42:15.000Z</time>
      </trkpt>
      <trkpt lat="43.0615820" lon="-1.7690380">
        <ele>819.207031</ele>
        <time>2014-08-17T08:42:16.000Z</time>
      </trkpt>
      <trkpt lat="43.0615570" lon="-1.7690340">
        <ele>819.229004</ele>
        <time>2014-08-17T08:42:17.000Z</time>
      </trkpt>
      <trkpt lat="43.0614260" lon="-1.7690050">
        <ele>819.656982</ele>
        <time>2014-08-17T08:42:22.000Z</time>
      </trkpt>
      <trkpt lat="43.0613690" lon="-1.7689890">
        <ele>820.059998</ele>
        <time>2014-08-17T08:42:24.000Z</time>
      </trkpt>
      <trkpt lat="43.0613410" lon="-1.7689860">
        <ele>820.441956</ele>
        <time>2014-08-17T08:42:25.000Z</time>
      </trkpt>
      <trkpt lat="43.0613100" lon="-1.7689820">
        <ele>820.810974</ele>
        <time>2014-08-17T08:42:26.000Z</time>
      </trkpt>
      <trkpt lat="43.0612810" lon="-1.7689810">
        <ele>821.483032</ele>
        <time>2014-08-17T08:42:27.000Z</time>
      </trkpt>
      <trkpt lat="43.0612520" lon="-1.7689750">
        <ele>821.426025</ele>
        <time>2014-08-17T08:42:28.000Z</time>
      </trkpt>
      <trkpt lat="43.0611340" lon="-1.7689480">
        <ele>821.493958</ele>
        <time>2014-08-17T08:42:32.000Z</time>
      </trkpt>
      <trkpt lat="43.0609540" lon="-1.7689030">
        <ele>821.857056</ele>
        <time>2014-08-17T08:42:38.000Z</time>
      </trkpt>
      <trkpt lat="43.0609220" lon="-1.7688910">
        <ele>822.222046</ele>
        <time>2014-08-17T08:42:39.000Z</time>
      </trkpt>
      <trkpt lat="43.0608900" lon="-1.7688830">
        <ele>822.606995</ele>
        <time>2014-08-17T08:42:40.000Z</time>
      </trkpt>
      <trkpt lat="43.0608590" lon="-1.7688760">
        <ele>823.055969</ele>
        <time>2014-08-17T08:42:41.000Z</time>
      </trkpt>
      <trkpt lat="43.0608250" lon="-1.7688670">
        <ele>823.463989</ele>
        <time>2014-08-17T08:42:42.000Z</time>
      </trkpt>
      <trkpt lat="43.0607950" lon="-1.7688540">
        <ele>824.086975</ele>
        <time>2014-08-17T08:42:43.000Z</time>
      </trkpt>
      <trkpt lat="43.0607630" lon="-1.7688400">
        <ele>824.438965</ele>
        <time>2014-08-17T08:42:44.000Z</time>
      </trkpt>
      <trkpt lat="43.0607270" lon="-1.7688190">
        <ele>825.067993</ele>
        <time>2014-08-17T08:42:45.000Z</time>
      </trkpt>
      <trkpt lat="43.0606930" lon="-1.7687930">
        <ele>825.489990</ele>
        <time>2014-08-17T08:42:46.000Z</time>
      </trkpt>
      <trkpt lat="43.0606610" lon="-1.7687610">
        <ele>825.492981</ele>
        <time>2014-08-17T08:42:47.000Z</time>
      </trkpt>
      <trkpt lat="43.0606300" lon="-1.7687230">
        <ele>825.476013</ele>
        <time>2014-08-17T08:42:48.000Z</time>
      </trkpt>
      <trkpt lat="43.0605810" lon="-1.7686350">
        <ele>825.489990</ele>
        <time>2014-08-17T08:42:50.000Z</time>
      </trkpt>
      <trkpt lat="43.0604380" lon="-1.7682470">
        <ele>825.419006</ele>
        <time>2014-08-17T08:42:58.000Z</time>
      </trkpt>
      <trkpt lat="43.0603430" lon="-1.7680060">
        <ele>825.407043</ele>
        <time>2014-08-17T08:43:03.000Z</time>
      </trkpt>
      <trkpt lat="43.0603190" lon="-1.7679090">
        <ele>825.414001</ele>
        <time>2014-08-17T08:43:05.000Z</time>
      </trkpt>
      <trkpt lat="43.0602870" lon="-1.7677710">
        <ele>825.481995</ele>
        <time>2014-08-17T08:43:08.000Z</time>
      </trkpt>
      <trkpt lat="43.0602840" lon="-1.7676980">
        <ele>825.465027</ele>
        <time>2014-08-17T08:43:10.000Z</time>
      </trkpt>
      <trkpt lat="43.0602880" lon="-1.7676680">
        <ele>825.447021</ele>
        <time>2014-08-17T08:43:11.000Z</time>
      </trkpt>
      <trkpt lat="43.0602990" lon="-1.7676370">
        <ele>825.465942</ele>
        <time>2014-08-17T08:43:12.000Z</time>
      </trkpt>
      <trkpt lat="43.0603100" lon="-1.7676210">
        <ele>833.657959</ele>
        <time>2014-08-17T08:43:14.000Z</time>
      </trkpt>
      <trkpt lat="43.0603150" lon="-1.7676660">
        <ele>833.651001</ele>
        <time>2014-08-17T09:15:38.000Z</time>
      </trkpt>
      <trkpt lat="43.0603320" lon="-1.7676550">
        <ele>833.694031</ele>
        <time>2014-08-17T09:15:39.000Z</time>
      </trkpt>
      <trkpt lat="43.0603790" lon="-1.7675880">
        <ele>833.657043</ele>
        <time>2014-08-17T09:15:42.000Z</time>
      </trkpt>
      <trkpt lat="43.0603890" lon="-1.7675690">
        <ele>833.621948</ele>
        <time>2014-08-17T09:15:43.000Z</time>
      </trkpt>
      <trkpt lat="43.0604020" lon="-1.7675560">
        <ele>833.606995</ele>
        <time>2014-08-17T09:15:44.000Z</time>
      </trkpt>
      <trkpt lat="43.0604190" lon="-1.7675390">
        <ele>833.676025</ele>
        <time>2014-08-17T09:15:45.000Z</time>
      </trkpt>
      <trkpt lat="43.0604650" lon="-1.7674800">
        <ele>833.694031</ele>
        <time>2014-08-17T09:15:48.000Z</time>
      </trkpt>
      <trkpt lat="43.0604870" lon="-1.7674520">
        <ele>834.057007</ele>
        <time>2014-08-17T09:15:50.000Z</time>
      </trkpt>
      <trkpt lat="43.0604940" lon="-1.7674360">
        <ele>834.449036</ele>
        <time>2014-08-17T09:15:51.000Z</time>
      </trkpt>
      <trkpt lat="43.0604990" lon="-1.7674190">
        <ele>834.848022</ele>
        <time>2014-08-17T09:15:52.000Z</time>
      </trkpt>
      <trkpt lat="43.0605080" lon="-1.7674070">
        <ele>835.489990</ele>
        <time>2014-08-17T09:15:53.000Z</time>
      </trkpt>
      <trkpt lat="43.0605190" lon="-1.7673900">
        <ele>835.843018</ele>
        <time>2014-08-17T09:15:54.000Z</time>
      </trkpt>
      <trkpt lat="43.0605280" lon="-1.7673700">
        <ele>835.895996</ele>
        <time>2014-08-17T09:15:55.000Z</time>
      </trkpt>
      <trkpt lat="43.0605520" lon="-1.7673160">
        <ele>835.831055</ele>
        <time>2014-08-17T09:15:57.000Z</time>
      </trkpt>
      <trkpt lat="43.0605800" lon="-1.7672760">
        <ele>835.824036</ele>
        <time>2014-08-17T09:15:59.000Z</time>
      </trkpt>
      <trkpt lat="43.0605930" lon="-1.7672620">
        <ele>835.807007</ele>
        <time>2014-08-17T09:16:00.000Z</time>
      </trkpt>
      <trkpt lat="43.0606490" lon="-1.7672260">
        <ele>836.246033</ele>
        <time>2014-08-17T09:16:06.000Z</time>
      </trkpt>
      <trkpt lat="43.0606630" lon="-1.7672160">
        <ele>836.694031</ele>
        <time>2014-08-17T09:16:07.000Z</time>
      </trkpt>
      <trkpt lat="43.0606760" lon="-1.7672030">
        <ele>837.047058</ele>
        <time>2014-08-17T09:16:08.000Z</time>
      </trkpt>
      <trkpt lat="43.0606850" lon="-1.7671890">
        <ele>837.438965</ele>
        <time>2014-08-17T09:16:09.000Z</time>
      </trkpt>
      <trkpt lat="43.0606930" lon="-1.7671690">
        <ele>837.888000</ele>
        <time>2014-08-17T09:16:10.000Z</time>
      </trkpt>
      <trkpt lat="43.0607000" lon="-1.7671540">
        <ele>837.839966</ele>
        <time>2014-08-17T09:16:11.000Z</time>
      </trkpt>
      <trkpt lat="43.0607130" lon="-1.7671160">
        <ele>837.833008</ele>
        <time>2014-08-17T09:16:13.000Z</time>
      </trkpt>
      <trkpt lat="43.0607180" lon="-1.7670910">
        <ele>837.815002</ele>
        <time>2014-08-17T09:16:15.000Z</time>
      </trkpt>
      <trkpt lat="43.0607170" lon="-1.7670750">
        <ele>837.864990</ele>
        <time>2014-08-17T09:19:40.000Z</time>
      </trkpt>
      <trkpt lat="43.0607350" lon="-1.7670540">
        <ele>837.810974</ele>
        <time>2014-08-17T09:19:41.000Z</time>
      </trkpt>
      <trkpt lat="43.0607590" lon="-1.7670080">
        <ele>837.807007</ele>
        <time>2014-08-17T09:19:43.000Z</time>
      </trkpt>
      <trkpt lat="43.0607700" lon="-1.7669740">
        <ele>837.877991</ele>
        <time>2014-08-17T09:19:45.000Z</time>
      </trkpt>
      <trkpt lat="43.0607760" lon="-1.7669590">
        <ele>837.866028</ele>
        <time>2014-08-17T09:19:46.000Z</time>
      </trkpt>
      <trkpt lat="43.0607780" lon="-1.7669540">
        <ele>837.869019</ele>
        <time>2014-08-17T09:19:47.000Z</time>
      </trkpt>
      <trkpt lat="43.0607770" lon="-1.7669580">
        <ele>837.851013</ele>
        <time>2014-08-17T09:19:48.000Z</time>
      </trkpt>
      <trkpt lat="43.0608010" lon="-1.7669490">
        <ele>837.880005</ele>
        <time>2014-08-17T09:20:14.000Z</time>
      </trkpt>
      <trkpt lat="43.0608160" lon="-1.7669400">
        <ele>838.222046</ele>
        <time>2014-08-17T09:20:15.000Z</time>
      </trkpt>
      <trkpt lat="43.0608520" lon="-1.7669040">
        <ele>838.685059</ele>
        <time>2014-08-17T09:20:18.000Z</time>
      </trkpt>
      <trkpt lat="43.0608640" lon="-1.7668910">
        <ele>839.014954</ele>
        <time>2014-08-17T09:20:19.000Z</time>
      </trkpt>
      <trkpt lat="43.0608760" lon="-1.7668750">
        <ele>839.464966</ele>
        <time>2014-08-17T09:20:20.000Z</time>
      </trkpt>
      <trkpt lat="43.0608880" lon="-1.7668580">
        <ele>839.810974</ele>
        <time>2014-08-17T09:20:21.000Z</time>
      </trkpt>
      <trkpt lat="43.0608990" lon="-1.7668450">
        <ele>839.806946</ele>
        <time>2014-08-17T09:20:22.000Z</time>
      </trkpt>
      <trkpt lat="43.0609110" lon="-1.7668310">
        <ele>839.838013</ele>
        <time>2014-08-17T09:20:23.000Z</time>
      </trkpt>
      <trkpt lat="43.0609420" lon="-1.7667910">
        <ele>839.835999</ele>
        <time>2014-08-17T09:20:25.000Z</time>
      </trkpt>
      <trkpt lat="43.0609840" lon="-1.7667330">
        <ele>840.229004</ele>
        <time>2014-08-17T09:20:28.000Z</time>
      </trkpt>
      <trkpt lat="43.0609990" lon="-1.7667190">
        <ele>840.691040</ele>
        <time>2014-08-17T09:20:29.000Z</time>
      </trkpt>
      <trkpt lat="43.0610140" lon="-1.7667050">
        <ele>841.079956</ele>
        <time>2014-08-17T09:20:30.000Z</time>
      </trkpt>
      <trkpt lat="43.0610270" lon="-1.7666870">
        <ele>841.432007</ele>
        <time>2014-08-17T09:20:31.000Z</time>
      </trkpt>
      <trkpt lat="43.0610430" lon="-1.7666700">
        <ele>841.864990</ele>
        <time>2014-08-17T09:20:32.000Z</time>
      </trkpt>
      <trkpt lat="43.0610570" lon="-1.7666580">
        <ele>841.838989</ele>
        <time>2014-08-17T09:20:33.000Z</time>
      </trkpt>
      <trkpt lat="43.0610740" lon="-1.7666500">
        <ele>841.800964</ele>
        <time>2014-08-17T09:20:34.000Z</time>
      </trkpt>
      <trkpt lat="43.0611340" lon="-1.7666440">
        <ele>842.220947</ele>
        <time>2014-08-17T09:20:37.000Z</time>
      </trkpt>
      <trkpt lat="43.0611530" lon="-1.7666410">
        <ele>843.207031</ele>
        <time>2014-08-17T09:20:38.000Z</time>
      </trkpt>
      <trkpt lat="43.0611690" lon="-1.7666390">
        <ele>843.659973</ele>
        <time>2014-08-17T09:20:39.000Z</time>
      </trkpt>
      <trkpt lat="43.0611850" lon="-1.7666390">
        <ele>844.058044</ele>
        <time>2014-08-17T09:20:40.000Z</time>
      </trkpt>
      <trkpt lat="43.0612030" lon="-1.7666330">
        <ele>844.020996</ele>
        <time>2014-08-17T09:20:41.000Z</time>
      </trkpt>
      <trkpt lat="43.0612590" lon="-1.7666310">
        <ele>844.473022</ele>
        <time>2014-08-17T09:20:44.000Z</time>
      </trkpt>
      <trkpt lat="43.0613160" lon="-1.7666360">
        <ele>844.882019</ele>
        <time>2014-08-17T09:20:47.000Z</time>
      </trkpt>
      <trkpt lat="43.0613360" lon="-1.7666340">
        <ele>845.254028</ele>
        <time>2014-08-17T09:20:48.000Z</time>
      </trkpt>
      <trkpt lat="43.0613560" lon="-1.7666370">
        <ele>845.626953</ele>
        <time>2014-08-17T09:20:49.000Z</time>
      </trkpt>
      <trkpt lat="43.0613770" lon="-1.7666370">
        <ele>846.055969</ele>
        <time>2014-08-17T09:20:50.000Z</time>
      </trkpt>
      <trkpt lat="43.0613990" lon="-1.7666380">
        <ele>846.059021</ele>
        <time>2014-08-17T09:20:51.000Z</time>
      </trkpt>
      <trkpt lat="43.0614210" lon="-1.7666390">
        <ele>846.614014</ele>
        <time>2014-08-17T09:20:52.000Z</time>
      </trkpt>
      <trkpt lat="43.0615020" lon="-1.7666190">
        <ele>847.006958</ele>
        <time>2014-08-17T09:20:56.000Z</time>
      </trkpt>
      <trkpt lat="43.0615190" lon="-1.7666050">
        <ele>847.432007</ele>
        <time>2014-08-17T09:20:57.000Z</time>
      </trkpt>
      <trkpt lat="43.0615360" lon="-1.7665950">
        <ele>847.889954</ele>
        <time>2014-08-17T09:20:58.000Z</time>
      </trkpt>
      <trkpt lat="43.0615550" lon="-1.7665890">
        <ele>848.252991</ele>
        <time>2014-08-17T09:20:59.000Z</time>
      </trkpt>
      <trkpt lat="43.0615740" lon="-1.7665870">
        <ele>848.674988</ele>
        <time>2014-08-17T09:21:00.000Z</time>
      </trkpt>
      <trkpt lat="43.0616820" lon="-1.7665360">
        <ele>849.044006</ele>
        <time>2014-08-17T09:21:05.000Z</time>
      </trkpt>
      <trkpt lat="43.0616990" lon="-1.7665250">
        <ele>849.486023</ele>
        <time>2014-08-17T09:21:06.000Z</time>
      </trkpt>
      <trkpt lat="43.0617200" lon="-1.7665280">
        <ele>850.019043</ele>
        <time>2014-08-17T09:21:07.000Z</time>
      </trkpt>
      <trkpt lat="43.0617380" lon="-1.7665290">
        <ele>850.483032</ele>
        <time>2014-08-17T09:21:08.000Z</time>
      </trkpt>
      <trkpt lat="43.0617610" lon="-1.7665300">
        <ele>850.424988</ele>
        <time>2014-08-17T09:21:09.000Z</time>
      </trkpt>
      <trkpt lat="43.0618060" lon="-1.7665330">
        <ele>850.416992</ele>
        <time>2014-08-17T09:21:11.000Z</time>
      </trkpt>
      <trkpt lat="43.0618750" lon="-1.7665390">
        <ele>850.407043</ele>
        <time>2014-08-17T09:21:14.000Z</time>
      </trkpt>
      <trkpt lat="43.0619170" lon="-1.7665460">
        <ele>850.474976</ele>
        <time>2014-08-17T09:21:16.000Z</time>
      </trkpt>
      <trkpt lat="43.0620070" lon="-1.7665090">
        <ele>850.463013</ele>
        <time>2014-08-17T09:21:21.000Z</time>
      </trkpt>
      <trkpt lat="43.0620360" lon="-1.7664880">
        <ele>851.236023</ele>
        <time>2014-08-17T09:21:23.000Z</time>
      </trkpt>
      <trkpt lat="43.0621110" lon="-1.7664470">
        <ele>851.687988</ele>
        <time>2014-08-17T09:21:28.000Z</time>
      </trkpt>
      <trkpt lat="43.0621290" lon="-1.7664440">
        <ele>852.086975</ele>
        <time>2014-08-17T09:21:29.000Z</time>
      </trkpt>
      <trkpt lat="43.0621480" lon="-1.7664390">
        <ele>852.468994</ele>
        <time>2014-08-17T09:21:30.000Z</time>
      </trkpt>
      <trkpt lat="43.0621660" lon="-1.7664360">
        <ele>852.472046</ele>
        <time>2014-08-17T09:21:31.000Z</time>
      </trkpt>
      <trkpt lat="43.0622820" lon="-1.7664210">
        <ele>852.484985</ele>
        <time>2014-08-17T09:21:37.000Z</time>
      </trkpt>
      <trkpt lat="43.0623230" lon="-1.7664070">
        <ele>852.489014</ele>
        <time>2014-08-17T09:21:39.000Z</time>
      </trkpt>
      <trkpt lat="43.0623690" lon="-1.7663930">
        <ele>852.417053</ele>
        <time>2014-08-17T09:21:41.000Z</time>
      </trkpt>
      <trkpt lat="43.0624400" lon="-1.7663840">
        <ele>852.406982</ele>
        <time>2014-08-17T09:21:44.000Z</time>
      </trkpt>
      <trkpt lat="43.0625450" lon="-1.7663570">
        <ele>853.275024</ele>
        <time>2014-08-17T09:21:48.000Z</time>
      </trkpt>
      <trkpt lat="43.0626660" lon="-1.7663080">
        <ele>853.672974</ele>
        <time>2014-08-17T09:21:53.000Z</time>
      </trkpt>
      <trkpt lat="43.0626890" lon="-1.7662990">
        <ele>854.275940</ele>
        <time>2014-08-17T09:21:54.000Z</time>
      </trkpt>
      <trkpt lat="43.0627110" lon="-1.7662870">
        <ele>854.647949</ele>
        <time>2014-08-17T09:21:55.000Z</time>
      </trkpt>
      <trkpt lat="43.0627360" lon="-1.7662810">
        <ele>854.637024</ele>
        <time>2014-08-17T09:21:56.000Z</time>
      </trkpt>
      <trkpt lat="43.0628320" lon="-1.7662450">
        <ele>854.628967</ele>
        <time>2014-08-17T09:22:00.000Z</time>
      </trkpt>
      <trkpt lat="43.0629080" lon="-1.7662200">
        <ele>854.651978</ele>
        <time>2014-08-17T09:22:03.000Z</time>
      </trkpt>
      <trkpt lat="43.0629330" lon="-1.7662250">
        <ele>854.661011</ele>
        <time>2014-08-17T09:22:04.000Z</time>
      </trkpt>
      <trkpt lat="43.0629570" lon="-1.7662250">
        <ele>854.621033</ele>
        <time>2014-08-17T09:22:05.000Z</time>
      </trkpt>
      <trkpt lat="43.0630540" lon="-1.7661930">
        <ele>854.612976</ele>
        <time>2014-08-17T09:22:09.000Z</time>
      </trkpt>
      <trkpt lat="43.0631070" lon="-1.7661760">
        <ele>854.607056</ele>
        <time>2014-08-17T09:22:11.000Z</time>
      </trkpt>
      <trkpt lat="43.0632270" lon="-1.7661600">
        <ele>855.043030</ele>
        <time>2014-08-17T09:22:15.000Z</time>
      </trkpt>
      <trkpt lat="43.0633120" lon="-1.7661440">
        <ele>855.460999</ele>
        <time>2014-08-17T09:22:18.000Z</time>
      </trkpt>
      <trkpt lat="43.0633420" lon="-1.7661350">
        <ele>855.883972</ele>
        <time>2014-08-17T09:22:19.000Z</time>
      </trkpt>
      <trkpt lat="43.0633740" lon="-1.7661220">
        <ele>856.216003</ele>
        <time>2014-08-17T09:22:20.000Z</time>
      </trkpt>
      <trkpt lat="43.0634020" lon="-1.7661050">
        <ele>856.625000</ele>
        <time>2014-08-17T09:22:21.000Z</time>
      </trkpt>
      <trkpt lat="43.0634320" lon="-1.7660850">
        <ele>856.627014</ele>
        <time>2014-08-17T09:22:22.000Z</time>
      </trkpt>
      <trkpt lat="43.0634880" lon="-1.7660680">
        <ele>856.609985</ele>
        <time>2014-08-17T09:22:24.000Z</time>
      </trkpt>
      <trkpt lat="43.0635670" lon="-1.7660670">
        <ele>856.613953</ele>
        <time>2014-08-17T09:22:27.000Z</time>
      </trkpt>
      <trkpt lat="43.0636200" lon="-1.7660460">
        <ele>857.054016</ele>
        <time>2014-08-17T09:22:29.000Z</time>
      </trkpt>
      <trkpt lat="43.0636490" lon="-1.7660450">
        <ele>857.608948</ele>
        <time>2014-08-17T09:22:30.000Z</time>
      </trkpt>
      <trkpt lat="43.0636740" lon="-1.7660360">
        <ele>858.007019</ele>
        <time>2014-08-17T09:22:31.000Z</time>
      </trkpt>
      <trkpt lat="43.0637030" lon="-1.7660350">
        <ele>858.438049</ele>
        <time>2014-08-17T09:22:32.000Z</time>
      </trkpt>
      <trkpt lat="43.0637280" lon="-1.7660210">
        <ele>858.885986</ele>
        <time>2014-08-17T09:22:33.000Z</time>
      </trkpt>
      <trkpt lat="43.0637560" lon="-1.7659990">
        <ele>858.859009</ele>
        <time>2014-08-17T09:22:34.000Z</time>
      </trkpt>
      <trkpt lat="43.0637830" lon="-1.7659970">
        <ele>859.460999</ele>
        <time>2014-08-17T09:22:35.000Z</time>
      </trkpt>
      <trkpt lat="43.0639100" lon="-1.7659680">
        <ele>859.809998</ele>
        <time>2014-08-17T09:22:40.000Z</time>
      </trkpt>
      <trkpt lat="43.0639340" lon="-1.7659550">
        <ele>860.222046</ele>
        <time>2014-08-17T09:22:41.000Z</time>
      </trkpt>
      <trkpt lat="43.0639570" lon="-1.7659460">
        <ele>861.054993</ele>
        <time>2014-08-17T09:22:42.000Z</time>
      </trkpt>
      <trkpt lat="43.0639790" lon="-1.7659330">
        <ele>861.012024</ele>
        <time>2014-08-17T09:22:43.000Z</time>
      </trkpt>
      <trkpt lat="43.0640720" lon="-1.7658790">
        <ele>861.032043</ele>
        <time>2014-08-17T09:22:47.000Z</time>
      </trkpt>
      <trkpt lat="43.0642320" lon="-1.7658330">
        <ele>861.005005</ele>
        <time>2014-08-17T09:22:54.000Z</time>
      </trkpt>
      <trkpt lat="43.0643930" lon="-1.7658010">
        <ele>861.406982</ele>
        <time>2014-08-17T09:23:00.000Z</time>
      </trkpt>
      <trkpt lat="43.0644210" lon="-1.7657890">
        <ele>861.858032</ele>
        <time>2014-08-17T09:23:01.000Z</time>
      </trkpt>
      <trkpt lat="43.0644490" lon="-1.7657800">
        <ele>862.235962</ele>
        <time>2014-08-17T09:23:02.000Z</time>
      </trkpt>
      <trkpt lat="43.0644770" lon="-1.7657690">
        <ele>862.818970</ele>
        <time>2014-08-17T09:23:03.000Z</time>
      </trkpt>
      <trkpt lat="43.0645070" lon="-1.7657420">
        <ele>863.231018</ele>
        <time>2014-08-17T09:23:04.000Z</time>
      </trkpt>
      <trkpt lat="43.0645340" lon="-1.7657120">
        <ele>863.209961</ele>
        <time>2014-08-17T09:23:05.000Z</time>
      </trkpt>
      <trkpt lat="43.0645580" lon="-1.7657020">
        <ele>863.281982</ele>
        <time>2014-08-17T09:23:06.000Z</time>
      </trkpt>
      <trkpt lat="43.0647040" lon="-1.7656310">
        <ele>863.275024</ele>
        <time>2014-08-17T09:23:11.000Z</time>
      </trkpt>
      <trkpt lat="43.0647770" lon="-1.7655690">
        <ele>863.273987</ele>
        <time>2014-08-17T09:23:14.000Z</time>
      </trkpt>
      <trkpt lat="43.0648910" lon="-1.7654650">
        <ele>863.256042</ele>
        <time>2014-08-17T09:23:18.000Z</time>
      </trkpt>
      <trkpt lat="43.0650330" lon="-1.7654010">
        <ele>863.621033</ele>
        <time>2014-08-17T09:23:23.000Z</time>
      </trkpt>
      <trkpt lat="43.0650580" lon="-1.7653840">
        <ele>864.007019</ele>
        <time>2014-08-17T09:23:24.000Z</time>
      </trkpt>
      <trkpt lat="43.0650790" lon="-1.7653640">
        <ele>864.414001</ele>
        <time>2014-08-17T09:23:25.000Z</time>
      </trkpt>
      <trkpt lat="43.0651060" lon="-1.7653430">
        <ele>864.872009</ele>
        <time>2014-08-17T09:23:26.000Z</time>
      </trkpt>
      <trkpt lat="43.0651390" lon="-1.7653200">
        <ele>865.265015</ele>
        <time>2014-08-17T09:23:27.000Z</time>
      </trkpt>
      <trkpt lat="43.0651680" lon="-1.7653010">
        <ele>865.226990</ele>
        <time>2014-08-17T09:23:28.000Z</time>
      </trkpt>
      <trkpt lat="43.0651980" lon="-1.7652850">
        <ele>865.246033</ele>
        <time>2014-08-17T09:23:29.000Z</time>
      </trkpt>
      <trkpt lat="43.0653620" lon="-1.7651650">
        <ele>865.267944</ele>
        <time>2014-08-17T09:23:35.000Z</time>
      </trkpt>
      <trkpt lat="43.0655460" lon="-1.7650380">
        <ele>865.291016</ele>
        <time>2014-08-17T09:23:41.000Z</time>
      </trkpt>
      <trkpt lat="43.0656590" lon="-1.7649510">
        <ele>865.273987</ele>
        <time>2014-08-17T09:23:45.000Z</time>
      </trkpt>
      <trkpt lat="43.0659020" lon="-1.7647260">
        <ele>865.255981</ele>
        <time>2014-08-17T09:23:52.000Z</time>
      </trkpt>
      <trkpt lat="43.0659530" lon="-1.7646660">
        <ele>865.221008</ele>
        <time>2014-08-17T09:23:54.000Z</time>
      </trkpt>
      <trkpt lat="43.0660420" lon="-1.7646160">
        <ele>865.207031</ele>
        <time>2014-08-17T09:23:57.000Z</time>
      </trkpt>
      <trkpt lat="43.0661430" lon="-1.7644780">
        <ele>865.253967</ele>
        <time>2014-08-17T09:24:01.000Z</time>
      </trkpt>
      <trkpt lat="43.0661910" lon="-1.7644390">
        <ele>865.231995</ele>
        <time>2014-08-17T09:24:03.000Z</time>
      </trkpt>
      <trkpt lat="43.0663490" lon="-1.7642620">
        <ele>865.285034</ele>
        <time>2014-08-17T09:24:09.000Z</time>
      </trkpt>
      <trkpt lat="43.0664530" lon="-1.7641780">
        <ele>865.627014</ele>
        <time>2014-08-17T09:24:13.000Z</time>
      </trkpt>
      <trkpt lat="43.0664730" lon="-1.7641600">
        <ele>866.045959</ele>
        <time>2014-08-17T09:24:14.000Z</time>
      </trkpt>
      <trkpt lat="43.0664960" lon="-1.7641360">
        <ele>866.628052</ele>
        <time>2014-08-17T09:24:15.000Z</time>
      </trkpt>
      <trkpt lat="43.0665210" lon="-1.7641050">
        <ele>867.060974</ele>
        <time>2014-08-17T09:24:16.000Z</time>
      </trkpt>
      <trkpt lat="43.0665460" lon="-1.7640750">
        <ele>867.448975</ele>
        <time>2014-08-17T09:24:17.000Z</time>
      </trkpt>
      <trkpt lat="43.0665720" lon="-1.7640520">
        <ele>867.402039</ele>
        <time>2014-08-17T09:24:18.000Z</time>
      </trkpt>
      <trkpt lat="43.0666290" lon="-1.7640180">
        <ele>867.422058</ele>
        <time>2014-08-17T09:24:20.000Z</time>
      </trkpt>
      <trkpt lat="43.0667150" lon="-1.7639310">
        <ele>867.406982</ele>
        <time>2014-08-17T09:24:24.000Z</time>
      </trkpt>
      <trkpt lat="43.0668460" lon="-1.7637210">
        <ele>867.440979</ele>
        <time>2014-08-17T09:24:30.000Z</time>
      </trkpt>
      <trkpt lat="43.0669510" lon="-1.7634620">
        <ele>867.498962</ele>
        <time>2014-08-17T09:24:35.000Z</time>
      </trkpt>
      <trkpt lat="43.0669710" lon="-1.7634220">
        <ele>867.831970</ele>
        <time>2014-08-17T09:24:36.000Z</time>
      </trkpt>
      <trkpt lat="43.0670160" lon="-1.7633100">
        <ele>868.244019</ele>
        <time>2014-08-17T09:24:39.000Z</time>
      </trkpt>
      <trkpt lat="43.0670340" lon="-1.7632690">
        <ele>868.632996</ele>
        <time>2014-08-17T09:24:40.000Z</time>
      </trkpt>
      <trkpt lat="43.0670460" lon="-1.7632260">
        <ele>869.075012</ele>
        <time>2014-08-17T09:24:41.000Z</time>
      </trkpt>
      <trkpt lat="43.0670600" lon="-1.7631890">
        <ele>869.428040</ele>
        <time>2014-08-17T09:24:42.000Z</time>
      </trkpt>
      <trkpt lat="43.0670740" lon="-1.7631530">
        <ele>869.458984</ele>
        <time>2014-08-17T09:24:43.000Z</time>
      </trkpt>
      <trkpt lat="43.0670880" lon="-1.7631140">
        <ele>869.403015</ele>
        <time>2014-08-17T09:24:44.000Z</time>
      </trkpt>
      <trkpt lat="43.0671240" lon="-1.7629430">
        <ele>869.423035</ele>
        <time>2014-08-17T09:24:49.000Z</time>
      </trkpt>
      <trkpt lat="43.0671220" lon="-1.7628100">
        <ele>869.807007</ele>
        <time>2014-08-17T09:24:53.000Z</time>
      </trkpt>
      <trkpt lat="43.0671160" lon="-1.7627670">
        <ele>870.292053</ele>
        <time>2014-08-17T09:24:54.000Z</time>
      </trkpt>
      <trkpt lat="43.0671100" lon="-1.7627290">
        <ele>870.630005</ele>
        <time>2014-08-17T09:24:55.000Z</time>
      </trkpt>
      <trkpt lat="43.0671030" lon="-1.7626830">
        <ele>871.063049</ele>
        <time>2014-08-17T09:24:56.000Z</time>
      </trkpt>
      <trkpt lat="43.0670960" lon="-1.7626480">
        <ele>871.415039</ele>
        <time>2014-08-17T09:24:57.000Z</time>
      </trkpt>
      <trkpt lat="43.0670850" lon="-1.7626160">
        <ele>871.473999</ele>
        <time>2014-08-17T09:24:58.000Z</time>
      </trkpt>
      <trkpt lat="43.0670430" lon="-1.7624290">
        <ele>871.426025</ele>
        <time>2014-08-17T09:25:04.000Z</time>
      </trkpt>
      <trkpt lat="43.0670170" lon="-1.7622820">
        <ele>871.419006</ele>
        <time>2014-08-17T09:25:09.000Z</time>
      </trkpt>
      <trkpt lat="43.0670020" lon="-1.7622320">
        <ele>871.830994</ele>
        <time>2014-08-17T09:25:11.000Z</time>
      </trkpt>
      <trkpt lat="43.0669860" lon="-1.7621670">
        <ele>872.261047</ele>
        <time>2014-08-17T09:25:13.000Z</time>
      </trkpt>
      <trkpt lat="43.0669820" lon="-1.7621450">
        <ele>872.606995</ele>
        <time>2014-08-17T09:25:14.000Z</time>
      </trkpt>
      <trkpt lat="43.0669770" lon="-1.7621150">
        <ele>873.007019</ele>
        <time>2014-08-17T09:25:15.000Z</time>
      </trkpt>
      <trkpt lat="43.0669710" lon="-1.7620840">
        <ele>873.660034</ele>
        <time>2014-08-17T09:25:16.000Z</time>
      </trkpt>
      <trkpt lat="43.0669680" lon="-1.7620560">
        <ele>873.638000</ele>
        <time>2014-08-17T09:25:17.000Z</time>
      </trkpt>
      <trkpt lat="43.0669610" lon="-1.7619280">
        <ele>873.621033</ele>
        <time>2014-08-17T09:25:21.000Z</time>
      </trkpt>
      <trkpt lat="43.0669580" lon="-1.7618550">
        <ele>873.642944</ele>
        <time>2014-08-17T09:25:24.000Z</time>
      </trkpt>
      <trkpt lat="43.0669380" lon="-1.7616360">
        <ele>873.692017</ele>
        <time>2014-08-17T09:25:30.000Z</time>
      </trkpt>
      <trkpt lat="43.0669140" lon="-1.7614590">
        <ele>874.073975</ele>
        <time>2014-08-17T09:25:35.000Z</time>
      </trkpt>
      <trkpt lat="43.0669060" lon="-1.7614270">
        <ele>874.487000</ele>
        <time>2014-08-17T09:25:36.000Z</time>
      </trkpt>
      <trkpt lat="43.0669010" lon="-1.7613950">
        <ele>874.878967</ele>
        <time>2014-08-17T09:25:37.000Z</time>
      </trkpt>
      <trkpt lat="43.0668950" lon="-1.7613650">
        <ele>875.205017</ele>
        <time>2014-08-17T09:25:38.000Z</time>
      </trkpt>
      <trkpt lat="43.0668860" lon="-1.7613370">
        <ele>875.625000</ele>
        <time>2014-08-17T09:25:39.000Z</time>
      </trkpt>
      <trkpt lat="43.0668800" lon="-1.7613100">
        <ele>875.606995</ele>
        <time>2014-08-17T09:25:40.000Z</time>
      </trkpt>
      <trkpt lat="43.0668700" lon="-1.7612110">
        <ele>875.684021</ele>
        <time>2014-08-17T09:25:44.000Z</time>
      </trkpt>
      <trkpt lat="43.0668590" lon="-1.7611540">
        <ele>875.671997</ele>
        <time>2014-08-17T09:25:46.000Z</time>
      </trkpt>
      <trkpt lat="43.0668450" lon="-1.7610830">
        <ele>875.654968</ele>
        <time>2014-08-17T09:25:48.000Z</time>
      </trkpt>
      <trkpt lat="43.0668300" lon="-1.7610460">
        <ele>875.647034</ele>
        <time>2014-08-17T09:25:49.000Z</time>
      </trkpt>
      <trkpt lat="43.0668150" lon="-1.7608810">
        <ele>875.686035</ele>
        <time>2014-08-17T09:25:55.000Z</time>
      </trkpt>
      <trkpt lat="43.0668110" lon="-1.7607620">
        <ele>876.437988</ele>
        <time>2014-08-17T09:26:00.000Z</time>
      </trkpt>
      <trkpt lat="43.0668130" lon="-1.7607360">
        <ele>876.861023</ele>
        <time>2014-08-17T09:26:01.000Z</time>
      </trkpt>
      <trkpt lat="43.0668170" lon="-1.7607120">
        <ele>877.218994</ele>
        <time>2014-08-17T09:26:02.000Z</time>
      </trkpt>
      <trkpt lat="43.0668190" lon="-1.7606850">
        <ele>877.609009</ele>
        <time>2014-08-17T09:26:03.000Z</time>
      </trkpt>
      <trkpt lat="43.0668160" lon="-1.7606540">
        <ele>877.619019</ele>
        <time>2014-08-17T09:26:04.000Z</time>
      </trkpt>
      <trkpt lat="43.0668020" lon="-1.7605890">
        <ele>877.606995</ele>
        <time>2014-08-17T09:26:06.000Z</time>
      </trkpt>
      <trkpt lat="43.0667960" lon="-1.7603720">
        <ele>877.668030</ele>
        <time>2014-08-17T09:26:13.000Z</time>
      </trkpt>
      <trkpt lat="43.0667980" lon="-1.7602950">
        <ele>877.695984</ele>
        <time>2014-08-17T09:26:15.000Z</time>
      </trkpt>
      <trkpt lat="43.0668110" lon="-1.7601790">
        <ele>878.088989</ele>
        <time>2014-08-17T09:26:19.000Z</time>
      </trkpt>
      <trkpt lat="43.0668100" lon="-1.7601530">
        <ele>878.440979</ele>
        <time>2014-08-17T09:26:20.000Z</time>
      </trkpt>
      <trkpt lat="43.0668140" lon="-1.7601270">
        <ele>878.859985</ele>
        <time>2014-08-17T09:26:21.000Z</time>
      </trkpt>
      <trkpt lat="43.0668240" lon="-1.7600990">
        <ele>879.421997</ele>
        <time>2014-08-17T09:26:22.000Z</time>
      </trkpt>
      <trkpt lat="43.0668330" lon="-1.7600680">
        <ele>879.825012</ele>
        <time>2014-08-17T09:26:23.000Z</time>
      </trkpt>
      <trkpt lat="43.0668400" lon="-1.7600390">
        <ele>879.854004</ele>
        <time>2014-08-17T09:26:24.000Z</time>
      </trkpt>
      <trkpt lat="43.0669000" lon="-1.7598430">
        <ele>879.856018</ele>
        <time>2014-08-17T09:26:30.000Z</time>
      </trkpt>
      <trkpt lat="43.0670080" lon="-1.7596150">
        <ele>879.810974</ele>
        <time>2014-08-17T09:26:37.000Z</time>
      </trkpt>
      <trkpt lat="43.0670700" lon="-1.7595290">
        <ele>879.807007</ele>
        <time>2014-08-17T09:26:40.000Z</time>
      </trkpt>
      <trkpt lat="43.0671420" lon="-1.7594650">
        <ele>879.851990</ele>
        <time>2014-08-17T09:26:43.000Z</time>
      </trkpt>
      <trkpt lat="43.0672310" lon="-1.7594050">
        <ele>879.849976</ele>
        <time>2014-08-17T09:26:46.000Z</time>
      </trkpt>
      <trkpt lat="43.0673460" lon="-1.7593340">
        <ele>879.863037</ele>
        <time>2014-08-17T09:26:49.000Z</time>
      </trkpt>
      <trkpt lat="43.0674090" lon="-1.7593000">
        <ele>879.875000</ele>
        <time>2014-08-17T09:26:51.000Z</time>
      </trkpt>
      <trkpt lat="43.0674710" lon="-1.7592640">
        <ele>879.833984</ele>
        <time>2014-08-17T09:26:53.000Z</time>
      </trkpt>
      <trkpt lat="43.0675300" lon="-1.7592240">
        <ele>879.846008</ele>
        <time>2014-08-17T09:26:55.000Z</time>
      </trkpt>
      <trkpt lat="43.0676230" lon="-1.7591640">
        <ele>879.829041</ele>
        <time>2014-08-17T09:26:58.000Z</time>
      </trkpt>
      <trkpt lat="43.0676510" lon="-1.7591440">
        <ele>879.833984</ele>
        <time>2014-08-17T09:26:59.000Z</time>
      </trkpt>
      <trkpt lat="43.0676800" lon="-1.7591270">
        <ele>879.854980</ele>
        <time>2014-08-17T09:27:00.000Z</time>
      </trkpt>
      <trkpt lat="43.0677420" lon="-1.7590820">
        <ele>879.810059</ele>
        <time>2014-08-17T09:27:02.000Z</time>
      </trkpt>
      <trkpt lat="43.0678090" lon="-1.7590430">
        <ele>879.807007</ele>
        <time>2014-08-17T09:27:04.000Z</time>
      </trkpt>
      <trkpt lat="43.0678640" lon="-1.7589990">
        <ele>879.880005</ele>
        <time>2014-08-17T09:27:06.000Z</time>
      </trkpt>
      <trkpt lat="43.0679430" lon="-1.7589260">
        <ele>880.268005</ele>
        <time>2014-08-17T09:27:09.000Z</time>
      </trkpt>
      <trkpt lat="43.0680030" lon="-1.7588800">
        <ele>880.680969</ele>
        <time>2014-08-17T09:27:11.000Z</time>
      </trkpt>
      <trkpt lat="43.0680370" lon="-1.7588570">
        <ele>881.093018</ele>
        <time>2014-08-17T09:27:12.000Z</time>
      </trkpt>
      <trkpt lat="43.0680680" lon="-1.7588310">
        <ele>881.492004</ele>
        <time>2014-08-17T09:27:13.000Z</time>
      </trkpt>
      <trkpt lat="43.0681010" lon="-1.7588060">
        <ele>881.843994</ele>
        <time>2014-08-17T09:27:14.000Z</time>
      </trkpt>
      <trkpt lat="43.0681340" lon="-1.7587780">
        <ele>881.836975</ele>
        <time>2014-08-17T09:27:15.000Z</time>
      </trkpt>
      <trkpt lat="43.0681720" lon="-1.7587590">
        <ele>881.820984</ele>
        <time>2014-08-17T09:27:16.000Z</time>
      </trkpt>
      <trkpt lat="43.0682400" lon="-1.7587110">
        <ele>881.841003</ele>
        <time>2014-08-17T09:27:18.000Z</time>
      </trkpt>
      <trkpt lat="43.0683720" lon="-1.7585880">
        <ele>881.804993</ele>
        <time>2014-08-17T09:27:22.000Z</time>
      </trkpt>
      <trkpt lat="43.0684400" lon="-1.7584990">
        <ele>881.807007</ele>
        <time>2014-08-17T09:27:24.000Z</time>
      </trkpt>
      <trkpt lat="43.0685400" lon="-1.7581770">
        <ele>881.828979</ele>
        <time>2014-08-17T09:27:29.000Z</time>
      </trkpt>
      <trkpt lat="43.0685840" lon="-1.7579750">
        <ele>882.286987</ele>
        <time>2014-08-17T09:27:35.000Z</time>
      </trkpt>
      <trkpt lat="43.0685740" lon="-1.7579210">
        <ele>882.820007</ele>
        <time>2014-08-17T09:27:37.000Z</time>
      </trkpt>
      <trkpt lat="43.0685720" lon="-1.7578950">
        <ele>883.291992</ele>
        <time>2014-08-17T09:27:38.000Z</time>
      </trkpt>
      <trkpt lat="43.0685650" lon="-1.7578660">
        <ele>884.031006</ele>
        <time>2014-08-17T09:27:39.000Z</time>
      </trkpt>
      <trkpt lat="43.0685560" lon="-1.7578420">
        <ele>884.043030</ele>
        <time>2014-08-17T09:27:40.000Z</time>
      </trkpt>
      <trkpt lat="43.0685360" lon="-1.7577940">
        <ele>884.476013</ele>
        <time>2014-08-17T09:27:42.000Z</time>
      </trkpt>
      <trkpt lat="43.0684860" lon="-1.7576900">
        <ele>885.021057</ele>
        <time>2014-08-17T09:27:46.000Z</time>
      </trkpt>
      <trkpt lat="43.0684720" lon="-1.7576590">
        <ele>885.441040</ele>
        <time>2014-08-17T09:27:47.000Z</time>
      </trkpt>
      <trkpt lat="43.0684610" lon="-1.7576370">
        <ele>885.804993</ele>
        <time>2014-08-17T09:27:48.000Z</time>
      </trkpt>
      <trkpt lat="43.0684480" lon="-1.7576210">
        <ele>886.206970</ele>
        <time>2014-08-17T09:27:49.000Z</time>
      </trkpt>
      <trkpt lat="43.0684350" lon="-1.7576070">
        <ele>886.238953</ele>
        <time>2014-08-17T09:27:50.000Z</time>
      </trkpt>
      <trkpt lat="43.0683620" lon="-1.7575430">
        <ele>886.267029</ele>
        <time>2014-08-17T09:27:55.000Z</time>
      </trkpt>
      <trkpt lat="43.0682380" lon="-1.7574430">
        <ele>886.260010</ele>
        <time>2014-08-17T09:28:02.000Z</time>
      </trkpt>
      <trkpt lat="43.0681970" lon="-1.7574080">
        <ele>886.221985</ele>
        <time>2014-08-17T09:28:04.000Z</time>
      </trkpt>
      <trkpt lat="43.0680400" lon="-1.7573290">
        <ele>886.290955</ele>
        <time>2014-08-17T09:28:09.000Z</time>
      </trkpt>
      <trkpt lat="43.0678730" lon="-1.7572210">
        <ele>886.272949</ele>
        <time>2014-08-17T09:28:14.000Z</time>
      </trkpt>
      <trkpt lat="43.0678360" lon="-1.7571910">
        <ele>886.276001</ele>
        <time>2014-08-17T09:28:15.000Z</time>
      </trkpt>
      <trkpt lat="43.0675710" lon="-1.7570100">
        <ele>886.217041</ele>
        <time>2014-08-17T09:28:22.000Z</time>
      </trkpt>
      <trkpt lat="43.0673900" lon="-1.7569210">
        <ele>886.287048</ele>
        <time>2014-08-17T09:28:27.000Z</time>
      </trkpt>
      <trkpt lat="43.0672790" lon="-1.7568430">
        <ele>886.215027</ele>
        <time>2014-08-17T09:28:31.000Z</time>
      </trkpt>
      <trkpt lat="43.0672480" lon="-1.7568260">
        <ele>886.206970</ele>
        <time>2014-08-17T09:28:33.000Z</time>
      </trkpt>
      <trkpt lat="43.0672090" lon="-1.7568080">
        <ele>886.257996</ele>
        <time>2014-08-17T09:28:37.000Z</time>
      </trkpt>
      <trkpt lat="43.0670290" lon="-1.7566980">
        <ele>886.295959</ele>
        <time>2014-08-17T09:30:39.000Z</time>
      </trkpt>
      <trkpt lat="43.0669760" lon="-1.7566890">
        <ele>886.229004</ele>
        <time>2014-08-17T09:30:40.000Z</time>
      </trkpt>
      <trkpt lat="43.0669350" lon="-1.7566810">
        <ele>886.890991</ele>
        <time>2014-08-17T09:30:41.000Z</time>
      </trkpt>
      <trkpt lat="43.0669090" lon="-1.7566690">
        <ele>887.410034</ele>
        <time>2014-08-17T09:30:42.000Z</time>
      </trkpt>
      <trkpt lat="43.0668840" lon="-1.7566540">
        <ele>888.031982</ele>
        <time>2014-08-17T09:30:43.000Z</time>
      </trkpt>
      <trkpt lat="43.0668660" lon="-1.7566360">
        <ele>888.475037</ele>
        <time>2014-08-17T09:30:44.000Z</time>
      </trkpt>
      <trkpt lat="43.0668490" lon="-1.7566200">
        <ele>889.098022</ele>
        <time>2014-08-17T09:30:45.000Z</time>
      </trkpt>
      <trkpt lat="43.0668310" lon="-1.7566030">
        <ele>889.014954</ele>
        <time>2014-08-17T09:30:46.000Z</time>
      </trkpt>
      <trkpt lat="43.0667930" lon="-1.7565810">
        <ele>889.026001</ele>
        <time>2014-08-17T09:30:48.000Z</time>
      </trkpt>
      <trkpt lat="43.0667580" lon="-1.7565520">
        <ele>889.007019</ele>
        <time>2014-08-17T09:30:50.000Z</time>
      </trkpt>
      <trkpt lat="43.0666990" lon="-1.7565120">
        <ele>889.096008</ele>
        <time>2014-08-17T09:30:53.000Z</time>
      </trkpt>
      <trkpt lat="43.0666830" lon="-1.7564970">
        <ele>889.064026</ele>
        <time>2014-08-17T09:30:54.000Z</time>
      </trkpt>
      <trkpt lat="43.0666070" lon="-1.7564610">
        <ele>889.067017</ele>
        <time>2014-08-17T09:30:59.000Z</time>
      </trkpt>
      <trkpt lat="43.0665590" lon="-1.7564450">
        <ele>889.429016</ele>
        <time>2014-08-17T09:31:01.000Z</time>
      </trkpt>
      <trkpt lat="43.0665370" lon="-1.7564340">
        <ele>889.817993</ele>
        <time>2014-08-17T09:31:02.000Z</time>
      </trkpt>
      <trkpt lat="43.0665170" lon="-1.7564280">
        <ele>890.250061</ele>
        <time>2014-08-17T09:31:03.000Z</time>
      </trkpt>
      <trkpt lat="43.0665000" lon="-1.7564170">
        <ele>890.632996</ele>
        <time>2014-08-17T09:31:04.000Z</time>
      </trkpt>
      <trkpt lat="43.0664830" lon="-1.7564120">
        <ele>891.040955</ele>
        <time>2014-08-17T09:31:05.000Z</time>
      </trkpt>
      <trkpt lat="43.0664660" lon="-1.7564070">
        <ele>891.080994</ele>
        <time>2014-08-17T09:31:06.000Z</time>
      </trkpt>
      <trkpt lat="43.0664540" lon="-1.7564040">
        <ele>891.008972</ele>
        <time>2014-08-17T09:31:07.000Z</time>
      </trkpt>
      <trkpt lat="43.0664140" lon="-1.7563880">
        <ele>891.407043</ele>
        <time>2014-08-17T09:31:10.000Z</time>
      </trkpt>
      <trkpt lat="43.0663990" lon="-1.7563830">
        <ele>891.890991</ele>
        <time>2014-08-17T09:31:11.000Z</time>
      </trkpt>
      <trkpt lat="43.0663850" lon="-1.7563820">
        <ele>892.269043</ele>
        <time>2014-08-17T09:31:12.000Z</time>
      </trkpt>
      <trkpt lat="43.0663680" lon="-1.7563790">
        <ele>892.682007</ele>
        <time>2014-08-17T09:31:13.000Z</time>
      </trkpt>
      <trkpt lat="43.0663510" lon="-1.7563760">
        <ele>893.054016</ele>
        <time>2014-08-17T09:31:14.000Z</time>
      </trkpt>
      <trkpt lat="43.0663350" lon="-1.7563700">
        <ele>893.032959</ele>
        <time>2014-08-17T09:31:15.000Z</time>
      </trkpt>
      <trkpt lat="43.0662990" lon="-1.7563370">
        <ele>893.084961</ele>
        <time>2014-08-17T09:31:17.000Z</time>
      </trkpt>
      <trkpt lat="43.0662650" lon="-1.7563030">
        <ele>893.098022</ele>
        <time>2014-08-17T09:31:19.000Z</time>
      </trkpt>
      <trkpt lat="43.0661960" lon="-1.7562860">
        <ele>893.463013</ele>
        <time>2014-08-17T09:31:23.000Z</time>
      </trkpt>
      <trkpt lat="43.0661550" lon="-1.7562670">
        <ele>893.843994</ele>
        <time>2014-08-17T09:31:25.000Z</time>
      </trkpt>
      <trkpt lat="43.0661330" lon="-1.7562530">
        <ele>894.218018</ele>
        <time>2014-08-17T09:31:26.000Z</time>
      </trkpt>
      <trkpt lat="43.0661070" lon="-1.7562510">
        <ele>894.606995</ele>
        <time>2014-08-17T09:31:27.000Z</time>
      </trkpt>
      <trkpt lat="43.0660790" lon="-1.7562450">
        <ele>895.033020</ele>
        <time>2014-08-17T09:31:28.000Z</time>
      </trkpt>
      <trkpt lat="43.0660530" lon="-1.7562300">
        <ele>895.031006</ele>
        <time>2014-08-17T09:31:29.000Z</time>
      </trkpt>
      <trkpt lat="43.0660110" lon="-1.7562100">
        <ele>895.053955</ele>
        <time>2014-08-17T09:31:31.000Z</time>
      </trkpt>
      <trkpt lat="43.0659630" lon="-1.7561920">
        <ele>895.055969</ele>
        <time>2014-08-17T09:31:33.000Z</time>
      </trkpt>
      <trkpt lat="43.0658130" lon="-1.7561040">
        <ele>895.424988</ele>
        <time>2014-08-17T09:31:40.000Z</time>
      </trkpt>
      <trkpt lat="43.0657410" lon="-1.7560570">
        <ele>895.846985</ele>
        <time>2014-08-17T09:31:45.000Z</time>
      </trkpt>
      <trkpt lat="43.0657300" lon="-1.7560550">
        <ele>896.659973</ele>
        <time>2014-08-17T09:31:46.000Z</time>
      </trkpt>
      <trkpt lat="43.0657100" lon="-1.7560440">
        <ele>897.237000</ele>
        <time>2014-08-17T09:31:47.000Z</time>
      </trkpt>
      <trkpt lat="43.0657000" lon="-1.7560370">
        <ele>897.248962</ele>
        <time>2014-08-17T09:31:48.000Z</time>
      </trkpt>
      <trkpt lat="43.0656590" lon="-1.7560120">
        <ele>897.213013</ele>
        <time>2014-08-17T09:31:51.000Z</time>
      </trkpt>
      <trkpt lat="43.0655920" lon="-1.7559520">
        <ele>897.207031</ele>
        <time>2014-08-17T09:31:56.000Z</time>
      </trkpt>
      <trkpt lat="43.0655680" lon="-1.7559530">
        <ele>897.270020</ele>
        <time>2014-08-17T09:31:57.000Z</time>
      </trkpt>
      <trkpt lat="43.0654860" lon="-1.7559200">
        <ele>897.268005</ele>
        <time>2014-08-17T09:32:01.000Z</time>
      </trkpt>
      <trkpt lat="43.0654640" lon="-1.7559130">
        <ele>897.221008</ele>
        <time>2014-08-17T09:32:02.000Z</time>
      </trkpt>
      <trkpt lat="43.0654320" lon="-1.7558970">
        <ele>897.213013</ele>
        <time>2014-08-17T09:32:04.000Z</time>
      </trkpt>
      <trkpt lat="43.0653870" lon="-1.7558710">
        <ele>897.211975</ele>
        <time>2014-08-17T09:32:07.000Z</time>
      </trkpt>
      <trkpt lat="43.0653380" lon="-1.7558130">
        <ele>897.263977</ele>
        <time>2014-08-17T09:32:09.000Z</time>
      </trkpt>
      <trkpt lat="43.0652270" lon="-1.7557060">
        <ele>897.257019</ele>
        <time>2014-08-17T09:32:13.000Z</time>
      </trkpt>
      <trkpt lat="43.0651720" lon="-1.7556680">
        <ele>897.223022</ele>
        <time>2014-08-17T09:32:15.000Z</time>
      </trkpt>
      <trkpt lat="43.0651080" lon="-1.7556010">
        <ele>897.282959</ele>
        <time>2014-08-17T09:32:18.000Z</time>
      </trkpt>
      <trkpt lat="43.0650600" lon="-1.7555580">
        <ele>897.210999</ele>
        <time>2014-08-17T09:32:20.000Z</time>
      </trkpt>
      <trkpt lat="43.0649770" lon="-1.7554960">
        <ele>897.207031</ele>
        <time>2014-08-17T09:32:23.000Z</time>
      </trkpt>
      <trkpt lat="43.0648710" lon="-1.7554050">
        <ele>897.289001</ele>
        <time>2014-08-17T09:32:27.000Z</time>
      </trkpt>
      <trkpt lat="43.0648220" lon="-1.7553480">
        <ele>897.296997</ele>
        <time>2014-08-17T09:32:29.000Z</time>
      </trkpt>
      <trkpt lat="43.0646970" lon="-1.7552560">
        <ele>897.289978</ele>
        <time>2014-08-17T09:32:34.000Z</time>
      </trkpt>
      <trkpt lat="43.0646110" lon="-1.7552150">
        <ele>897.661987</ele>
        <time>2014-08-17T09:32:37.000Z</time>
      </trkpt>
      <trkpt lat="43.0645610" lon="-1.7551900">
        <ele>898.060974</ele>
        <time>2014-08-17T09:32:39.000Z</time>
      </trkpt>
      <trkpt lat="43.0645430" lon="-1.7551720">
        <ele>898.473022</ele>
        <time>2014-08-17T09:32:40.000Z</time>
      </trkpt>
      <trkpt lat="43.0645230" lon="-1.7551410">
        <ele>899.075989</ele>
        <time>2014-08-17T09:32:41.000Z</time>
      </trkpt>
      <trkpt lat="43.0644990" lon="-1.7551190">
        <ele>899.484009</ele>
        <time>2014-08-17T09:32:42.000Z</time>
      </trkpt>
      <trkpt lat="43.0644750" lon="-1.7551000">
        <ele>899.406982</ele>
        <time>2014-08-17T09:32:43.000Z</time>
      </trkpt>
      <trkpt lat="43.0644480" lon="-1.7550840">
        <ele>899.417053</ele>
        <time>2014-08-17T09:32:44.000Z</time>
      </trkpt>
      <trkpt lat="43.0642970" lon="-1.7549470">
        <ele>899.406982</ele>
        <time>2014-08-17T09:32:50.000Z</time>
      </trkpt>
      <trkpt lat="43.0642090" lon="-1.7548450">
        <ele>899.424988</ele>
        <time>2014-08-17T09:32:53.000Z</time>
      </trkpt>
      <trkpt lat="43.0641100" lon="-1.7547240">
        <ele>899.413025</ele>
        <time>2014-08-17T09:32:56.000Z</time>
      </trkpt>
      <trkpt lat="43.0639640" lon="-1.7545360">
        <ele>899.415955</ele>
        <time>2014-08-17T09:33:02.000Z</time>
      </trkpt>
      <trkpt lat="43.0639440" lon="-1.7545080">
        <ele>899.447998</ele>
        <time>2014-08-17T09:33:03.000Z</time>
      </trkpt>
      <trkpt lat="43.0639080" lon="-1.7544620">
        <ele>899.876953</ele>
        <time>2014-08-17T09:33:05.000Z</time>
      </trkpt>
      <trkpt lat="43.0638730" lon="-1.7544200">
        <ele>900.229004</ele>
        <time>2014-08-17T09:33:07.000Z</time>
      </trkpt>
      <trkpt lat="43.0638560" lon="-1.7543980">
        <ele>900.682007</ele>
        <time>2014-08-17T09:33:08.000Z</time>
      </trkpt>
      <trkpt lat="43.0638430" lon="-1.7543800">
        <ele>901.016052</ele>
        <time>2014-08-17T09:33:09.000Z</time>
      </trkpt>
      <trkpt lat="43.0638330" lon="-1.7543590">
        <ele>901.476013</ele>
        <time>2014-08-17T09:33:10.000Z</time>
      </trkpt>
      <trkpt lat="43.0638240" lon="-1.7543380">
        <ele>901.413025</ele>
        <time>2014-08-17T09:33:11.000Z</time>
      </trkpt>
      <trkpt lat="43.0637720" lon="-1.7542460">
        <ele>901.406982</ele>
        <time>2014-08-17T09:33:15.000Z</time>
      </trkpt>
      <trkpt lat="43.0637280" lon="-1.7541960">
        <ele>901.468018</ele>
        <time>2014-08-17T09:33:18.000Z</time>
      </trkpt>
      <trkpt lat="43.0637000" lon="-1.7541630">
        <ele>902.486023</ele>
        <time>2014-08-17T09:33:20.000Z</time>
      </trkpt>
      <trkpt lat="43.0636260" lon="-1.7540950">
        <ele>902.819031</ele>
        <time>2014-08-17T09:33:25.000Z</time>
      </trkpt>
      <trkpt lat="43.0636030" lon="-1.7540860">
        <ele>903.270996</ele>
        <time>2014-08-17T09:33:26.000Z</time>
      </trkpt>
      <trkpt lat="43.0635810" lon="-1.7540800">
        <ele>903.650024</ele>
        <time>2014-08-17T09:33:27.000Z</time>
      </trkpt>
      <trkpt lat="43.0635640" lon="-1.7540730">
        <ele>903.671997</ele>
        <time>2014-08-17T09:33:28.000Z</time>
      </trkpt>
      <trkpt lat="43.0635160" lon="-1.7540410">
        <ele>904.295044</ele>
        <time>2014-08-17T09:33:31.000Z</time>
      </trkpt>
      <trkpt lat="43.0634880" lon="-1.7540200">
        <ele>904.617981</ele>
        <time>2014-08-17T09:33:32.000Z</time>
      </trkpt>
      <trkpt lat="43.0634660" lon="-1.7539920">
        <ele>905.098022</ele>
        <time>2014-08-17T09:33:33.000Z</time>
      </trkpt>
      <trkpt lat="43.0634450" lon="-1.7539550">
        <ele>905.617004</ele>
        <time>2014-08-17T09:33:34.000Z</time>
      </trkpt>
      <trkpt lat="43.0634210" lon="-1.7539210">
        <ele>906.006958</ele>
        <time>2014-08-17T09:33:35.000Z</time>
      </trkpt>
      <trkpt lat="43.0633870" lon="-1.7538950">
        <ele>906.047974</ele>
        <time>2014-08-17T09:33:36.000Z</time>
      </trkpt>
      <trkpt lat="43.0633360" lon="-1.7538790">
        <ele>906.065979</ele>
        <time>2014-08-17T09:33:38.000Z</time>
      </trkpt>
      <trkpt lat="43.0631870" lon="-1.7537890">
        <ele>906.099060</ele>
        <time>2014-08-17T09:33:44.000Z</time>
      </trkpt>
      <trkpt lat="43.0630730" lon="-1.7537060">
        <ele>906.490967</ele>
        <time>2014-08-17T09:33:49.000Z</time>
      </trkpt>
      <trkpt lat="43.0630200" lon="-1.7536650">
        <ele>907.059998</ele>
        <time>2014-08-17T09:33:51.000Z</time>
      </trkpt>
      <trkpt lat="43.0629960" lon="-1.7536410">
        <ele>907.492004</ele>
        <time>2014-08-17T09:33:52.000Z</time>
      </trkpt>
      <trkpt lat="43.0629750" lon="-1.7536130">
        <ele>907.825012</ele>
        <time>2014-08-17T09:33:53.000Z</time>
      </trkpt>
      <trkpt lat="43.0629540" lon="-1.7535880">
        <ele>908.240967</ele>
        <time>2014-08-17T09:33:54.000Z</time>
      </trkpt>
      <trkpt lat="43.0629330" lon="-1.7535610">
        <ele>908.880981</ele>
        <time>2014-08-17T09:33:55.000Z</time>
      </trkpt>
      <trkpt lat="43.0628730" lon="-1.7534960">
        <ele>909.209045</ele>
        <time>2014-08-17T09:33:58.000Z</time>
      </trkpt>
      <trkpt lat="43.0628500" lon="-1.7534730">
        <ele>909.807007</ele>
        <time>2014-08-17T09:33:59.000Z</time>
      </trkpt>
      <trkpt lat="43.0628300" lon="-1.7534450">
        <ele>910.291016</ele>
        <time>2014-08-17T09:34:00.000Z</time>
      </trkpt>
      <trkpt lat="43.0628070" lon="-1.7534140">
        <ele>910.038940</ele>
        <time>2014-08-17T09:34:01.000Z</time>
      </trkpt>
      <trkpt lat="43.0627920" lon="-1.7533920">
        <ele>909.661987</ele>
        <time>2014-08-17T09:34:02.000Z</time>
      </trkpt>
      <trkpt lat="43.0627830" lon="-1.7533820">
        <ele>909.284058</ele>
        <time>2014-08-17T09:34:03.000Z</time>
      </trkpt>
      <trkpt lat="43.0627650" lon="-1.7533510">
        <ele>909.663025</ele>
        <time>2014-08-17T09:34:04.000Z</time>
      </trkpt>
      <trkpt lat="43.0627470" lon="-1.7533220">
        <ele>909.875000</ele>
        <time>2014-08-17T09:34:05.000Z</time>
      </trkpt>
      <trkpt lat="43.0627300" lon="-1.7532890">
        <ele>910.277954</ele>
        <time>2014-08-17T09:34:06.000Z</time>
      </trkpt>
      <trkpt lat="43.0627120" lon="-1.7532640">
        <ele>910.423035</ele>
        <time>2014-08-17T09:34:07.000Z</time>
      </trkpt>
      <trkpt lat="43.0626960" lon="-1.7532360">
        <ele>910.683044</ele>
        <time>2014-08-17T09:34:08.000Z</time>
      </trkpt>
      <trkpt lat="43.0626850" lon="-1.7532090">
        <ele>910.610962</ele>
        <time>2014-08-17T09:34:09.000Z</time>
      </trkpt>
      <trkpt lat="43.0626480" lon="-1.7531360">
        <ele>910.606995</ele>
        <time>2014-08-17T09:34:11.000Z</time>
      </trkpt>
      <trkpt lat="43.0625530" lon="-1.7529310">
        <ele>911.238953</ele>
        <time>2014-08-17T09:34:17.000Z</time>
      </trkpt>
      <trkpt lat="43.0624830" lon="-1.7527200">
        <ele>911.627014</ele>
        <time>2014-08-17T09:34:24.000Z</time>
      </trkpt>
      <trkpt lat="43.0624700" lon="-1.7526920">
        <ele>912.009949</ele>
        <time>2014-08-17T09:34:25.000Z</time>
      </trkpt>
      <trkpt lat="43.0624630" lon="-1.7526620">
        <ele>912.682007</ele>
        <time>2014-08-17T09:34:26.000Z</time>
      </trkpt>
      <trkpt lat="43.0624530" lon="-1.7526320">
        <ele>913.051025</ele>
        <time>2014-08-17T09:34:27.000Z</time>
      </trkpt>
      <trkpt lat="43.0624430" lon="-1.7526050">
        <ele>913.053040</ele>
        <time>2014-08-17T09:34:28.000Z</time>
      </trkpt>
      <trkpt lat="43.0624340" lon="-1.7525530">
        <ele>913.065979</ele>
        <time>2014-08-17T09:34:30.000Z</time>
      </trkpt>
      <trkpt lat="43.0623990" lon="-1.7524080">
        <ele>913.044983</ele>
        <time>2014-08-17T09:34:35.000Z</time>
      </trkpt>
      <trkpt lat="43.0623710" lon="-1.7522400">
        <ele>913.046997</ele>
        <time>2014-08-17T09:34:41.000Z</time>
      </trkpt>
      <trkpt lat="43.0623910" lon="-1.7521740">
        <ele>913.411011</ele>
        <time>2014-08-17T09:34:44.000Z</time>
      </trkpt>
      <trkpt lat="43.0624070" lon="-1.7521730">
        <ele>914.007019</ele>
        <time>2014-08-17T09:34:45.000Z</time>
      </trkpt>
      <trkpt lat="43.0624190" lon="-1.7521690">
        <ele>914.431030</ele>
        <time>2014-08-17T09:34:46.000Z</time>
      </trkpt>
      <trkpt lat="43.0624200" lon="-1.7521770">
        <ele>914.828979</ele>
        <time>2014-08-17T09:34:47.000Z</time>
      </trkpt>
      <trkpt lat="43.0624180" lon="-1.7521760">
        <ele>915.461975</ele>
        <time>2014-08-17T09:34:48.000Z</time>
      </trkpt>
      <trkpt lat="43.0624770" lon="-1.7521560">
        <ele>915.463989</ele>
        <time>2014-08-17T09:41:27.000Z</time>
      </trkpt>
      <trkpt lat="43.0624910" lon="-1.7521470">
        <ele>915.422974</ele>
        <time>2014-08-17T09:41:28.000Z</time>
      </trkpt>
      <trkpt lat="43.0625740" lon="-1.7521470">
        <ele>915.424988</ele>
        <time>2014-08-17T09:41:31.000Z</time>
      </trkpt>
      <trkpt lat="43.0626430" lon="-1.7521460">
        <ele>915.437988</ele>
        <time>2014-08-17T09:41:33.000Z</time>
      </trkpt>
      <trkpt lat="43.0627800" lon="-1.7521290">
        <ele>914.838013</ele>
        <time>2014-08-17T09:41:37.000Z</time>
      </trkpt>
      <trkpt lat="43.0628210" lon="-1.7521290">
        <ele>914.069946</ele>
        <time>2014-08-17T09:41:38.000Z</time>
      </trkpt>
      <trkpt lat="43.0628640" lon="-1.7521300">
        <ele>913.617004</ele>
        <time>2014-08-17T09:41:39.000Z</time>
      </trkpt>
      <trkpt lat="43.0629060" lon="-1.7521360">
        <ele>913.206970</ele>
        <time>2014-08-17T09:41:40.000Z</time>
      </trkpt>
      <trkpt lat="43.0629480" lon="-1.7521440">
        <ele>913.240051</ele>
        <time>2014-08-17T09:41:41.000Z</time>
      </trkpt>
      <trkpt lat="43.0630590" lon="-1.7521700">
        <ele>913.297974</ele>
        <time>2014-08-17T09:41:44.000Z</time>
      </trkpt>
      <trkpt lat="43.0631460" lon="-1.7521970">
        <ele>913.270996</ele>
        <time>2014-08-17T09:41:47.000Z</time>
      </trkpt>
      <trkpt lat="43.0632290" lon="-1.7522280">
        <ele>913.213013</ele>
        <time>2014-08-17T09:41:50.000Z</time>
      </trkpt>
      <trkpt lat="43.0633740" lon="-1.7522640">
        <ele>913.261963</ele>
        <time>2014-08-17T09:41:55.000Z</time>
      </trkpt>
      <trkpt lat="43.0634440" lon="-1.7522700">
        <ele>913.224060</ele>
        <time>2014-08-17T09:41:57.000Z</time>
      </trkpt>
      <trkpt lat="43.0636370" lon="-1.7523050">
        <ele>913.677002</ele>
        <time>2014-08-17T09:42:03.000Z</time>
      </trkpt>
      <trkpt lat="43.0637440" lon="-1.7523040">
        <ele>914.083008</ele>
        <time>2014-08-17T09:42:06.000Z</time>
      </trkpt>
      <trkpt lat="43.0637870" lon="-1.7523080">
        <ele>914.424988</ele>
        <time>2014-08-17T09:42:07.000Z</time>
      </trkpt>
      <trkpt lat="43.0638280" lon="-1.7523120">
        <ele>914.817017</ele>
        <time>2014-08-17T09:42:08.000Z</time>
      </trkpt>
      <trkpt lat="43.0638690" lon="-1.7523100">
        <ele>915.207031</ele>
        <time>2014-08-17T09:42:09.000Z</time>
      </trkpt>
      <trkpt lat="43.0639100" lon="-1.7523090">
        <ele>914.885010</ele>
        <time>2014-08-17T09:42:10.000Z</time>
      </trkpt>
      <trkpt lat="43.0641940" lon="-1.7522640">
        <ele>914.473022</ele>
        <time>2014-08-17T09:42:16.000Z</time>
      </trkpt>
      <trkpt lat="43.0642390" lon="-1.7522510">
        <ele>913.815979</ele>
        <time>2014-08-17T09:42:17.000Z</time>
      </trkpt>
      <trkpt lat="43.0642840" lon="-1.7522400">
        <ele>913.478027</ele>
        <time>2014-08-17T09:42:18.000Z</time>
      </trkpt>
      <trkpt lat="43.0643230" lon="-1.7522270">
        <ele>913.046997</ele>
        <time>2014-08-17T09:42:19.000Z</time>
      </trkpt>
      <trkpt lat="43.0643640" lon="-1.7522190">
        <ele>913.078979</ele>
        <time>2014-08-17T09:42:20.000Z</time>
      </trkpt>
      <trkpt lat="43.0644410" lon="-1.7521950">
        <ele>913.041992</ele>
        <time>2014-08-17T09:42:22.000Z</time>
      </trkpt>
      <trkpt lat="43.0645620" lon="-1.7521380">
        <ele>913.088013</ele>
        <time>2014-08-17T09:42:25.000Z</time>
      </trkpt>
      <trkpt lat="43.0646490" lon="-1.7521130">
        <ele>913.023987</ele>
        <time>2014-08-17T09:42:27.000Z</time>
      </trkpt>
      <trkpt lat="43.0646930" lon="-1.7520910">
        <ele>913.026001</ele>
        <time>2014-08-17T09:42:28.000Z</time>
      </trkpt>
      <trkpt lat="43.0647380" lon="-1.7520740">
        <ele>913.006958</ele>
        <time>2014-08-17T09:42:29.000Z</time>
      </trkpt>
      <trkpt lat="43.0647860" lon="-1.7520460">
        <ele>913.044983</ele>
        <time>2014-08-17T09:42:30.000Z</time>
      </trkpt>
      <trkpt lat="43.0648960" lon="-1.7519720">
        <ele>913.013000</ele>
        <time>2014-08-17T09:42:33.000Z</time>
      </trkpt>
      <trkpt lat="43.0649310" lon="-1.7519450">
        <ele>913.046021</ele>
        <time>2014-08-17T09:42:34.000Z</time>
      </trkpt>
      <trkpt lat="43.0651390" lon="-1.7517560">
        <ele>913.047974</ele>
        <time>2014-08-17T09:42:40.000Z</time>
      </trkpt>
      <trkpt lat="43.0652120" lon="-1.7516980">
        <ele>913.046997</ele>
        <time>2014-08-17T09:42:42.000Z</time>
      </trkpt>
      <trkpt lat="43.0653740" lon="-1.7515780">
        <ele>912.429016</ele>
        <time>2014-08-17T09:42:46.000Z</time>
      </trkpt>
      <trkpt lat="43.0654150" lon="-1.7515430">
        <ele>912.082031</ele>
        <time>2014-08-17T09:42:47.000Z</time>
      </trkpt>
      <trkpt lat="43.0654520" lon="-1.7515090">
        <ele>911.452026</ele>
        <time>2014-08-17T09:42:48.000Z</time>
      </trkpt>
      <trkpt lat="43.0654890" lon="-1.7514660">
        <ele>911.052979</ele>
        <time>2014-08-17T09:42:49.000Z</time>
      </trkpt>
      <trkpt lat="43.0655220" lon="-1.7514320">
        <ele>910.407959</ele>
        <time>2014-08-17T09:42:50.000Z</time>
      </trkpt>
      <trkpt lat="43.0655550" lon="-1.7513940">
        <ele>910.407043</ele>
        <time>2014-08-17T09:42:51.000Z</time>
      </trkpt>
      <trkpt lat="43.0655910" lon="-1.7513590">
        <ele>910.411987</ele>
        <time>2014-08-17T09:42:52.000Z</time>
      </trkpt>
      <trkpt lat="43.0657800" lon="-1.7511890">
        <ele>910.429993</ele>
        <time>2014-08-17T09:42:58.000Z</time>
      </trkpt>
      <trkpt lat="43.0659680" lon="-1.7509970">
        <ele>911.052979</ele>
        <time>2014-08-17T09:43:04.000Z</time>
      </trkpt>
      <trkpt lat="43.0660290" lon="-1.7509350">
        <ele>911.465027</ele>
        <time>2014-08-17T09:43:06.000Z</time>
      </trkpt>
      <trkpt lat="43.0660620" lon="-1.7508970">
        <ele>911.874023</ele>
        <time>2014-08-17T09:43:07.000Z</time>
      </trkpt>
      <trkpt lat="43.0660930" lon="-1.7508540">
        <ele>912.296021</ele>
        <time>2014-08-17T09:43:08.000Z</time>
      </trkpt>
      <trkpt lat="43.0661150" lon="-1.7508120">
        <ele>912.638977</ele>
        <time>2014-08-17T09:43:09.000Z</time>
      </trkpt>
      <trkpt lat="43.0661390" lon="-1.7507760">
        <ele>912.672974</ele>
        <time>2014-08-17T09:43:10.000Z</time>
      </trkpt>
      <trkpt lat="43.0663110" lon="-1.7505930">
        <ele>912.284973</ele>
        <time>2014-08-17T09:43:15.000Z</time>
      </trkpt>
      <trkpt lat="43.0664040" lon="-1.7505150">
        <ele>911.213013</ele>
        <time>2014-08-17T09:43:17.000Z</time>
      </trkpt>
      <trkpt lat="43.0664470" lon="-1.7504760">
        <ele>910.606995</ele>
        <time>2014-08-17T09:43:18.000Z</time>
      </trkpt>
      <trkpt lat="43.0664820" lon="-1.7504340">
        <ele>910.294006</ele>
        <time>2014-08-17T09:43:19.000Z</time>
      </trkpt>
      <trkpt lat="43.0665300" lon="-1.7503860">
        <ele>910.281982</ele>
        <time>2014-08-17T09:43:20.000Z</time>
      </trkpt>
      <trkpt lat="43.0665680" lon="-1.7503350">
        <ele>910.295044</ele>
        <time>2014-08-17T09:43:21.000Z</time>
      </trkpt>
      <trkpt lat="43.0666370" lon="-1.7502210">
        <ele>910.286987</ele>
        <time>2014-08-17T09:43:23.000Z</time>
      </trkpt>
      <trkpt lat="43.0667230" lon="-1.7501510">
        <ele>910.236023</ele>
        <time>2014-08-17T09:43:25.000Z</time>
      </trkpt>
      <trkpt lat="43.0667980" lon="-1.7500680">
        <ele>910.218018</ele>
        <time>2014-08-17T09:43:27.000Z</time>
      </trkpt>
      <trkpt lat="43.0669240" lon="-1.7499460">
        <ele>910.241028</ele>
        <time>2014-08-17T09:43:30.000Z</time>
      </trkpt>
      <trkpt lat="43.0669620" lon="-1.7499090">
        <ele>910.226990</ele>
        <time>2014-08-17T09:43:31.000Z</time>
      </trkpt>
      <trkpt lat="43.0671430" lon="-1.7497560">
        <ele>910.268005</ele>
        <time>2014-08-17T09:43:36.000Z</time>
      </trkpt>
      <trkpt lat="43.0673030" lon="-1.7496610">
        <ele>910.213989</ele>
        <time>2014-08-17T09:43:41.000Z</time>
      </trkpt>
      <trkpt lat="43.0673370" lon="-1.7496540">
        <ele>910.206970</ele>
        <time>2014-08-17T09:43:42.000Z</time>
      </trkpt>
      <trkpt lat="43.0674280" lon="-1.7496070">
        <ele>910.289001</ele>
        <time>2014-08-17T09:43:44.000Z</time>
      </trkpt>
      <trkpt lat="43.0674870" lon="-1.7495710">
        <ele>910.247009</ele>
        <time>2014-08-17T09:43:45.000Z</time>
      </trkpt>
      <trkpt lat="43.0675410" lon="-1.7495470">
        <ele>909.809998</ele>
        <time>2014-08-17T09:43:46.000Z</time>
      </trkpt>
      <trkpt lat="43.0676450" lon="-1.7494620">
        <ele>909.492004</ele>
        <time>2014-08-17T09:43:48.000Z</time>
      </trkpt>
      <trkpt lat="43.0677020" lon="-1.7494200">
        <ele>909.031006</ele>
        <time>2014-08-17T09:43:49.000Z</time>
      </trkpt>
      <trkpt lat="43.0677590" lon="-1.7493750">
        <ele>908.653015</ele>
        <time>2014-08-17T09:43:50.000Z</time>
      </trkpt>
      <trkpt lat="43.0678190" lon="-1.7493370">
        <ele>908.276001</ele>
        <time>2014-08-17T09:43:51.000Z</time>
      </trkpt>
      <trkpt lat="43.0678780" lon="-1.7492870">
        <ele>907.863037</ele>
        <time>2014-08-17T09:43:52.000Z</time>
      </trkpt>
      <trkpt lat="43.0679900" lon="-1.7491870">
        <ele>907.443970</ele>
        <time>2014-08-17T09:43:54.000Z</time>
      </trkpt>
      <trkpt lat="43.0680500" lon="-1.7491470">
        <ele>907.018005</ele>
        <time>2014-08-17T09:43:55.000Z</time>
      </trkpt>
      <trkpt lat="43.0681120" lon="-1.7491030">
        <ele>906.606995</ele>
        <time>2014-08-17T09:43:56.000Z</time>
      </trkpt>
      <trkpt lat="43.0681770" lon="-1.7490510">
        <ele>906.243042</ele>
        <time>2014-08-17T09:43:57.000Z</time>
      </trkpt>
      <trkpt lat="43.0682440" lon="-1.7489980">
        <ele>905.851013</ele>
        <time>2014-08-17T09:43:58.000Z</time>
      </trkpt>
      <trkpt lat="43.0683180" lon="-1.7489560">
        <ele>905.463989</ele>
        <time>2014-08-17T09:43:59.000Z</time>
      </trkpt>
      <trkpt lat="43.0683900" lon="-1.7489140">
        <ele>905.096008</ele>
        <time>2014-08-17T09:44:00.000Z</time>
      </trkpt>
      <trkpt lat="43.0684610" lon="-1.7488740">
        <ele>904.635010</ele>
        <time>2014-08-17T09:44:01.000Z</time>
      </trkpt>
      <trkpt lat="43.0685330" lon="-1.7488290">
        <ele>904.257019</ele>
        <time>2014-08-17T09:44:02.000Z</time>
      </trkpt>
      <trkpt lat="43.0686050" lon="-1.7487770">
        <ele>903.619995</ele>
        <time>2014-08-17T09:44:03.000Z</time>
      </trkpt>
      <trkpt lat="43.0686750" lon="-1.7487200">
        <ele>903.250977</ele>
        <time>2014-08-17T09:44:04.000Z</time>
      </trkpt>
      <trkpt lat="43.0687390" lon="-1.7486470">
        <ele>902.600952</ele>
        <time>2014-08-17T09:44:05.000Z</time>
      </trkpt>
      <trkpt lat="43.0688020" lon="-1.7485830">
        <ele>902.011047</ele>
        <time>2014-08-17T09:44:06.000Z</time>
      </trkpt>
      <trkpt lat="43.0688670" lon="-1.7485140">
        <ele>901.607056</ele>
        <time>2014-08-17T09:44:07.000Z</time>
      </trkpt>
      <trkpt lat="43.0689280" lon="-1.7484380">
        <ele>901.231995</ele>
        <time>2014-08-17T09:44:08.000Z</time>
      </trkpt>
      <trkpt lat="43.0689930" lon="-1.7483620">
        <ele>900.850037</ele>
        <time>2014-08-17T09:44:09.000Z</time>
      </trkpt>
      <trkpt lat="43.0690650" lon="-1.7483100">
        <ele>900.293030</ele>
        <time>2014-08-17T09:44:10.000Z</time>
      </trkpt>
      <trkpt lat="43.0691400" lon="-1.7482450">
        <ele>899.885010</ele>
        <time>2014-08-17T09:44:11.000Z</time>
      </trkpt>
      <trkpt lat="43.0692280" lon="-1.7482000">
        <ele>899.273987</ele>
        <time>2014-08-17T09:44:12.000Z</time>
      </trkpt>
      <trkpt lat="43.0693170" lon="-1.7481610">
        <ele>898.835999</ele>
        <time>2014-08-17T09:44:13.000Z</time>
      </trkpt>
      <trkpt lat="43.0694060" lon="-1.7481180">
        <ele>898.238953</ele>
        <time>2014-08-17T09:44:14.000Z</time>
      </trkpt>
      <trkpt lat="43.0694930" lon="-1.7480750">
        <ele>897.656006</ele>
        <time>2014-08-17T09:44:15.000Z</time>
      </trkpt>
      <trkpt lat="43.0695840" lon="-1.7480610">
        <ele>897.059021</ele>
        <time>2014-08-17T09:44:16.000Z</time>
      </trkpt>
      <trkpt lat="43.0696820" lon="-1.7480770">
        <ele>896.414001</ele>
        <time>2014-08-17T09:44:17.000Z</time>
      </trkpt>
      <trkpt lat="43.0697750" lon="-1.7481090">
        <ele>895.807007</ele>
        <time>2014-08-17T09:44:18.000Z</time>
      </trkpt>
      <trkpt lat="43.0698660" lon="-1.7481460">
        <ele>895.012024</ele>
        <time>2014-08-17T09:44:19.000Z</time>
      </trkpt>
      <trkpt lat="43.0699590" lon="-1.7481630">
        <ele>894.489990</ele>
        <time>2014-08-17T09:44:20.000Z</time>
      </trkpt>
      <trkpt lat="43.0700570" lon="-1.7481820">
        <ele>894.463013</ele>
        <time>2014-08-17T09:44:21.000Z</time>
      </trkpt>
      <trkpt lat="43.0701490" lon="-1.7482100">
        <ele>894.085022</ele>
        <time>2014-08-17T09:44:22.000Z</time>
      </trkpt>
      <trkpt lat="43.0703290" lon="-1.7482800">
        <ele>893.623962</ele>
        <time>2014-08-17T09:44:24.000Z</time>
      </trkpt>
      <trkpt lat="43.0704160" lon="-1.7483040">
        <ele>893.226013</ele>
        <time>2014-08-17T09:44:25.000Z</time>
      </trkpt>
      <trkpt lat="43.0705080" lon="-1.7483240">
        <ele>892.859009</ele>
        <time>2014-08-17T09:44:26.000Z</time>
      </trkpt>
      <trkpt lat="43.0705900" lon="-1.7483210">
        <ele>892.420959</ele>
        <time>2014-08-17T09:44:27.000Z</time>
      </trkpt>
      <trkpt lat="43.0706780" lon="-1.7483370">
        <ele>892.440979</ele>
        <time>2014-08-17T09:44:28.000Z</time>
      </trkpt>
      <trkpt lat="43.0708580" lon="-1.7483310">
        <ele>892.404968</ele>
        <time>2014-08-17T09:44:30.000Z</time>
      </trkpt>
      <trkpt lat="43.0709430" lon="-1.7483370">
        <ele>892.406982</ele>
        <time>2014-08-17T09:44:31.000Z</time>
      </trkpt>
      <trkpt lat="43.0710300" lon="-1.7483420">
        <ele>892.069031</ele>
        <time>2014-08-17T09:44:32.000Z</time>
      </trkpt>
      <trkpt lat="43.0711950" lon="-1.7483360">
        <ele>891.656982</ele>
        <time>2014-08-17T09:44:34.000Z</time>
      </trkpt>
      <trkpt lat="43.0712790" lon="-1.7483310">
        <ele>891.260010</ele>
        <time>2014-08-17T09:44:35.000Z</time>
      </trkpt>
      <trkpt lat="43.0713750" lon="-1.7483260">
        <ele>890.892029</ele>
        <time>2014-08-17T09:44:36.000Z</time>
      </trkpt>
      <trkpt lat="43.0714610" lon="-1.7483180">
        <ele>890.431030</ele>
        <time>2014-08-17T09:44:37.000Z</time>
      </trkpt>
      <trkpt lat="43.0715500" lon="-1.7483080">
        <ele>890.453064</ele>
        <time>2014-08-17T09:44:38.000Z</time>
      </trkpt>
      <trkpt lat="43.0716400" lon="-1.7482800">
        <ele>889.885986</ele>
        <time>2014-08-17T09:44:39.000Z</time>
      </trkpt>
      <trkpt lat="43.0717260" lon="-1.7482470">
        <ele>889.453003</ele>
        <time>2014-08-17T09:44:40.000Z</time>
      </trkpt>
      <trkpt lat="43.0718080" lon="-1.7482230">
        <ele>888.804016</ele>
        <time>2014-08-17T09:44:41.000Z</time>
      </trkpt>
      <trkpt lat="43.0718720" lon="-1.7481970">
        <ele>888.414001</ele>
        <time>2014-08-17T09:44:42.000Z</time>
      </trkpt>
      <trkpt lat="43.0719240" lon="-1.7481770">
        <ele>887.807007</ele>
        <time>2014-08-17T09:44:43.000Z</time>
      </trkpt>
      <trkpt lat="43.0719640" lon="-1.7481600">
        <ele>887.821960</ele>
        <time>2014-08-17T09:44:44.000Z</time>
      </trkpt>
      <trkpt lat="43.0720010" lon="-1.7481450">
        <ele>887.479980</ele>
        <time>2014-08-17T09:44:45.000Z</time>
      </trkpt>
      <trkpt lat="43.0720620" lon="-1.7481130">
        <ele>887.072998</ele>
        <time>2014-08-17T09:44:47.000Z</time>
      </trkpt>
      <trkpt lat="43.0720740" lon="-1.7481100">
        <ele>886.285034</ele>
        <time>2014-08-17T09:44:48.000Z</time>
      </trkpt>
      <trkpt lat="43.0720830" lon="-1.7481010">
        <ele>885.473999</ele>
        <time>2014-08-17T09:44:49.000Z</time>
      </trkpt>
      <trkpt lat="43.0720940" lon="-1.7480910">
        <ele>884.885986</ele>
        <time>2014-08-17T09:44:50.000Z</time>
      </trkpt>
      <trkpt lat="43.0721090" lon="-1.7480780">
        <ele>885.078979</ele>
        <time>2014-08-17T09:44:51.000Z</time>
      </trkpt>
      <trkpt lat="43.0721260" lon="-1.7480600">
        <ele>885.065979</ele>
        <time>2014-08-17T09:44:52.000Z</time>
      </trkpt>
      <trkpt lat="43.0721430" lon="-1.7480370">
        <ele>885.229004</ele>
        <time>2014-08-17T09:44:53.000Z</time>
      </trkpt>
      <trkpt lat="43.0721590" lon="-1.7480110">
        <ele>885.421021</ele>
        <time>2014-08-17T09:44:54.000Z</time>
      </trkpt>
      <trkpt lat="43.0721710" lon="-1.7479860">
        <ele>885.006958</ele>
        <time>2014-08-17T09:44:55.000Z</time>
      </trkpt>
      <trkpt lat="43.0721880" lon="-1.7479680">
        <ele>884.273010</ele>
        <time>2014-08-17T09:44:56.000Z</time>
      </trkpt>
      <trkpt lat="43.0721970" lon="-1.7479460">
        <ele>883.810974</ele>
        <time>2014-08-17T09:44:57.000Z</time>
      </trkpt>
      <trkpt lat="43.0721990" lon="-1.7479250">
        <ele>883.484009</ele>
        <time>2014-08-17T09:44:58.000Z</time>
      </trkpt>
      <trkpt lat="43.0722000" lon="-1.7479130">
        <ele>883.436035</ele>
        <time>2014-08-17T09:44:59.000Z</time>
      </trkpt>
      <trkpt lat="43.0722020" lon="-1.7479110">
        <ele>883.415039</ele>
        <time>2014-08-17T09:45:00.000Z</time>
      </trkpt>
      <trkpt lat="43.0721770" lon="-1.7478550">
        <ele>883.466980</ele>
        <time>2014-08-17T09:51:49.000Z</time>
      </trkpt>
      <trkpt lat="43.0721840" lon="-1.7478270">
        <ele>883.010010</ele>
        <time>2014-08-17T09:51:50.000Z</time>
      </trkpt>
      <trkpt lat="43.0721870" lon="-1.7478120">
        <ele>882.614990</ele>
        <time>2014-08-17T09:51:51.000Z</time>
      </trkpt>
      <trkpt lat="43.0721880" lon="-1.7478090">
        <ele>881.465027</ele>
        <time>2014-08-17T09:51:52.000Z</time>
      </trkpt>
      <trkpt lat="43.0721920" lon="-1.7477740">
        <ele>881.411011</ele>
        <time>2014-08-17T09:53:48.000Z</time>
      </trkpt>
      <trkpt lat="43.0721930" lon="-1.7477290">
        <ele>881.407043</ele>
        <time>2014-08-17T09:53:49.000Z</time>
      </trkpt>
      <trkpt lat="43.0721850" lon="-1.7476100">
        <ele>881.428040</ele>
        <time>2014-08-17T09:53:51.000Z</time>
      </trkpt>
      <trkpt lat="43.0721730" lon="-1.7474670">
        <ele>881.015991</ele>
        <time>2014-08-17T09:53:53.000Z</time>
      </trkpt>
      <trkpt lat="43.0721690" lon="-1.7473880">
        <ele>880.429016</ele>
        <time>2014-08-17T09:53:54.000Z</time>
      </trkpt>
      <trkpt lat="43.0721640" lon="-1.7473060">
        <ele>880.061035</ele>
        <time>2014-08-17T09:53:55.000Z</time>
      </trkpt>
      <trkpt lat="43.0721570" lon="-1.7472210">
        <ele>879.479980</ele>
        <time>2014-08-17T09:53:56.000Z</time>
      </trkpt>
      <trkpt lat="43.0721500" lon="-1.7471400">
        <ele>879.062012</ele>
        <time>2014-08-17T09:53:57.000Z</time>
      </trkpt>
      <trkpt lat="43.0721410" lon="-1.7470570">
        <ele>878.245056</ele>
        <time>2014-08-17T09:53:58.000Z</time>
      </trkpt>
      <trkpt lat="43.0721320" lon="-1.7469710">
        <ele>877.614014</ele>
        <time>2014-08-17T09:53:59.000Z</time>
      </trkpt>
      <trkpt lat="43.0721210" lon="-1.7468850">
        <ele>877.253967</ele>
        <time>2014-08-17T09:54:00.000Z</time>
      </trkpt>
      <trkpt lat="43.0721080" lon="-1.7468000">
        <ele>876.608948</ele>
        <time>2014-08-17T09:54:01.000Z</time>
      </trkpt>
      <trkpt lat="43.0720950" lon="-1.7467120">
        <ele>876.206970</ele>
        <time>2014-08-17T09:54:02.000Z</time>
      </trkpt>
      <trkpt lat="43.0720800" lon="-1.7466200">
        <ele>875.697998</ele>
        <time>2014-08-17T09:54:03.000Z</time>
      </trkpt>
      <trkpt lat="43.0720620" lon="-1.7465190">
        <ele>875.026001</ele>
        <time>2014-08-17T09:54:04.000Z</time>
      </trkpt>
      <trkpt lat="43.0720440" lon="-1.7464180">
        <ele>874.468994</ele>
        <time>2014-08-17T09:54:05.000Z</time>
      </trkpt>
      <trkpt lat="43.0720230" lon="-1.7463160">
        <ele>873.890991</ele>
        <time>2014-08-17T09:54:06.000Z</time>
      </trkpt>
      <trkpt lat="43.0719970" lon="-1.7462130">
        <ele>873.290039</ele>
        <time>2014-08-17T09:54:07.000Z</time>
      </trkpt>
      <trkpt lat="43.0719690" lon="-1.7461080">
        <ele>872.642029</ele>
        <time>2014-08-17T09:54:08.000Z</time>
      </trkpt>
      <trkpt lat="43.0719410" lon="-1.7460040">
        <ele>872.654968</ele>
        <time>2014-08-17T09:54:09.000Z</time>
      </trkpt>
      <trkpt lat="43.0719060" lon="-1.7459080">
        <ele>872.051025</ele>
        <time>2014-08-17T09:54:10.000Z</time>
      </trkpt>
      <trkpt lat="43.0718600" lon="-1.7458290">
        <ele>871.600952</ele>
        <time>2014-08-17T09:54:11.000Z</time>
      </trkpt>
      <trkpt lat="43.0718000" lon="-1.7457660">
        <ele>871.210999</ele>
        <time>2014-08-17T09:54:12.000Z</time>
      </trkpt>
      <trkpt lat="43.0717360" lon="-1.7457200">
        <ele>870.607056</ele>
        <time>2014-08-17T09:54:13.000Z</time>
      </trkpt>
      <trkpt lat="43.0716680" lon="-1.7456820">
        <ele>870.252014</ele>
        <time>2014-08-17T09:54:14.000Z</time>
      </trkpt>
      <trkpt lat="43.0716040" lon="-1.7456460">
        <ele>870.260010</ele>
        <time>2014-08-17T09:54:15.000Z</time>
      </trkpt>
      <trkpt lat="43.0714820" lon="-1.7455760">
        <ele>870.292969</ele>
        <time>2014-08-17T09:54:17.000Z</time>
      </trkpt>
      <trkpt lat="43.0714270" lon="-1.7455330">
        <ele>869.625000</ele>
        <time>2014-08-17T09:54:18.000Z</time>
      </trkpt>
      <trkpt lat="43.0713750" lon="-1.7454830">
        <ele>869.044006</ele>
        <time>2014-08-17T09:54:19.000Z</time>
      </trkpt>
      <trkpt lat="43.0713220" lon="-1.7454290">
        <ele>868.486023</ele>
        <time>2014-08-17T09:54:20.000Z</time>
      </trkpt>
      <trkpt lat="43.0712710" lon="-1.7453760">
        <ele>868.018982</ele>
        <time>2014-08-17T09:54:21.000Z</time>
      </trkpt>
      <trkpt lat="43.0712150" lon="-1.7453250">
        <ele>867.495972</ele>
        <time>2014-08-17T09:54:22.000Z</time>
      </trkpt>
      <trkpt lat="43.0711580" lon="-1.7452770">
        <ele>867.431030</ele>
        <time>2014-08-17T09:54:23.000Z</time>
      </trkpt>
      <trkpt lat="43.0711010" lon="-1.7452260">
        <ele>867.023987</ele>
        <time>2014-08-17T09:54:24.000Z</time>
      </trkpt>
      <trkpt lat="43.0709950" lon="-1.7451180">
        <ele>866.606995</ele>
        <time>2014-08-17T09:54:26.000Z</time>
      </trkpt>
      <trkpt lat="43.0709390" lon="-1.7450560">
        <ele>866.045959</ele>
        <time>2014-08-17T09:54:27.000Z</time>
      </trkpt>
      <trkpt lat="43.0708830" lon="-1.7450030">
        <ele>865.494019</ele>
        <time>2014-08-17T09:54:28.000Z</time>
      </trkpt>
      <trkpt lat="43.0708270" lon="-1.7449500">
        <ele>864.886963</ele>
        <time>2014-08-17T09:54:29.000Z</time>
      </trkpt>
      <trkpt lat="43.0707720" lon="-1.7448960">
        <ele>864.238953</ele>
        <time>2014-08-17T09:54:30.000Z</time>
      </trkpt>
      <trkpt lat="43.0707210" lon="-1.7448420">
        <ele>863.647949</ele>
        <time>2014-08-17T09:54:31.000Z</time>
      </trkpt>
      <trkpt lat="43.0706740" lon="-1.7447910">
        <ele>863.209961</ele>
        <time>2014-08-17T09:54:32.000Z</time>
      </trkpt>
      <trkpt lat="43.0706290" lon="-1.7447460">
        <ele>863.263000</ele>
        <time>2014-08-17T09:54:33.000Z</time>
      </trkpt>
      <trkpt lat="43.0705880" lon="-1.7447090">
        <ele>863.225952</ele>
        <time>2014-08-17T09:54:34.000Z</time>
      </trkpt>
      <trkpt lat="43.0704950" lon="-1.7446160">
        <ele>863.247009</ele>
        <time>2014-08-17T09:54:38.000Z</time>
      </trkpt>
      <trkpt lat="43.0704390" lon="-1.7445860">
        <ele>863.210999</ele>
        <time>2014-08-17T09:54:42.000Z</time>
      </trkpt>
      <trkpt lat="43.0704120" lon="-1.7445640">
        <ele>863.206970</ele>
        <time>2014-08-17T09:54:44.000Z</time>
      </trkpt>
      <trkpt lat="43.0703480" lon="-1.7445420">
        <ele>863.248962</ele>
        <time>2014-08-17T09:54:48.000Z</time>
      </trkpt>
      <trkpt lat="43.0703240" lon="-1.7445400">
        <ele>863.297058</ele>
        <time>2014-08-17T09:54:49.000Z</time>
      </trkpt>
      <trkpt lat="43.0703010" lon="-1.7445400">
        <ele>863.649963</ele>
        <time>2014-08-17T09:54:50.000Z</time>
      </trkpt>
      <trkpt lat="43.0702780" lon="-1.7445350">
        <ele>864.281982</ele>
        <time>2014-08-17T09:54:51.000Z</time>
      </trkpt>
      <trkpt lat="43.0702590" lon="-1.7445300">
        <ele>864.630981</ele>
        <time>2014-08-17T09:54:52.000Z</time>
      </trkpt>
      <trkpt lat="43.0702410" lon="-1.7445260">
        <ele>865.232971</ele>
        <time>2014-08-17T09:54:53.000Z</time>
      </trkpt>
      <trkpt lat="43.0702260" lon="-1.7445260">
        <ele>865.645996</ele>
        <time>2014-08-17T09:54:54.000Z</time>
      </trkpt>
      <trkpt lat="43.0702010" lon="-1.7445230">
        <ele>865.675964</ele>
        <time>2014-08-17T09:54:55.000Z</time>
      </trkpt>
      <trkpt lat="43.0701580" lon="-1.7445130">
        <ele>866.289978</ele>
        <time>2014-08-17T09:54:57.000Z</time>
      </trkpt>
      <trkpt lat="43.0701370" lon="-1.7445020">
        <ele>866.619019</ele>
        <time>2014-08-17T09:54:58.000Z</time>
      </trkpt>
      <trkpt lat="43.0701180" lon="-1.7444880">
        <ele>867.007019</ele>
        <time>2014-08-17T09:54:59.000Z</time>
      </trkpt>
      <trkpt lat="43.0701030" lon="-1.7444740">
        <ele>867.674011</ele>
        <time>2014-08-17T09:55:00.000Z</time>
      </trkpt>
      <trkpt lat="43.0700730" lon="-1.7444690">
        <ele>868.072021</ele>
        <time>2014-08-17T09:55:01.000Z</time>
      </trkpt>
      <trkpt lat="43.0700520" lon="-1.7444620">
        <ele>868.075012</ele>
        <time>2014-08-17T09:55:02.000Z</time>
      </trkpt>
      <trkpt lat="43.0700150" lon="-1.7444240">
        <ele>868.456970</ele>
        <time>2014-08-17T09:55:05.000Z</time>
      </trkpt>
      <trkpt lat="43.0699990" lon="-1.7444010">
        <ele>869.036011</ele>
        <time>2014-08-17T09:55:07.000Z</time>
      </trkpt>
      <trkpt lat="43.0699900" lon="-1.7443930">
        <ele>869.447998</ele>
        <time>2014-08-17T09:55:08.000Z</time>
      </trkpt>
      <trkpt lat="43.0699820" lon="-1.7443890">
        <ele>869.850952</ele>
        <time>2014-08-17T09:55:09.000Z</time>
      </trkpt>
      <trkpt lat="43.0699700" lon="-1.7443790">
        <ele>870.267029</ele>
        <time>2014-08-17T09:55:10.000Z</time>
      </trkpt>
      <trkpt lat="43.0699620" lon="-1.7443720">
        <ele>870.281006</ele>
        <time>2014-08-17T09:55:11.000Z</time>
      </trkpt>
      <trkpt lat="43.0699180" lon="-1.7443380">
        <ele>870.619019</ele>
        <time>2014-08-17T09:55:15.000Z</time>
      </trkpt>
      <trkpt lat="43.0698810" lon="-1.7442960">
        <ele>871.007019</ele>
        <time>2014-08-17T09:55:19.000Z</time>
      </trkpt>
      <trkpt lat="43.0698690" lon="-1.7442830">
        <ele>871.812988</ele>
        <time>2014-08-17T09:55:20.000Z</time>
      </trkpt>
      <trkpt lat="43.0698580" lon="-1.7442590">
        <ele>872.441040</ele>
        <time>2014-08-17T09:55:22.000Z</time>
      </trkpt>
      <trkpt lat="43.0698450" lon="-1.7442360">
        <ele>872.823975</ele>
        <time>2014-08-17T09:55:23.000Z</time>
      </trkpt>
      <trkpt lat="43.0697830" lon="-1.7441190">
        <ele>873.276062</ele>
        <time>2014-08-17T09:55:29.000Z</time>
      </trkpt>
      <trkpt lat="43.0697700" lon="-1.7441030">
        <ele>873.635010</ele>
        <time>2014-08-17T09:55:30.000Z</time>
      </trkpt>
      <trkpt lat="43.0697550" lon="-1.7440840">
        <ele>874.016968</ele>
        <time>2014-08-17T09:55:31.000Z</time>
      </trkpt>
      <trkpt lat="43.0697380" lon="-1.7440640">
        <ele>874.470032</ele>
        <time>2014-08-17T09:55:32.000Z</time>
      </trkpt>
      <trkpt lat="43.0697130" lon="-1.7440450">
        <ele>874.431030</ele>
        <time>2014-08-17T09:55:33.000Z</time>
      </trkpt>
      <trkpt lat="43.0696580" lon="-1.7440170">
        <ele>874.860962</ele>
        <time>2014-08-17T09:55:35.000Z</time>
      </trkpt>
      <trkpt lat="43.0696180" lon="-1.7439890">
        <ele>875.807007</ele>
        <time>2014-08-17T09:55:36.000Z</time>
      </trkpt>
      <trkpt lat="43.0695890" lon="-1.7439690">
        <ele>876.406982</ele>
        <time>2014-08-17T09:55:37.000Z</time>
      </trkpt>
      <trkpt lat="43.0695720" lon="-1.7439450">
        <ele>876.859985</ele>
        <time>2014-08-17T09:55:38.000Z</time>
      </trkpt>
      <trkpt lat="43.0695540" lon="-1.7439260">
        <ele>877.228027</ele>
        <time>2014-08-17T09:55:39.000Z</time>
      </trkpt>
      <trkpt lat="43.0695250" lon="-1.7438770">
        <ele>877.671021</ele>
        <time>2014-08-17T09:55:41.000Z</time>
      </trkpt>
      <trkpt lat="43.0695170" lon="-1.7438550">
        <ele>878.213013</ele>
        <time>2014-08-17T09:55:42.000Z</time>
      </trkpt>
      <trkpt lat="43.0695030" lon="-1.7438310">
        <ele>878.671997</ele>
        <time>2014-08-17T09:55:43.000Z</time>
      </trkpt>
      <trkpt lat="43.0694920" lon="-1.7438130">
        <ele>879.044006</ele>
        <time>2014-08-17T09:55:44.000Z</time>
      </trkpt>
      <trkpt lat="43.0694780" lon="-1.7437970">
        <ele>879.017029</ele>
        <time>2014-08-17T09:55:45.000Z</time>
      </trkpt>
      <trkpt lat="43.0694410" lon="-1.7437560">
        <ele>879.427979</ele>
        <time>2014-08-17T09:55:48.000Z</time>
      </trkpt>
      <trkpt lat="43.0694340" lon="-1.7437390">
        <ele>880.088989</ele>
        <time>2014-08-17T09:55:49.000Z</time>
      </trkpt>
      <trkpt lat="43.0694280" lon="-1.7437180">
        <ele>880.417053</ele>
        <time>2014-08-17T09:55:50.000Z</time>
      </trkpt>
      <trkpt lat="43.0694220" lon="-1.7437050">
        <ele>880.807007</ele>
        <time>2014-08-17T09:55:51.000Z</time>
      </trkpt>
      <trkpt lat="43.0694170" lon="-1.7436920">
        <ele>881.419006</ele>
        <time>2014-08-17T09:55:52.000Z</time>
      </trkpt>
      <trkpt lat="43.0694170" lon="-1.7436750">
        <ele>881.416992</ele>
        <time>2014-08-17T09:55:53.000Z</time>
      </trkpt>
      <trkpt lat="43.0694190" lon="-1.7436530">
        <ele>881.869995</ele>
        <time>2014-08-17T09:55:54.000Z</time>
      </trkpt>
      <trkpt lat="43.0693960" lon="-1.7436020">
        <ele>882.291992</ele>
        <time>2014-08-17T09:55:58.000Z</time>
      </trkpt>
      <trkpt lat="43.0693840" lon="-1.7435990">
        <ele>882.690979</ele>
        <time>2014-08-17T09:55:59.000Z</time>
      </trkpt>
      <trkpt lat="43.0693770" lon="-1.7435910">
        <ele>883.062988</ele>
        <time>2014-08-17T09:56:00.000Z</time>
      </trkpt>
      <trkpt lat="43.0693730" lon="-1.7435830">
        <ele>883.436035</ele>
        <time>2014-08-17T09:56:01.000Z</time>
      </trkpt>
      <trkpt lat="43.0693680" lon="-1.7435750">
        <ele>883.872009</ele>
        <time>2014-08-17T09:56:02.000Z</time>
      </trkpt>
      <trkpt lat="43.0693460" lon="-1.7435550">
        <ele>884.212952</ele>
        <time>2014-08-17T09:56:05.000Z</time>
      </trkpt>
      <trkpt lat="43.0693370" lon="-1.7435470">
        <ele>884.614014</ele>
        <time>2014-08-17T09:56:06.000Z</time>
      </trkpt>
      <trkpt lat="43.0693250" lon="-1.7435370">
        <ele>885.006958</ele>
        <time>2014-08-17T09:56:07.000Z</time>
      </trkpt>
      <trkpt lat="43.0693100" lon="-1.7435240">
        <ele>885.434021</ele>
        <time>2014-08-17T09:56:08.000Z</time>
      </trkpt>
      <trkpt lat="43.0692910" lon="-1.7435150">
        <ele>885.811951</ele>
        <time>2014-08-17T09:56:09.000Z</time>
      </trkpt>
      <trkpt lat="43.0692350" lon="-1.7434640">
        <ele>886.494995</ele>
        <time>2014-08-17T09:56:13.000Z</time>
      </trkpt>
      <trkpt lat="43.0692290" lon="-1.7434570">
        <ele>886.817017</ele>
        <time>2014-08-17T09:56:14.000Z</time>
      </trkpt>
      <trkpt lat="43.0692180" lon="-1.7434490">
        <ele>887.255981</ele>
        <time>2014-08-17T09:56:15.000Z</time>
      </trkpt>
      <trkpt lat="43.0692070" lon="-1.7434420">
        <ele>887.638000</ele>
        <time>2014-08-17T09:56:16.000Z</time>
      </trkpt>
      <trkpt lat="43.0691910" lon="-1.7434340">
        <ele>888.091003</ele>
        <time>2014-08-17T09:56:17.000Z</time>
      </trkpt>
      <trkpt lat="43.0691410" lon="-1.7434120">
        <ele>888.473022</ele>
        <time>2014-08-17T09:56:20.000Z</time>
      </trkpt>
      <trkpt lat="43.0691380" lon="-1.7434030">
        <ele>888.885010</ele>
        <time>2014-08-17T09:56:21.000Z</time>
      </trkpt>
      <trkpt lat="43.0691350" lon="-1.7433940">
        <ele>889.413025</ele>
        <time>2014-08-17T09:56:22.000Z</time>
      </trkpt>
      <trkpt lat="43.0691300" lon="-1.7433830">
        <ele>889.806946</ele>
        <time>2014-08-17T09:56:23.000Z</time>
      </trkpt>
      <trkpt lat="43.0691240" lon="-1.7433690">
        <ele>889.894043</ele>
        <time>2014-08-17T09:56:24.000Z</time>
      </trkpt>
      <trkpt lat="43.0691200" lon="-1.7433630">
        <ele>890.231995</ele>
        <time>2014-08-17T09:56:25.000Z</time>
      </trkpt>
      <trkpt lat="43.0691110" lon="-1.7433510">
        <ele>891.065002</ele>
        <time>2014-08-17T09:56:26.000Z</time>
      </trkpt>
      <trkpt lat="43.0691030" lon="-1.7433390">
        <ele>891.457031</ele>
        <time>2014-08-17T09:56:27.000Z</time>
      </trkpt>
      <trkpt lat="43.0690900" lon="-1.7433250">
        <ele>892.016052</ele>
        <time>2014-08-17T09:56:28.000Z</time>
      </trkpt>
      <trkpt lat="43.0690730" lon="-1.7433170">
        <ele>892.057983</ele>
        <time>2014-08-17T09:56:29.000Z</time>
      </trkpt>
      <trkpt lat="43.0690470" lon="-1.7432970">
        <ele>892.411011</ele>
        <time>2014-08-17T09:56:31.000Z</time>
      </trkpt>
      <trkpt lat="43.0690150" lon="-1.7432630">
        <ele>892.828979</ele>
        <time>2014-08-17T09:56:33.000Z</time>
      </trkpt>
      <trkpt lat="43.0690080" lon="-1.7432510">
        <ele>893.399963</ele>
        <time>2014-08-17T09:56:34.000Z</time>
      </trkpt>
      <trkpt lat="43.0689970" lon="-1.7432350">
        <ele>893.819946</ele>
        <time>2014-08-17T09:56:35.000Z</time>
      </trkpt>
      <trkpt lat="43.0689840" lon="-1.7432300">
        <ele>894.206970</ele>
        <time>2014-08-17T09:56:36.000Z</time>
      </trkpt>
      <trkpt lat="43.0689680" lon="-1.7432200">
        <ele>894.248962</ele>
        <time>2014-08-17T09:56:37.000Z</time>
      </trkpt>
      <trkpt lat="43.0689260" lon="-1.7431460">
        <ele>894.697021</ele>
        <time>2014-08-17T09:56:43.000Z</time>
      </trkpt>
      <trkpt lat="43.0689180" lon="-1.7431310">
        <ele>895.059998</ele>
        <time>2014-08-17T09:56:44.000Z</time>
      </trkpt>
      <trkpt lat="43.0689090" lon="-1.7431090">
        <ele>895.622009</ele>
        <time>2014-08-17T09:56:45.000Z</time>
      </trkpt>
      <trkpt lat="43.0689040" lon="-1.7430930">
        <ele>896.061035</ele>
        <time>2014-08-17T09:56:46.000Z</time>
      </trkpt>
      <trkpt lat="43.0688950" lon="-1.7430830">
        <ele>896.492981</ele>
        <time>2014-08-17T09:56:47.000Z</time>
      </trkpt>
      <trkpt lat="43.0688900" lon="-1.7430680">
        <ele>896.885986</ele>
        <time>2014-08-17T09:56:48.000Z</time>
      </trkpt>
      <trkpt lat="43.0688540" lon="-1.7430050">
        <ele>897.289001</ele>
        <time>2014-08-17T09:56:52.000Z</time>
      </trkpt>
      <trkpt lat="43.0688510" lon="-1.7429840">
        <ele>897.606018</ele>
        <time>2014-08-17T09:56:53.000Z</time>
      </trkpt>
      <trkpt lat="43.0688470" lon="-1.7429590">
        <ele>898.026001</ele>
        <time>2014-08-17T09:56:54.000Z</time>
      </trkpt>
      <trkpt lat="43.0688450" lon="-1.7429350">
        <ele>898.406982</ele>
        <time>2014-08-17T09:56:55.000Z</time>
      </trkpt>
      <trkpt lat="43.0688450" lon="-1.7429120">
        <ele>898.835022</ele>
        <time>2014-08-17T09:56:56.000Z</time>
      </trkpt>
      <trkpt lat="43.0688100" lon="-1.7428300">
        <ele>899.252991</ele>
        <time>2014-08-17T09:57:01.000Z</time>
      </trkpt>
      <trkpt lat="43.0687940" lon="-1.7428190">
        <ele>899.636047</ele>
        <time>2014-08-17T09:57:02.000Z</time>
      </trkpt>
      <trkpt lat="43.0687800" lon="-1.7428080">
        <ele>900.077942</ele>
        <time>2014-08-17T09:57:03.000Z</time>
      </trkpt>
      <trkpt lat="43.0687690" lon="-1.7427950">
        <ele>900.627014</ele>
        <time>2014-08-17T09:57:04.000Z</time>
      </trkpt>
      <trkpt lat="43.0687560" lon="-1.7427790">
        <ele>900.658997</ele>
        <time>2014-08-17T09:57:05.000Z</time>
      </trkpt>
      <trkpt lat="43.0687370" lon="-1.7427560">
        <ele>900.622009</ele>
        <time>2014-08-17T09:57:06.000Z</time>
      </trkpt>
      <trkpt lat="43.0686870" lon="-1.7426870">
        <ele>901.096985</ele>
        <time>2014-08-17T09:57:09.000Z</time>
      </trkpt>
      <trkpt lat="43.0686700" lon="-1.7426620">
        <ele>901.423035</ele>
        <time>2014-08-17T09:57:11.000Z</time>
      </trkpt>
      <trkpt lat="43.0686600" lon="-1.7426550">
        <ele>901.825012</ele>
        <time>2014-08-17T09:57:12.000Z</time>
      </trkpt>
      <trkpt lat="43.0686450" lon="-1.7426540">
        <ele>902.207031</ele>
        <time>2014-08-17T09:57:13.000Z</time>
      </trkpt>
      <trkpt lat="43.0686340" lon="-1.7426480">
        <ele>902.686035</ele>
        <time>2014-08-17T09:57:14.000Z</time>
      </trkpt>
      <trkpt lat="43.0686220" lon="-1.7426380">
        <ele>903.264038</ele>
        <time>2014-08-17T09:57:15.000Z</time>
      </trkpt>
      <trkpt lat="43.0685910" lon="-1.7426090">
        <ele>903.677002</ele>
        <time>2014-08-17T09:57:17.000Z</time>
      </trkpt>
      <trkpt lat="43.0685810" lon="-1.7425910">
        <ele>904.039063</ele>
        <time>2014-08-17T09:57:18.000Z</time>
      </trkpt>
      <trkpt lat="43.0685740" lon="-1.7425700">
        <ele>904.458008</ele>
        <time>2014-08-17T09:57:19.000Z</time>
      </trkpt>
      <trkpt lat="43.0685700" lon="-1.7425450">
        <ele>904.849976</ele>
        <time>2014-08-17T09:57:20.000Z</time>
      </trkpt>
      <trkpt lat="43.0685640" lon="-1.7425230">
        <ele>905.233032</ele>
        <time>2014-08-17T09:57:21.000Z</time>
      </trkpt>
      <trkpt lat="43.0685270" lon="-1.7424440">
        <ele>905.664001</ele>
        <time>2014-08-17T09:57:25.000Z</time>
      </trkpt>
      <trkpt lat="43.0685180" lon="-1.7424250">
        <ele>906.006042</ele>
        <time>2014-08-17T09:57:26.000Z</time>
      </trkpt>
      <trkpt lat="43.0685080" lon="-1.7424060">
        <ele>906.415955</ele>
        <time>2014-08-17T09:57:27.000Z</time>
      </trkpt>
      <trkpt lat="43.0684970" lon="-1.7423810">
        <ele>906.807007</ele>
        <time>2014-08-17T09:57:28.000Z</time>
      </trkpt>
      <trkpt lat="43.0684820" lon="-1.7423550">
        <ele>906.853027</ele>
        <time>2014-08-17T09:57:29.000Z</time>
      </trkpt>
      <trkpt lat="43.0684340" lon="-1.7422770">
        <ele>907.460938</ele>
        <time>2014-08-17T09:57:33.000Z</time>
      </trkpt>
      <trkpt lat="43.0684010" lon="-1.7422260">
        <ele>907.833984</ele>
        <time>2014-08-17T09:57:36.000Z</time>
      </trkpt>
      <trkpt lat="43.0683860" lon="-1.7422120">
        <ele>908.235962</ele>
        <time>2014-08-17T09:57:37.000Z</time>
      </trkpt>
      <trkpt lat="43.0683740" lon="-1.7422020">
        <ele>908.644958</ele>
        <time>2014-08-17T09:57:38.000Z</time>
      </trkpt>
      <trkpt lat="43.0683600" lon="-1.7421940">
        <ele>909.257019</ele>
        <time>2014-08-17T09:57:39.000Z</time>
      </trkpt>
      <trkpt lat="43.0683430" lon="-1.7421820">
        <ele>909.679993</ele>
        <time>2014-08-17T09:57:40.000Z</time>
      </trkpt>
      <trkpt lat="43.0682900" lon="-1.7421420">
        <ele>910.097961</ele>
        <time>2014-08-17T09:57:45.000Z</time>
      </trkpt>
      <trkpt lat="43.0682780" lon="-1.7421310">
        <ele>910.414978</ele>
        <time>2014-08-17T09:57:46.000Z</time>
      </trkpt>
      <trkpt lat="43.0682640" lon="-1.7421180">
        <ele>910.825989</ele>
        <time>2014-08-17T09:57:47.000Z</time>
      </trkpt>
      <trkpt lat="43.0682530" lon="-1.7421050">
        <ele>911.406982</ele>
        <time>2014-08-17T09:57:48.000Z</time>
      </trkpt>
      <trkpt lat="43.0682470" lon="-1.7420950">
        <ele>911.486023</ele>
        <time>2014-08-17T09:57:49.000Z</time>
      </trkpt>
      <trkpt lat="43.0682310" lon="-1.7420740">
        <ele>911.833984</ele>
        <time>2014-08-17T09:57:51.000Z</time>
      </trkpt>
      <trkpt lat="43.0682110" lon="-1.7420320">
        <ele>912.246948</ele>
        <time>2014-08-17T09:57:54.000Z</time>
      </trkpt>
      <trkpt lat="43.0682010" lon="-1.7420250">
        <ele>912.698975</ele>
        <time>2014-08-17T09:57:55.000Z</time>
      </trkpt>
      <trkpt lat="43.0681900" lon="-1.7420070">
        <ele>913.018005</ele>
        <time>2014-08-17T09:57:56.000Z</time>
      </trkpt>
      <trkpt lat="43.0681840" lon="-1.7419940">
        <ele>913.480042</ele>
        <time>2014-08-17T09:57:57.000Z</time>
      </trkpt>
      <trkpt lat="43.0681870" lon="-1.7419780">
        <ele>913.473022</ele>
        <time>2014-08-17T09:57:58.000Z</time>
      </trkpt>
      <trkpt lat="43.0681850" lon="-1.7419650">
        <ele>913.833984</ele>
        <time>2014-08-17T09:57:59.000Z</time>
      </trkpt>
      <trkpt lat="43.0681480" lon="-1.7419340">
        <ele>914.254944</ele>
        <time>2014-08-17T09:58:04.000Z</time>
      </trkpt>
      <trkpt lat="43.0681300" lon="-1.7419290">
        <ele>915.009949</ele>
        <time>2014-08-17T09:58:05.000Z</time>
      </trkpt>
      <trkpt lat="43.0681080" lon="-1.7419180">
        <ele>915.406982</ele>
        <time>2014-08-17T09:58:06.000Z</time>
      </trkpt>
      <trkpt lat="43.0680880" lon="-1.7419080">
        <ele>915.479980</ele>
        <time>2014-08-17T09:58:07.000Z</time>
      </trkpt>
      <trkpt lat="43.0680510" lon="-1.7418830">
        <ele>915.468018</ele>
        <time>2014-08-17T09:58:09.000Z</time>
      </trkpt>
      <trkpt lat="43.0679430" lon="-1.7418160">
        <ele>915.460999</ele>
        <time>2014-08-17T09:58:14.000Z</time>
      </trkpt>
      <trkpt lat="43.0678940" lon="-1.7417930">
        <ele>915.873047</ele>
        <time>2014-08-17T09:58:16.000Z</time>
      </trkpt>
      <trkpt lat="43.0678760" lon="-1.7417780">
        <ele>916.281982</ele>
        <time>2014-08-17T09:58:17.000Z</time>
      </trkpt>
      <trkpt lat="43.0678600" lon="-1.7417670">
        <ele>916.624023</ele>
        <time>2014-08-17T09:58:18.000Z</time>
      </trkpt>
      <trkpt lat="43.0678450" lon="-1.7417540">
        <ele>917.046997</ele>
        <time>2014-08-17T09:58:19.000Z</time>
      </trkpt>
      <trkpt lat="43.0678330" lon="-1.7417370">
        <ele>917.666016</ele>
        <time>2014-08-17T09:58:20.000Z</time>
      </trkpt>
      <trkpt lat="43.0678240" lon="-1.7417260">
        <ele>917.628967</ele>
        <time>2014-08-17T09:58:21.000Z</time>
      </trkpt>
      <trkpt lat="43.0677980" lon="-1.7417090">
        <ele>918.020996</ele>
        <time>2014-08-17T09:58:23.000Z</time>
      </trkpt>
      <trkpt lat="43.0677430" lon="-1.7416660">
        <ele>918.406982</ele>
        <time>2014-08-17T09:58:27.000Z</time>
      </trkpt>
      <trkpt lat="43.0677310" lon="-1.7416560">
        <ele>918.862976</ele>
        <time>2014-08-17T09:58:28.000Z</time>
      </trkpt>
      <trkpt lat="43.0677190" lon="-1.7416370">
        <ele>919.640991</ele>
        <time>2014-08-17T09:58:29.000Z</time>
      </trkpt>
      <trkpt lat="43.0677050" lon="-1.7416200">
        <ele>920.044006</ele>
        <time>2014-08-17T09:58:30.000Z</time>
      </trkpt>
      <trkpt lat="43.0676820" lon="-1.7415960">
        <ele>920.486023</ele>
        <time>2014-08-17T09:58:32.000Z</time>
      </trkpt>
      <trkpt lat="43.0676660" lon="-1.7415880">
        <ele>920.825012</ele>
        <time>2014-08-17T09:58:33.000Z</time>
      </trkpt>
      <trkpt lat="43.0676510" lon="-1.7415820">
        <ele>921.257019</ele>
        <time>2014-08-17T09:58:34.000Z</time>
      </trkpt>
      <trkpt lat="43.0676360" lon="-1.7415750">
        <ele>921.650024</ele>
        <time>2014-08-17T09:58:35.000Z</time>
      </trkpt>
      <trkpt lat="43.0676190" lon="-1.7415720">
        <ele>922.284973</ele>
        <time>2014-08-17T09:58:36.000Z</time>
      </trkpt>
      <trkpt lat="43.0675640" lon="-1.7415540">
        <ele>922.688965</ele>
        <time>2014-08-17T09:58:39.000Z</time>
      </trkpt>
      <trkpt lat="43.0675500" lon="-1.7415460">
        <ele>923.217041</ele>
        <time>2014-08-17T09:58:40.000Z</time>
      </trkpt>
      <trkpt lat="43.0675360" lon="-1.7415440">
        <ele>923.607056</ele>
        <time>2014-08-17T09:58:41.000Z</time>
      </trkpt>
      <trkpt lat="43.0675220" lon="-1.7415460">
        <ele>924.034973</ele>
        <time>2014-08-17T09:58:42.000Z</time>
      </trkpt>
      <trkpt lat="43.0675070" lon="-1.7415460">
        <ele>924.032959</ele>
        <time>2014-08-17T09:58:43.000Z</time>
      </trkpt>
      <trkpt lat="43.0674790" lon="-1.7415430">
        <ele>924.426025</ele>
        <time>2014-08-17T09:58:45.000Z</time>
      </trkpt>
      <trkpt lat="43.0674550" lon="-1.7415490">
        <ele>924.858032</ele>
        <time>2014-08-17T09:58:47.000Z</time>
      </trkpt>
      <trkpt lat="43.0674430" lon="-1.7415430">
        <ele>925.437012</ele>
        <time>2014-08-17T09:58:48.000Z</time>
      </trkpt>
      <trkpt lat="43.0674300" lon="-1.7415350">
        <ele>925.859009</ele>
        <time>2014-08-17T09:58:49.000Z</time>
      </trkpt>
      <trkpt lat="43.0674150" lon="-1.7415260">
        <ele>926.211975</ele>
        <time>2014-08-17T09:58:50.000Z</time>
      </trkpt>
      <trkpt lat="43.0674000" lon="-1.7415250">
        <ele>927.036987</ele>
        <time>2014-08-17T09:58:51.000Z</time>
      </trkpt>
      <trkpt lat="43.0673490" lon="-1.7415240">
        <ele>927.648987</ele>
        <time>2014-08-17T09:58:55.000Z</time>
      </trkpt>
      <trkpt lat="43.0673340" lon="-1.7415210">
        <ele>928.013000</ele>
        <time>2014-08-17T09:58:56.000Z</time>
      </trkpt>
      <trkpt lat="43.0673180" lon="-1.7415200">
        <ele>928.407043</ele>
        <time>2014-08-17T09:58:57.000Z</time>
      </trkpt>
      <trkpt lat="43.0673030" lon="-1.7415200">
        <ele>928.440002</ele>
        <time>2014-08-17T09:58:58.000Z</time>
      </trkpt>
      <trkpt lat="43.0672690" lon="-1.7415210">
        <ele>929.097961</ele>
        <time>2014-08-17T09:59:00.000Z</time>
      </trkpt>
      <trkpt lat="43.0672370" lon="-1.7415240">
        <ele>929.430969</ele>
        <time>2014-08-17T09:59:02.000Z</time>
      </trkpt>
      <trkpt lat="43.0672210" lon="-1.7415270">
        <ele>929.883057</ele>
        <time>2014-08-17T09:59:03.000Z</time>
      </trkpt>
      <trkpt lat="43.0672100" lon="-1.7415240">
        <ele>930.242004</ele>
        <time>2014-08-17T09:59:04.000Z</time>
      </trkpt>
      <trkpt lat="43.0671960" lon="-1.7415180">
        <ele>930.883972</ele>
        <time>2014-08-17T09:59:05.000Z</time>
      </trkpt>
      <trkpt lat="43.0671830" lon="-1.7415130">
        <ele>930.826965</ele>
        <time>2014-08-17T09:59:06.000Z</time>
      </trkpt>
      <trkpt lat="43.0671350" lon="-1.7415030">
        <ele>930.867004</ele>
        <time>2014-08-17T09:59:09.000Z</time>
      </trkpt>
      <trkpt lat="43.0670410" lon="-1.7414940">
        <ele>931.281006</ele>
        <time>2014-08-17T09:59:15.000Z</time>
      </trkpt>
      <trkpt lat="43.0669980" lon="-1.7414990">
        <ele>931.618958</ele>
        <time>2014-08-17T09:59:18.000Z</time>
      </trkpt>
      <trkpt lat="43.0669800" lon="-1.7414960">
        <ele>932.406982</ele>
        <time>2014-08-17T09:59:19.000Z</time>
      </trkpt>
      <trkpt lat="43.0669640" lon="-1.7414940">
        <ele>932.882935</ele>
        <time>2014-08-17T09:59:20.000Z</time>
      </trkpt>
      <trkpt lat="43.0669490" lon="-1.7414920">
        <ele>933.281006</ele>
        <time>2014-08-17T09:59:21.000Z</time>
      </trkpt>
      <trkpt lat="43.0668880" lon="-1.7414880">
        <ele>933.684021</ele>
        <time>2014-08-17T09:59:25.000Z</time>
      </trkpt>
      <trkpt lat="43.0668730" lon="-1.7414950">
        <ele>934.056030</ele>
        <time>2014-08-17T09:59:26.000Z</time>
      </trkpt>
      <trkpt lat="43.0668580" lon="-1.7415020">
        <ele>934.465027</ele>
        <time>2014-08-17T09:59:27.000Z</time>
      </trkpt>
      <trkpt lat="43.0668430" lon="-1.7415030">
        <ele>934.856995</ele>
        <time>2014-08-17T09:59:28.000Z</time>
      </trkpt>
      <trkpt lat="43.0668280" lon="-1.7415060">
        <ele>934.809998</ele>
        <time>2014-08-17T09:59:29.000Z</time>
      </trkpt>
      <trkpt lat="43.0667630" lon="-1.7415140">
        <ele>935.218994</ele>
        <time>2014-08-17T09:59:33.000Z</time>
      </trkpt>
      <trkpt lat="43.0667380" lon="-1.7415210">
        <ele>935.608948</ele>
        <time>2014-08-17T09:59:35.000Z</time>
      </trkpt>
      <trkpt lat="43.0667230" lon="-1.7415260">
        <ele>936.018982</ele>
        <time>2014-08-17T09:59:36.000Z</time>
      </trkpt>
      <trkpt lat="43.0667080" lon="-1.7415280">
        <ele>936.406982</ele>
        <time>2014-08-17T09:59:37.000Z</time>
      </trkpt>
      <trkpt lat="43.0666940" lon="-1.7415230">
        <ele>936.838013</ele>
        <time>2014-08-17T09:59:38.000Z</time>
      </trkpt>
      <trkpt lat="43.0666790" lon="-1.7415150">
        <ele>936.865967</ele>
        <time>2014-08-17T09:59:39.000Z</time>
      </trkpt>
      <trkpt lat="43.0665540" lon="-1.7415020">
        <ele>937.289001</ele>
        <time>2014-08-17T09:59:47.000Z</time>
      </trkpt>
      <trkpt lat="43.0664930" lon="-1.7414980">
        <ele>937.820984</ele>
        <time>2014-08-17T09:59:51.000Z</time>
      </trkpt>
      <trkpt lat="43.0664820" lon="-1.7415000">
        <ele>938.259949</ele>
        <time>2014-08-17T09:59:52.000Z</time>
      </trkpt>
      <trkpt lat="43.0664720" lon="-1.7415050">
        <ele>938.662048</ele>
        <time>2014-08-17T09:59:53.000Z</time>
      </trkpt>
      <trkpt lat="43.0664640" lon="-1.7415080">
        <ele>939.265015</ele>
        <time>2014-08-17T09:59:54.000Z</time>
      </trkpt>
      <trkpt lat="43.0664540" lon="-1.7415140">
        <ele>939.290955</ele>
        <time>2014-08-17T09:59:55.000Z</time>
      </trkpt>
      <trkpt lat="43.0664400" lon="-1.7415150">
        <ele>939.281006</ele>
        <time>2014-08-17T09:59:56.000Z</time>
      </trkpt>
      <trkpt lat="43.0663980" lon="-1.7415120">
        <ele>939.218994</ele>
        <time>2014-08-17T09:59:59.000Z</time>
      </trkpt>
      <trkpt lat="43.0663700" lon="-1.7415110">
        <ele>939.606995</ele>
        <time>2014-08-17T10:00:01.000Z</time>
      </trkpt>
      <trkpt lat="43.0663280" lon="-1.7415240">
        <ele>940.015991</ele>
        <time>2014-08-17T10:00:04.000Z</time>
      </trkpt>
      <trkpt lat="43.0663150" lon="-1.7415260">
        <ele>940.494019</ele>
        <time>2014-08-17T10:00:05.000Z</time>
      </trkpt>
      <trkpt lat="43.0663020" lon="-1.7415250">
        <ele>940.837036</ele>
        <time>2014-08-17T10:00:06.000Z</time>
      </trkpt>
      <trkpt lat="43.0662880" lon="-1.7415240">
        <ele>941.239014</ele>
        <time>2014-08-17T10:00:07.000Z</time>
      </trkpt>
      <trkpt lat="43.0662740" lon="-1.7415230">
        <ele>941.238037</ele>
        <time>2014-08-17T10:00:08.000Z</time>
      </trkpt>
      <trkpt lat="43.0661790" lon="-1.7415400">
        <ele>941.610046</ele>
        <time>2014-08-17T10:00:14.000Z</time>
      </trkpt>
      <trkpt lat="43.0661650" lon="-1.7415430">
        <ele>942.053040</ele>
        <time>2014-08-17T10:00:15.000Z</time>
      </trkpt>
      <trkpt lat="43.0661500" lon="-1.7415410">
        <ele>942.463013</ele>
        <time>2014-08-17T10:00:16.000Z</time>
      </trkpt>
      <trkpt lat="43.0661340" lon="-1.7415370">
        <ele>942.844055</ele>
        <time>2014-08-17T10:00:17.000Z</time>
      </trkpt>
      <trkpt lat="43.0661200" lon="-1.7415340">
        <ele>943.417969</ele>
        <time>2014-08-17T10:00:18.000Z</time>
      </trkpt>
      <trkpt lat="43.0661070" lon="-1.7415290">
        <ele>943.406982</ele>
        <time>2014-08-17T10:00:19.000Z</time>
      </trkpt>
      <trkpt lat="43.0660950" lon="-1.7415310">
        <ele>943.433044</ele>
        <time>2014-08-17T10:00:20.000Z</time>
      </trkpt>
      <trkpt lat="43.0660830" lon="-1.7415350">
        <ele>943.460999</ele>
        <time>2014-08-17T10:00:21.000Z</time>
      </trkpt>
      <trkpt lat="43.0660610" lon="-1.7415420">
        <ele>943.484009</ele>
        <time>2014-08-17T10:00:24.000Z</time>
      </trkpt>
      <trkpt lat="43.0660140" lon="-1.7414370">
        <ele>943.435974</ele>
        <time>2014-08-17T10:18:22.000Z</time>
      </trkpt>
      <trkpt lat="43.0660030" lon="-1.7414270">
        <ele>943.494995</ele>
        <time>2014-08-17T10:18:23.000Z</time>
      </trkpt>
      <trkpt lat="43.0659770" lon="-1.7414110">
        <ele>943.486938</ele>
        <time>2014-08-17T10:18:25.000Z</time>
      </trkpt>
      <trkpt lat="43.0659610" lon="-1.7413940">
        <ele>943.429993</ele>
        <time>2014-08-17T10:18:26.000Z</time>
      </trkpt>
      <trkpt lat="43.0659380" lon="-1.7413730">
        <ele>943.437988</ele>
        <time>2014-08-17T10:18:28.000Z</time>
      </trkpt>
      <trkpt lat="43.0659020" lon="-1.7413530">
        <ele>943.470032</ele>
        <time>2014-08-17T10:18:31.000Z</time>
      </trkpt>
      <trkpt lat="43.0658610" lon="-1.7413300">
        <ele>943.817017</ele>
        <time>2014-08-17T10:18:34.000Z</time>
      </trkpt>
      <trkpt lat="43.0658490" lon="-1.7413300">
        <ele>944.206970</ele>
        <time>2014-08-17T10:18:35.000Z</time>
      </trkpt>
      <trkpt lat="43.0658380" lon="-1.7413210">
        <ele>944.610046</ele>
        <time>2014-08-17T10:18:36.000Z</time>
      </trkpt>
      <trkpt lat="43.0658280" lon="-1.7413150">
        <ele>945.028015</ele>
        <time>2014-08-17T10:18:37.000Z</time>
      </trkpt>
      <trkpt lat="43.0658220" lon="-1.7413100">
        <ele>945.450989</ele>
        <time>2014-08-17T10:18:38.000Z</time>
      </trkpt>
      <trkpt lat="43.0658230" lon="-1.7413070">
        <ele>945.482971</ele>
        <time>2014-08-17T10:18:39.000Z</time>
      </trkpt>
      <trkpt lat="43.0657990" lon="-1.7412970">
        <ele>945.432007</ele>
        <time>2014-08-17T10:19:19.000Z</time>
      </trkpt>
      <trkpt lat="43.0657710" lon="-1.7412650">
        <ele>944.813965</ele>
        <time>2014-08-17T10:19:20.000Z</time>
      </trkpt>
      <trkpt lat="43.0657180" lon="-1.7412210">
        <ele>944.446960</ele>
        <time>2014-08-17T10:19:22.000Z</time>
      </trkpt>
      <trkpt lat="43.0656930" lon="-1.7411970">
        <ele>944.026001</ele>
        <time>2014-08-17T10:19:23.000Z</time>
      </trkpt>
      <trkpt lat="43.0656820" lon="-1.7411620">
        <ele>943.447021</ele>
        <time>2014-08-17T10:19:24.000Z</time>
      </trkpt>
      <trkpt lat="43.0656690" lon="-1.7411320">
        <ele>943.010986</ele>
        <time>2014-08-17T10:19:25.000Z</time>
      </trkpt>
      <trkpt lat="43.0656610" lon="-1.7411070">
        <ele>942.606995</ele>
        <time>2014-08-17T10:19:26.000Z</time>
      </trkpt>
      <trkpt lat="43.0656480" lon="-1.7410650">
        <ele>942.258972</ele>
        <time>2014-08-17T10:19:27.000Z</time>
      </trkpt>
      <trkpt lat="43.0656350" lon="-1.7410340">
        <ele>941.896973</ele>
        <time>2014-08-17T10:19:28.000Z</time>
      </trkpt>
      <trkpt lat="43.0656210" lon="-1.7409970">
        <ele>941.070007</ele>
        <time>2014-08-17T10:19:29.000Z</time>
      </trkpt>
      <trkpt lat="43.0656040" lon="-1.7409570">
        <ele>941.092041</ele>
        <time>2014-08-17T10:19:30.000Z</time>
      </trkpt>
      <trkpt lat="43.0655700" lon="-1.7408660">
        <ele>941.040955</ele>
        <time>2014-08-17T10:19:32.000Z</time>
      </trkpt>
      <trkpt lat="43.0655510" lon="-1.7408160">
        <ele>940.492981</ele>
        <time>2014-08-17T10:19:33.000Z</time>
      </trkpt>
      <trkpt lat="43.0655300" lon="-1.7407760">
        <ele>939.876038</ele>
        <time>2014-08-17T10:19:34.000Z</time>
      </trkpt>
      <trkpt lat="43.0655110" lon="-1.7407420">
        <ele>939.258972</ele>
        <time>2014-08-17T10:19:35.000Z</time>
      </trkpt>
      <trkpt lat="43.0654960" lon="-1.7407170">
        <ele>938.603027</ele>
        <time>2014-08-17T10:19:36.000Z</time>
      </trkpt>
      <trkpt lat="43.0654810" lon="-1.7406870">
        <ele>938.022949</ele>
        <time>2014-08-17T10:19:37.000Z</time>
      </trkpt>
      <trkpt lat="43.0654670" lon="-1.7406630">
        <ele>938.006958</ele>
        <time>2014-08-17T10:19:38.000Z</time>
      </trkpt>
      <trkpt lat="43.0654320" lon="-1.7406040">
        <ele>938.041992</ele>
        <time>2014-08-17T10:19:40.000Z</time>
      </trkpt>
      <trkpt lat="43.0653510" lon="-1.7404750">
        <ele>938.010010</ele>
        <time>2014-08-17T10:19:44.000Z</time>
      </trkpt>
      <trkpt lat="43.0653050" lon="-1.7403740">
        <ele>937.672974</ele>
        <time>2014-08-17T10:19:49.000Z</time>
      </trkpt>
      <trkpt lat="43.0653010" lon="-1.7403620">
        <ele>937.284973</ele>
        <time>2014-08-17T10:19:50.000Z</time>
      </trkpt>
      <trkpt lat="43.0653030" lon="-1.7403440">
        <ele>936.824036</ele>
        <time>2014-08-17T10:19:51.000Z</time>
      </trkpt>
      <trkpt lat="43.0653060" lon="-1.7403190">
        <ele>936.495972</ele>
        <time>2014-08-17T10:19:52.000Z</time>
      </trkpt>
      <trkpt lat="43.0653200" lon="-1.7402970">
        <ele>936.089050</ele>
        <time>2014-08-17T10:19:53.000Z</time>
      </trkpt>
      <trkpt lat="43.0653220" lon="-1.7402810">
        <ele>936.016968</ele>
        <time>2014-08-17T10:19:54.000Z</time>
      </trkpt>
      <trkpt lat="43.0653220" lon="-1.7402450">
        <ele>936.087036</ele>
        <time>2014-08-17T10:19:57.000Z</time>
      </trkpt>
      <trkpt lat="43.0653270" lon="-1.7402290">
        <ele>936.014954</ele>
        <time>2014-08-17T10:19:58.000Z</time>
      </trkpt>
      <trkpt lat="43.0653330" lon="-1.7402090">
        <ele>935.606995</ele>
        <time>2014-08-17T10:19:59.000Z</time>
      </trkpt>
      <trkpt lat="43.0653640" lon="-1.7401500">
        <ele>935.088013</ele>
        <time>2014-08-17T10:20:01.000Z</time>
      </trkpt>
      <trkpt lat="43.0653820" lon="-1.7401130">
        <ele>934.666016</ele>
        <time>2014-08-17T10:20:02.000Z</time>
      </trkpt>
      <trkpt lat="43.0654010" lon="-1.7400850">
        <ele>934.098938</ele>
        <time>2014-08-17T10:20:03.000Z</time>
      </trkpt>
      <trkpt lat="43.0654210" lon="-1.7400510">
        <ele>933.611023</ele>
        <time>2014-08-17T10:20:04.000Z</time>
      </trkpt>
      <trkpt lat="43.0654360" lon="-1.7400230">
        <ele>933.219971</ele>
        <time>2014-08-17T10:20:05.000Z</time>
      </trkpt>
      <trkpt lat="43.0654580" lon="-1.7399640">
        <ele>932.882019</ele>
        <time>2014-08-17T10:20:07.000Z</time>
      </trkpt>
      <trkpt lat="43.0654710" lon="-1.7399370">
        <ele>932.484985</ele>
        <time>2014-08-17T10:20:08.000Z</time>
      </trkpt>
      <trkpt lat="43.0654830" lon="-1.7399070">
        <ele>932.053040</ele>
        <time>2014-08-17T10:20:09.000Z</time>
      </trkpt>
      <trkpt lat="43.0654910" lon="-1.7398870">
        <ele>931.604004</ele>
        <time>2014-08-17T10:20:10.000Z</time>
      </trkpt>
      <trkpt lat="43.0654980" lon="-1.7398530">
        <ele>931.213989</ele>
        <time>2014-08-17T10:20:11.000Z</time>
      </trkpt>
      <trkpt lat="43.0655130" lon="-1.7398140">
        <ele>930.606995</ele>
        <time>2014-08-17T10:20:12.000Z</time>
      </trkpt>
      <trkpt lat="43.0655260" lon="-1.7397690">
        <ele>930.231934</ele>
        <time>2014-08-17T10:20:13.000Z</time>
      </trkpt>
      <trkpt lat="43.0655440" lon="-1.7397240">
        <ele>929.849976</ele>
        <time>2014-08-17T10:20:14.000Z</time>
      </trkpt>
      <trkpt lat="43.0655580" lon="-1.7396860">
        <ele>929.462952</ele>
        <time>2014-08-17T10:20:15.000Z</time>
      </trkpt>
      <trkpt lat="43.0655740" lon="-1.7396560">
        <ele>929.044983</ele>
        <time>2014-08-17T10:20:16.000Z</time>
      </trkpt>
      <trkpt lat="43.0655780" lon="-1.7396180">
        <ele>928.473999</ele>
        <time>2014-08-17T10:20:17.000Z</time>
      </trkpt>
      <trkpt lat="43.0655880" lon="-1.7395760">
        <ele>927.686035</ele>
        <time>2014-08-17T10:20:18.000Z</time>
      </trkpt>
      <trkpt lat="43.0655990" lon="-1.7395290">
        <ele>927.249023</ele>
        <time>2014-08-17T10:20:19.000Z</time>
      </trkpt>
      <trkpt lat="43.0656130" lon="-1.7394920">
        <ele>926.868958</ele>
        <time>2014-08-17T10:20:20.000Z</time>
      </trkpt>
      <trkpt lat="43.0656340" lon="-1.7394210">
        <ele>926.404053</ele>
        <time>2014-08-17T10:20:22.000Z</time>
      </trkpt>
      <trkpt lat="43.0656450" lon="-1.7393860">
        <ele>926.023987</ele>
        <time>2014-08-17T10:20:23.000Z</time>
      </trkpt>
      <trkpt lat="43.0656580" lon="-1.7393510">
        <ele>925.606995</ele>
        <time>2014-08-17T10:20:24.000Z</time>
      </trkpt>
      <trkpt lat="43.0656650" lon="-1.7393210">
        <ele>925.262939</ele>
        <time>2014-08-17T10:20:25.000Z</time>
      </trkpt>
      <trkpt lat="43.0656670" lon="-1.7392910">
        <ele>925.270996</ele>
        <time>2014-08-17T10:20:26.000Z</time>
      </trkpt>
      <trkpt lat="43.0656810" lon="-1.7392150">
        <ele>924.874023</ele>
        <time>2014-08-17T10:20:29.000Z</time>
      </trkpt>
      <trkpt lat="43.0656740" lon="-1.7391360">
        <ele>924.296021</ele>
        <time>2014-08-17T10:20:31.000Z</time>
      </trkpt>
      <trkpt lat="43.0656540" lon="-1.7390950">
        <ele>923.884949</ele>
        <time>2014-08-17T10:20:32.000Z</time>
      </trkpt>
      <trkpt lat="43.0656350" lon="-1.7390640">
        <ele>923.477051</ele>
        <time>2014-08-17T10:20:33.000Z</time>
      </trkpt>
      <trkpt lat="43.0656130" lon="-1.7390460">
        <ele>923.019958</ele>
        <time>2014-08-17T10:20:34.000Z</time>
      </trkpt>
      <trkpt lat="43.0655910" lon="-1.7390240">
        <ele>923.036987</ele>
        <time>2014-08-17T10:20:35.000Z</time>
      </trkpt>
      <trkpt lat="43.0655710" lon="-1.7390110">
        <ele>923.049011</ele>
        <time>2014-08-17T10:20:36.000Z</time>
      </trkpt>
      <trkpt lat="43.0655360" lon="-1.7389590">
        <ele>923.013000</ele>
        <time>2014-08-17T10:20:39.000Z</time>
      </trkpt>
      <trkpt lat="43.0655330" lon="-1.7389580">
        <ele>923.007019</ele>
        <time>2014-08-17T10:20:40.000Z</time>
      </trkpt>
      <trkpt lat="43.0655270" lon="-1.7389460">
        <ele>923.030029</ele>
        <time>2014-08-17T10:20:41.000Z</time>
      </trkpt>
      <trkpt lat="43.0654570" lon="-1.7388850">
        <ele>923.028015</ele>
        <time>2014-08-17T10:22:28.000Z</time>
      </trkpt>
      <trkpt lat="43.0654380" lon="-1.7388790">
        <ele>923.051025</ele>
        <time>2014-08-17T10:22:29.000Z</time>
      </trkpt>
      <trkpt lat="43.0654220" lon="-1.7388710">
        <ele>923.023010</ele>
        <time>2014-08-17T10:22:30.000Z</time>
      </trkpt>
      <trkpt lat="43.0653200" lon="-1.7387300">
        <ele>922.682007</ele>
        <time>2014-08-17T10:22:36.000Z</time>
      </trkpt>
      <trkpt lat="43.0652990" lon="-1.7387020">
        <ele>922.234009</ele>
        <time>2014-08-17T10:22:38.000Z</time>
      </trkpt>
      <trkpt lat="43.0652850" lon="-1.7386920">
        <ele>921.837036</ele>
        <time>2014-08-17T10:22:39.000Z</time>
      </trkpt>
      <trkpt lat="43.0652750" lon="-1.7386750">
        <ele>921.417053</ele>
        <time>2014-08-17T10:22:40.000Z</time>
      </trkpt>
      <trkpt lat="43.0652640" lon="-1.7386620">
        <ele>921.086975</ele>
        <time>2014-08-17T10:22:41.000Z</time>
      </trkpt>
      <trkpt lat="43.0652540" lon="-1.7386500">
        <ele>921.014954</ele>
        <time>2014-08-17T10:22:42.000Z</time>
      </trkpt>
      <trkpt lat="43.0652360" lon="-1.7386260">
        <ele>921.007019</ele>
        <time>2014-08-17T10:22:50.000Z</time>
      </trkpt>
      <trkpt lat="43.0652030" lon="-1.7385780">
        <ele>921.038025</ele>
        <time>2014-08-17T10:22:52.000Z</time>
      </trkpt>
      <trkpt lat="43.0651830" lon="-1.7385510">
        <ele>921.055969</ele>
        <time>2014-08-17T10:22:53.000Z</time>
      </trkpt>
      <trkpt lat="43.0651690" lon="-1.7385180">
        <ele>921.039001</ele>
        <time>2014-08-17T10:22:54.000Z</time>
      </trkpt>
      <trkpt lat="43.0651480" lon="-1.7384460">
        <ele>921.031067</ele>
        <time>2014-08-17T10:22:56.000Z</time>
      </trkpt>
      <trkpt lat="43.0651400" lon="-1.7383960">
        <ele>921.039978</ele>
        <time>2014-08-17T10:22:57.000Z</time>
      </trkpt>
      <trkpt lat="43.0651490" lon="-1.7383060">
        <ele>921.091980</ele>
        <time>2014-08-17T10:22:59.000Z</time>
      </trkpt>
      <trkpt lat="43.0651680" lon="-1.7381880">
        <ele>920.644958</ele>
        <time>2014-08-17T10:23:02.000Z</time>
      </trkpt>
      <trkpt lat="43.0651820" lon="-1.7380620">
        <ele>920.013000</ele>
        <time>2014-08-17T10:23:05.000Z</time>
      </trkpt>
      <trkpt lat="43.0651950" lon="-1.7380300">
        <ele>919.643005</ele>
        <time>2014-08-17T10:23:06.000Z</time>
      </trkpt>
      <trkpt lat="43.0652090" lon="-1.7380000">
        <ele>919.206970</ele>
        <time>2014-08-17T10:23:07.000Z</time>
      </trkpt>
      <trkpt lat="43.0652230" lon="-1.7379640">
        <ele>918.807007</ele>
        <time>2014-08-17T10:23:08.000Z</time>
      </trkpt>
      <trkpt lat="43.0652420" lon="-1.7379240">
        <ele>918.867981</ele>
        <time>2014-08-17T10:23:09.000Z</time>
      </trkpt>
      <trkpt lat="43.0652950" lon="-1.7377790">
        <ele>918.825989</ele>
        <time>2014-08-17T10:23:12.000Z</time>
      </trkpt>
      <trkpt lat="43.0653440" lon="-1.7375820">
        <ele>918.438965</ele>
        <time>2014-08-17T10:23:16.000Z</time>
      </trkpt>
      <trkpt lat="43.0653490" lon="-1.7374900">
        <ele>918.061035</ele>
        <time>2014-08-17T10:23:18.000Z</time>
      </trkpt>
      <trkpt lat="43.0653510" lon="-1.7374540">
        <ele>917.669983</ele>
        <time>2014-08-17T10:23:19.000Z</time>
      </trkpt>
      <trkpt lat="43.0653500" lon="-1.7374210">
        <ele>917.261963</ele>
        <time>2014-08-17T10:23:20.000Z</time>
      </trkpt>
      <trkpt lat="43.0653420" lon="-1.7373800">
        <ele>916.854980</ele>
        <time>2014-08-17T10:23:21.000Z</time>
      </trkpt>
      <trkpt lat="43.0653330" lon="-1.7373370">
        <ele>916.857971</ele>
        <time>2014-08-17T10:23:22.000Z</time>
      </trkpt>
      <trkpt lat="43.0653200" lon="-1.7372320">
        <ele>916.851990</ele>
        <time>2014-08-17T10:23:25.000Z</time>
      </trkpt>
      <trkpt lat="43.0653340" lon="-1.7371620">
        <ele>916.816956</ele>
        <time>2014-08-17T10:23:28.000Z</time>
      </trkpt>
      <trkpt lat="43.0653650" lon="-1.7370800">
        <ele>916.807007</ele>
        <time>2014-08-17T10:23:32.000Z</time>
      </trkpt>
      <trkpt lat="43.0653810" lon="-1.7370510">
        <ele>916.851990</ele>
        <time>2014-08-17T10:23:35.000Z</time>
      </trkpt>
      <trkpt lat="43.0654050" lon="-1.7370030">
        <ele>916.850037</ele>
        <time>2014-08-17T10:23:39.000Z</time>
      </trkpt>
      <trkpt lat="43.0654070" lon="-1.7369970">
        <ele>916.832947</ele>
        <time>2014-08-17T10:23:40.000Z</time>
      </trkpt>
      <trkpt lat="43.0653420" lon="-1.7369870">
        <ele>916.854980</ele>
        <time>2014-08-17T10:23:49.000Z</time>
      </trkpt>
      <trkpt lat="43.0653050" lon="-1.7369950">
        <ele>916.283997</ele>
        <time>2014-08-17T10:23:51.000Z</time>
      </trkpt>
      <trkpt lat="43.0652880" lon="-1.7369950">
        <ele>915.866028</ele>
        <time>2014-08-17T10:23:52.000Z</time>
      </trkpt>
      <trkpt lat="43.0652730" lon="-1.7369980">
        <ele>915.218994</ele>
        <time>2014-08-17T10:23:53.000Z</time>
      </trkpt>
      <trkpt lat="43.0652590" lon="-1.7370050">
        <ele>914.695007</ele>
        <time>2014-08-17T10:23:54.000Z</time>
      </trkpt>
      <trkpt lat="43.0652390" lon="-1.7370170">
        <ele>914.049011</ele>
        <time>2014-08-17T10:23:55.000Z</time>
      </trkpt>
      <trkpt lat="43.0652160" lon="-1.7370310">
        <ele>913.423035</ele>
        <time>2014-08-17T10:23:56.000Z</time>
      </trkpt>
      <trkpt lat="43.0651920" lon="-1.7370390">
        <ele>912.606995</ele>
        <time>2014-08-17T10:23:57.000Z</time>
      </trkpt>
      <trkpt lat="43.0651680" lon="-1.7370400">
        <ele>911.835999</ele>
        <time>2014-08-17T10:23:58.000Z</time>
      </trkpt>
      <trkpt lat="43.0651430" lon="-1.7370380">
        <ele>911.064026</ele>
        <time>2014-08-17T10:23:59.000Z</time>
      </trkpt>
      <trkpt lat="43.0651190" lon="-1.7370240">
        <ele>910.446960</ele>
        <time>2014-08-17T10:24:00.000Z</time>
      </trkpt>
      <trkpt lat="43.0650930" lon="-1.7370070">
        <ele>909.268982</ele>
        <time>2014-08-17T10:24:01.000Z</time>
      </trkpt>
      <trkpt lat="43.0650690" lon="-1.7369910">
        <ele>908.838013</ele>
        <time>2014-08-17T10:24:02.000Z</time>
      </trkpt>
      <trkpt lat="43.0650410" lon="-1.7369770">
        <ele>908.290039</ele>
        <time>2014-08-17T10:24:03.000Z</time>
      </trkpt>
      <trkpt lat="43.0649870" lon="-1.7369370">
        <ele>907.852966</ele>
        <time>2014-08-17T10:24:04.000Z</time>
      </trkpt>
      <trkpt lat="43.0649530" lon="-1.7369180">
        <ele>907.446960</ele>
        <time>2014-08-17T10:24:05.000Z</time>
      </trkpt>
      <trkpt lat="43.0648920" lon="-1.7368650">
        <ele>907.028992</ele>
        <time>2014-08-17T10:24:06.000Z</time>
      </trkpt>
      <trkpt lat="43.0648720" lon="-1.7368420">
        <ele>906.421021</ele>
        <time>2014-08-17T10:24:07.000Z</time>
      </trkpt>
      <trkpt lat="43.0648500" lon="-1.7368130">
        <ele>906.006958</ele>
        <time>2014-08-17T10:24:08.000Z</time>
      </trkpt>
      <trkpt lat="43.0648270" lon="-1.7367800">
        <ele>905.680969</ele>
        <time>2014-08-17T10:24:09.000Z</time>
      </trkpt>
      <trkpt lat="43.0647990" lon="-1.7367450">
        <ele>905.068970</ele>
        <time>2014-08-17T10:24:10.000Z</time>
      </trkpt>
      <trkpt lat="43.0647710" lon="-1.7367050">
        <ele>905.052002</ele>
        <time>2014-08-17T10:24:11.000Z</time>
      </trkpt>
      <trkpt lat="43.0646590" lon="-1.7365730">
        <ele>904.674011</ele>
        <time>2014-08-17T10:24:13.000Z</time>
      </trkpt>
      <trkpt lat="43.0645790" lon="-1.7364190">
        <ele>904.283020</ele>
        <time>2014-08-17T10:24:16.000Z</time>
      </trkpt>
      <trkpt lat="43.0645490" lon="-1.7363500">
        <ele>903.875000</ele>
        <time>2014-08-17T10:24:17.000Z</time>
      </trkpt>
      <trkpt lat="43.0645270" lon="-1.7362910">
        <ele>903.437988</ele>
        <time>2014-08-17T10:24:18.000Z</time>
      </trkpt>
      <trkpt lat="43.0645000" lon="-1.7362400">
        <ele>903.043945</ele>
        <time>2014-08-17T10:24:19.000Z</time>
      </trkpt>
      <trkpt lat="43.0644740" lon="-1.7362120">
        <ele>903.005005</ele>
        <time>2014-08-17T10:24:20.000Z</time>
      </trkpt>
      <trkpt lat="43.0644470" lon="-1.7361910">
        <ele>903.015015</ele>
        <time>2014-08-17T10:24:21.000Z</time>
      </trkpt>
      <trkpt lat="43.0643730" lon="-1.7361370">
        <ele>903.006958</ele>
        <time>2014-08-17T10:24:24.000Z</time>
      </trkpt>
      <trkpt lat="43.0643250" lon="-1.7361000">
        <ele>903.070984</ele>
        <time>2014-08-17T10:24:26.000Z</time>
      </trkpt>
      <trkpt lat="43.0642900" lon="-1.7360710">
        <ele>903.088989</ele>
        <time>2014-08-17T10:24:28.000Z</time>
      </trkpt>
      <trkpt lat="43.0642700" lon="-1.7360530">
        <ele>903.072021</ele>
        <time>2014-08-17T10:24:30.000Z</time>
      </trkpt>
      <trkpt lat="43.0641460" lon="-1.7359670">
        <ele>903.033997</ele>
        <time>2014-08-17T10:25:24.000Z</time>
      </trkpt>
      <trkpt lat="43.0641270" lon="-1.7359510">
        <ele>903.013000</ele>
        <time>2014-08-17T10:25:25.000Z</time>
      </trkpt>
      <trkpt lat="43.0641140" lon="-1.7359380">
        <ele>903.024963</ele>
        <time>2014-08-17T10:25:26.000Z</time>
      </trkpt>
      <trkpt lat="43.0640840" lon="-1.7359140">
        <ele>903.027954</ele>
        <time>2014-08-17T10:25:28.000Z</time>
      </trkpt>
      <trkpt lat="43.0640720" lon="-1.7359050">
        <ele>903.036011</ele>
        <time>2014-08-17T10:25:29.000Z</time>
      </trkpt>
      <trkpt lat="43.0640580" lon="-1.7358910">
        <ele>903.017029</ele>
        <time>2014-08-17T10:25:30.000Z</time>
      </trkpt>
      <trkpt lat="43.0640470" lon="-1.7358800">
        <ele>903.018005</ele>
        <time>2014-08-17T10:25:31.000Z</time>
      </trkpt>
      <trkpt lat="43.0640330" lon="-1.7358690">
        <ele>903.006958</ele>
        <time>2014-08-17T10:25:32.000Z</time>
      </trkpt>
      <trkpt lat="43.0640110" lon="-1.7358460">
        <ele>903.040039</ele>
        <time>2014-08-17T10:25:34.000Z</time>
      </trkpt>
      <trkpt lat="43.0640030" lon="-1.7358340">
        <ele>904.687988</ele>
        <time>2014-08-17T10:25:35.000Z</time>
      </trkpt>
      <trkpt lat="43.0639220" lon="-1.7357870">
        <ele>905.011047</ele>
        <time>2014-08-17T10:25:46.000Z</time>
      </trkpt>
      <trkpt lat="43.0639040" lon="-1.7357750">
        <ele>905.012939</ele>
        <time>2014-08-17T10:25:47.000Z</time>
      </trkpt>
      <trkpt lat="43.0638140" lon="-1.7356910">
        <ele>905.041992</ele>
        <time>2014-08-17T10:25:54.000Z</time>
      </trkpt>
      <trkpt lat="43.0637560" lon="-1.7356600">
        <ele>905.093994</ele>
        <time>2014-08-17T10:25:58.000Z</time>
      </trkpt>
      <trkpt lat="43.0636860" lon="-1.7356200">
        <ele>905.096985</ele>
        <time>2014-08-17T10:26:01.000Z</time>
      </trkpt>
      <trkpt lat="43.0635830" lon="-1.7355520">
        <ele>905.438965</ele>
        <time>2014-08-17T10:26:06.000Z</time>
      </trkpt>
      <trkpt lat="43.0635070" lon="-1.7355120">
        <ele>905.801025</ele>
        <time>2014-08-17T10:26:10.000Z</time>
      </trkpt>
      <trkpt lat="43.0634850" lon="-1.7355020">
        <ele>906.421021</ele>
        <time>2014-08-17T10:26:11.000Z</time>
      </trkpt>
      <trkpt lat="43.0634620" lon="-1.7354910">
        <ele>906.807007</ele>
        <time>2014-08-17T10:26:12.000Z</time>
      </trkpt>
      <trkpt lat="43.0634450" lon="-1.7354820">
        <ele>907.250000</ele>
        <time>2014-08-17T10:26:13.000Z</time>
      </trkpt>
      <trkpt lat="43.0634300" lon="-1.7354740">
        <ele>907.218018</ele>
        <time>2014-08-17T10:26:14.000Z</time>
      </trkpt>
      <trkpt lat="43.0633950" lon="-1.7354550">
        <ele>907.220947</ele>
        <time>2014-08-17T10:26:17.000Z</time>
      </trkpt>
      <trkpt lat="43.0633810" lon="-1.7354500">
        <ele>907.632996</ele>
        <time>2014-08-17T10:26:18.000Z</time>
      </trkpt>
      <trkpt lat="43.0632760" lon="-1.7354050">
        <ele>908.041992</ele>
        <time>2014-08-17T10:26:24.000Z</time>
      </trkpt>
      <trkpt lat="43.0632570" lon="-1.7353970">
        <ele>908.463989</ele>
        <time>2014-08-17T10:26:25.000Z</time>
      </trkpt>
      <trkpt lat="43.0632410" lon="-1.7353910">
        <ele>908.826965</ele>
        <time>2014-08-17T10:26:26.000Z</time>
      </trkpt>
      <trkpt lat="43.0632230" lon="-1.7353860">
        <ele>909.244019</ele>
        <time>2014-08-17T10:26:27.000Z</time>
      </trkpt>
      <trkpt lat="43.0631950" lon="-1.7353850">
        <ele>909.205017</ele>
        <time>2014-08-17T10:26:28.000Z</time>
      </trkpt>
      <trkpt lat="43.0631800" lon="-1.7353870">
        <ele>909.214966</ele>
        <time>2014-08-17T10:26:29.000Z</time>
      </trkpt>
      <trkpt lat="43.0631460" lon="-1.7353910">
        <ele>909.207031</ele>
        <time>2014-08-17T10:26:30.000Z</time>
      </trkpt>
      <trkpt lat="43.0630050" lon="-1.7353580">
        <ele>909.230957</ele>
        <time>2014-08-17T10:26:37.000Z</time>
      </trkpt>
      <trkpt lat="43.0629330" lon="-1.7353240">
        <ele>909.688965</ele>
        <time>2014-08-17T10:26:41.000Z</time>
      </trkpt>
      <trkpt lat="43.0629170" lon="-1.7353160">
        <ele>910.092041</ele>
        <time>2014-08-17T10:26:42.000Z</time>
      </trkpt>
      <trkpt lat="43.0629020" lon="-1.7353070">
        <ele>910.453979</ele>
        <time>2014-08-17T10:26:43.000Z</time>
      </trkpt>
      <trkpt lat="43.0628900" lon="-1.7352950">
        <ele>910.852966</ele>
        <time>2014-08-17T10:26:44.000Z</time>
      </trkpt>
      <trkpt lat="43.0628730" lon="-1.7352850">
        <ele>911.215027</ele>
        <time>2014-08-17T10:26:45.000Z</time>
      </trkpt>
      <trkpt lat="43.0628550" lon="-1.7352710">
        <ele>911.297974</ele>
        <time>2014-08-17T10:26:46.000Z</time>
      </trkpt>
      <trkpt lat="43.0627980" lon="-1.7352570">
        <ele>911.229004</ele>
        <time>2014-08-17T10:26:49.000Z</time>
      </trkpt>
      <trkpt lat="43.0627440" lon="-1.7352450">
        <ele>911.199951</ele>
        <time>2014-08-17T10:26:52.000Z</time>
      </trkpt>
      <trkpt lat="43.0626800" lon="-1.7352190">
        <ele>911.219971</ele>
        <time>2014-08-17T10:26:54.000Z</time>
      </trkpt>
      <trkpt lat="43.0625270" lon="-1.7351790">
        <ele>911.206970</ele>
        <time>2014-08-17T10:26:58.000Z</time>
      </trkpt>
      <trkpt lat="43.0624320" lon="-1.7351290">
        <ele>911.299011</ele>
        <time>2014-08-17T10:27:01.000Z</time>
      </trkpt>
      <trkpt lat="43.0623590" lon="-1.7350970">
        <ele>911.267029</ele>
        <time>2014-08-17T10:27:05.000Z</time>
      </trkpt>
      <trkpt lat="43.0623390" lon="-1.7350820">
        <ele>911.210022</ele>
        <time>2014-08-17T10:27:06.000Z</time>
      </trkpt>
      <trkpt lat="43.0623180" lon="-1.7350680">
        <ele>911.212036</ele>
        <time>2014-08-17T10:27:07.000Z</time>
      </trkpt>
      <trkpt lat="43.0622630" lon="-1.7350430">
        <ele>911.231018</ele>
        <time>2014-08-17T10:27:09.000Z</time>
      </trkpt>
      <trkpt lat="43.0621570" lon="-1.7350290">
        <ele>911.233032</ele>
        <time>2014-08-17T10:27:13.000Z</time>
      </trkpt>
      <trkpt lat="43.0620750" lon="-1.7350200">
        <ele>911.295959</ele>
        <time>2014-08-17T10:27:15.000Z</time>
      </trkpt>
      <trkpt lat="43.0619630" lon="-1.7350240">
        <ele>911.233032</ele>
        <time>2014-08-17T10:27:19.000Z</time>
      </trkpt>
      <trkpt lat="43.0619230" lon="-1.7350350">
        <ele>911.222961</ele>
        <time>2014-08-17T10:27:21.000Z</time>
      </trkpt>
      <trkpt lat="43.0618210" lon="-1.7350690">
        <ele>911.215027</ele>
        <time>2014-08-17T10:27:26.000Z</time>
      </trkpt>
      <trkpt lat="43.0618020" lon="-1.7350720">
        <ele>910.807007</ele>
        <time>2014-08-17T10:27:27.000Z</time>
      </trkpt>
      <trkpt lat="43.0617550" lon="-1.7350780">
        <ele>910.489990</ele>
        <time>2014-08-17T10:27:29.000Z</time>
      </trkpt>
      <trkpt lat="43.0617290" lon="-1.7350790">
        <ele>910.047974</ele>
        <time>2014-08-17T10:27:30.000Z</time>
      </trkpt>
      <trkpt lat="43.0617060" lon="-1.7350790">
        <ele>909.631042</ele>
        <time>2014-08-17T10:27:31.000Z</time>
      </trkpt>
      <trkpt lat="43.0616870" lon="-1.7350790">
        <ele>909.072998</ele>
        <time>2014-08-17T10:27:32.000Z</time>
      </trkpt>
      <trkpt lat="43.0616700" lon="-1.7350710">
        <ele>909.022034</ele>
        <time>2014-08-17T10:27:33.000Z</time>
      </trkpt>
      <trkpt lat="43.0616390" lon="-1.7350410">
        <ele>909.043945</ele>
        <time>2014-08-17T10:27:35.000Z</time>
      </trkpt>
      <trkpt lat="43.0616110" lon="-1.7349830">
        <ele>909.066956</ele>
        <time>2014-08-17T10:27:38.000Z</time>
      </trkpt>
      <trkpt lat="43.0616140" lon="-1.7349560">
        <ele>909.054993</ele>
        <time>2014-08-17T10:27:41.000Z</time>
      </trkpt>
      <trkpt lat="43.0616370" lon="-1.7349180">
        <ele>909.007019</ele>
        <time>2014-08-17T10:31:16.000Z</time>
      </trkpt>
      <trkpt lat="43.0616500" lon="-1.7349050">
        <ele>909.017029</ele>
        <time>2014-08-17T10:31:17.000Z</time>
      </trkpt>
      <trkpt lat="43.0617380" lon="-1.7348240">
        <ele>909.007019</ele>
        <time>2014-08-17T10:31:23.000Z</time>
      </trkpt>
      <trkpt lat="43.0618050" lon="-1.7347180">
        <ele>909.031982</ele>
        <time>2014-08-17T10:31:26.000Z</time>
      </trkpt>
      <trkpt lat="43.0618250" lon="-1.7346660">
        <ele>908.669983</ele>
        <time>2014-08-17T10:31:27.000Z</time>
      </trkpt>
      <trkpt lat="43.0618840" lon="-1.7345470">
        <ele>908.052979</ele>
        <time>2014-08-17T10:31:29.000Z</time>
      </trkpt>
      <trkpt lat="43.0619190" lon="-1.7344830">
        <ele>907.475037</ele>
        <time>2014-08-17T10:31:30.000Z</time>
      </trkpt>
      <trkpt lat="43.0619540" lon="-1.7344110">
        <ele>906.653992</ele>
        <time>2014-08-17T10:31:31.000Z</time>
      </trkpt>
      <trkpt lat="43.0619870" lon="-1.7343370">
        <ele>906.045959</ele>
        <time>2014-08-17T10:31:32.000Z</time>
      </trkpt>
      <trkpt lat="43.0620160" lon="-1.7342590">
        <ele>905.278992</ele>
        <time>2014-08-17T10:31:33.000Z</time>
      </trkpt>
      <trkpt lat="43.0620380" lon="-1.7341790">
        <ele>904.482971</ele>
        <time>2014-08-17T10:31:34.000Z</time>
      </trkpt>
      <trkpt lat="43.0620510" lon="-1.7340960">
        <ele>903.625000</ele>
        <time>2014-08-17T10:31:35.000Z</time>
      </trkpt>
      <trkpt lat="43.0620620" lon="-1.7340130">
        <ele>902.617004</ele>
        <time>2014-08-17T10:31:36.000Z</time>
      </trkpt>
      <trkpt lat="43.0620690" lon="-1.7339210">
        <ele>901.807007</ele>
        <time>2014-08-17T10:31:37.000Z</time>
      </trkpt>
      <trkpt lat="43.0620700" lon="-1.7338310">
        <ele>900.885010</ele>
        <time>2014-08-17T10:31:38.000Z</time>
      </trkpt>
      <trkpt lat="43.0620660" lon="-1.7337460">
        <ele>899.893005</ele>
        <time>2014-08-17T10:31:39.000Z</time>
      </trkpt>
      <trkpt lat="43.0620550" lon="-1.7336730">
        <ele>899.865967</ele>
        <time>2014-08-17T10:31:40.000Z</time>
      </trkpt>
      <trkpt lat="43.0619910" lon="-1.7335150">
        <ele>899.838013</ele>
        <time>2014-08-17T10:31:43.000Z</time>
      </trkpt>
      <trkpt lat="43.0619400" lon="-1.7334720">
        <ele>899.447021</ele>
        <time>2014-08-17T10:31:44.000Z</time>
      </trkpt>
      <trkpt lat="43.0618820" lon="-1.7334320">
        <ele>899.048950</ele>
        <time>2014-08-17T10:31:45.000Z</time>
      </trkpt>
      <trkpt lat="43.0618320" lon="-1.7333910">
        <ele>898.662048</ele>
        <time>2014-08-17T10:31:46.000Z</time>
      </trkpt>
      <trkpt lat="43.0617950" lon="-1.7333430">
        <ele>898.235046</ele>
        <time>2014-08-17T10:31:47.000Z</time>
      </trkpt>
      <trkpt lat="43.0617440" lon="-1.7332830">
        <ele>897.686035</ele>
        <time>2014-08-17T10:31:48.000Z</time>
      </trkpt>
      <trkpt lat="43.0617050" lon="-1.7332240">
        <ele>897.613953</ele>
        <time>2014-08-17T10:31:49.000Z</time>
      </trkpt>
      <trkpt lat="43.0616710" lon="-1.7331610">
        <ele>897.606995</ele>
        <time>2014-08-17T10:31:50.000Z</time>
      </trkpt>
      <trkpt lat="43.0615610" lon="-1.7328770">
        <ele>897.229980</ele>
        <time>2014-08-17T10:31:54.000Z</time>
      </trkpt>
      <trkpt lat="43.0615200" lon="-1.7327450">
        <ele>896.817993</ele>
        <time>2014-08-17T10:31:56.000Z</time>
      </trkpt>
      <trkpt lat="43.0615050" lon="-1.7326800">
        <ele>896.431030</ele>
        <time>2014-08-17T10:31:57.000Z</time>
      </trkpt>
      <trkpt lat="43.0615010" lon="-1.7326070">
        <ele>896.013000</ele>
        <time>2014-08-17T10:31:58.000Z</time>
      </trkpt>
      <trkpt lat="43.0614980" lon="-1.7325280">
        <ele>895.671997</ele>
        <time>2014-08-17T10:31:59.000Z</time>
      </trkpt>
      <trkpt lat="43.0615050" lon="-1.7324240">
        <ele>895.023987</ele>
        <time>2014-08-17T10:32:00.000Z</time>
      </trkpt>
      <trkpt lat="43.0615050" lon="-1.7323400">
        <ele>894.697021</ele>
        <time>2014-08-17T10:32:01.000Z</time>
      </trkpt>
      <trkpt lat="43.0614930" lon="-1.7322560">
        <ele>894.225037</ele>
        <time>2014-08-17T10:32:02.000Z</time>
      </trkpt>
      <trkpt lat="43.0614750" lon="-1.7321730">
        <ele>893.825989</ele>
        <time>2014-08-17T10:32:03.000Z</time>
      </trkpt>
      <trkpt lat="43.0614480" lon="-1.7321010">
        <ele>893.208008</ele>
        <time>2014-08-17T10:32:04.000Z</time>
      </trkpt>
      <trkpt lat="43.0614110" lon="-1.7320430">
        <ele>893.207031</ele>
        <time>2014-08-17T10:32:05.000Z</time>
      </trkpt>
      <trkpt lat="43.0613710" lon="-1.7319930">
        <ele>893.299011</ele>
        <time>2014-08-17T10:32:06.000Z</time>
      </trkpt>
      <trkpt lat="43.0612890" lon="-1.7319030">
        <ele>893.276978</ele>
        <time>2014-08-17T10:32:08.000Z</time>
      </trkpt>
      <trkpt lat="43.0611820" lon="-1.7318180">
        <ele>893.250061</ele>
        <time>2014-08-17T10:32:11.000Z</time>
      </trkpt>
      <trkpt lat="43.0611080" lon="-1.7317840">
        <ele>893.251953</ele>
        <time>2014-08-17T10:32:13.000Z</time>
      </trkpt>
      <trkpt lat="43.0610210" lon="-1.7317550">
        <ele>893.250977</ele>
        <time>2014-08-17T10:32:15.000Z</time>
      </trkpt>
      <trkpt lat="43.0609720" lon="-1.7317300">
        <ele>893.212952</ele>
        <time>2014-08-17T10:32:16.000Z</time>
      </trkpt>
      <trkpt lat="43.0608860" lon="-1.7316810">
        <ele>893.296021</ele>
        <time>2014-08-17T10:32:18.000Z</time>
      </trkpt>
      <trkpt lat="43.0607490" lon="-1.7315730">
        <ele>893.817017</ele>
        <time>2014-08-17T10:32:21.000Z</time>
      </trkpt>
      <trkpt lat="43.0607170" lon="-1.7315370">
        <ele>894.286987</ele>
        <time>2014-08-17T10:32:22.000Z</time>
      </trkpt>
      <trkpt lat="43.0606840" lon="-1.7315030">
        <ele>894.614990</ele>
        <time>2014-08-17T10:32:23.000Z</time>
      </trkpt>
      <trkpt lat="43.0606600" lon="-1.7314630">
        <ele>895.007019</ele>
        <time>2014-08-17T10:32:24.000Z</time>
      </trkpt>
      <trkpt lat="43.0606380" lon="-1.7314290">
        <ele>895.667969</ele>
        <time>2014-08-17T10:32:25.000Z</time>
      </trkpt>
      <trkpt lat="43.0606210" lon="-1.7313990">
        <ele>896.075989</ele>
        <time>2014-08-17T10:32:26.000Z</time>
      </trkpt>
      <trkpt lat="43.0606100" lon="-1.7313810">
        <ele>896.419006</ele>
        <time>2014-08-17T10:32:27.000Z</time>
      </trkpt>
      <trkpt lat="43.0606020" lon="-1.7313510">
        <ele>896.860962</ele>
        <time>2014-08-17T10:32:28.000Z</time>
      </trkpt>
      <trkpt lat="43.0605910" lon="-1.7313240">
        <ele>897.260010</ele>
        <time>2014-08-17T10:32:29.000Z</time>
      </trkpt>
      <trkpt lat="43.0605920" lon="-1.7313070">
        <ele>897.671997</ele>
        <time>2014-08-17T10:32:30.000Z</time>
      </trkpt>
      <trkpt lat="43.0605980" lon="-1.7313030">
        <ele>897.665039</ele>
        <time>2014-08-17T10:32:31.000Z</time>
      </trkpt>
      <trkpt lat="43.0605930" lon="-1.7313020">
        <ele>897.632996</ele>
        <time>2014-08-17T10:32:32.000Z</time>
      </trkpt>
      <trkpt lat="43.0606080" lon="-1.7313040">
        <ele>898.222961</ele>
        <time>2014-08-17T10:32:34.000Z</time>
      </trkpt>
      <trkpt lat="43.0606290" lon="-1.7312960">
        <ele>898.614990</ele>
        <time>2014-08-17T10:32:37.000Z</time>
      </trkpt>
      <trkpt lat="43.0606370" lon="-1.7312950">
        <ele>899.807007</ele>
        <time>2014-08-17T10:32:38.000Z</time>
      </trkpt>
      <trkpt lat="43.0606330" lon="-1.7312660">
        <ele>899.830017</ele>
        <time>2014-08-17T10:32:47.000Z</time>
      </trkpt>
      <trkpt lat="43.0606180" lon="-1.7312390">
        <ele>899.888000</ele>
        <time>2014-08-17T10:32:48.000Z</time>
      </trkpt>
      <trkpt lat="43.0605940" lon="-1.7311950">
        <ele>899.860962</ele>
        <time>2014-08-17T10:32:50.000Z</time>
      </trkpt>
      <trkpt lat="43.0605840" lon="-1.7311810">
        <ele>900.813049</ele>
        <time>2014-08-17T10:32:52.000Z</time>
      </trkpt>
      <trkpt lat="43.0606580" lon="-1.7311690">
        <ele>900.871948</ele>
        <time>2014-08-17T10:34:22.000Z</time>
      </trkpt>
      <trkpt lat="43.0606700" lon="-1.7311600">
        <ele>900.884033</ele>
        <time>2014-08-17T10:34:23.000Z</time>
      </trkpt>
      <trkpt lat="43.0606910" lon="-1.7311360">
        <ele>900.846985</ele>
        <time>2014-08-17T10:34:26.000Z</time>
      </trkpt>
      <trkpt lat="43.0606960" lon="-1.7311310">
        <ele>900.886047</ele>
        <time>2014-08-17T10:34:27.000Z</time>
      </trkpt>
      <trkpt lat="43.0607020" lon="-1.7311260">
        <ele>900.859985</ele>
        <time>2014-08-17T10:34:28.000Z</time>
      </trkpt>
      <trkpt lat="43.0607120" lon="-1.7311030">
        <ele>900.825989</ele>
        <time>2014-08-17T10:34:38.000Z</time>
      </trkpt>
      <trkpt lat="43.0607410" lon="-1.7310570">
        <ele>900.807007</ele>
        <time>2014-08-17T10:34:40.000Z</time>
      </trkpt>
      <trkpt lat="43.0608080" lon="-1.7309710">
        <ele>900.875000</ele>
        <time>2014-08-17T10:34:43.000Z</time>
      </trkpt>
      <trkpt lat="43.0608320" lon="-1.7309410">
        <ele>900.822998</ele>
        <time>2014-08-17T10:34:44.000Z</time>
      </trkpt>
      <trkpt lat="43.0608590" lon="-1.7309170">
        <ele>900.875977</ele>
        <time>2014-08-17T10:34:45.000Z</time>
      </trkpt>
      <trkpt lat="43.0608930" lon="-1.7308860">
        <ele>900.868042</ele>
        <time>2014-08-17T10:34:46.000Z</time>
      </trkpt>
      <trkpt lat="43.0609920" lon="-1.7307520">
        <ele>900.827026</ele>
        <time>2014-08-17T10:34:49.000Z</time>
      </trkpt>
      <trkpt lat="43.0610300" lon="-1.7306960">
        <ele>900.248962</ele>
        <time>2014-08-17T10:34:50.000Z</time>
      </trkpt>
      <trkpt lat="43.0610660" lon="-1.7306290">
        <ele>899.661987</ele>
        <time>2014-08-17T10:34:51.000Z</time>
      </trkpt>
      <trkpt lat="43.0611020" lon="-1.7305520">
        <ele>898.881042</ele>
        <time>2014-08-17T10:34:52.000Z</time>
      </trkpt>
      <trkpt lat="43.0611350" lon="-1.7304720">
        <ele>898.060974</ele>
        <time>2014-08-17T10:34:53.000Z</time>
      </trkpt>
      <trkpt lat="43.0611650" lon="-1.7303970">
        <ele>897.216980</ele>
        <time>2014-08-17T10:34:54.000Z</time>
      </trkpt>
      <trkpt lat="43.0611920" lon="-1.7303190">
        <ele>896.606995</ele>
        <time>2014-08-17T10:34:55.000Z</time>
      </trkpt>
      <trkpt lat="43.0612160" lon="-1.7302350">
        <ele>895.885010</ele>
        <time>2014-08-17T10:34:56.000Z</time>
      </trkpt>
      <trkpt lat="43.0612390" lon="-1.7301430">
        <ele>895.213013</ele>
        <time>2014-08-17T10:34:57.000Z</time>
      </trkpt>
      <trkpt lat="43.0612630" lon="-1.7300310">
        <ele>894.666016</ele>
        <time>2014-08-17T10:34:58.000Z</time>
      </trkpt>
      <trkpt lat="43.0612930" lon="-1.7299190">
        <ele>893.668030</ele>
        <time>2014-08-17T10:34:59.000Z</time>
      </trkpt>
      <trkpt lat="43.0613260" lon="-1.7298070">
        <ele>892.696960</ele>
        <time>2014-08-17T10:35:00.000Z</time>
      </trkpt>
      <trkpt lat="43.0613620" lon="-1.7297080">
        <ele>891.888977</ele>
        <time>2014-08-17T10:35:01.000Z</time>
      </trkpt>
      <trkpt lat="43.0613950" lon="-1.7296340">
        <ele>891.022034</ele>
        <time>2014-08-17T10:35:02.000Z</time>
      </trkpt>
      <trkpt lat="43.0614410" lon="-1.7295790">
        <ele>890.011963</ele>
        <time>2014-08-17T10:35:03.000Z</time>
      </trkpt>
      <trkpt lat="43.0614980" lon="-1.7295430">
        <ele>889.231995</ele>
        <time>2014-08-17T10:35:04.000Z</time>
      </trkpt>
      <trkpt lat="43.0615620" lon="-1.7295270">
        <ele>888.405029</ele>
        <time>2014-08-17T10:35:05.000Z</time>
      </trkpt>
      <trkpt lat="43.0616280" lon="-1.7295360">
        <ele>887.606995</ele>
        <time>2014-08-17T10:35:06.000Z</time>
      </trkpt>
      <trkpt lat="43.0616950" lon="-1.7295590">
        <ele>887.648010</ele>
        <time>2014-08-17T10:35:07.000Z</time>
      </trkpt>
      <trkpt lat="43.0617640" lon="-1.7295940">
        <ele>887.045959</ele>
        <time>2014-08-17T10:35:08.000Z</time>
      </trkpt>
      <trkpt lat="43.0618990" lon="-1.7296850">
        <ele>885.479004</ele>
        <time>2014-08-17T10:35:10.000Z</time>
      </trkpt>
      <trkpt lat="43.0619680" lon="-1.7297330">
        <ele>884.611023</ele>
        <time>2014-08-17T10:35:11.000Z</time>
      </trkpt>
      <trkpt lat="43.0620310" lon="-1.7297740">
        <ele>883.879944</ele>
        <time>2014-08-17T10:35:12.000Z</time>
      </trkpt>
      <trkpt lat="43.0620950" lon="-1.7298100">
        <ele>882.882019</ele>
        <time>2014-08-17T10:35:13.000Z</time>
      </trkpt>
      <trkpt lat="43.0621500" lon="-1.7298390">
        <ele>882.085022</ele>
        <time>2014-08-17T10:35:14.000Z</time>
      </trkpt>
      <trkpt lat="43.0621960" lon="-1.7298620">
        <ele>882.044006</ele>
        <time>2014-08-17T10:35:15.000Z</time>
      </trkpt>
      <trkpt lat="43.0622370" lon="-1.7298830">
        <ele>881.405029</ele>
        <time>2014-08-17T10:35:16.000Z</time>
      </trkpt>
      <trkpt lat="43.0622730" lon="-1.7299020">
        <ele>881.015015</ele>
        <time>2014-08-17T10:35:17.000Z</time>
      </trkpt>
      <trkpt lat="43.0623100" lon="-1.7299250">
        <ele>880.406982</ele>
        <time>2014-08-17T10:35:18.000Z</time>
      </trkpt>
      <trkpt lat="43.0623500" lon="-1.7299450">
        <ele>879.810974</ele>
        <time>2014-08-17T10:35:19.000Z</time>
      </trkpt>
      <trkpt lat="43.0623860" lon="-1.7299580">
        <ele>879.439026</ele>
        <time>2014-08-17T10:35:20.000Z</time>
      </trkpt>
      <trkpt lat="43.0624190" lon="-1.7299680">
        <ele>879.441956</ele>
        <time>2014-08-17T10:35:21.000Z</time>
      </trkpt>
      <trkpt lat="43.0624710" lon="-1.7299830">
        <ele>879.094055</ele>
        <time>2014-08-17T10:35:23.000Z</time>
      </trkpt>
      <trkpt lat="43.0625050" lon="-1.7299970">
        <ele>878.663025</ele>
        <time>2014-08-17T10:35:24.000Z</time>
      </trkpt>
      <trkpt lat="43.0625360" lon="-1.7300090">
        <ele>878.234985</ele>
        <time>2014-08-17T10:35:25.000Z</time>
      </trkpt>
      <trkpt lat="43.0625710" lon="-1.7300170">
        <ele>877.828003</ele>
        <time>2014-08-17T10:35:26.000Z</time>
      </trkpt>
      <trkpt lat="43.0626060" lon="-1.7300100">
        <ele>877.252991</ele>
        <time>2014-08-17T10:35:27.000Z</time>
      </trkpt>
      <trkpt lat="43.0626410" lon="-1.7300010">
        <ele>876.804016</ele>
        <time>2014-08-17T10:35:28.000Z</time>
      </trkpt>
      <trkpt lat="43.0627150" lon="-1.7299730">
        <ele>876.414001</ele>
        <time>2014-08-17T10:35:30.000Z</time>
      </trkpt>
      <trkpt lat="43.0627480" lon="-1.7299440">
        <ele>876.007019</ele>
        <time>2014-08-17T10:35:31.000Z</time>
      </trkpt>
      <trkpt lat="43.0627780" lon="-1.7299090">
        <ele>875.651978</ele>
        <time>2014-08-17T10:35:32.000Z</time>
      </trkpt>
      <trkpt lat="43.0628100" lon="-1.7298680">
        <ele>875.260010</ele>
        <time>2014-08-17T10:35:33.000Z</time>
      </trkpt>
      <trkpt lat="43.0628450" lon="-1.7298180">
        <ele>875.282959</ele>
        <time>2014-08-17T10:35:34.000Z</time>
      </trkpt>
      <trkpt lat="43.0628750" lon="-1.7297520">
        <ele>874.285034</ele>
        <time>2014-08-17T10:35:35.000Z</time>
      </trkpt>
      <trkpt lat="43.0629100" lon="-1.7296810">
        <ele>873.653992</ele>
        <time>2014-08-17T10:35:36.000Z</time>
      </trkpt>
      <trkpt lat="43.0629520" lon="-1.7295870">
        <ele>872.815979</ele>
        <time>2014-08-17T10:35:37.000Z</time>
      </trkpt>
      <trkpt lat="43.0629890" lon="-1.7294950">
        <ele>872.268982</ele>
        <time>2014-08-17T10:35:38.000Z</time>
      </trkpt>
      <trkpt lat="43.0630230" lon="-1.7293960">
        <ele>871.289001</ele>
        <time>2014-08-17T10:35:39.000Z</time>
      </trkpt>
      <trkpt lat="43.0630610" lon="-1.7292900">
        <ele>870.406006</ele>
        <time>2014-08-17T10:35:40.000Z</time>
      </trkpt>
      <trkpt lat="43.0630950" lon="-1.7291840">
        <ele>869.626038</ele>
        <time>2014-08-17T10:35:41.000Z</time>
      </trkpt>
      <trkpt lat="43.0631330" lon="-1.7290770">
        <ele>868.807007</ele>
        <time>2014-08-17T10:35:42.000Z</time>
      </trkpt>
      <trkpt lat="43.0631730" lon="-1.7289790">
        <ele>867.895020</ele>
        <time>2014-08-17T10:35:43.000Z</time>
      </trkpt>
      <trkpt lat="43.0632100" lon="-1.7288890">
        <ele>867.853027</ele>
        <time>2014-08-17T10:35:44.000Z</time>
      </trkpt>
      <trkpt lat="43.0632700" lon="-1.7287230">
        <ele>867.455933</ele>
        <time>2014-08-17T10:35:46.000Z</time>
      </trkpt>
      <trkpt lat="43.0633510" lon="-1.7285130">
        <ele>866.857971</ele>
        <time>2014-08-17T10:35:49.000Z</time>
      </trkpt>
      <trkpt lat="43.0633860" lon="-1.7284480">
        <ele>866.257019</ele>
        <time>2014-08-17T10:35:50.000Z</time>
      </trkpt>
      <trkpt lat="43.0634240" lon="-1.7283770">
        <ele>865.449036</ele>
        <time>2014-08-17T10:35:51.000Z</time>
      </trkpt>
      <trkpt lat="43.0634610" lon="-1.7282870">
        <ele>864.632019</ele>
        <time>2014-08-17T10:35:52.000Z</time>
      </trkpt>
      <trkpt lat="43.0634810" lon="-1.7282050">
        <ele>863.626038</ele>
        <time>2014-08-17T10:35:53.000Z</time>
      </trkpt>
      <trkpt lat="43.0634970" lon="-1.7281350">
        <ele>862.647034</ele>
        <time>2014-08-17T10:35:54.000Z</time>
      </trkpt>
      <trkpt lat="43.0635160" lon="-1.7280800">
        <ele>861.411011</ele>
        <time>2014-08-17T10:35:55.000Z</time>
      </trkpt>
      <trkpt lat="43.0635210" lon="-1.7280360">
        <ele>860.407043</ele>
        <time>2014-08-17T10:35:56.000Z</time>
      </trkpt>
      <trkpt lat="43.0634840" lon="-1.7280270">
        <ele>859.479004</ele>
        <time>2014-08-17T10:35:57.000Z</time>
      </trkpt>
      <trkpt lat="43.0634530" lon="-1.7280220">
        <ele>858.887024</ele>
        <time>2014-08-17T10:35:58.000Z</time>
      </trkpt>
      <trkpt lat="43.0634060" lon="-1.7280360">
        <ele>858.059998</ele>
        <time>2014-08-17T10:35:59.000Z</time>
      </trkpt>
      <trkpt lat="43.0633800" lon="-1.7280380">
        <ele>856.871948</ele>
        <time>2014-08-17T10:36:00.000Z</time>
      </trkpt>
      <trkpt lat="43.0633780" lon="-1.7280370">
        <ele>856.261047</ele>
        <time>2014-08-17T10:36:01.000Z</time>
      </trkpt>
      <trkpt lat="43.0633490" lon="-1.7280440">
        <ele>856.293030</ele>
        <time>2014-08-17T10:36:02.000Z</time>
      </trkpt>
      <trkpt lat="43.0633250" lon="-1.7280690">
        <ele>855.625977</ele>
        <time>2014-08-17T10:36:09.000Z</time>
      </trkpt>
      <trkpt lat="43.0632370" lon="-1.7282360">
        <ele>855.217957</ele>
        <time>2014-08-17T10:36:14.000Z</time>
      </trkpt>
      <trkpt lat="43.0632080" lon="-1.7282620">
        <ele>854.898010</ele>
        <time>2014-08-17T10:36:15.000Z</time>
      </trkpt>
      <trkpt lat="43.0631710" lon="-1.7282810">
        <ele>854.217041</ele>
        <time>2014-08-17T10:36:16.000Z</time>
      </trkpt>
      <trkpt lat="43.0631170" lon="-1.7283050">
        <ele>853.407043</ele>
        <time>2014-08-17T10:36:17.000Z</time>
      </trkpt>
      <trkpt lat="43.0630500" lon="-1.7283370">
        <ele>852.637939</ele>
        <time>2014-08-17T10:36:18.000Z</time>
      </trkpt>
      <trkpt lat="43.0629900" lon="-1.7283710">
        <ele>851.835999</ele>
        <time>2014-08-17T10:36:19.000Z</time>
      </trkpt>
      <trkpt lat="43.0629390" lon="-1.7284080">
        <ele>851.089050</ele>
        <time>2014-08-17T10:36:20.000Z</time>
      </trkpt>
      <trkpt lat="43.0628960" lon="-1.7284570">
        <ele>850.051025</ele>
        <time>2014-08-17T10:36:21.000Z</time>
      </trkpt>
      <trkpt lat="43.0628530" lon="-1.7285170">
        <ele>849.289978</ele>
        <time>2014-08-17T10:36:22.000Z</time>
      </trkpt>
      <trkpt lat="43.0628030" lon="-1.7285820">
        <ele>848.231995</ele>
        <time>2014-08-17T10:36:23.000Z</time>
      </trkpt>
      <trkpt lat="43.0627550" lon="-1.7286450">
        <ele>846.625000</ele>
        <time>2014-08-17T10:36:24.000Z</time>
      </trkpt>
      <trkpt lat="43.0627080" lon="-1.7287080">
        <ele>845.867981</ele>
        <time>2014-08-17T10:36:25.000Z</time>
      </trkpt>
      <trkpt lat="43.0626680" lon="-1.7287570">
        <ele>845.041992</ele>
        <time>2014-08-17T10:36:26.000Z</time>
      </trkpt>
      <trkpt lat="43.0626250" lon="-1.7288050">
        <ele>844.225952</ele>
        <time>2014-08-17T10:36:27.000Z</time>
      </trkpt>
      <trkpt lat="43.0625890" lon="-1.7288310">
        <ele>843.606995</ele>
        <time>2014-08-17T10:36:28.000Z</time>
      </trkpt>
      <trkpt lat="43.0625500" lon="-1.7288350">
        <ele>843.283020</ele>
        <time>2014-08-17T10:36:29.000Z</time>
      </trkpt>
      <trkpt lat="43.0625130" lon="-1.7288360">
        <ele>842.881042</ele>
        <time>2014-08-17T10:36:30.000Z</time>
      </trkpt>
      <trkpt lat="43.0624880" lon="-1.7288270">
        <ele>842.274048</ele>
        <time>2014-08-17T10:36:31.000Z</time>
      </trkpt>
      <trkpt lat="43.0624620" lon="-1.7288160">
        <ele>841.866028</ele>
        <time>2014-08-17T10:36:32.000Z</time>
      </trkpt>
      <trkpt lat="43.0624440" lon="-1.7288040">
        <ele>841.815063</ele>
        <time>2014-08-17T10:36:33.000Z</time>
      </trkpt>
      <trkpt lat="43.0624280" lon="-1.7288010">
        <ele>841.816956</ele>
        <time>2014-08-17T10:36:34.000Z</time>
      </trkpt>
      <trkpt lat="43.0623940" lon="-1.7288040">
        <ele>841.850037</ele>
        <time>2014-08-17T10:36:37.000Z</time>
      </trkpt>
      <trkpt lat="43.0623800" lon="-1.7288020">
        <ele>841.888977</ele>
        <time>2014-08-17T10:36:39.000Z</time>
      </trkpt>
      <trkpt lat="43.0622780" lon="-1.7286780">
        <ele>841.406006</ele>
        <time>2014-08-17T10:36:53.000Z</time>
      </trkpt>
      <trkpt lat="43.0622670" lon="-1.7286670">
        <ele>841.026001</ele>
        <time>2014-08-17T10:36:54.000Z</time>
      </trkpt>
      <trkpt lat="43.0622550" lon="-1.7286530">
        <ele>840.606995</ele>
        <time>2014-08-17T10:36:55.000Z</time>
      </trkpt>
      <trkpt lat="43.0622450" lon="-1.7286370">
        <ele>840.095032</ele>
        <time>2014-08-17T10:36:56.000Z</time>
      </trkpt>
      <trkpt lat="43.0622380" lon="-1.7286130">
        <ele>839.692993</ele>
        <time>2014-08-17T10:36:57.000Z</time>
      </trkpt>
      <trkpt lat="43.0622310" lon="-1.7285990">
        <ele>839.676025</ele>
        <time>2014-08-17T10:36:58.000Z</time>
      </trkpt>
      <trkpt lat="43.0622140" lon="-1.7285730">
        <ele>839.638000</ele>
        <time>2014-08-17T10:37:00.000Z</time>
      </trkpt>
      <trkpt lat="43.0621480" lon="-1.7284400">
        <ele>839.687012</ele>
        <time>2014-08-17T10:37:04.000Z</time>
      </trkpt>
      <trkpt lat="43.0620640" lon="-1.7282800">
        <ele>839.669006</ele>
        <time>2014-08-17T10:37:09.000Z</time>
      </trkpt>
      <trkpt lat="43.0620150" lon="-1.7281840">
        <ele>839.621948</ele>
        <time>2014-08-17T10:37:14.000Z</time>
      </trkpt>
      <trkpt lat="43.0619580" lon="-1.7280380">
        <ele>839.648010</ele>
        <time>2014-08-17T10:37:19.000Z</time>
      </trkpt>
      <trkpt lat="43.0618500" lon="-1.7278550">
        <ele>839.660950</ele>
        <time>2014-08-17T10:37:25.000Z</time>
      </trkpt>
      <trkpt lat="43.0618330" lon="-1.7278360">
        <ele>840.016968</ele>
        <time>2014-08-17T10:37:26.000Z</time>
      </trkpt>
      <trkpt lat="43.0617840" lon="-1.7277820">
        <ele>840.406982</ele>
        <time>2014-08-17T10:37:29.000Z</time>
      </trkpt>
      <trkpt lat="43.0617680" lon="-1.7277650">
        <ele>840.871033</ele>
        <time>2014-08-17T10:37:30.000Z</time>
      </trkpt>
      <trkpt lat="43.0617430" lon="-1.7277440">
        <ele>841.298950</ele>
        <time>2014-08-17T10:37:31.000Z</time>
      </trkpt>
      <trkpt lat="43.0617270" lon="-1.7277220">
        <ele>841.651978</ele>
        <time>2014-08-17T10:37:32.000Z</time>
      </trkpt>
      <trkpt lat="43.0617060" lon="-1.7276990">
        <ele>841.633972</ele>
        <time>2014-08-17T10:37:33.000Z</time>
      </trkpt>
      <trkpt lat="43.0615920" lon="-1.7275930">
        <ele>841.672974</ele>
        <time>2014-08-17T10:37:37.000Z</time>
      </trkpt>
      <trkpt lat="43.0615510" lon="-1.7275720">
        <ele>841.665039</ele>
        <time>2014-08-17T10:37:38.000Z</time>
      </trkpt>
      <trkpt lat="43.0614370" lon="-1.7275350">
        <ele>841.667969</ele>
        <time>2014-08-17T10:37:41.000Z</time>
      </trkpt>
      <trkpt lat="43.0613400" lon="-1.7275290">
        <ele>841.658997</ele>
        <time>2014-08-17T10:37:44.000Z</time>
      </trkpt>
      <trkpt lat="43.0612530" lon="-1.7275400">
        <ele>841.003052</ele>
        <time>2014-08-17T10:37:46.000Z</time>
      </trkpt>
      <trkpt lat="43.0612050" lon="-1.7275300">
        <ele>840.622986</ele>
        <time>2014-08-17T10:37:47.000Z</time>
      </trkpt>
      <trkpt lat="43.0611500" lon="-1.7275190">
        <ele>839.606995</ele>
        <time>2014-08-17T10:37:48.000Z</time>
      </trkpt>
      <trkpt lat="43.0610850" lon="-1.7275270">
        <ele>838.872009</ele>
        <time>2014-08-17T10:37:49.000Z</time>
      </trkpt>
      <trkpt lat="43.0610160" lon="-1.7275410">
        <ele>837.809998</ele>
        <time>2014-08-17T10:37:50.000Z</time>
      </trkpt>
      <trkpt lat="43.0609500" lon="-1.7275660">
        <ele>836.872986</ele>
        <time>2014-08-17T10:37:51.000Z</time>
      </trkpt>
      <trkpt lat="43.0608820" lon="-1.7275930">
        <ele>835.494995</ele>
        <time>2014-08-17T10:37:52.000Z</time>
      </trkpt>
      <trkpt lat="43.0608170" lon="-1.7276230">
        <ele>834.264038</ele>
        <time>2014-08-17T10:37:53.000Z</time>
      </trkpt>
      <trkpt lat="43.0607510" lon="-1.7276770">
        <ele>833.075989</ele>
        <time>2014-08-17T10:37:54.000Z</time>
      </trkpt>
      <trkpt lat="43.0606890" lon="-1.7277350">
        <ele>831.869019</ele>
        <time>2014-08-17T10:37:55.000Z</time>
      </trkpt>
      <trkpt lat="43.0606280" lon="-1.7278010">
        <ele>830.618042</ele>
        <time>2014-08-17T10:37:56.000Z</time>
      </trkpt>
      <trkpt lat="43.0605770" lon="-1.7278760">
        <ele>829.697998</ele>
        <time>2014-08-17T10:37:57.000Z</time>
      </trkpt>
      <trkpt lat="43.0605240" lon="-1.7279480">
        <ele>828.816956</ele>
        <time>2014-08-17T10:37:58.000Z</time>
      </trkpt>
      <trkpt lat="43.0604860" lon="-1.7280350">
        <ele>827.606995</ele>
        <time>2014-08-17T10:37:59.000Z</time>
      </trkpt>
      <trkpt lat="43.0604520" lon="-1.7281370">
        <ele>826.667969</ele>
        <time>2014-08-17T10:38:00.000Z</time>
      </trkpt>
      <trkpt lat="43.0604250" lon="-1.7282410">
        <ele>825.695984</ele>
        <time>2014-08-17T10:38:01.000Z</time>
      </trkpt>
      <trkpt lat="43.0604010" lon="-1.7283470">
        <ele>824.658997</ele>
        <time>2014-08-17T10:38:02.000Z</time>
      </trkpt>
      <trkpt lat="43.0603820" lon="-1.7284570">
        <ele>823.251038</ele>
        <time>2014-08-17T10:38:03.000Z</time>
      </trkpt>
      <trkpt lat="43.0603660" lon="-1.7285710">
        <ele>822.610046</ele>
        <time>2014-08-17T10:38:04.000Z</time>
      </trkpt>
      <trkpt lat="43.0603520" lon="-1.7286650">
        <ele>822.031982</ele>
        <time>2014-08-17T10:38:05.000Z</time>
      </trkpt>
      <trkpt lat="43.0603330" lon="-1.7287440">
        <ele>821.424988</ele>
        <time>2014-08-17T10:38:06.000Z</time>
      </trkpt>
      <trkpt lat="43.0603140" lon="-1.7287920">
        <ele>820.698059</ele>
        <time>2014-08-17T10:38:07.000Z</time>
      </trkpt>
      <trkpt lat="43.0602970" lon="-1.7288170">
        <ele>820.015015</ele>
        <time>2014-08-17T10:38:08.000Z</time>
      </trkpt>
      <trkpt lat="43.0602790" lon="-1.7288130">
        <ele>819.225952</ele>
        <time>2014-08-17T10:38:09.000Z</time>
      </trkpt>
      <trkpt lat="43.0602630" lon="-1.7287820">
        <ele>818.606995</ele>
        <time>2014-08-17T10:38:10.000Z</time>
      </trkpt>
      <trkpt lat="43.0602430" lon="-1.7287400">
        <ele>818.616028</ele>
        <time>2014-08-17T10:38:11.000Z</time>
      </trkpt>
      <trkpt lat="43.0602240" lon="-1.7287020">
        <ele>818.214050</ele>
        <time>2014-08-17T10:38:12.000Z</time>
      </trkpt>
      <trkpt lat="43.0602020" lon="-1.7286610">
        <ele>817.846985</ele>
        <time>2014-08-17T10:38:13.000Z</time>
      </trkpt>
      <trkpt lat="43.0601760" lon="-1.7286210">
        <ele>817.439026</ele>
        <time>2014-08-17T10:38:14.000Z</time>
      </trkpt>
      <trkpt lat="43.0601440" lon="-1.7285800">
        <ele>817.018066</ele>
        <time>2014-08-17T10:38:15.000Z</time>
      </trkpt>
      <trkpt lat="43.0601130" lon="-1.7285430">
        <ele>816.610046</ele>
        <time>2014-08-17T10:38:16.000Z</time>
      </trkpt>
      <trkpt lat="43.0600810" lon="-1.7285110">
        <ele>816.013000</ele>
        <time>2014-08-17T10:38:17.000Z</time>
      </trkpt>
      <trkpt lat="43.0600200" lon="-1.7284350">
        <ele>815.424011</ele>
        <time>2014-08-17T10:38:19.000Z</time>
      </trkpt>
      <trkpt lat="43.0599860" lon="-1.7283940">
        <ele>814.804016</ele>
        <time>2014-08-17T10:38:20.000Z</time>
      </trkpt>
      <trkpt lat="43.0599540" lon="-1.7283580">
        <ele>814.014038</ele>
        <time>2014-08-17T10:38:21.000Z</time>
      </trkpt>
      <trkpt lat="43.0599170" lon="-1.7283180">
        <ele>813.407043</ele>
        <time>2014-08-17T10:38:22.000Z</time>
      </trkpt>
      <trkpt lat="43.0598890" lon="-1.7282680">
        <ele>812.848999</ele>
        <time>2014-08-17T10:38:23.000Z</time>
      </trkpt>
      <trkpt lat="43.0598640" lon="-1.7282080">
        <ele>812.047058</ele>
        <time>2014-08-17T10:38:24.000Z</time>
      </trkpt>
      <trkpt lat="43.0598420" lon="-1.7281430">
        <ele>811.409973</ele>
        <time>2014-08-17T10:38:25.000Z</time>
      </trkpt>
      <trkpt lat="43.0598150" lon="-1.7280710">
        <ele>810.631958</ele>
        <time>2014-08-17T10:38:26.000Z</time>
      </trkpt>
      <trkpt lat="43.0597870" lon="-1.7280200">
        <ele>809.871033</ele>
        <time>2014-08-17T10:38:27.000Z</time>
      </trkpt>
      <trkpt lat="43.0597590" lon="-1.7279790">
        <ele>808.072998</ele>
        <time>2014-08-17T10:38:28.000Z</time>
      </trkpt>
      <trkpt lat="43.0597340" lon="-1.7279500">
        <ele>807.276001</ele>
        <time>2014-08-17T10:38:29.000Z</time>
      </trkpt>
      <trkpt lat="43.0597050" lon="-1.7279200">
        <ele>806.462036</ele>
        <time>2014-08-17T10:38:30.000Z</time>
      </trkpt>
      <trkpt lat="43.0596740" lon="-1.7278860">
        <ele>806.483032</ele>
        <time>2014-08-17T10:38:31.000Z</time>
      </trkpt>
      <trkpt lat="43.0596390" lon="-1.7278480">
        <ele>806.411011</ele>
        <time>2014-08-17T10:38:32.000Z</time>
      </trkpt>
      <trkpt lat="43.0595690" lon="-1.7277570">
        <ele>806.006958</ele>
        <time>2014-08-17T10:38:34.000Z</time>
      </trkpt>
      <trkpt lat="43.0595490" lon="-1.7277160">
        <ele>805.622986</ele>
        <time>2014-08-17T10:38:35.000Z</time>
      </trkpt>
      <trkpt lat="43.0595460" lon="-1.7276900">
        <ele>805.011047</ele>
        <time>2014-08-17T10:38:36.000Z</time>
      </trkpt>
      <trkpt lat="43.0595520" lon="-1.7276650">
        <ele>804.624023</ele>
        <time>2014-08-17T10:38:37.000Z</time>
      </trkpt>
      <trkpt lat="43.0595450" lon="-1.7276290">
        <ele>804.295959</ele>
        <time>2014-08-17T10:38:38.000Z</time>
      </trkpt>
      <trkpt lat="43.0595420" lon="-1.7275930">
        <ele>804.234985</ele>
        <time>2014-08-17T10:38:39.000Z</time>
      </trkpt>
      <trkpt lat="43.0595360" lon="-1.7275370">
        <ele>804.217041</ele>
        <time>2014-08-17T10:38:41.000Z</time>
      </trkpt>
      <trkpt lat="43.0595360" lon="-1.7275080">
        <ele>804.259949</ele>
        <time>2014-08-17T10:38:42.000Z</time>
      </trkpt>
      <trkpt lat="43.0595370" lon="-1.7274500">
        <ele>804.263000</ele>
        <time>2014-08-17T10:38:44.000Z</time>
      </trkpt>
      <trkpt lat="43.0594790" lon="-1.7272510">
        <ele>803.843994</ele>
        <time>2014-08-17T10:38:49.000Z</time>
      </trkpt>
      <trkpt lat="43.0594550" lon="-1.7271620">
        <ele>803.417969</ele>
        <time>2014-08-17T10:38:51.000Z</time>
      </trkpt>
      <trkpt lat="43.0594470" lon="-1.7271180">
        <ele>803.006958</ele>
        <time>2014-08-17T10:38:52.000Z</time>
      </trkpt>
      <trkpt lat="43.0594290" lon="-1.7270770">
        <ele>802.213013</ele>
        <time>2014-08-17T10:38:53.000Z</time>
      </trkpt>
      <trkpt lat="43.0594020" lon="-1.7270340">
        <ele>802.221008</ele>
        <time>2014-08-17T10:38:54.000Z</time>
      </trkpt>
      <trkpt lat="43.0593720" lon="-1.7269930">
        <ele>802.244019</ele>
        <time>2014-08-17T10:38:55.000Z</time>
      </trkpt>
      <trkpt lat="43.0593540" lon="-1.7269500">
        <ele>801.865967</ele>
        <time>2014-08-17T10:38:56.000Z</time>
      </trkpt>
      <trkpt lat="43.0593280" lon="-1.7268660">
        <ele>801.275024</ele>
        <time>2014-08-17T10:38:58.000Z</time>
      </trkpt>
      <trkpt lat="43.0593180" lon="-1.7268300">
        <ele>800.896973</ele>
        <time>2014-08-17T10:38:59.000Z</time>
      </trkpt>
      <trkpt lat="43.0593110" lon="-1.7267970">
        <ele>800.480042</ele>
        <time>2014-08-17T10:39:00.000Z</time>
      </trkpt>
      <trkpt lat="43.0593030" lon="-1.7267730">
        <ele>800.024963</ele>
        <time>2014-08-17T10:39:01.000Z</time>
      </trkpt>
      <trkpt lat="43.0592920" lon="-1.7267470">
        <ele>800.026062</ele>
        <time>2014-08-17T10:39:02.000Z</time>
      </trkpt>
      <trkpt lat="43.0592780" lon="-1.7266570">
        <ele>799.607971</ele>
        <time>2014-08-17T10:39:04.000Z</time>
      </trkpt>
      <trkpt lat="43.0592700" lon="-1.7264070">
        <ele>799.207031</ele>
        <time>2014-08-17T10:39:09.000Z</time>
      </trkpt>
      <trkpt lat="43.0592730" lon="-1.7263560">
        <ele>798.828979</ele>
        <time>2014-08-17T10:39:10.000Z</time>
      </trkpt>
      <trkpt lat="43.0592680" lon="-1.7263050">
        <ele>798.477051</ele>
        <time>2014-08-17T10:39:11.000Z</time>
      </trkpt>
      <trkpt lat="43.0592610" lon="-1.7262620">
        <ele>798.030029</ele>
        <time>2014-08-17T10:39:12.000Z</time>
      </trkpt>
      <trkpt lat="43.0592500" lon="-1.7262280">
        <ele>798.012024</ele>
        <time>2014-08-17T10:39:13.000Z</time>
      </trkpt>
      <trkpt lat="43.0592160" lon="-1.7261430">
        <ele>797.611023</ele>
        <time>2014-08-17T10:39:15.000Z</time>
      </trkpt>
      <trkpt lat="43.0591650" lon="-1.7260090">
        <ele>796.643005</ele>
        <time>2014-08-17T10:39:17.000Z</time>
      </trkpt>
      <trkpt lat="43.0591590" lon="-1.7259270">
        <ele>796.046021</ele>
        <time>2014-08-17T10:39:18.000Z</time>
      </trkpt>
      <trkpt lat="43.0591650" lon="-1.7258380">
        <ele>795.454041</ele>
        <time>2014-08-17T10:39:19.000Z</time>
      </trkpt>
      <trkpt lat="43.0591710" lon="-1.7257490">
        <ele>794.855957</ele>
        <time>2014-08-17T10:39:20.000Z</time>
      </trkpt>
      <trkpt lat="43.0591780" lon="-1.7256590">
        <ele>794.010986</ele>
        <time>2014-08-17T10:39:21.000Z</time>
      </trkpt>
      <trkpt lat="43.0591840" lon="-1.7255640">
        <ele>793.406982</ele>
        <time>2014-08-17T10:39:22.000Z</time>
      </trkpt>
      <trkpt lat="43.0591930" lon="-1.7254650">
        <ele>792.822021</ele>
        <time>2014-08-17T10:39:23.000Z</time>
      </trkpt>
      <trkpt lat="43.0592060" lon="-1.7253660">
        <ele>792.229980</ele>
        <time>2014-08-17T10:39:24.000Z</time>
      </trkpt>
      <trkpt lat="43.0592330" lon="-1.7252720">
        <ele>791.683044</ele>
        <time>2014-08-17T10:39:25.000Z</time>
      </trkpt>
      <trkpt lat="43.0592570" lon="-1.7251890">
        <ele>791.065002</ele>
        <time>2014-08-17T10:39:26.000Z</time>
      </trkpt>
      <trkpt lat="43.0592830" lon="-1.7251270">
        <ele>790.473999</ele>
        <time>2014-08-17T10:39:27.000Z</time>
      </trkpt>
      <trkpt lat="43.0593180" lon="-1.7250840">
        <ele>789.815979</ele>
        <time>2014-08-17T10:39:28.000Z</time>
      </trkpt>
      <trkpt lat="43.0593650" lon="-1.7250830">
        <ele>789.219055</ele>
        <time>2014-08-17T10:39:29.000Z</time>
      </trkpt>
      <trkpt lat="43.0594130" lon="-1.7251050">
        <ele>788.886047</ele>
        <time>2014-08-17T10:39:30.000Z</time>
      </trkpt>
      <trkpt lat="43.0594530" lon="-1.7251320">
        <ele>788.259949</ele>
        <time>2014-08-17T10:39:31.000Z</time>
      </trkpt>
      <trkpt lat="43.0594830" lon="-1.7251650">
        <ele>787.825989</ele>
        <time>2014-08-17T10:39:32.000Z</time>
      </trkpt>
      <trkpt lat="43.0595090" lon="-1.7252030">
        <ele>787.207031</ele>
        <time>2014-08-17T10:39:33.000Z</time>
      </trkpt>
      <trkpt lat="43.0595350" lon="-1.7252410">
        <ele>786.664978</ele>
        <time>2014-08-17T10:39:34.000Z</time>
      </trkpt>
      <trkpt lat="43.0595640" lon="-1.7252860">
        <ele>786.632996</ele>
        <time>2014-08-17T10:39:35.000Z</time>
      </trkpt>
      <trkpt lat="43.0595880" lon="-1.7253480">
        <ele>786.276001</ele>
        <time>2014-08-17T10:39:36.000Z</time>
      </trkpt>
      <trkpt lat="43.0596100" lon="-1.7254210">
        <ele>785.638000</ele>
        <time>2014-08-17T10:39:37.000Z</time>
      </trkpt>
      <trkpt lat="43.0596390" lon="-1.7255050">
        <ele>785.266968</ele>
        <time>2014-08-17T10:39:38.000Z</time>
      </trkpt>
      <trkpt lat="43.0596720" lon="-1.7255950">
        <ele>784.618958</ele>
        <time>2014-08-17T10:39:39.000Z</time>
      </trkpt>
      <trkpt lat="43.0597020" lon="-1.7256860">
        <ele>784.041992</ele>
        <time>2014-08-17T10:39:40.000Z</time>
      </trkpt>
      <trkpt lat="43.0597270" lon="-1.7257650">
        <ele>783.447998</ele>
        <time>2014-08-17T10:39:41.000Z</time>
      </trkpt>
      <trkpt lat="43.0597510" lon="-1.7258370">
        <ele>782.260986</ele>
        <time>2014-08-17T10:39:42.000Z</time>
      </trkpt>
      <trkpt lat="43.0597740" lon="-1.7258920">
        <ele>781.416992</ele>
        <time>2014-08-17T10:39:43.000Z</time>
      </trkpt>
      <trkpt lat="43.0597960" lon="-1.7259260">
        <ele>780.806946</ele>
        <time>2014-08-17T10:39:44.000Z</time>
      </trkpt>
      <trkpt lat="43.0598150" lon="-1.7259430">
        <ele>780.240967</ele>
        <time>2014-08-17T10:39:45.000Z</time>
      </trkpt>
      <trkpt lat="43.0598470" lon="-1.7259620">
        <ele>779.419006</ele>
        <time>2014-08-17T10:39:46.000Z</time>
      </trkpt>
      <trkpt lat="43.0598850" lon="-1.7259800">
        <ele>779.062012</ele>
        <time>2014-08-17T10:39:47.000Z</time>
      </trkpt>
      <trkpt lat="43.0599280" lon="-1.7260020">
        <ele>778.684021</ele>
        <time>2014-08-17T10:39:48.000Z</time>
      </trkpt>
      <trkpt lat="43.0599730" lon="-1.7260350">
        <ele>778.093018</ele>
        <time>2014-08-17T10:39:49.000Z</time>
      </trkpt>
      <trkpt lat="43.0600160" lon="-1.7260850">
        <ele>777.664978</ele>
        <time>2014-08-17T10:39:50.000Z</time>
      </trkpt>
      <trkpt lat="43.0600520" lon="-1.7261440">
        <ele>777.018005</ele>
        <time>2014-08-17T10:39:51.000Z</time>
      </trkpt>
      <trkpt lat="43.0600810" lon="-1.7262120">
        <ele>777.032959</ele>
        <time>2014-08-17T10:39:52.000Z</time>
      </trkpt>
      <trkpt lat="43.0601080" lon="-1.7262860">
        <ele>776.623047</ele>
        <time>2014-08-17T10:39:53.000Z</time>
      </trkpt>
      <trkpt lat="43.0601370" lon="-1.7263700">
        <ele>776.015015</ele>
        <time>2014-08-17T10:39:54.000Z</time>
      </trkpt>
      <trkpt lat="43.0601660" lon="-1.7264620">
        <ele>775.207031</ele>
        <time>2014-08-17T10:39:55.000Z</time>
      </trkpt>
      <trkpt lat="43.0601930" lon="-1.7265500">
        <ele>774.450012</ele>
        <time>2014-08-17T10:39:56.000Z</time>
      </trkpt>
      <trkpt lat="43.0602170" lon="-1.7266370">
        <ele>773.827942</ele>
        <time>2014-08-17T10:39:57.000Z</time>
      </trkpt>
      <trkpt lat="43.0602290" lon="-1.7267200">
        <ele>773.031006</ele>
        <time>2014-08-17T10:39:58.000Z</time>
      </trkpt>
      <trkpt lat="43.0602460" lon="-1.7267930">
        <ele>772.213013</ele>
        <time>2014-08-17T10:39:59.000Z</time>
      </trkpt>
      <trkpt lat="43.0602660" lon="-1.7268530">
        <ele>771.612000</ele>
        <time>2014-08-17T10:40:00.000Z</time>
      </trkpt>
      <trkpt lat="43.0602790" lon="-1.7269080">
        <ele>771.033997</ele>
        <time>2014-08-17T10:40:01.000Z</time>
      </trkpt>
      <trkpt lat="43.0602880" lon="-1.7269530">
        <ele>770.466980</ele>
        <time>2014-08-17T10:40:02.000Z</time>
      </trkpt>
      <trkpt lat="43.0603020" lon="-1.7269990">
        <ele>769.629028</ele>
        <time>2014-08-17T10:40:03.000Z</time>
      </trkpt>
      <trkpt lat="43.0603120" lon="-1.7270370">
        <ele>769.599976</ele>
        <time>2014-08-17T10:40:04.000Z</time>
      </trkpt>
      <trkpt lat="43.0603270" lon="-1.7270570">
        <ele>769.619995</ele>
        <time>2014-08-17T10:40:05.000Z</time>
      </trkpt>
      <trkpt lat="43.0603340" lon="-1.7270070">
        <ele>769.606995</ele>
        <time>2014-08-17T10:40:08.000Z</time>
      </trkpt>
      <trkpt lat="43.0603490" lon="-1.7269390">
        <ele>769.298950</ele>
        <time>2014-08-17T10:40:09.000Z</time>
      </trkpt>
      <trkpt lat="43.0603770" lon="-1.7268740">
        <ele>768.857056</ele>
        <time>2014-08-17T10:40:10.000Z</time>
      </trkpt>
      <trkpt lat="43.0604140" lon="-1.7268010">
        <ele>768.210022</ele>
        <time>2014-08-17T10:40:11.000Z</time>
      </trkpt>
      <trkpt lat="43.0604470" lon="-1.7267320">
        <ele>767.872009</ele>
        <time>2014-08-17T10:40:12.000Z</time>
      </trkpt>
      <trkpt lat="43.0604780" lon="-1.7266560">
        <ele>767.471008</ele>
        <time>2014-08-17T10:40:13.000Z</time>
      </trkpt>
      <trkpt lat="43.0605050" lon="-1.7265840">
        <ele>766.822998</ele>
        <time>2014-08-17T10:40:14.000Z</time>
      </trkpt>
      <trkpt lat="43.0605340" lon="-1.7265190">
        <ele>766.455994</ele>
        <time>2014-08-17T10:40:15.000Z</time>
      </trkpt>
      <trkpt lat="43.0605630" lon="-1.7264520">
        <ele>765.835999</ele>
        <time>2014-08-17T10:40:16.000Z</time>
      </trkpt>
      <trkpt lat="43.0605920" lon="-1.7263890">
        <ele>765.016968</ele>
        <time>2014-08-17T10:40:17.000Z</time>
      </trkpt>
      <trkpt lat="43.0606210" lon="-1.7263300">
        <ele>764.418030</ele>
        <time>2014-08-17T10:40:18.000Z</time>
      </trkpt>
      <trkpt lat="43.0606480" lon="-1.7262680">
        <ele>763.807007</ele>
        <time>2014-08-17T10:40:19.000Z</time>
      </trkpt>
      <trkpt lat="43.0606750" lon="-1.7261980">
        <ele>763.010010</ele>
        <time>2014-08-17T10:40:20.000Z</time>
      </trkpt>
      <trkpt lat="43.0607070" lon="-1.7261290">
        <ele>762.218018</ele>
        <time>2014-08-17T10:40:21.000Z</time>
      </trkpt>
      <trkpt lat="43.0607460" lon="-1.7260610">
        <ele>761.621033</ele>
        <time>2014-08-17T10:40:22.000Z</time>
      </trkpt>
      <trkpt lat="43.0607900" lon="-1.7259900">
        <ele>760.882996</ele>
        <time>2014-08-17T10:40:23.000Z</time>
      </trkpt>
      <trkpt lat="43.0608310" lon="-1.7259190">
        <ele>760.241943</ele>
        <time>2014-08-17T10:40:24.000Z</time>
      </trkpt>
      <trkpt lat="43.0608730" lon="-1.7258450">
        <ele>759.614014</ele>
        <time>2014-08-17T10:40:25.000Z</time>
      </trkpt>
      <trkpt lat="43.0609150" lon="-1.7257680">
        <ele>758.627014</ele>
        <time>2014-08-17T10:40:26.000Z</time>
      </trkpt>
      <trkpt lat="43.0609590" lon="-1.7256870">
        <ele>757.893982</ele>
        <time>2014-08-17T10:40:27.000Z</time>
      </trkpt>
      <trkpt lat="43.0610050" lon="-1.7256170">
        <ele>757.056946</ele>
        <time>2014-08-17T10:40:28.000Z</time>
      </trkpt>
      <trkpt lat="43.0610560" lon="-1.7255460">
        <ele>756.022034</ele>
        <time>2014-08-17T10:40:29.000Z</time>
      </trkpt>
      <trkpt lat="43.0611030" lon="-1.7254770">
        <ele>755.406982</ele>
        <time>2014-08-17T10:40:30.000Z</time>
      </trkpt>
      <trkpt lat="43.0611520" lon="-1.7254070">
        <ele>754.295959</ele>
        <time>2014-08-17T10:40:31.000Z</time>
      </trkpt>
      <trkpt lat="43.0611370" lon="-1.7253480">
        <ele>753.424011</ele>
        <time>2014-08-17T10:40:32.000Z</time>
      </trkpt>
      <trkpt lat="43.0611420" lon="-1.7252860">
        <ele>752.896973</ele>
        <time>2014-08-17T10:40:33.000Z</time>
      </trkpt>
      <trkpt lat="43.0611530" lon="-1.7252160">
        <ele>752.048950</ele>
        <time>2014-08-17T10:40:34.000Z</time>
      </trkpt>
      <trkpt lat="43.0611630" lon="-1.7251390">
        <ele>751.227966</ele>
        <time>2014-08-17T10:40:35.000Z</time>
      </trkpt>
      <trkpt lat="43.0611780" lon="-1.7250510">
        <ele>750.449951</ele>
        <time>2014-08-17T10:40:36.000Z</time>
      </trkpt>
      <trkpt lat="43.0611980" lon="-1.7249620">
        <ele>749.693054</ele>
        <time>2014-08-17T10:40:37.000Z</time>
      </trkpt>
      <trkpt lat="43.0612200" lon="-1.7248590">
        <ele>748.616028</ele>
        <time>2014-08-17T10:40:38.000Z</time>
      </trkpt>
      <trkpt lat="43.0612330" lon="-1.7247620">
        <ele>747.676025</ele>
        <time>2014-08-17T10:40:39.000Z</time>
      </trkpt>
      <trkpt lat="43.0612760" lon="-1.7246690">
        <ele>746.812988</ele>
        <time>2014-08-17T10:40:40.000Z</time>
      </trkpt>
      <trkpt lat="43.0613190" lon="-1.7245900">
        <ele>745.807007</ele>
        <time>2014-08-17T10:40:41.000Z</time>
      </trkpt>
      <trkpt lat="43.0613700" lon="-1.7245260">
        <ele>745.418030</ele>
        <time>2014-08-17T10:40:42.000Z</time>
      </trkpt>
      <trkpt lat="43.0615270" lon="-1.7244300">
        <ele>744.895996</ele>
        <time>2014-08-17T10:40:44.000Z</time>
      </trkpt>
      <trkpt lat="43.0615040" lon="-1.7243980">
        <ele>744.458984</ele>
        <time>2014-08-17T10:40:45.000Z</time>
      </trkpt>
      <trkpt lat="43.0615610" lon="-1.7243500">
        <ele>744.031006</ele>
        <time>2014-08-17T10:40:46.000Z</time>
      </trkpt>
      <trkpt lat="43.0615770" lon="-1.7243030">
        <ele>743.470032</ele>
        <time>2014-08-17T10:40:47.000Z</time>
      </trkpt>
      <trkpt lat="43.0616040" lon="-1.7242500">
        <ele>743.091980</ele>
        <time>2014-08-17T10:40:48.000Z</time>
      </trkpt>
      <trkpt lat="43.0616220" lon="-1.7241810">
        <ele>742.655029</ele>
        <time>2014-08-17T10:40:49.000Z</time>
      </trkpt>
      <trkpt lat="43.0617040" lon="-1.7241230">
        <ele>742.014038</ele>
        <time>2014-08-17T10:40:50.000Z</time>
      </trkpt>
      <trkpt lat="43.0617700" lon="-1.7240620">
        <ele>741.653992</ele>
        <time>2014-08-17T10:40:51.000Z</time>
      </trkpt>
      <trkpt lat="43.0618380" lon="-1.7240000">
        <ele>740.809021</ele>
        <time>2014-08-17T10:40:52.000Z</time>
      </trkpt>
      <trkpt lat="43.0618560" lon="-1.7239460">
        <ele>740.207031</ele>
        <time>2014-08-17T10:40:53.000Z</time>
      </trkpt>
      <trkpt lat="43.0618800" lon="-1.7238910">
        <ele>739.618042</ele>
        <time>2014-08-17T10:40:54.000Z</time>
      </trkpt>
      <trkpt lat="43.0619110" lon="-1.7238400">
        <ele>739.096008</ele>
        <time>2014-08-17T10:40:55.000Z</time>
      </trkpt>
      <trkpt lat="43.0619370" lon="-1.7238010">
        <ele>737.869019</ele>
        <time>2014-08-17T10:40:56.000Z</time>
      </trkpt>
      <trkpt lat="43.0619550" lon="-1.7237700">
        <ele>737.221008</ele>
        <time>2014-08-17T10:40:57.000Z</time>
      </trkpt>
      <trkpt lat="43.0619790" lon="-1.7237490">
        <ele>736.829956</ele>
        <time>2014-08-17T10:40:58.000Z</time>
      </trkpt>
      <trkpt lat="43.0620280" lon="-1.7237290">
        <ele>736.252014</ele>
        <time>2014-08-17T10:40:59.000Z</time>
      </trkpt>
      <trkpt lat="43.0620750" lon="-1.7237060">
        <ele>735.865051</ele>
        <time>2014-08-17T10:41:00.000Z</time>
      </trkpt>
      <trkpt lat="43.0621270" lon="-1.7236800">
        <ele>735.277039</ele>
        <time>2014-08-17T10:41:01.000Z</time>
      </trkpt>
      <trkpt lat="43.0621660" lon="-1.7236520">
        <ele>734.860962</ele>
        <time>2014-08-17T10:41:02.000Z</time>
      </trkpt>
      <trkpt lat="43.0621570" lon="-1.7236210">
        <ele>734.227051</ele>
        <time>2014-08-17T10:41:03.000Z</time>
      </trkpt>
      <trkpt lat="43.0621550" lon="-1.7235870">
        <ele>733.606995</ele>
        <time>2014-08-17T10:41:04.000Z</time>
      </trkpt>
      <trkpt lat="43.0622010" lon="-1.7235550">
        <ele>733.053955</ele>
        <time>2014-08-17T10:41:05.000Z</time>
      </trkpt>
      <trkpt lat="43.0622450" lon="-1.7235200">
        <ele>732.421997</ele>
        <time>2014-08-17T10:41:06.000Z</time>
      </trkpt>
      <trkpt lat="43.0622890" lon="-1.7234850">
        <ele>731.885010</ele>
        <time>2014-08-17T10:41:07.000Z</time>
      </trkpt>
      <trkpt lat="43.0623320" lon="-1.7234530">
        <ele>731.216980</ele>
        <time>2014-08-17T10:41:08.000Z</time>
      </trkpt>
      <trkpt lat="43.0623770" lon="-1.7234220">
        <ele>731.236023</ele>
        <time>2014-08-17T10:41:09.000Z</time>
      </trkpt>
      <trkpt lat="43.0623820" lon="-1.7234070">
        <ele>730.897949</ele>
        <time>2014-08-17T10:41:10.000Z</time>
      </trkpt>
      <trkpt lat="43.0624460" lon="-1.7234020">
        <ele>730.251038</ele>
        <time>2014-08-17T10:41:11.000Z</time>
      </trkpt>
      <trkpt lat="43.0624980" lon="-1.7234200">
        <ele>729.656982</ele>
        <time>2014-08-17T10:41:12.000Z</time>
      </trkpt>
      <trkpt lat="43.0625540" lon="-1.7234440">
        <ele>728.999939</ele>
        <time>2014-08-17T10:41:13.000Z</time>
      </trkpt>
      <trkpt lat="43.0625600" lon="-1.7234730">
        <ele>728.419983</ele>
        <time>2014-08-17T10:41:14.000Z</time>
      </trkpt>
      <trkpt lat="43.0625710" lon="-1.7235000">
        <ele>728.407043</ele>
        <time>2014-08-17T10:41:15.000Z</time>
      </trkpt>
      <trkpt lat="43.0626750" lon="-1.7236050">
        <ele>728.442017</ele>
        <time>2014-08-17T10:41:19.000Z</time>
      </trkpt>
      <trkpt lat="43.0626940" lon="-1.7236340">
        <ele>728.410034</ele>
        <time>2014-08-17T10:41:20.000Z</time>
      </trkpt>
      <trkpt lat="43.0627000" lon="-1.7236760">
        <ele>728.412964</ele>
        <time>2014-08-17T10:41:22.000Z</time>
      </trkpt>
      <trkpt lat="43.0627540" lon="-1.7237540">
        <ele>728.455017</ele>
        <time>2014-08-17T10:41:25.000Z</time>
      </trkpt>
      <trkpt lat="43.0627740" lon="-1.7237600">
        <ele>728.453979</ele>
        <time>2014-08-17T10:41:26.000Z</time>
      </trkpt>
      <trkpt lat="43.0627870" lon="-1.7237570">
        <ele>728.485962</ele>
        <time>2014-08-17T10:41:27.000Z</time>
      </trkpt>
      <trkpt lat="43.0628330" lon="-1.7236670">
        <ele>728.458984</ele>
        <time>2014-08-17T10:41:29.000Z</time>
      </trkpt>
      <trkpt lat="43.0629150" lon="-1.7234790">
        <ele>727.860962</ele>
        <time>2014-08-17T10:41:32.000Z</time>
      </trkpt>
      <trkpt lat="43.0629340" lon="-1.7234050">
        <ele>727.221008</ele>
        <time>2014-08-17T10:41:33.000Z</time>
      </trkpt>
      <trkpt lat="43.0629490" lon="-1.7233230">
        <ele>726.612976</ele>
        <time>2014-08-17T10:41:34.000Z</time>
      </trkpt>
      <trkpt lat="43.0629580" lon="-1.7232300">
        <ele>726.007019</ele>
        <time>2014-08-17T10:41:35.000Z</time>
      </trkpt>
      <trkpt lat="43.0629620" lon="-1.7231460">
        <ele>725.492981</ele>
        <time>2014-08-17T10:41:36.000Z</time>
      </trkpt>
      <trkpt lat="43.0629650" lon="-1.7230600">
        <ele>724.680969</ele>
        <time>2014-08-17T10:41:37.000Z</time>
      </trkpt>
      <trkpt lat="43.0629630" lon="-1.7229750">
        <ele>724.093994</ele>
        <time>2014-08-17T10:41:38.000Z</time>
      </trkpt>
      <trkpt lat="43.0629520" lon="-1.7228950">
        <ele>723.476013</ele>
        <time>2014-08-17T10:41:39.000Z</time>
      </trkpt>
      <trkpt lat="43.0629420" lon="-1.7228060">
        <ele>722.845032</ele>
        <time>2014-08-17T10:41:40.000Z</time>
      </trkpt>
      <trkpt lat="43.0628140" lon="-1.7227300">
        <ele>722.216980</ele>
        <time>2014-08-17T10:41:41.000Z</time>
      </trkpt>
      <trkpt lat="43.0627380" lon="-1.7226650">
        <ele>721.650024</ele>
        <time>2014-08-17T10:41:42.000Z</time>
      </trkpt>
      <trkpt lat="43.0627180" lon="-1.7226010">
        <ele>721.078003</ele>
        <time>2014-08-17T10:41:43.000Z</time>
      </trkpt>
      <trkpt lat="43.0627070" lon="-1.7225240">
        <ele>720.432983</ele>
        <time>2014-08-17T10:41:44.000Z</time>
      </trkpt>
      <trkpt lat="43.0627090" lon="-1.7224480">
        <ele>719.426025</ele>
        <time>2014-08-17T10:41:45.000Z</time>
      </trkpt>
      <trkpt lat="43.0627170" lon="-1.7223790">
        <ele>718.807007</ele>
        <time>2014-08-17T10:41:46.000Z</time>
      </trkpt>
      <trkpt lat="43.0627370" lon="-1.7223260">
        <ele>718.264038</ele>
        <time>2014-08-17T10:41:47.000Z</time>
      </trkpt>
      <trkpt lat="43.0627610" lon="-1.7222770">
        <ele>717.231995</ele>
        <time>2014-08-17T10:41:48.000Z</time>
      </trkpt>
      <trkpt lat="43.0627880" lon="-1.7222130">
        <ele>716.425049</ele>
        <time>2014-08-17T10:41:49.000Z</time>
      </trkpt>
      <trkpt lat="43.0628170" lon="-1.7221570">
        <ele>715.427002</ele>
        <time>2014-08-17T10:41:50.000Z</time>
      </trkpt>
      <trkpt lat="43.0628500" lon="-1.7220990">
        <ele>714.466003</ele>
        <time>2014-08-17T10:41:51.000Z</time>
      </trkpt>
      <trkpt lat="43.0628890" lon="-1.7220550">
        <ele>713.498047</ele>
        <time>2014-08-17T10:41:52.000Z</time>
      </trkpt>
      <trkpt lat="43.0629280" lon="-1.7220020">
        <ele>712.440979</ele>
        <time>2014-08-17T10:41:53.000Z</time>
      </trkpt>
      <trkpt lat="43.0629750" lon="-1.7219550">
        <ele>711.646973</ele>
        <time>2014-08-17T10:41:54.000Z</time>
      </trkpt>
      <trkpt lat="43.0630140" lon="-1.7219000">
        <ele>710.628967</ele>
        <time>2014-08-17T10:41:55.000Z</time>
      </trkpt>
      <trkpt lat="43.0630700" lon="-1.7218590">
        <ele>709.820984</ele>
        <time>2014-08-17T10:41:56.000Z</time>
      </trkpt>
      <trkpt lat="43.0632660" lon="-1.7217790">
        <ele>708.806946</ele>
        <time>2014-08-17T10:41:57.000Z</time>
      </trkpt>
      <trkpt lat="43.0634300" lon="-1.7217120">
        <ele>707.820984</ele>
        <time>2014-08-17T10:41:58.000Z</time>
      </trkpt>
      <trkpt lat="43.0635980" lon="-1.7216520">
        <ele>706.649048</ele>
        <time>2014-08-17T10:41:59.000Z</time>
      </trkpt>
      <trkpt lat="43.0637430" lon="-1.7215720">
        <ele>705.481995</ele>
        <time>2014-08-17T10:42:00.000Z</time>
      </trkpt>
      <trkpt lat="43.0638470" lon="-1.7214950">
        <ele>704.633972</ele>
        <time>2014-08-17T10:42:01.000Z</time>
      </trkpt>
      <trkpt lat="43.0639400" lon="-1.7214250">
        <ele>703.882996</ele>
        <time>2014-08-17T10:42:02.000Z</time>
      </trkpt>
      <trkpt lat="43.0640180" lon="-1.7213540">
        <ele>702.835022</ele>
        <time>2014-08-17T10:42:03.000Z</time>
      </trkpt>
      <trkpt lat="43.0640980" lon="-1.7212820">
        <ele>702.087952</ele>
        <time>2014-08-17T10:42:04.000Z</time>
      </trkpt>
      <trkpt lat="43.0641760" lon="-1.7212090">
        <ele>701.071045</ele>
        <time>2014-08-17T10:42:05.000Z</time>
      </trkpt>
      <trkpt lat="43.0642600" lon="-1.7211360">
        <ele>700.640991</ele>
        <time>2014-08-17T10:42:06.000Z</time>
      </trkpt>
      <trkpt lat="43.0643440" lon="-1.7210640">
        <ele>700.214966</ele>
        <time>2014-08-17T10:42:07.000Z</time>
      </trkpt>
      <trkpt lat="43.0644200" lon="-1.7209910">
        <ele>699.606995</ele>
        <time>2014-08-17T10:42:08.000Z</time>
      </trkpt>
      <trkpt lat="43.0644940" lon="-1.7209130">
        <ele>699.273987</ele>
        <time>2014-08-17T10:42:09.000Z</time>
      </trkpt>
      <trkpt lat="43.0645580" lon="-1.7208300">
        <ele>698.041992</ele>
        <time>2014-08-17T10:42:10.000Z</time>
      </trkpt>
      <trkpt lat="43.0646140" lon="-1.7207620">
        <ele>697.695007</ele>
        <time>2014-08-17T10:42:11.000Z</time>
      </trkpt>
      <trkpt lat="43.0646250" lon="-1.7207140">
        <ele>697.017029</ele>
        <time>2014-08-17T10:42:12.000Z</time>
      </trkpt>
      <trkpt lat="43.0646510" lon="-1.7206770">
        <ele>696.455994</ele>
        <time>2014-08-17T10:42:13.000Z</time>
      </trkpt>
      <trkpt lat="43.0646610" lon="-1.7206550">
        <ele>696.878052</ele>
        <time>2014-08-17T10:42:14.000Z</time>
      </trkpt>
      <trkpt lat="43.0646870" lon="-1.7206350">
        <ele>697.471008</ele>
        <time>2014-08-17T10:42:15.000Z</time>
      </trkpt>
      <trkpt lat="43.0647090" lon="-1.7206190">
        <ele>697.822998</ele>
        <time>2014-08-17T10:42:16.000Z</time>
      </trkpt>
      <trkpt lat="43.0647640" lon="-1.7206020">
        <ele>698.283020</ele>
        <time>2014-08-17T10:42:17.000Z</time>
      </trkpt>
      <trkpt lat="43.0648300" lon="-1.7205960">
        <ele>698.610962</ele>
        <time>2014-08-17T10:42:18.000Z</time>
      </trkpt>
      <trkpt lat="43.0648930" lon="-1.7205980">
        <ele>698.607056</ele>
        <time>2014-08-17T10:42:19.000Z</time>
      </trkpt>
      <trkpt lat="43.0648600" lon="-1.7206290">
        <ele>698.699036</ele>
        <time>2014-08-17T10:42:21.000Z</time>
      </trkpt>
      <trkpt lat="43.0648940" lon="-1.7206090">
        <ele>698.666992</ele>
        <time>2014-08-17T10:42:25.000Z</time>
      </trkpt>
      <trkpt lat="43.0650460" lon="-1.7205090">
        <ele>698.619995</ele>
        <time>2014-08-17T10:42:30.000Z</time>
      </trkpt>
      <trkpt lat="43.0650460" lon="-1.7205070">
        <ele>699.221985</ele>
        <time>2014-08-17T10:42:31.000Z</time>
      </trkpt>
      <trkpt lat="43.0651020" lon="-1.7204680">
        <ele>700.010986</ele>
        <time>2014-08-17T10:42:34.000Z</time>
      </trkpt>
      <trkpt lat="43.0651260" lon="-1.7204540">
        <ele>701.623047</ele>
        <time>2014-08-17T10:42:35.000Z</time>
      </trkpt>
      <trkpt lat="43.0651470" lon="-1.7204470">
        <ele>702.246033</ele>
        <time>2014-08-17T10:42:36.000Z</time>
      </trkpt>
      <trkpt lat="43.0651670" lon="-1.7204390">
        <ele>702.237976</ele>
        <time>2014-08-17T10:42:37.000Z</time>
      </trkpt>
      <trkpt lat="43.0652630" lon="-1.7203820">
        <ele>702.270020</ele>
        <time>2014-08-17T10:42:41.000Z</time>
      </trkpt>
      <trkpt lat="43.0652900" lon="-1.7203580">
        <ele>702.216980</ele>
        <time>2014-08-17T10:42:42.000Z</time>
      </trkpt>
      <trkpt lat="43.0653750" lon="-1.7203150">
        <ele>702.207031</ele>
        <time>2014-08-17T10:42:47.000Z</time>
      </trkpt>
      <trkpt lat="43.0654120" lon="-1.7203020">
        <ele>702.250000</ele>
        <time>2014-08-17T10:42:48.000Z</time>
      </trkpt>
      <trkpt lat="43.0654790" lon="-1.7202870">
        <ele>702.268005</ele>
        <time>2014-08-17T10:42:50.000Z</time>
      </trkpt>
      <trkpt lat="43.0654850" lon="-1.7202790">
        <ele>702.231018</ele>
        <time>2014-08-17T10:42:53.000Z</time>
      </trkpt>
      <trkpt lat="43.0655130" lon="-1.7202660">
        <ele>702.253052</ele>
        <time>2014-08-17T10:42:54.000Z</time>
      </trkpt>
      <trkpt lat="43.0655520" lon="-1.7202460">
        <ele>702.242004</ele>
        <time>2014-08-17T10:42:57.000Z</time>
      </trkpt>
      <trkpt lat="43.0655800" lon="-1.7202240">
        <ele>702.244019</ele>
        <time>2014-08-17T10:43:00.000Z</time>
      </trkpt>
      <trkpt lat="43.0655940" lon="-1.7202140">
        <ele>702.237000</ele>
        <time>2014-08-17T10:43:01.000Z</time>
      </trkpt>
      <trkpt lat="43.0656640" lon="-1.7201440">
        <ele>702.262024</ele>
        <time>2014-08-17T10:43:05.000Z</time>
      </trkpt>
      <trkpt lat="43.0656880" lon="-1.7201330">
        <ele>701.883057</ele>
        <time>2014-08-17T10:43:06.000Z</time>
      </trkpt>
      <trkpt lat="43.0657620" lon="-1.7200930">
        <ele>701.411011</ele>
        <time>2014-08-17T10:43:08.000Z</time>
      </trkpt>
      <trkpt lat="43.0658080" lon="-1.7200850">
        <ele>701.007019</ele>
        <time>2014-08-17T10:43:09.000Z</time>
      </trkpt>
      <trkpt lat="43.0658490" lon="-1.7200830">
        <ele>700.663025</ele>
        <time>2014-08-17T10:43:10.000Z</time>
      </trkpt>
      <trkpt lat="43.0658850" lon="-1.7200940">
        <ele>700.261047</ele>
        <time>2014-08-17T10:43:11.000Z</time>
      </trkpt>
      <trkpt lat="43.0659230" lon="-1.7201140">
        <ele>700.253967</ele>
        <time>2014-08-17T10:43:12.000Z</time>
      </trkpt>
      <trkpt lat="43.0659840" lon="-1.7202020">
        <ele>700.296021</ele>
        <time>2014-08-17T10:43:14.000Z</time>
      </trkpt>
      <trkpt lat="43.0660710" lon="-1.7203090">
        <ele>699.855042</ele>
        <time>2014-08-17T10:43:16.000Z</time>
      </trkpt>
      <trkpt lat="43.0661040" lon="-1.7203550">
        <ele>699.476990</ele>
        <time>2014-08-17T10:43:17.000Z</time>
      </trkpt>
      <trkpt lat="43.0661310" lon="-1.7203980">
        <ele>699.089966</ele>
        <time>2014-08-17T10:43:18.000Z</time>
      </trkpt>
      <trkpt lat="43.0661620" lon="-1.7204390">
        <ele>698.463989</ele>
        <time>2014-08-17T10:43:19.000Z</time>
      </trkpt>
      <trkpt lat="43.0662020" lon="-1.7204880">
        <ele>698.005981</ele>
        <time>2014-08-17T10:43:20.000Z</time>
      </trkpt>
      <trkpt lat="43.0662020" lon="-1.7205350">
        <ele>698.016052</ele>
        <time>2014-08-17T10:43:21.000Z</time>
      </trkpt>
      <trkpt lat="43.0662420" lon="-1.7205880">
        <ele>698.007019</ele>
        <time>2014-08-17T10:43:23.000Z</time>
      </trkpt>
      <trkpt lat="43.0662580" lon="-1.7206060">
        <ele>698.092957</ele>
        <time>2014-08-17T10:43:24.000Z</time>
      </trkpt>
      <trkpt lat="43.0663060" lon="-1.7206450">
        <ele>698.051025</ele>
        <time>2014-08-17T10:43:27.000Z</time>
      </trkpt>
      <trkpt lat="43.0663350" lon="-1.7206380">
        <ele>698.044006</ele>
        <time>2014-08-17T10:43:29.000Z</time>
      </trkpt>
      <trkpt lat="43.0664050" lon="-1.7205750">
        <ele>698.026001</ele>
        <time>2014-08-17T10:43:35.000Z</time>
      </trkpt>
      <trkpt lat="43.0664150" lon="-1.7205600">
        <ele>698.035034</ele>
        <time>2014-08-17T10:43:36.000Z</time>
      </trkpt>
      <trkpt lat="43.0664230" lon="-1.7205430">
        <ele>698.096985</ele>
        <time>2014-08-17T10:43:37.000Z</time>
      </trkpt>
      <trkpt lat="43.0664470" lon="-1.7205160">
        <ele>698.010010</ele>
        <time>2014-08-17T10:43:39.000Z</time>
      </trkpt>
      <trkpt lat="43.0664950" lon="-1.7204960">
        <ele>698.434998</ele>
        <time>2014-08-17T10:43:41.000Z</time>
      </trkpt>
      <trkpt lat="43.0665240" lon="-1.7204760">
        <ele>698.885986</ele>
        <time>2014-08-17T10:43:42.000Z</time>
      </trkpt>
      <trkpt lat="43.0665390" lon="-1.7204630">
        <ele>699.214050</ele>
        <time>2014-08-17T10:43:43.000Z</time>
      </trkpt>
      <trkpt lat="43.0665630" lon="-1.7204520">
        <ele>699.606995</ele>
        <time>2014-08-17T10:43:44.000Z</time>
      </trkpt>
      <trkpt lat="43.0665860" lon="-1.7204430">
        <ele>700.059937</ele>
        <time>2014-08-17T10:43:45.000Z</time>
      </trkpt>
      <trkpt lat="43.0666090" lon="-1.7204260">
        <ele>700.058044</ele>
        <time>2014-08-17T10:43:46.000Z</time>
      </trkpt>
      <trkpt lat="43.0667170" lon="-1.7203780">
        <ele>700.051025</ele>
        <time>2014-08-17T10:43:50.000Z</time>
      </trkpt>
      <trkpt lat="43.0667760" lon="-1.7203540">
        <ele>700.052979</ele>
        <time>2014-08-17T10:43:53.000Z</time>
      </trkpt>
      <trkpt lat="43.0668470" lon="-1.7202970">
        <ele>700.061951</ele>
        <time>2014-08-17T10:43:56.000Z</time>
      </trkpt>
      <trkpt lat="43.0668800" lon="-1.7202720">
        <ele>700.013977</ele>
        <time>2014-08-17T10:43:57.000Z</time>
      </trkpt>
      <trkpt lat="43.0670650" lon="-1.7200960">
        <ele>700.046997</ele>
        <time>2014-08-17T10:44:03.000Z</time>
      </trkpt>
      <trkpt lat="43.0672440" lon="-1.7199270">
        <ele>700.081970</ele>
        <time>2014-08-17T10:44:10.000Z</time>
      </trkpt>
      <trkpt lat="43.0673030" lon="-1.7198540">
        <ele>700.043030</ele>
        <time>2014-08-17T10:44:13.000Z</time>
      </trkpt>
      <trkpt lat="43.0674630" lon="-1.7197240">
        <ele>699.617004</ele>
        <time>2014-08-17T10:44:17.000Z</time>
      </trkpt>
      <trkpt lat="43.0675590" lon="-1.7196400">
        <ele>699.207031</ele>
        <time>2014-08-17T10:44:20.000Z</time>
      </trkpt>
      <trkpt lat="43.0675770" lon="-1.7196050">
        <ele>698.825012</ele>
        <time>2014-08-17T10:44:21.000Z</time>
      </trkpt>
      <trkpt lat="43.0675980" lon="-1.7195680">
        <ele>698.413025</ele>
        <time>2014-08-17T10:44:22.000Z</time>
      </trkpt>
      <trkpt lat="43.0676190" lon="-1.7195250">
        <ele>698.085999</ele>
        <time>2014-08-17T10:44:23.000Z</time>
      </trkpt>
      <trkpt lat="43.0676670" lon="-1.7194740">
        <ele>698.028015</ele>
        <time>2014-08-17T10:44:24.000Z</time>
      </trkpt>
      <trkpt lat="43.0677990" lon="-1.7193610">
        <ele>698.076965</ele>
        <time>2014-08-17T10:44:26.000Z</time>
      </trkpt>
      <trkpt lat="43.0679300" lon="-1.7192530">
        <ele>698.069031</ele>
        <time>2014-08-17T10:44:28.000Z</time>
      </trkpt>
      <trkpt lat="43.0682720" lon="-1.7188780">
        <ele>698.081970</ele>
        <time>2014-08-17T10:44:34.000Z</time>
      </trkpt>
      <trkpt lat="43.0683040" lon="-1.7188240">
        <ele>698.013000</ele>
        <time>2014-08-17T10:44:35.000Z</time>
      </trkpt>
      <trkpt lat="43.0685430" lon="-1.7184360">
        <ele>698.042969</ele>
        <time>2014-08-17T10:44:42.000Z</time>
      </trkpt>
      <trkpt lat="43.0686210" lon="-1.7183550">
        <ele>698.007019</ele>
        <time>2014-08-17T10:44:44.000Z</time>
      </trkpt>
      <trkpt lat="43.0689380" lon="-1.7181060">
        <ele>697.606995</ele>
        <time>2014-08-17T10:44:51.000Z</time>
      </trkpt>
      <trkpt lat="43.0690720" lon="-1.7180240">
        <ele>697.247986</ele>
        <time>2014-08-17T10:44:53.000Z</time>
      </trkpt>
      <trkpt lat="43.0691370" lon="-1.7179850">
        <ele>696.846008</ele>
        <time>2014-08-17T10:44:54.000Z</time>
      </trkpt>
      <trkpt lat="43.0691990" lon="-1.7179520">
        <ele>696.489014</ele>
        <time>2014-08-17T10:44:55.000Z</time>
      </trkpt>
      <trkpt lat="43.0692560" lon="-1.7179180">
        <ele>696.091003</ele>
        <time>2014-08-17T10:44:56.000Z</time>
      </trkpt>
      <trkpt lat="43.0693100" lon="-1.7178820">
        <ele>696.020020</ele>
        <time>2014-08-17T10:44:57.000Z</time>
      </trkpt>
      <trkpt lat="43.0694520" lon="-1.7177930">
        <ele>696.071960</ele>
        <time>2014-08-17T10:45:00.000Z</time>
      </trkpt>
      <trkpt lat="43.0696140" lon="-1.7177120">
        <ele>696.075012</ele>
        <time>2014-08-17T10:45:03.000Z</time>
      </trkpt>
      <trkpt lat="43.0696640" lon="-1.7176800">
        <ele>696.011047</ele>
        <time>2014-08-17T10:45:04.000Z</time>
      </trkpt>
      <trkpt lat="43.0697900" lon="-1.7176110">
        <ele>696.020996</ele>
        <time>2014-08-17T10:45:06.000Z</time>
      </trkpt>
      <trkpt lat="43.0699190" lon="-1.7175200">
        <ele>696.002991</ele>
        <time>2014-08-17T10:45:08.000Z</time>
      </trkpt>
      <trkpt lat="43.0700840" lon="-1.7173810">
        <ele>696.007019</ele>
        <time>2014-08-17T10:45:11.000Z</time>
      </trkpt>
      <trkpt lat="43.0701710" lon="-1.7172870">
        <ele>696.098022</ele>
        <time>2014-08-17T10:45:13.000Z</time>
      </trkpt>
      <trkpt lat="43.0703370" lon="-1.7171360">
        <ele>696.055969</ele>
        <time>2014-08-17T10:45:17.000Z</time>
      </trkpt>
      <trkpt lat="43.0704460" lon="-1.7170500">
        <ele>696.059021</ele>
        <time>2014-08-17T10:45:20.000Z</time>
      </trkpt>
      <trkpt lat="43.0705690" lon="-1.7169500">
        <ele>697.460999</ele>
        <time>2014-08-17T10:45:24.000Z</time>
      </trkpt>
      <trkpt lat="43.0707810" lon="-1.7169390">
        <ele>695.439941</ele>
        <time>2014-08-17T10:48:18.000Z</time>
      </trkpt>
      <trkpt lat="43.0707780" lon="-1.7168940">
        <ele>695.432007</ele>
        <time>2014-08-17T10:50:37.000Z</time>
      </trkpt>
      <trkpt lat="43.0707850" lon="-1.7168680">
        <ele>695.445007</ele>
        <time>2014-08-17T10:50:38.000Z</time>
      </trkpt>
      <trkpt lat="43.0708260" lon="-1.7167130">
        <ele>695.475037</ele>
        <time>2014-08-17T10:50:43.000Z</time>
      </trkpt>
      <trkpt lat="43.0708390" lon="-1.7166550">
        <ele>695.427979</ele>
        <time>2014-08-17T10:50:45.000Z</time>
      </trkpt>
      <trkpt lat="43.0709700" lon="-1.7164610">
        <ele>695.420044</ele>
        <time>2014-08-17T10:50:52.000Z</time>
      </trkpt>
      <trkpt lat="43.0711080" lon="-1.7162970">
        <ele>695.406982</ele>
        <time>2014-08-17T10:50:59.000Z</time>
      </trkpt>
      <trkpt lat="43.0711270" lon="-1.7162620">
        <ele>695.454041</ele>
        <time>2014-08-17T10:51:00.000Z</time>
      </trkpt>
      <trkpt lat="43.0711860" lon="-1.7161470">
        <ele>695.461975</ele>
        <time>2014-08-17T10:51:03.000Z</time>
      </trkpt>
      <trkpt lat="43.0712830" lon="-1.7159940">
        <ele>695.445007</ele>
        <time>2014-08-17T10:51:08.000Z</time>
      </trkpt>
      <trkpt lat="43.0713100" lon="-1.7159620">
        <ele>695.437012</ele>
        <time>2014-08-17T10:51:10.000Z</time>
      </trkpt>
      <trkpt lat="43.0713530" lon="-1.7159360">
        <ele>695.496033</ele>
        <time>2014-08-17T10:51:12.000Z</time>
      </trkpt>
      <trkpt lat="43.0713790" lon="-1.7159110">
        <ele>695.447998</ele>
        <time>2014-08-17T10:51:13.000Z</time>
      </trkpt>
      <trkpt lat="43.0714310" lon="-1.7158670">
        <ele>695.441040</ele>
        <time>2014-08-17T10:51:15.000Z</time>
      </trkpt>
      <trkpt lat="43.0714560" lon="-1.7158380">
        <ele>694.867004</ele>
        <time>2014-08-17T10:51:16.000Z</time>
      </trkpt>
      <trkpt lat="43.0714780" lon="-1.7158050">
        <ele>694.481018</ele>
        <time>2014-08-17T10:51:17.000Z</time>
      </trkpt>
      <trkpt lat="43.0715080" lon="-1.7157740">
        <ele>694.019043</ele>
        <time>2014-08-17T10:51:18.000Z</time>
      </trkpt>
      <trkpt lat="43.0715380" lon="-1.7157360">
        <ele>693.606995</ele>
        <time>2014-08-17T10:51:19.000Z</time>
      </trkpt>
      <trkpt lat="43.0715640" lon="-1.7156980">
        <ele>693.273010</ele>
        <time>2014-08-17T10:51:20.000Z</time>
      </trkpt>
      <trkpt lat="43.0715880" lon="-1.7156600">
        <ele>693.281006</ele>
        <time>2014-08-17T10:51:21.000Z</time>
      </trkpt>
      <trkpt lat="43.0716530" lon="-1.7155380">
        <ele>693.264038</ele>
        <time>2014-08-17T10:51:24.000Z</time>
      </trkpt>
      <trkpt lat="43.0716670" lon="-1.7155020">
        <ele>693.216003</ele>
        <time>2014-08-17T10:51:25.000Z</time>
      </trkpt>
      <trkpt lat="43.0717050" lon="-1.7154500">
        <ele>693.265015</ele>
        <time>2014-08-17T10:51:28.000Z</time>
      </trkpt>
      <trkpt lat="43.0717050" lon="-1.7154510">
        <ele>693.267029</ele>
        <time>2014-08-17T10:51:29.000Z</time>
      </trkpt>
      <trkpt lat="43.0717080" lon="-1.7154530">
        <ele>693.219971</ele>
        <time>2014-08-17T10:51:30.000Z</time>
      </trkpt>
      <trkpt lat="43.0716470" lon="-1.7155280">
        <ele>693.228027</ele>
        <time>2014-08-17T10:54:07.000Z</time>
      </trkpt>
      <trkpt lat="43.0716290" lon="-1.7155950">
        <ele>693.289001</ele>
        <time>2014-08-17T10:54:09.000Z</time>
      </trkpt>
      <trkpt lat="43.0716140" lon="-1.7156480">
        <ele>693.216980</ele>
        <time>2014-08-17T10:54:11.000Z</time>
      </trkpt>
      <trkpt lat="43.0715890" lon="-1.7157260">
        <ele>693.207031</ele>
        <time>2014-08-17T10:54:15.000Z</time>
      </trkpt>
      <trkpt lat="43.0715200" lon="-1.7158620">
        <ele>693.229004</ele>
        <time>2014-08-17T10:54:20.000Z</time>
      </trkpt>
      <trkpt lat="43.0715020" lon="-1.7158890">
        <ele>693.267029</ele>
        <time>2014-08-17T10:54:21.000Z</time>
      </trkpt>
      <trkpt lat="43.0713780" lon="-1.7159350">
        <ele>693.239990</ele>
        <time>2014-08-17T10:54:27.000Z</time>
      </trkpt>
      <trkpt lat="43.0713690" lon="-1.7159600">
        <ele>693.262024</ele>
        <time>2014-08-17T10:54:28.000Z</time>
      </trkpt>
      <trkpt lat="43.0713590" lon="-1.7160130">
        <ele>693.281006</ele>
        <time>2014-08-17T10:54:31.000Z</time>
      </trkpt>
      <trkpt lat="43.0713500" lon="-1.7160490">
        <ele>693.283020</ele>
        <time>2014-08-17T10:54:34.000Z</time>
      </trkpt>
      <trkpt lat="43.0713030" lon="-1.7160930">
        <ele>693.255981</ele>
        <time>2014-08-17T10:54:37.000Z</time>
      </trkpt>
      <trkpt lat="43.0712340" lon="-1.7161010">
        <ele>693.264038</ele>
        <time>2014-08-17T10:54:40.000Z</time>
      </trkpt>
      <trkpt lat="43.0712150" lon="-1.7160930">
        <ele>693.205994</ele>
        <time>2014-08-17T10:54:41.000Z</time>
      </trkpt>
      <trkpt lat="43.0712020" lon="-1.7160810">
        <ele>693.216003</ele>
        <time>2014-08-17T10:54:42.000Z</time>
      </trkpt>
      <trkpt lat="43.0711640" lon="-1.7160330">
        <ele>693.207031</ele>
        <time>2014-08-17T10:54:44.000Z</time>
      </trkpt>
      <trkpt lat="43.0711090" lon="-1.7159790">
        <ele>692.822998</ele>
        <time>2014-08-17T10:54:47.000Z</time>
      </trkpt>
      <trkpt lat="43.0710940" lon="-1.7159110">
        <ele>692.491028</ele>
        <time>2014-08-17T10:54:50.000Z</time>
      </trkpt>
      <trkpt lat="43.0711010" lon="-1.7158760">
        <ele>692.023987</ele>
        <time>2014-08-17T10:54:51.000Z</time>
      </trkpt>
      <trkpt lat="43.0711080" lon="-1.7158420">
        <ele>691.666016</ele>
        <time>2014-08-17T10:54:52.000Z</time>
      </trkpt>
      <trkpt lat="43.0711050" lon="-1.7158130">
        <ele>691.234985</ele>
        <time>2014-08-17T10:54:53.000Z</time>
      </trkpt>
      <trkpt lat="43.0710980" lon="-1.7157810">
        <ele>691.296997</ele>
        <time>2014-08-17T10:54:54.000Z</time>
      </trkpt>
      <trkpt lat="43.0710840" lon="-1.7157630">
        <ele>690.819946</ele>
        <time>2014-08-17T10:54:55.000Z</time>
      </trkpt>
      <trkpt lat="43.0710710" lon="-1.7157360">
        <ele>690.242004</ele>
        <time>2014-08-17T10:54:56.000Z</time>
      </trkpt>
      <trkpt lat="43.0710490" lon="-1.7156920">
        <ele>689.822021</ele>
        <time>2014-08-17T10:54:57.000Z</time>
      </trkpt>
      <trkpt lat="43.0710270" lon="-1.7156360">
        <ele>689.414001</ele>
        <time>2014-08-17T10:54:58.000Z</time>
      </trkpt>
      <trkpt lat="43.0710040" lon="-1.7155760">
        <ele>688.807007</ele>
        <time>2014-08-17T10:54:59.000Z</time>
      </trkpt>
      <trkpt lat="43.0709820" lon="-1.7155150">
        <ele>688.270996</ele>
        <time>2014-08-17T10:55:00.000Z</time>
      </trkpt>
      <trkpt lat="43.0709610" lon="-1.7154580">
        <ele>687.869019</ele>
        <time>2014-08-17T10:55:01.000Z</time>
      </trkpt>
      <trkpt lat="43.0709420" lon="-1.7153990">
        <ele>687.221985</ele>
        <time>2014-08-17T10:55:02.000Z</time>
      </trkpt>
      <trkpt lat="43.0709240" lon="-1.7153400">
        <ele>686.643982</ele>
        <time>2014-08-17T10:55:03.000Z</time>
      </trkpt>
      <trkpt lat="43.0709130" lon="-1.7152930">
        <ele>686.292969</ele>
        <time>2014-08-17T10:55:04.000Z</time>
      </trkpt>
      <trkpt lat="43.0708560" lon="-1.7151980">
        <ele>685.895020</ele>
        <time>2014-08-17T10:55:06.000Z</time>
      </trkpt>
      <trkpt lat="43.0708290" lon="-1.7151540">
        <ele>685.278015</ele>
        <time>2014-08-17T10:55:07.000Z</time>
      </trkpt>
      <trkpt lat="43.0708020" lon="-1.7151110">
        <ele>684.622986</ele>
        <time>2014-08-17T10:55:08.000Z</time>
      </trkpt>
      <trkpt lat="43.0707740" lon="-1.7150690">
        <ele>684.082947</ele>
        <time>2014-08-17T10:55:09.000Z</time>
      </trkpt>
      <trkpt lat="43.0707530" lon="-1.7150340">
        <ele>683.411011</ele>
        <time>2014-08-17T10:55:10.000Z</time>
      </trkpt>
      <trkpt lat="43.0707330" lon="-1.7149970">
        <ele>682.807007</ele>
        <time>2014-08-17T10:55:11.000Z</time>
      </trkpt>
      <trkpt lat="43.0707160" lon="-1.7149620">
        <ele>682.239014</ele>
        <time>2014-08-17T10:55:12.000Z</time>
      </trkpt>
      <trkpt lat="43.0707020" lon="-1.7149350">
        <ele>682.237000</ele>
        <time>2014-08-17T10:55:13.000Z</time>
      </trkpt>
      <trkpt lat="43.0707000" lon="-1.7148560">
        <ele>681.460022</ele>
        <time>2014-08-17T10:55:16.000Z</time>
      </trkpt>
      <trkpt lat="43.0707590" lon="-1.7147760">
        <ele>681.031982</ele>
        <time>2014-08-17T10:55:20.000Z</time>
      </trkpt>
      <trkpt lat="43.0707700" lon="-1.7147570">
        <ele>680.671021</ele>
        <time>2014-08-17T10:55:21.000Z</time>
      </trkpt>
      <trkpt lat="43.0707930" lon="-1.7147220">
        <ele>680.213013</ele>
        <time>2014-08-17T10:55:22.000Z</time>
      </trkpt>
      <trkpt lat="43.0708030" lon="-1.7146880">
        <ele>680.235962</ele>
        <time>2014-08-17T10:55:23.000Z</time>
      </trkpt>
      <trkpt lat="43.0708150" lon="-1.7146340">
        <ele>680.221985</ele>
        <time>2014-08-17T10:55:25.000Z</time>
      </trkpt>
      <trkpt lat="43.0708600" lon="-1.7144820">
        <ele>679.662048</ele>
        <time>2014-08-17T10:55:31.000Z</time>
      </trkpt>
      <trkpt lat="43.0708790" lon="-1.7144360">
        <ele>679.208008</ele>
        <time>2014-08-17T10:55:33.000Z</time>
      </trkpt>
      <trkpt lat="43.0708860" lon="-1.7144090">
        <ele>678.807007</ele>
        <time>2014-08-17T10:55:34.000Z</time>
      </trkpt>
      <trkpt lat="43.0708960" lon="-1.7143930">
        <ele>678.479004</ele>
        <time>2014-08-17T10:55:35.000Z</time>
      </trkpt>
      <trkpt lat="43.0709050" lon="-1.7143740">
        <ele>677.846985</ele>
        <time>2014-08-17T10:55:36.000Z</time>
      </trkpt>
      <trkpt lat="43.0709120" lon="-1.7143600">
        <ele>677.830017</ele>
        <time>2014-08-17T10:55:37.000Z</time>
      </trkpt>
      <trkpt lat="43.0709160" lon="-1.7143210">
        <ele>677.411987</ele>
        <time>2014-08-17T10:55:39.000Z</time>
      </trkpt>
      <trkpt lat="43.0709130" lon="-1.7143240">
        <ele>675.820984</ele>
        <time>2014-08-17T10:55:40.000Z</time>
      </trkpt>
      <trkpt lat="43.0708950" lon="-1.7142500">
        <ele>675.872986</ele>
        <time>2014-08-17T10:57:03.000Z</time>
      </trkpt>
      <trkpt lat="43.0708920" lon="-1.7142200">
        <ele>675.236023</ele>
        <time>2014-08-17T10:57:04.000Z</time>
      </trkpt>
      <trkpt lat="43.0708810" lon="-1.7140810">
        <ele>674.823975</ele>
        <time>2014-08-17T10:57:08.000Z</time>
      </trkpt>
      <trkpt lat="43.0708750" lon="-1.7140440">
        <ele>674.403992</ele>
        <time>2014-08-17T10:57:09.000Z</time>
      </trkpt>
      <trkpt lat="43.0708740" lon="-1.7140040">
        <ele>674.013977</ele>
        <time>2014-08-17T10:57:10.000Z</time>
      </trkpt>
      <trkpt lat="43.0708700" lon="-1.7139670">
        <ele>673.406982</ele>
        <time>2014-08-17T10:57:11.000Z</time>
      </trkpt>
      <trkpt lat="43.0708720" lon="-1.7139400">
        <ele>673.478943</ele>
        <time>2014-08-17T10:57:12.000Z</time>
      </trkpt>
      <trkpt lat="43.0708610" lon="-1.7138670">
        <ele>673.416992</ele>
        <time>2014-08-17T10:57:15.000Z</time>
      </trkpt>
      <trkpt lat="43.0707930" lon="-1.7137830">
        <ele>673.420044</ele>
        <time>2014-08-17T10:57:20.000Z</time>
      </trkpt>
      <trkpt lat="43.0707750" lon="-1.7137720">
        <ele>673.492004</ele>
        <time>2014-08-17T10:57:21.000Z</time>
      </trkpt>
      <trkpt lat="43.0707480" lon="-1.7137500">
        <ele>673.471008</ele>
        <time>2014-08-17T10:57:23.000Z</time>
      </trkpt>
      <trkpt lat="43.0707180" lon="-1.7137140">
        <ele>673.423035</ele>
        <time>2014-08-17T10:57:25.000Z</time>
      </trkpt>
      <trkpt lat="43.0706950" lon="-1.7136910">
        <ele>673.416016</ele>
        <time>2014-08-17T10:57:27.000Z</time>
      </trkpt>
      <trkpt lat="43.0706770" lon="-1.7136690">
        <ele>673.478027</ele>
        <time>2014-08-17T10:57:29.000Z</time>
      </trkpt>
      <trkpt lat="43.0706660" lon="-1.7136710">
        <ele>673.432983</ele>
        <time>2014-08-17T10:57:30.000Z</time>
      </trkpt>
      <trkpt lat="43.0706430" lon="-1.7136740">
        <ele>673.425964</ele>
        <time>2014-08-17T10:57:32.000Z</time>
      </trkpt>
      <trkpt lat="43.0706310" lon="-1.7136700">
        <ele>673.406982</ele>
        <time>2014-08-17T10:57:35.000Z</time>
      </trkpt>
      <trkpt lat="43.0706110" lon="-1.7136870">
        <ele>673.434021</ele>
        <time>2014-08-17T10:58:02.000Z</time>
      </trkpt>
      <trkpt lat="43.0706000" lon="-1.7137070">
        <ele>673.421936</ele>
        <time>2014-08-17T10:58:03.000Z</time>
      </trkpt>
      <trkpt lat="43.0705750" lon="-1.7137660">
        <ele>673.494995</ele>
        <time>2014-08-17T10:58:06.000Z</time>
      </trkpt>
      <trkpt lat="43.0705740" lon="-1.7137820">
        <ele>673.466980</ele>
        <time>2014-08-17T10:58:07.000Z</time>
      </trkpt>
      <trkpt lat="43.0705740" lon="-1.7138050">
        <ele>673.486023</ele>
        <time>2014-08-17T10:58:08.000Z</time>
      </trkpt>
      <trkpt lat="43.0705900" lon="-1.7138420">
        <ele>673.427979</ele>
        <time>2014-08-17T10:58:10.000Z</time>
      </trkpt>
      <trkpt lat="43.0706250" lon="-1.7139090">
        <ele>673.411011</ele>
        <time>2014-08-17T10:58:13.000Z</time>
      </trkpt>
      <trkpt lat="43.0707010" lon="-1.7140330">
        <ele>673.497986</ele>
        <time>2014-08-17T10:58:19.000Z</time>
      </trkpt>
      <trkpt lat="43.0707020" lon="-1.7140710">
        <ele>673.414978</ele>
        <time>2014-08-17T10:58:20.000Z</time>
      </trkpt>
      <trkpt lat="43.0707110" lon="-1.7141590">
        <ele>673.425964</ele>
        <time>2014-08-17T10:58:23.000Z</time>
      </trkpt>
      <trkpt lat="43.0707060" lon="-1.7142530">
        <ele>673.406982</ele>
        <time>2014-08-17T10:58:26.000Z</time>
      </trkpt>
      <trkpt lat="43.0706910" lon="-1.7142790">
        <ele>673.436035</ele>
        <time>2014-08-17T10:58:27.000Z</time>
      </trkpt>
      <trkpt lat="43.0706800" lon="-1.7142990">
        <ele>673.473999</ele>
        <time>2014-08-17T10:58:28.000Z</time>
      </trkpt>
      <trkpt lat="43.0706740" lon="-1.7143120">
        <ele>673.477051</ele>
        <time>2014-08-17T10:58:30.000Z</time>
      </trkpt>
      <trkpt lat="43.0707040" lon="-1.7143370">
        <ele>673.468994</ele>
        <time>2014-08-17T10:58:31.000Z</time>
      </trkpt>
      <trkpt lat="43.0707260" lon="-1.7143520">
        <ele>674.057983</ele>
        <time>2014-08-17T10:58:32.000Z</time>
      </trkpt>
      <trkpt lat="43.0707960" lon="-1.7144910">
        <ele>674.450012</ele>
        <time>2014-08-17T10:58:37.000Z</time>
      </trkpt>
      <trkpt lat="43.0708020" lon="-1.7145380">
        <ele>674.842957</ele>
        <time>2014-08-17T10:58:38.000Z</time>
      </trkpt>
      <trkpt lat="43.0708050" lon="-1.7145750">
        <ele>675.248962</ele>
        <time>2014-08-17T10:58:39.000Z</time>
      </trkpt>
      <trkpt lat="43.0708050" lon="-1.7146050">
        <ele>675.802002</ele>
        <time>2014-08-17T10:58:40.000Z</time>
      </trkpt>
      <trkpt lat="43.0708070" lon="-1.7146340">
        <ele>675.821960</ele>
        <time>2014-08-17T10:58:41.000Z</time>
      </trkpt>
      <trkpt lat="43.0708030" lon="-1.7147010">
        <ele>676.206970</ele>
        <time>2014-08-17T10:58:43.000Z</time>
      </trkpt>
      <trkpt lat="43.0708040" lon="-1.7147340">
        <ele>676.681030</ele>
        <time>2014-08-17T10:58:44.000Z</time>
      </trkpt>
      <trkpt lat="43.0708020" lon="-1.7147630">
        <ele>677.068970</ele>
        <time>2014-08-17T10:58:45.000Z</time>
      </trkpt>
      <trkpt lat="43.0708030" lon="-1.7147860">
        <ele>677.671997</ele>
        <time>2014-08-17T10:58:46.000Z</time>
      </trkpt>
      <trkpt lat="43.0708000" lon="-1.7148120">
        <ele>678.054016</ele>
        <time>2014-08-17T10:58:47.000Z</time>
      </trkpt>
      <trkpt lat="43.0707880" lon="-1.7148320">
        <ele>678.093018</ele>
        <time>2014-08-17T10:58:48.000Z</time>
      </trkpt>
      <trkpt lat="43.0707820" lon="-1.7148520">
        <ele>678.025024</ele>
        <time>2014-08-17T10:58:49.000Z</time>
      </trkpt>
      <trkpt lat="43.0707530" lon="-1.7149520">
        <ele>678.027954</ele>
        <time>2014-08-17T10:58:54.000Z</time>
      </trkpt>
      <trkpt lat="43.0707610" lon="-1.7149770">
        <ele>678.022034</ele>
        <time>2014-08-17T10:58:55.000Z</time>
      </trkpt>
      <trkpt lat="43.0707860" lon="-1.7150750">
        <ele>678.462036</ele>
        <time>2014-08-17T10:59:00.000Z</time>
      </trkpt>
      <trkpt lat="43.0708370" lon="-1.7151560">
        <ele>678.807983</ele>
        <time>2014-08-17T10:59:04.000Z</time>
      </trkpt>
      <trkpt lat="43.0708550" lon="-1.7151770">
        <ele>679.206970</ele>
        <time>2014-08-17T10:59:05.000Z</time>
      </trkpt>
      <trkpt lat="43.0708670" lon="-1.7151990">
        <ele>679.838989</ele>
        <time>2014-08-17T10:59:06.000Z</time>
      </trkpt>
      <trkpt lat="43.0708800" lon="-1.7152110">
        <ele>680.226990</ele>
        <time>2014-08-17T10:59:07.000Z</time>
      </trkpt>
      <trkpt lat="43.0708900" lon="-1.7152300">
        <ele>680.219971</ele>
        <time>2014-08-17T10:59:08.000Z</time>
      </trkpt>
      <trkpt lat="43.0708960" lon="-1.7152760">
        <ele>680.252014</ele>
        <time>2014-08-17T10:59:10.000Z</time>
      </trkpt>
      <trkpt lat="43.0709200" lon="-1.7153570">
        <ele>680.691040</ele>
        <time>2014-08-17T10:59:15.000Z</time>
      </trkpt>
      <trkpt lat="43.0709720" lon="-1.7154570">
        <ele>681.093018</ele>
        <time>2014-08-17T10:59:20.000Z</time>
      </trkpt>
      <trkpt lat="43.0709820" lon="-1.7154780">
        <ele>681.455994</ele>
        <time>2014-08-17T10:59:21.000Z</time>
      </trkpt>
      <trkpt lat="43.0709890" lon="-1.7155010">
        <ele>681.843994</ele>
        <time>2014-08-17T10:59:22.000Z</time>
      </trkpt>
      <trkpt lat="43.0709950" lon="-1.7155190">
        <ele>682.204956</ele>
        <time>2014-08-17T10:59:23.000Z</time>
      </trkpt>
      <trkpt lat="43.0710010" lon="-1.7155340">
        <ele>682.215027</ele>
        <time>2014-08-17T10:59:24.000Z</time>
      </trkpt>
      <trkpt lat="43.0710440" lon="-1.7156240">
        <ele>682.206970</ele>
        <time>2014-08-17T10:59:29.000Z</time>
      </trkpt>
      <trkpt lat="43.0710510" lon="-1.7156460">
        <ele>682.690979</ele>
        <time>2014-08-17T10:59:30.000Z</time>
      </trkpt>
      <trkpt lat="43.0711000" lon="-1.7156980">
        <ele>683.229004</ele>
        <time>2014-08-17T10:59:34.000Z</time>
      </trkpt>
      <trkpt lat="43.0711120" lon="-1.7157150">
        <ele>683.682007</ele>
        <time>2014-08-17T10:59:35.000Z</time>
      </trkpt>
      <trkpt lat="43.0711170" lon="-1.7157320">
        <ele>684.093994</ele>
        <time>2014-08-17T10:59:36.000Z</time>
      </trkpt>
      <trkpt lat="43.0711240" lon="-1.7157470">
        <ele>684.413025</ele>
        <time>2014-08-17T10:59:37.000Z</time>
      </trkpt>
      <trkpt lat="43.0711290" lon="-1.7157670">
        <ele>684.474976</ele>
        <time>2014-08-17T10:59:38.000Z</time>
      </trkpt>
      <trkpt lat="43.0711440" lon="-1.7158240">
        <ele>685.058044</ele>
        <time>2014-08-17T10:59:41.000Z</time>
      </trkpt>
      <trkpt lat="43.0711590" lon="-1.7158980">
        <ele>685.484985</ele>
        <time>2014-08-17T10:59:44.000Z</time>
      </trkpt>
      <trkpt lat="43.0711600" lon="-1.7159190">
        <ele>685.888977</ele>
        <time>2014-08-17T10:59:45.000Z</time>
      </trkpt>
      <trkpt lat="43.0711610" lon="-1.7159380">
        <ele>686.217041</ele>
        <time>2014-08-17T10:59:46.000Z</time>
      </trkpt>
      <trkpt lat="43.0711600" lon="-1.7159540">
        <ele>686.606995</ele>
        <time>2014-08-17T10:59:47.000Z</time>
      </trkpt>
      <trkpt lat="43.0711630" lon="-1.7159760">
        <ele>687.695007</ele>
        <time>2014-08-17T10:59:48.000Z</time>
      </trkpt>
      <trkpt lat="43.0711690" lon="-1.7160610">
        <ele>688.062988</ele>
        <time>2014-08-17T10:59:52.000Z</time>
      </trkpt>
      <trkpt lat="43.0711660" lon="-1.7160750">
        <ele>688.856018</ele>
        <time>2014-08-17T10:59:53.000Z</time>
      </trkpt>
      <trkpt lat="43.0711640" lon="-1.7160920">
        <ele>688.898010</ele>
        <time>2014-08-17T10:59:55.000Z</time>
      </trkpt>
      <trkpt lat="43.0711630" lon="-1.7161030">
        <ele>688.836975</ele>
        <time>2014-08-17T10:59:56.000Z</time>
      </trkpt>
      <trkpt lat="43.0712420" lon="-1.7160840">
        <ele>688.838989</ele>
        <time>2014-08-17T11:00:01.000Z</time>
      </trkpt>
      <trkpt lat="43.0712640" lon="-1.7160760">
        <ele>688.891968</ele>
        <time>2014-08-17T11:00:02.000Z</time>
      </trkpt>
      <trkpt lat="43.0713280" lon="-1.7160480">
        <ele>688.879028</ele>
        <time>2014-08-17T11:00:05.000Z</time>
      </trkpt>
      <trkpt lat="43.0713420" lon="-1.7160440">
        <ele>688.804993</ele>
        <time>2014-08-17T11:00:06.000Z</time>
      </trkpt>
      <trkpt lat="43.0713580" lon="-1.7160430">
        <ele>688.825012</ele>
        <time>2014-08-17T11:00:07.000Z</time>
      </trkpt>
      <trkpt lat="43.0713730" lon="-1.7160360">
        <ele>688.807007</ele>
        <time>2014-08-17T11:00:08.000Z</time>
      </trkpt>
      <trkpt lat="43.0714020" lon="-1.7160250">
        <ele>688.843994</ele>
        <time>2014-08-17T11:00:10.000Z</time>
      </trkpt>
      <trkpt lat="43.0714330" lon="-1.7160040">
        <ele>688.891968</ele>
        <time>2014-08-17T11:00:13.000Z</time>
      </trkpt>
      <trkpt lat="43.0714390" lon="-1.7160090">
        <ele>691.065002</ele>
        <time>2014-08-17T11:00:14.000Z</time>
      </trkpt>
      <trkpt lat="43.0714580" lon="-1.7159080">
        <ele>691.046997</ele>
        <time>2014-08-17T11:02:45.000Z</time>
      </trkpt>
      <trkpt lat="43.0714730" lon="-1.7158850">
        <ele>691.045959</ele>
        <time>2014-08-17T11:02:46.000Z</time>
      </trkpt>
      <trkpt lat="43.0714920" lon="-1.7158560">
        <ele>691.067993</ele>
        <time>2014-08-17T11:02:47.000Z</time>
      </trkpt>
      <trkpt lat="43.0715320" lon="-1.7157940">
        <ele>691.051025</ele>
        <time>2014-08-17T11:02:49.000Z</time>
      </trkpt>
      <trkpt lat="43.0715510" lon="-1.7157710">
        <ele>691.044983</ele>
        <time>2014-08-17T11:02:50.000Z</time>
      </trkpt>
      <trkpt lat="43.0715660" lon="-1.7157550">
        <ele>691.046997</ele>
        <time>2014-08-17T11:02:51.000Z</time>
      </trkpt>
      <trkpt lat="43.0716080" lon="-1.7157160">
        <ele>691.010986</ele>
        <time>2014-08-17T11:02:55.000Z</time>
      </trkpt>
      <trkpt lat="43.0716920" lon="-1.7155850">
        <ele>691.006958</ele>
        <time>2014-08-17T11:03:01.000Z</time>
      </trkpt>
      <trkpt lat="43.0717370" lon="-1.7155390">
        <ele>691.080994</ele>
        <time>2014-08-17T11:03:03.000Z</time>
      </trkpt>
      <trkpt lat="43.0717870" lon="-1.7154990">
        <ele>691.059021</ele>
        <time>2014-08-17T11:03:06.000Z</time>
      </trkpt>
      <trkpt lat="43.0718070" lon="-1.7154920">
        <ele>691.022034</ele>
        <time>2014-08-17T11:03:08.000Z</time>
      </trkpt>
      <trkpt lat="43.0718670" lon="-1.7154500">
        <ele>690.493958</ele>
        <time>2014-08-17T11:03:12.000Z</time>
      </trkpt>
      <trkpt lat="43.0719100" lon="-1.7153980">
        <ele>690.063049</ele>
        <time>2014-08-17T11:03:14.000Z</time>
      </trkpt>
      <trkpt lat="43.0719330" lon="-1.7153690">
        <ele>689.644958</ele>
        <time>2014-08-17T11:03:15.000Z</time>
      </trkpt>
      <trkpt lat="43.0719550" lon="-1.7153360">
        <ele>689.268005</ele>
        <time>2014-08-17T11:03:16.000Z</time>
      </trkpt>
      <trkpt lat="43.0719720" lon="-1.7152950">
        <ele>688.685974</ele>
        <time>2014-08-17T11:03:17.000Z</time>
      </trkpt>
      <trkpt lat="43.0719910" lon="-1.7152530">
        <ele>688.660034</ele>
        <time>2014-08-17T11:03:18.000Z</time>
      </trkpt>
      <trkpt lat="43.0720800" lon="-1.7150450">
        <ele>688.626038</ele>
        <time>2014-08-17T11:03:23.000Z</time>
      </trkpt>
      <trkpt lat="43.0721590" lon="-1.7147210">
        <ele>688.606995</ele>
        <time>2014-08-17T11:03:29.000Z</time>
      </trkpt>
      <trkpt lat="43.0722070" lon="-1.7143280">
        <ele>688.645020</ele>
        <time>2014-08-17T11:03:34.000Z</time>
      </trkpt>
      <trkpt lat="43.0722560" lon="-1.7140390">
        <ele>688.632996</ele>
        <time>2014-08-17T11:03:38.000Z</time>
      </trkpt>
      <trkpt lat="43.0723120" lon="-1.7138510">
        <ele>688.685974</ele>
        <time>2014-08-17T11:03:41.000Z</time>
      </trkpt>
      <trkpt lat="43.0724420" lon="-1.7135890">
        <ele>688.268005</ele>
        <time>2014-08-17T11:03:46.000Z</time>
      </trkpt>
      <trkpt lat="43.0724950" lon="-1.7134930">
        <ele>687.887024</ele>
        <time>2014-08-17T11:03:48.000Z</time>
      </trkpt>
      <trkpt lat="43.0725180" lon="-1.7134440">
        <ele>687.499023</ele>
        <time>2014-08-17T11:03:49.000Z</time>
      </trkpt>
      <trkpt lat="43.0725410" lon="-1.7133910">
        <ele>687.072021</ele>
        <time>2014-08-17T11:03:50.000Z</time>
      </trkpt>
      <trkpt lat="43.0725650" lon="-1.7133360">
        <ele>686.692993</ele>
        <time>2014-08-17T11:03:51.000Z</time>
      </trkpt>
      <trkpt lat="43.0725910" lon="-1.7132840">
        <ele>686.664978</ele>
        <time>2014-08-17T11:03:52.000Z</time>
      </trkpt>
      <trkpt lat="43.0727180" lon="-1.7130270">
        <ele>686.621033</ele>
        <time>2014-08-17T11:03:57.000Z</time>
      </trkpt>
      <trkpt lat="43.0727570" lon="-1.7129090">
        <ele>686.606995</ele>
        <time>2014-08-17T11:04:01.000Z</time>
      </trkpt>
      <trkpt lat="43.0727550" lon="-1.7129070">
        <ele>686.696045</ele>
        <time>2014-08-17T11:04:02.000Z</time>
      </trkpt>
      <trkpt lat="43.0727730" lon="-1.7128960">
        <ele>686.643982</ele>
        <time>2014-08-17T11:04:20.000Z</time>
      </trkpt>
      <trkpt lat="43.0728030" lon="-1.7128660">
        <ele>686.666992</ele>
        <time>2014-08-17T11:04:22.000Z</time>
      </trkpt>
      <trkpt lat="43.0728680" lon="-1.7127850">
        <ele>686.619019</ele>
        <time>2014-08-17T11:04:25.000Z</time>
      </trkpt>
      <trkpt lat="43.0729550" lon="-1.7126930">
        <ele>686.678040</ele>
        <time>2014-08-17T11:04:28.000Z</time>
      </trkpt>
      <trkpt lat="43.0730510" lon="-1.7125690">
        <ele>686.659973</ele>
        <time>2014-08-17T11:04:31.000Z</time>
      </trkpt>
      <trkpt lat="43.0731250" lon="-1.7124900">
        <ele>686.653015</ele>
        <time>2014-08-17T11:04:33.000Z</time>
      </trkpt>
      <trkpt lat="43.0733270" lon="-1.7122880">
        <ele>686.635986</ele>
        <time>2014-08-17T11:04:38.000Z</time>
      </trkpt>
      <trkpt lat="43.0733970" lon="-1.7122010">
        <ele>686.617004</ele>
        <time>2014-08-17T11:04:40.000Z</time>
      </trkpt>
      <trkpt lat="43.0735920" lon="-1.7118750">
        <ele>686.217957</ele>
        <time>2014-08-17T11:04:47.000Z</time>
      </trkpt>
      <trkpt lat="43.0737030" lon="-1.7116790">
        <ele>685.807007</ele>
        <time>2014-08-17T11:04:51.000Z</time>
      </trkpt>
      <trkpt lat="43.0737260" lon="-1.7116280">
        <ele>685.460022</ele>
        <time>2014-08-17T11:04:52.000Z</time>
      </trkpt>
      <trkpt lat="43.0737480" lon="-1.7115610">
        <ele>685.047974</ele>
        <time>2014-08-17T11:04:53.000Z</time>
      </trkpt>
      <trkpt lat="43.0737680" lon="-1.7114800">
        <ele>684.651001</ele>
        <time>2014-08-17T11:04:54.000Z</time>
      </trkpt>
      <trkpt lat="43.0737890" lon="-1.7113930">
        <ele>684.652954</ele>
        <time>2014-08-17T11:04:55.000Z</time>
      </trkpt>
      <trkpt lat="43.0738180" lon="-1.7113010">
        <ele>684.082031</ele>
        <time>2014-08-17T11:04:56.000Z</time>
      </trkpt>
      <trkpt lat="43.0738450" lon="-1.7112060">
        <ele>683.414001</ele>
        <time>2014-08-17T11:04:57.000Z</time>
      </trkpt>
      <trkpt lat="43.0738750" lon="-1.7111160">
        <ele>683.067017</ele>
        <time>2014-08-17T11:04:58.000Z</time>
      </trkpt>
      <trkpt lat="43.0739070" lon="-1.7110240">
        <ele>682.242981</ele>
        <time>2014-08-17T11:04:59.000Z</time>
      </trkpt>
      <trkpt lat="43.0739430" lon="-1.7109340">
        <ele>681.664001</ele>
        <time>2014-08-17T11:05:00.000Z</time>
      </trkpt>
      <trkpt lat="43.0739880" lon="-1.7108420">
        <ele>681.009949</ele>
        <time>2014-08-17T11:05:01.000Z</time>
      </trkpt>
      <trkpt lat="43.0740390" lon="-1.7107510">
        <ele>680.206970</ele>
        <time>2014-08-17T11:05:02.000Z</time>
      </trkpt>
      <trkpt lat="43.0740970" lon="-1.7106660">
        <ele>679.450989</ele>
        <time>2014-08-17T11:05:03.000Z</time>
      </trkpt>
      <trkpt lat="43.0741600" lon="-1.7105810">
        <ele>678.248962</ele>
        <time>2014-08-17T11:05:04.000Z</time>
      </trkpt>
      <trkpt lat="43.0742310" lon="-1.7105000">
        <ele>677.251953</ele>
        <time>2014-08-17T11:05:05.000Z</time>
      </trkpt>
      <trkpt lat="43.0743120" lon="-1.7104260">
        <ele>676.213989</ele>
        <time>2014-08-17T11:05:06.000Z</time>
      </trkpt>
      <trkpt lat="43.0743950" lon="-1.7103530">
        <ele>675.252991</ele>
        <time>2014-08-17T11:05:07.000Z</time>
      </trkpt>
      <trkpt lat="43.0744690" lon="-1.7103000">
        <ele>674.234985</ele>
        <time>2014-08-17T11:05:08.000Z</time>
      </trkpt>
      <trkpt lat="43.0745380" lon="-1.7102620">
        <ele>673.418030</ele>
        <time>2014-08-17T11:05:09.000Z</time>
      </trkpt>
      <trkpt lat="43.0746000" lon="-1.7102250">
        <ele>672.489014</ele>
        <time>2014-08-17T11:05:10.000Z</time>
      </trkpt>
      <trkpt lat="43.0746640" lon="-1.7101950">
        <ele>671.605957</ele>
        <time>2014-08-17T11:05:11.000Z</time>
      </trkpt>
      <trkpt lat="43.0747410" lon="-1.7101630">
        <ele>670.226013</ele>
        <time>2014-08-17T11:05:12.000Z</time>
      </trkpt>
      <trkpt lat="43.0748010" lon="-1.7101180">
        <ele>669.606995</ele>
        <time>2014-08-17T11:05:13.000Z</time>
      </trkpt>
      <trkpt lat="43.0748240" lon="-1.7100590">
        <ele>669.024963</ele>
        <time>2014-08-17T11:05:14.000Z</time>
      </trkpt>
      <trkpt lat="43.0748260" lon="-1.7100140">
        <ele>668.442993</ele>
        <time>2014-08-17T11:05:15.000Z</time>
      </trkpt>
      <trkpt lat="43.0748110" lon="-1.7099930">
        <ele>667.876038</ele>
        <time>2014-08-17T11:05:16.000Z</time>
      </trkpt>
      <trkpt lat="43.0747660" lon="-1.7099930">
        <ele>667.297974</ele>
        <time>2014-08-17T11:05:17.000Z</time>
      </trkpt>
      <trkpt lat="43.0746650" lon="-1.7100210">
        <ele>666.896973</ele>
        <time>2014-08-17T11:05:19.000Z</time>
      </trkpt>
      <trkpt lat="43.0746110" lon="-1.7100390">
        <ele>666.419006</ele>
        <time>2014-08-17T11:05:20.000Z</time>
      </trkpt>
      <trkpt lat="43.0745480" lon="-1.7100550">
        <ele>665.832031</ele>
        <time>2014-08-17T11:05:21.000Z</time>
      </trkpt>
      <trkpt lat="43.0744770" lon="-1.7100730">
        <ele>665.437988</ele>
        <time>2014-08-17T11:05:22.000Z</time>
      </trkpt>
      <trkpt lat="43.0744030" lon="-1.7100940">
        <ele>665.470032</ele>
        <time>2014-08-17T11:05:23.000Z</time>
      </trkpt>
      <trkpt lat="43.0741520" lon="-1.7102040">
        <ele>665.016968</ele>
        <time>2014-08-17T11:05:27.000Z</time>
      </trkpt>
      <trkpt lat="43.0740970" lon="-1.7102280">
        <ele>664.606995</ele>
        <time>2014-08-17T11:05:28.000Z</time>
      </trkpt>
      <trkpt lat="43.0740410" lon="-1.7102510">
        <ele>664.260010</ele>
        <time>2014-08-17T11:05:29.000Z</time>
      </trkpt>
      <trkpt lat="43.0739850" lon="-1.7102790">
        <ele>663.868042</ele>
        <time>2014-08-17T11:05:30.000Z</time>
      </trkpt>
      <trkpt lat="43.0739290" lon="-1.7103070">
        <ele>663.210999</ele>
        <time>2014-08-17T11:05:31.000Z</time>
      </trkpt>
      <trkpt lat="43.0738710" lon="-1.7103370">
        <ele>663.282959</ele>
        <time>2014-08-17T11:05:32.000Z</time>
      </trkpt>
      <trkpt lat="43.0738080" lon="-1.7103730">
        <ele>663.252014</ele>
        <time>2014-08-17T11:05:33.000Z</time>
      </trkpt>
      <trkpt lat="43.0735570" lon="-1.7105610">
        <ele>663.263977</ele>
        <time>2014-08-17T11:05:37.000Z</time>
      </trkpt>
      <trkpt lat="43.0735040" lon="-1.7106210">
        <ele>663.286987</ele>
        <time>2014-08-17T11:05:38.000Z</time>
      </trkpt>
      <trkpt lat="43.0734590" lon="-1.7106860">
        <ele>662.875061</ele>
        <time>2014-08-17T11:05:39.000Z</time>
      </trkpt>
      <trkpt lat="43.0733390" lon="-1.7109160">
        <ele>662.428040</ele>
        <time>2014-08-17T11:05:42.000Z</time>
      </trkpt>
      <trkpt lat="43.0733020" lon="-1.7109750">
        <ele>662.020020</ele>
        <time>2014-08-17T11:05:43.000Z</time>
      </trkpt>
      <trkpt lat="43.0732690" lon="-1.7110160">
        <ele>661.606995</ele>
        <time>2014-08-17T11:05:44.000Z</time>
      </trkpt>
      <trkpt lat="43.0732470" lon="-1.7110440">
        <ele>661.223999</ele>
        <time>2014-08-17T11:05:45.000Z</time>
      </trkpt>
      <trkpt lat="43.0732400" lon="-1.7110550">
        <ele>660.622009</ele>
        <time>2014-08-17T11:05:46.000Z</time>
      </trkpt>
      <trkpt lat="43.0732360" lon="-1.7110570">
        <ele>660.275024</ele>
        <time>2014-08-17T11:05:47.000Z</time>
      </trkpt>
      <trkpt lat="43.0732270" lon="-1.7110540">
        <ele>659.876953</ele>
        <time>2014-08-17T11:05:48.000Z</time>
      </trkpt>
      <trkpt lat="43.0732130" lon="-1.7110440">
        <ele>659.226013</ele>
        <time>2014-08-17T11:05:49.000Z</time>
      </trkpt>
      <trkpt lat="43.0731970" lon="-1.7110290">
        <ele>658.858032</ele>
        <time>2014-08-17T11:05:50.000Z</time>
      </trkpt>
      <trkpt lat="43.0731750" lon="-1.7109900">
        <ele>658.270935</ele>
        <time>2014-08-17T11:05:52.000Z</time>
      </trkpt>
      <trkpt lat="43.0731670" lon="-1.7109530">
        <ele>657.816956</ele>
        <time>2014-08-17T11:05:53.000Z</time>
      </trkpt>
      <trkpt lat="43.0731770" lon="-1.7108910">
        <ele>657.286987</ele>
        <time>2014-08-17T11:05:54.000Z</time>
      </trkpt>
      <trkpt lat="43.0732030" lon="-1.7108260">
        <ele>656.815002</ele>
        <time>2014-08-17T11:05:55.000Z</time>
      </trkpt>
      <trkpt lat="43.0732780" lon="-1.7107530">
        <ele>656.807007</ele>
        <time>2014-08-17T11:05:56.000Z</time>
      </trkpt>
      <trkpt lat="43.0733360" lon="-1.7106870">
        <ele>656.458008</ele>
        <time>2014-08-17T11:05:57.000Z</time>
      </trkpt>
      <trkpt lat="43.0733920" lon="-1.7106200">
        <ele>656.075989</ele>
        <time>2014-08-17T11:05:58.000Z</time>
      </trkpt>
      <trkpt lat="43.0734540" lon="-1.7105460">
        <ele>655.678955</ele>
        <time>2014-08-17T11:05:59.000Z</time>
      </trkpt>
      <trkpt lat="43.0735190" lon="-1.7104660">
        <ele>655.231018</ele>
        <time>2014-08-17T11:06:00.000Z</time>
      </trkpt>
      <trkpt lat="43.0735850" lon="-1.7103600">
        <ele>654.619995</ele>
        <time>2014-08-17T11:06:01.000Z</time>
      </trkpt>
      <trkpt lat="43.0736560" lon="-1.7102520">
        <ele>653.471985</ele>
        <time>2014-08-17T11:06:02.000Z</time>
      </trkpt>
      <trkpt lat="43.0737270" lon="-1.7101510">
        <ele>652.864990</ele>
        <time>2014-08-17T11:06:03.000Z</time>
      </trkpt>
      <trkpt lat="43.0737990" lon="-1.7100570">
        <ele>652.212036</ele>
        <time>2014-08-17T11:06:04.000Z</time>
      </trkpt>
      <trkpt lat="43.0738760" lon="-1.7099690">
        <ele>651.231995</ele>
        <time>2014-08-17T11:06:05.000Z</time>
      </trkpt>
      <trkpt lat="43.0747980" lon="-1.7095130">
        <ele>650.205017</ele>
        <time>2014-08-17T11:06:06.000Z</time>
      </trkpt>
      <trkpt lat="43.0749130" lon="-1.7093760">
        <ele>649.406982</ele>
        <time>2014-08-17T11:06:07.000Z</time>
      </trkpt>
      <trkpt lat="43.0750200" lon="-1.7092460">
        <ele>648.487976</ele>
        <time>2014-08-17T11:06:08.000Z</time>
      </trkpt>
      <trkpt lat="43.0751260" lon="-1.7091390">
        <ele>647.615967</ele>
        <time>2014-08-17T11:06:09.000Z</time>
      </trkpt>
      <trkpt lat="43.0752270" lon="-1.7090510">
        <ele>647.049011</ele>
        <time>2014-08-17T11:06:10.000Z</time>
      </trkpt>
      <trkpt lat="43.0753320" lon="-1.7089710">
        <ele>646.281006</ele>
        <time>2014-08-17T11:06:11.000Z</time>
      </trkpt>
      <trkpt lat="43.0754450" lon="-1.7089080">
        <ele>645.439941</ele>
        <time>2014-08-17T11:06:12.000Z</time>
      </trkpt>
      <trkpt lat="43.0755550" lon="-1.7088530">
        <ele>644.642029</ele>
        <time>2014-08-17T11:06:13.000Z</time>
      </trkpt>
      <trkpt lat="43.0756700" lon="-1.7087930">
        <ele>643.244995</ele>
        <time>2014-08-17T11:06:14.000Z</time>
      </trkpt>
      <trkpt lat="43.0757920" lon="-1.7087270">
        <ele>642.057007</ele>
        <time>2014-08-17T11:06:15.000Z</time>
      </trkpt>
      <trkpt lat="43.0759160" lon="-1.7086630">
        <ele>640.800049</ele>
        <time>2014-08-17T11:06:16.000Z</time>
      </trkpt>
      <trkpt lat="43.0760460" lon="-1.7085930">
        <ele>639.619995</ele>
        <time>2014-08-17T11:06:17.000Z</time>
      </trkpt>
      <trkpt lat="43.0761610" lon="-1.7085150">
        <ele>638.206970</ele>
        <time>2014-08-17T11:06:18.000Z</time>
      </trkpt>
      <trkpt lat="43.0762710" lon="-1.7084200">
        <ele>636.892029</ele>
        <time>2014-08-17T11:06:19.000Z</time>
      </trkpt>
      <trkpt lat="43.0763790" lon="-1.7083030">
        <ele>635.450012</ele>
        <time>2014-08-17T11:06:20.000Z</time>
      </trkpt>
      <trkpt lat="43.0764920" lon="-1.7081820">
        <ele>633.612976</ele>
        <time>2014-08-17T11:06:21.000Z</time>
      </trkpt>
      <trkpt lat="43.0766110" lon="-1.7080500">
        <ele>631.864990</ele>
        <time>2014-08-17T11:06:22.000Z</time>
      </trkpt>
      <trkpt lat="43.0767320" lon="-1.7079150">
        <ele>629.864014</ele>
        <time>2014-08-17T11:06:23.000Z</time>
      </trkpt>
      <trkpt lat="43.0768580" lon="-1.7077610">
        <ele>627.896057</ele>
        <time>2014-08-17T11:06:24.000Z</time>
      </trkpt>
      <trkpt lat="43.0769540" lon="-1.7076020">
        <ele>625.658997</ele>
        <time>2014-08-17T11:06:25.000Z</time>
      </trkpt>
      <trkpt lat="43.0770200" lon="-1.7074210">
        <ele>622.290955</ele>
        <time>2014-08-17T11:06:26.000Z</time>
      </trkpt>
      <trkpt lat="43.0770710" lon="-1.7072130">
        <ele>620.481018</ele>
        <time>2014-08-17T11:06:27.000Z</time>
      </trkpt>
      <trkpt lat="43.0771220" lon="-1.7070070">
        <ele>619.018982</ele>
        <time>2014-08-17T11:06:28.000Z</time>
      </trkpt>
      <trkpt lat="43.0771650" lon="-1.7068020">
        <ele>617.406982</ele>
        <time>2014-08-17T11:06:29.000Z</time>
      </trkpt>
      <trkpt lat="43.0771920" lon="-1.7065840">
        <ele>615.876038</ele>
        <time>2014-08-17T11:06:30.000Z</time>
      </trkpt>
      <trkpt lat="43.0772040" lon="-1.7063450">
        <ele>614.244019</ele>
        <time>2014-08-17T11:06:31.000Z</time>
      </trkpt>
      <trkpt lat="43.0772140" lon="-1.7060970">
        <ele>612.497009</ele>
        <time>2014-08-17T11:06:32.000Z</time>
      </trkpt>
      <trkpt lat="43.0772220" lon="-1.7058760">
        <ele>610.679016</ele>
        <time>2014-08-17T11:06:33.000Z</time>
      </trkpt>
      <trkpt lat="43.0772340" lon="-1.7056580">
        <ele>608.867981</ele>
        <time>2014-08-17T11:06:34.000Z</time>
      </trkpt>
      <trkpt lat="43.0772560" lon="-1.7054750">
        <ele>607.049988</ele>
        <time>2014-08-17T11:06:35.000Z</time>
      </trkpt>
      <trkpt lat="43.0772780" lon="-1.7053230">
        <ele>605.453003</ele>
        <time>2014-08-17T11:06:36.000Z</time>
      </trkpt>
      <trkpt lat="43.0772990" lon="-1.7051990">
        <ele>603.871033</ele>
        <time>2014-08-17T11:06:37.000Z</time>
      </trkpt>
      <trkpt lat="43.0773240" lon="-1.7051030">
        <ele>602.040955</ele>
        <time>2014-08-17T11:06:38.000Z</time>
      </trkpt>
      <trkpt lat="43.0773470" lon="-1.7050350">
        <ele>600.414978</ele>
        <time>2014-08-17T11:06:39.000Z</time>
      </trkpt>
      <trkpt lat="43.0773650" lon="-1.7050010">
        <ele>599.606995</ele>
        <time>2014-08-17T11:06:40.000Z</time>
      </trkpt>
      <trkpt lat="43.0773770" lon="-1.7049950">
        <ele>599.044006</ele>
        <time>2014-08-17T11:06:41.000Z</time>
      </trkpt>
      <trkpt lat="43.0773780" lon="-1.7050100">
        <ele>598.281982</ele>
        <time>2014-08-17T11:06:42.000Z</time>
      </trkpt>
      <trkpt lat="43.0773760" lon="-1.7050370">
        <ele>597.434998</ele>
        <time>2014-08-17T11:06:43.000Z</time>
      </trkpt>
      <trkpt lat="43.0773770" lon="-1.7050620">
        <ele>596.627014</ele>
        <time>2014-08-17T11:06:44.000Z</time>
      </trkpt>
      <trkpt lat="43.0774070" lon="-1.7051230">
        <ele>596.625977</ele>
        <time>2014-08-17T11:06:45.000Z</time>
      </trkpt>
      <trkpt lat="43.0774180" lon="-1.7052370">
        <ele>596.697998</ele>
        <time>2014-08-17T11:06:47.000Z</time>
      </trkpt>
      <trkpt lat="43.0774060" lon="-1.7052660">
        <ele>596.231018</ele>
        <time>2014-08-17T11:06:48.000Z</time>
      </trkpt>
      <trkpt lat="43.0773970" lon="-1.7052850">
        <ele>595.856995</ele>
        <time>2014-08-17T11:06:49.000Z</time>
      </trkpt>
      <trkpt lat="43.0773970" lon="-1.7053020">
        <ele>595.400024</ele>
        <time>2014-08-17T11:06:50.000Z</time>
      </trkpt>
      <trkpt lat="43.0773840" lon="-1.7053020">
        <ele>594.619995</ele>
        <time>2014-08-17T11:06:51.000Z</time>
      </trkpt>
      <trkpt lat="43.0773720" lon="-1.7053170">
        <ele>594.606995</ele>
        <time>2014-08-17T11:06:59.000Z</time>
      </trkpt>
      <trkpt lat="43.0773620" lon="-1.7053800">
        <ele>594.631958</ele>
        <time>2014-08-17T11:07:01.000Z</time>
      </trkpt>
      <trkpt lat="43.0773270" lon="-1.7055890">
        <ele>594.609985</ele>
        <time>2014-08-17T11:07:06.000Z</time>
      </trkpt>
      <trkpt lat="43.0773290" lon="-1.7056880">
        <ele>594.632996</ele>
        <time>2014-08-17T11:07:08.000Z</time>
      </trkpt>
      <trkpt lat="43.0773520" lon="-1.7058650">
        <ele>594.625000</ele>
        <time>2014-08-17T11:07:11.000Z</time>
      </trkpt>
      <trkpt lat="43.0774070" lon="-1.7061200">
        <ele>594.674011</ele>
        <time>2014-08-17T11:07:16.000Z</time>
      </trkpt>
      <trkpt lat="43.0774180" lon="-1.7061620">
        <ele>594.686035</ele>
        <time>2014-08-17T11:07:17.000Z</time>
      </trkpt>
      <trkpt lat="43.0774480" lon="-1.7063150">
        <ele>594.698975</ele>
        <time>2014-08-17T11:07:21.000Z</time>
      </trkpt>
      <trkpt lat="43.0774560" lon="-1.7064070">
        <ele>594.695007</ele>
        <time>2014-08-17T11:07:23.000Z</time>
      </trkpt>
      <trkpt lat="43.0774680" lon="-1.7065140">
        <ele>594.648987</ele>
        <time>2014-08-17T11:07:25.000Z</time>
      </trkpt>
      <trkpt lat="43.0774840" lon="-1.7066370">
        <ele>594.623047</ele>
        <time>2014-08-17T11:07:27.000Z</time>
      </trkpt>
      <trkpt lat="43.0774910" lon="-1.7066950">
        <ele>594.606995</ele>
        <time>2014-08-17T11:07:28.000Z</time>
      </trkpt>
      <trkpt lat="43.0775010" lon="-1.7068050">
        <ele>594.615967</ele>
        <time>2014-08-17T11:07:30.000Z</time>
      </trkpt>
      <trkpt lat="43.0774990" lon="-1.7068590">
        <ele>594.694031</ele>
        <time>2014-08-17T11:07:31.000Z</time>
      </trkpt>
      <trkpt lat="43.0774690" lon="-1.7070490">
        <ele>594.617004</ele>
        <time>2014-08-17T11:07:34.000Z</time>
      </trkpt>
      <trkpt lat="43.0774540" lon="-1.7071150">
        <ele>594.648987</ele>
        <time>2014-08-17T11:07:35.000Z</time>
      </trkpt>
      <trkpt lat="43.0774180" lon="-1.7072560">
        <ele>594.668030</ele>
        <time>2014-08-17T11:07:37.000Z</time>
      </trkpt>
      <trkpt lat="43.0774200" lon="-1.7073470">
        <ele>594.270020</ele>
        <time>2014-08-17T11:07:39.000Z</time>
      </trkpt>
      <trkpt lat="43.0774950" lon="-1.7074430">
        <ele>593.273010</ele>
        <time>2014-08-17T11:07:41.000Z</time>
      </trkpt>
      <trkpt lat="43.0775380" lon="-1.7074950">
        <ele>592.674011</ele>
        <time>2014-08-17T11:07:42.000Z</time>
      </trkpt>
      <trkpt lat="43.0775780" lon="-1.7075540">
        <ele>592.256042</ele>
        <time>2014-08-17T11:07:43.000Z</time>
      </trkpt>
      <trkpt lat="43.0776150" lon="-1.7076140">
        <ele>592.221008</ele>
        <time>2014-08-17T11:07:44.000Z</time>
      </trkpt>
      <trkpt lat="43.0777590" lon="-1.7078350">
        <ele>591.807007</ele>
        <time>2014-08-17T11:07:47.000Z</time>
      </trkpt>
      <trkpt lat="43.0778310" lon="-1.7080370">
        <ele>591.434021</ele>
        <time>2014-08-17T11:07:49.000Z</time>
      </trkpt>
      <trkpt lat="43.0778650" lon="-1.7081770">
        <ele>591.081970</ele>
        <time>2014-08-17T11:07:50.000Z</time>
      </trkpt>
      <trkpt lat="43.0778820" lon="-1.7083010">
        <ele>590.275024</ele>
        <time>2014-08-17T11:07:51.000Z</time>
      </trkpt>
      <trkpt lat="43.0778950" lon="-1.7084200">
        <ele>589.666992</ele>
        <time>2014-08-17T11:07:52.000Z</time>
      </trkpt>
      <trkpt lat="43.0779080" lon="-1.7085370">
        <ele>588.635986</ele>
        <time>2014-08-17T11:07:53.000Z</time>
      </trkpt>
      <trkpt lat="43.0779270" lon="-1.7086490">
        <ele>587.648010</ele>
        <time>2014-08-17T11:07:54.000Z</time>
      </trkpt>
      <trkpt lat="43.0779540" lon="-1.7087550">
        <ele>586.871033</ele>
        <time>2014-08-17T11:07:55.000Z</time>
      </trkpt>
      <trkpt lat="43.0779790" lon="-1.7088520">
        <ele>585.876953</ele>
        <time>2014-08-17T11:07:56.000Z</time>
      </trkpt>
      <trkpt lat="43.0780090" lon="-1.7089480">
        <ele>585.060974</ele>
        <time>2014-08-17T11:07:57.000Z</time>
      </trkpt>
      <trkpt lat="43.0780360" lon="-1.7090370">
        <ele>584.027039</ele>
        <time>2014-08-17T11:07:58.000Z</time>
      </trkpt>
      <trkpt lat="43.0780640" lon="-1.7091260">
        <ele>583.007019</ele>
        <time>2014-08-17T11:07:59.000Z</time>
      </trkpt>
      <trkpt lat="43.0780920" lon="-1.7092170">
        <ele>581.823975</ele>
        <time>2014-08-17T11:08:00.000Z</time>
      </trkpt>
      <trkpt lat="43.0781210" lon="-1.7093100">
        <ele>580.481995</ele>
        <time>2014-08-17T11:08:01.000Z</time>
      </trkpt>
      <trkpt lat="43.0781550" lon="-1.7093970">
        <ele>578.815002</ele>
        <time>2014-08-17T11:08:02.000Z</time>
      </trkpt>
      <trkpt lat="43.0781940" lon="-1.7094770">
        <ele>577.476990</ele>
        <time>2014-08-17T11:08:03.000Z</time>
      </trkpt>
      <trkpt lat="43.0782370" lon="-1.7095490">
        <ele>575.625977</ele>
        <time>2014-08-17T11:08:04.000Z</time>
      </trkpt>
      <trkpt lat="43.0783180" lon="-1.7095610">
        <ele>572.288025</ele>
        <time>2014-08-17T11:08:05.000Z</time>
      </trkpt>
      <trkpt lat="43.0783970" lon="-1.7095580">
        <ele>570.661011</ele>
        <time>2014-08-17T11:08:06.000Z</time>
      </trkpt>
      <trkpt lat="43.0784890" lon="-1.7095210">
        <ele>569.041992</ele>
        <time>2014-08-17T11:08:07.000Z</time>
      </trkpt>
      <trkpt lat="43.0785970" lon="-1.7094440">
        <ele>567.622009</ele>
        <time>2014-08-17T11:08:08.000Z</time>
      </trkpt>
      <trkpt lat="43.0787190" lon="-1.7092700">
        <ele>566.213989</ele>
        <time>2014-08-17T11:08:09.000Z</time>
      </trkpt>
      <trkpt lat="43.0788540" lon="-1.7091260">
        <ele>564.606995</ele>
        <time>2014-08-17T11:08:10.000Z</time>
      </trkpt>
      <trkpt lat="43.0789870" lon="-1.7089950">
        <ele>563.210999</ele>
        <time>2014-08-17T11:08:11.000Z</time>
      </trkpt>
      <trkpt lat="43.0791290" lon="-1.7088930">
        <ele>562.258972</ele>
        <time>2014-08-17T11:08:12.000Z</time>
      </trkpt>
      <trkpt lat="43.0792630" lon="-1.7088050">
        <ele>561.071960</ele>
        <time>2014-08-17T11:08:13.000Z</time>
      </trkpt>
      <trkpt lat="43.0793860" lon="-1.7087140">
        <ele>559.854004</ele>
        <time>2014-08-17T11:08:14.000Z</time>
      </trkpt>
      <trkpt lat="43.0795180" lon="-1.7086470">
        <ele>558.812988</ele>
        <time>2014-08-17T11:08:15.000Z</time>
      </trkpt>
      <trkpt lat="43.0804280" lon="-1.7081050">
        <ele>557.844971</ele>
        <time>2014-08-17T11:08:16.000Z</time>
      </trkpt>
      <trkpt lat="43.0805310" lon="-1.7081480">
        <ele>556.877991</ele>
        <time>2014-08-17T11:08:17.000Z</time>
      </trkpt>
      <trkpt lat="43.0806380" lon="-1.7081980">
        <ele>555.898010</ele>
        <time>2014-08-17T11:08:18.000Z</time>
      </trkpt>
      <trkpt lat="43.0807390" lon="-1.7082430">
        <ele>555.215027</ele>
        <time>2014-08-17T11:08:19.000Z</time>
      </trkpt>
      <trkpt lat="43.0808420" lon="-1.7082900">
        <ele>554.626038</ele>
        <time>2014-08-17T11:08:20.000Z</time>
      </trkpt>
      <trkpt lat="43.0809510" lon="-1.7083430">
        <ele>554.007019</ele>
        <time>2014-08-17T11:08:21.000Z</time>
      </trkpt>
      <trkpt lat="43.0810530" lon="-1.7084010">
        <ele>553.476013</ele>
        <time>2014-08-17T11:08:22.000Z</time>
      </trkpt>
      <trkpt lat="43.0811560" lon="-1.7084670">
        <ele>552.833984</ele>
        <time>2014-08-17T11:08:23.000Z</time>
      </trkpt>
      <trkpt lat="43.0812550" lon="-1.7085360">
        <ele>552.216980</ele>
        <time>2014-08-17T11:08:24.000Z</time>
      </trkpt>
      <trkpt lat="43.0813470" lon="-1.7086070">
        <ele>551.429016</ele>
        <time>2014-08-17T11:08:25.000Z</time>
      </trkpt>
      <trkpt lat="43.0814370" lon="-1.7086850">
        <ele>550.658020</ele>
        <time>2014-08-17T11:08:26.000Z</time>
      </trkpt>
      <trkpt lat="43.0815200" lon="-1.7087750">
        <ele>549.429993</ele>
        <time>2014-08-17T11:08:27.000Z</time>
      </trkpt>
      <trkpt lat="43.0816030" lon="-1.7088770">
        <ele>548.433044</ele>
        <time>2014-08-17T11:08:28.000Z</time>
      </trkpt>
      <trkpt lat="43.0816710" lon="-1.7089770">
        <ele>547.458984</ele>
        <time>2014-08-17T11:08:29.000Z</time>
      </trkpt>
      <trkpt lat="43.0817130" lon="-1.7092430">
        <ele>545.002991</ele>
        <time>2014-08-17T11:08:30.000Z</time>
      </trkpt>
      <trkpt lat="43.0817690" lon="-1.7094420">
        <ele>543.822998</ele>
        <time>2014-08-17T11:08:31.000Z</time>
      </trkpt>
      <trkpt lat="43.0818080" lon="-1.7095950">
        <ele>542.606995</ele>
        <time>2014-08-17T11:08:32.000Z</time>
      </trkpt>
      <trkpt lat="43.0818580" lon="-1.7096980">
        <ele>541.671997</ele>
        <time>2014-08-17T11:08:33.000Z</time>
      </trkpt>
      <trkpt lat="43.0818930" lon="-1.7097520">
        <ele>540.470032</ele>
        <time>2014-08-17T11:08:34.000Z</time>
      </trkpt>
      <trkpt lat="43.0819390" lon="-1.7097710">
        <ele>540.472961</ele>
        <time>2014-08-17T11:08:35.000Z</time>
      </trkpt>
      <trkpt lat="43.0820230" lon="-1.7096900">
        <ele>540.494995</ele>
        <time>2014-08-17T11:08:37.000Z</time>
      </trkpt>
      <trkpt lat="43.0820620" lon="-1.7095180">
        <ele>540.494019</ele>
        <time>2014-08-17T11:08:39.000Z</time>
      </trkpt>
      <trkpt lat="43.0820850" lon="-1.7094400">
        <ele>540.455994</ele>
        <time>2014-08-17T11:08:40.000Z</time>
      </trkpt>
      <trkpt lat="43.0821620" lon="-1.7092230">
        <ele>540.498962</ele>
        <time>2014-08-17T11:08:43.000Z</time>
      </trkpt>
      <trkpt lat="43.0822270" lon="-1.7090760">
        <ele>540.445984</ele>
        <time>2014-08-17T11:08:45.000Z</time>
      </trkpt>
      <trkpt lat="43.0822660" lon="-1.7090030">
        <ele>540.088013</ele>
        <time>2014-08-17T11:08:46.000Z</time>
      </trkpt>
      <trkpt lat="43.0823390" lon="-1.7088690">
        <ele>539.416016</ele>
        <time>2014-08-17T11:08:48.000Z</time>
      </trkpt>
      <trkpt lat="43.0823740" lon="-1.7088020">
        <ele>539.006958</ele>
        <time>2014-08-17T11:08:49.000Z</time>
      </trkpt>
      <trkpt lat="43.0824160" lon="-1.7087230">
        <ele>538.681030</ele>
        <time>2014-08-17T11:08:50.000Z</time>
      </trkpt>
      <trkpt lat="43.0824620" lon="-1.7086250">
        <ele>538.278992</ele>
        <time>2014-08-17T11:08:51.000Z</time>
      </trkpt>
      <trkpt lat="43.0825060" lon="-1.7085220">
        <ele>537.651978</ele>
        <time>2014-08-17T11:08:52.000Z</time>
      </trkpt>
      <trkpt lat="43.0825440" lon="-1.7084180">
        <ele>537.244019</ele>
        <time>2014-08-17T11:08:53.000Z</time>
      </trkpt>
      <trkpt lat="43.0825730" lon="-1.7083080">
        <ele>536.843018</ele>
        <time>2014-08-17T11:08:54.000Z</time>
      </trkpt>
      <trkpt lat="43.0826000" lon="-1.7081990">
        <ele>535.885010</ele>
        <time>2014-08-17T11:08:55.000Z</time>
      </trkpt>
      <trkpt lat="43.0826210" lon="-1.7080920">
        <ele>535.817993</ele>
        <time>2014-08-17T11:08:56.000Z</time>
      </trkpt>
      <trkpt lat="43.0826950" lon="-1.7077070">
        <ele>535.836975</ele>
        <time>2014-08-17T11:09:00.000Z</time>
      </trkpt>
      <trkpt lat="43.0827090" lon="-1.7074730">
        <ele>535.848999</ele>
        <time>2014-08-17T11:09:03.000Z</time>
      </trkpt>
      <trkpt lat="43.0827080" lon="-1.7074050">
        <ele>535.812988</ele>
        <time>2014-08-17T11:09:04.000Z</time>
      </trkpt>
      <trkpt lat="43.0827070" lon="-1.7073410">
        <ele>535.807007</ele>
        <time>2014-08-17T11:09:05.000Z</time>
      </trkpt>
      <trkpt lat="43.0827090" lon="-1.7072830">
        <ele>535.840027</ele>
        <time>2014-08-17T11:09:06.000Z</time>
      </trkpt>
      <trkpt lat="43.0827090" lon="-1.7071640">
        <ele>535.817993</ele>
        <time>2014-08-17T11:09:08.000Z</time>
      </trkpt>
      <trkpt lat="43.0827120" lon="-1.7070460">
        <ele>535.860962</ele>
        <time>2014-08-17T11:09:10.000Z</time>
      </trkpt>
      <trkpt lat="43.0827200" lon="-1.7069940">
        <ele>536.223022</ele>
        <time>2014-08-17T11:09:11.000Z</time>
      </trkpt>
      <trkpt lat="43.0827390" lon="-1.7068920">
        <ele>536.661987</ele>
        <time>2014-08-17T11:09:13.000Z</time>
      </trkpt>
      <trkpt lat="43.0827490" lon="-1.7068390">
        <ele>537.023987</ele>
        <time>2014-08-17T11:09:14.000Z</time>
      </trkpt>
      <trkpt lat="43.0827640" lon="-1.7067820">
        <ele>537.457031</ele>
        <time>2014-08-17T11:09:15.000Z</time>
      </trkpt>
      <trkpt lat="43.0827850" lon="-1.7067310">
        <ele>537.817993</ele>
        <time>2014-08-17T11:09:16.000Z</time>
      </trkpt>
      <trkpt lat="43.0828110" lon="-1.7066830">
        <ele>537.898010</ele>
        <time>2014-08-17T11:09:17.000Z</time>
      </trkpt>
      <trkpt lat="43.0828920" lon="-1.7065980">
        <ele>537.817017</ele>
        <time>2014-08-17T11:09:19.000Z</time>
      </trkpt>
      <trkpt lat="43.0829420" lon="-1.7065560">
        <ele>537.807007</ele>
        <time>2014-08-17T11:09:20.000Z</time>
      </trkpt>
      <trkpt lat="43.0830030" lon="-1.7065190">
        <ele>537.488037</ele>
        <time>2014-08-17T11:09:21.000Z</time>
      </trkpt>
      <trkpt lat="43.0832070" lon="-1.7063930">
        <ele>536.865967</ele>
        <time>2014-08-17T11:09:24.000Z</time>
      </trkpt>
      <trkpt lat="43.0832760" lon="-1.7063390">
        <ele>536.289001</ele>
        <time>2014-08-17T11:09:25.000Z</time>
      </trkpt>
      <trkpt lat="43.0833450" lon="-1.7062790">
        <ele>535.890991</ele>
        <time>2014-08-17T11:09:26.000Z</time>
      </trkpt>
      <trkpt lat="43.0834140" lon="-1.7062150">
        <ele>535.219971</ele>
        <time>2014-08-17T11:09:27.000Z</time>
      </trkpt>
      <trkpt lat="43.0834830" lon="-1.7061490">
        <ele>535.291992</ele>
        <time>2014-08-17T11:09:28.000Z</time>
      </trkpt>
      <trkpt lat="43.0835490" lon="-1.7060810">
        <ele>535.255005</ele>
        <time>2014-08-17T11:09:29.000Z</time>
      </trkpt>
      <trkpt lat="43.0837990" lon="-1.7058110">
        <ele>535.234985</ele>
        <time>2014-08-17T11:09:33.000Z</time>
      </trkpt>
      <trkpt lat="43.0839630" lon="-1.7056100">
        <ele>535.286011</ele>
        <time>2014-08-17T11:09:36.000Z</time>
      </trkpt>
      <trkpt lat="43.0840760" lon="-1.7054780">
        <ele>535.213989</ele>
        <time>2014-08-17T11:09:38.000Z</time>
      </trkpt>
      <trkpt lat="43.0841810" lon="-1.7053460">
        <ele>535.206970</ele>
        <time>2014-08-17T11:09:40.000Z</time>
      </trkpt>
      <trkpt lat="43.0842240" lon="-1.7052740">
        <ele>535.669983</ele>
        <time>2014-08-17T11:09:41.000Z</time>
      </trkpt>
      <trkpt lat="43.0842640" lon="-1.7052020">
        <ele>536.067993</ele>
        <time>2014-08-17T11:09:42.000Z</time>
      </trkpt>
      <trkpt lat="43.0843010" lon="-1.7051330">
        <ele>536.420959</ele>
        <time>2014-08-17T11:09:43.000Z</time>
      </trkpt>
      <trkpt lat="43.0843360" lon="-1.7050700">
        <ele>537.692993</ele>
        <time>2014-08-17T11:09:44.000Z</time>
      </trkpt>
      <trkpt lat="43.0843720" lon="-1.7050090">
        <ele>538.281982</ele>
        <time>2014-08-17T11:09:45.000Z</time>
      </trkpt>
      <trkpt lat="43.0844070" lon="-1.7049550">
        <ele>538.833984</ele>
        <time>2014-08-17T11:09:46.000Z</time>
      </trkpt>
      <trkpt lat="43.0844450" lon="-1.7049040">
        <ele>539.427002</ele>
        <time>2014-08-17T11:09:47.000Z</time>
      </trkpt>
      <trkpt lat="43.0844830" lon="-1.7048560">
        <ele>540.096008</ele>
        <time>2014-08-17T11:09:48.000Z</time>
      </trkpt>
      <trkpt lat="43.0845240" lon="-1.7048110">
        <ele>540.431030</ele>
        <time>2014-08-17T11:09:49.000Z</time>
      </trkpt>
      <trkpt lat="43.0845650" lon="-1.7047650">
        <ele>540.823975</ele>
        <time>2014-08-17T11:09:50.000Z</time>
      </trkpt>
      <trkpt lat="43.0846060" lon="-1.7047190">
        <ele>541.207031</ele>
        <time>2014-08-17T11:09:51.000Z</time>
      </trkpt>
      <trkpt lat="43.0846460" lon="-1.7046710">
        <ele>541.686035</ele>
        <time>2014-08-17T11:09:52.000Z</time>
      </trkpt>
      <trkpt lat="43.0846790" lon="-1.7046240">
        <ele>542.053955</ele>
        <time>2014-08-17T11:09:53.000Z</time>
      </trkpt>
      <trkpt lat="43.0847140" lon="-1.7045780">
        <ele>542.487000</ele>
        <time>2014-08-17T11:09:54.000Z</time>
      </trkpt>
      <trkpt lat="43.0847910" lon="-1.7044970">
        <ele>542.838989</ele>
        <time>2014-08-17T11:09:56.000Z</time>
      </trkpt>
      <trkpt lat="43.0848320" lon="-1.7044600">
        <ele>543.228027</ele>
        <time>2014-08-17T11:09:57.000Z</time>
      </trkpt>
      <trkpt lat="43.0848760" lon="-1.7044280">
        <ele>543.830017</ele>
        <time>2014-08-17T11:09:58.000Z</time>
      </trkpt>
      <trkpt lat="43.0849260" lon="-1.7043950">
        <ele>544.233032</ele>
        <time>2014-08-17T11:09:59.000Z</time>
      </trkpt>
      <trkpt lat="43.0849750" lon="-1.7043700">
        <ele>544.210999</ele>
        <time>2014-08-17T11:10:00.000Z</time>
      </trkpt>
      <trkpt lat="43.0850270" lon="-1.7043460">
        <ele>544.221008</ele>
        <time>2014-08-17T11:10:01.000Z</time>
      </trkpt>
      <trkpt lat="43.0853920" lon="-1.7042160">
        <ele>543.803040</ele>
        <time>2014-08-17T11:10:07.000Z</time>
      </trkpt>
      <trkpt lat="43.0856590" lon="-1.7041280">
        <ele>543.407043</ele>
        <time>2014-08-17T11:10:11.000Z</time>
      </trkpt>
      <trkpt lat="43.0857260" lon="-1.7040970">
        <ele>543.098022</ele>
        <time>2014-08-17T11:10:12.000Z</time>
      </trkpt>
      <trkpt lat="43.0857900" lon="-1.7040660">
        <ele>542.615967</ele>
        <time>2014-08-17T11:10:13.000Z</time>
      </trkpt>
      <trkpt lat="43.0858510" lon="-1.7040410">
        <ele>542.229004</ele>
        <time>2014-08-17T11:10:14.000Z</time>
      </trkpt>
      <trkpt lat="43.0859120" lon="-1.7040170">
        <ele>542.281006</ele>
        <time>2014-08-17T11:10:15.000Z</time>
      </trkpt>
      <trkpt lat="43.0860900" lon="-1.7039750">
        <ele>542.210022</ele>
        <time>2014-08-17T11:10:18.000Z</time>
      </trkpt>
      <trkpt lat="43.0861480" lon="-1.7039790">
        <ele>542.231995</ele>
        <time>2014-08-17T11:10:19.000Z</time>
      </trkpt>
      <trkpt lat="43.0863110" lon="-1.7040510">
        <ele>542.224976</ele>
        <time>2014-08-17T11:10:22.000Z</time>
      </trkpt>
      <trkpt lat="43.0863610" lon="-1.7041070">
        <ele>542.265991</ele>
        <time>2014-08-17T11:10:23.000Z</time>
      </trkpt>
      <trkpt lat="43.0864160" lon="-1.7041720">
        <ele>542.229004</ele>
        <time>2014-08-17T11:10:24.000Z</time>
      </trkpt>
      <trkpt lat="43.0864900" lon="-1.7042300">
        <ele>542.221008</ele>
        <time>2014-08-17T11:10:25.000Z</time>
      </trkpt>
      <trkpt lat="43.0865680" lon="-1.7042770">
        <ele>542.207031</ele>
        <time>2014-08-17T11:10:26.000Z</time>
      </trkpt>
      <trkpt lat="43.0866370" lon="-1.7043060">
        <ele>542.263000</ele>
        <time>2014-08-17T11:10:27.000Z</time>
      </trkpt>
      <trkpt lat="43.0867520" lon="-1.7043140">
        <ele>542.250977</ele>
        <time>2014-08-17T11:10:29.000Z</time>
      </trkpt>
      <trkpt lat="43.0868620" lon="-1.7043400">
        <ele>542.294006</ele>
        <time>2014-08-17T11:10:32.000Z</time>
      </trkpt>
      <trkpt lat="43.0868860" lon="-1.7043630">
        <ele>542.265991</ele>
        <time>2014-08-17T11:10:33.000Z</time>
      </trkpt>
      <trkpt lat="43.0869550" lon="-1.7044290">
        <ele>542.255005</ele>
        <time>2014-08-17T11:10:36.000Z</time>
      </trkpt>
      <trkpt lat="43.0870180" lon="-1.7044850">
        <ele>542.677002</ele>
        <time>2014-08-17T11:10:38.000Z</time>
      </trkpt>
      <trkpt lat="43.0870560" lon="-1.7045160">
        <ele>543.049988</ele>
        <time>2014-08-17T11:10:39.000Z</time>
      </trkpt>
      <trkpt lat="43.0870800" lon="-1.7045370">
        <ele>543.653992</ele>
        <time>2014-08-17T11:10:40.000Z</time>
      </trkpt>
      <trkpt lat="43.0871040" lon="-1.7045640">
        <ele>544.055969</ele>
        <time>2014-08-17T11:10:41.000Z</time>
      </trkpt>
      <trkpt lat="43.0871240" lon="-1.7045890">
        <ele>544.411011</ele>
        <time>2014-08-17T11:10:42.000Z</time>
      </trkpt>
      <trkpt lat="43.0871420" lon="-1.7046110">
        <ele>544.406982</ele>
        <time>2014-08-17T11:10:43.000Z</time>
      </trkpt>
      <trkpt lat="43.0871610" lon="-1.7046310">
        <ele>544.492004</ele>
        <time>2014-08-17T11:10:44.000Z</time>
      </trkpt>
      <trkpt lat="43.0872780" lon="-1.7047020">
        <ele>544.429993</ele>
        <time>2014-08-17T11:10:49.000Z</time>
      </trkpt>
      <trkpt lat="43.0873020" lon="-1.7047100">
        <ele>545.083008</ele>
        <time>2014-08-17T11:10:50.000Z</time>
      </trkpt>
      <trkpt lat="43.0873940" lon="-1.7047670">
        <ele>545.455017</ele>
        <time>2014-08-17T11:10:54.000Z</time>
      </trkpt>
      <trkpt lat="43.0874160" lon="-1.7047870">
        <ele>545.893982</ele>
        <time>2014-08-17T11:10:55.000Z</time>
      </trkpt>
      <trkpt lat="43.0874330" lon="-1.7048080">
        <ele>546.236023</ele>
        <time>2014-08-17T11:10:56.000Z</time>
      </trkpt>
      <trkpt lat="43.0874490" lon="-1.7048310">
        <ele>546.658997</ele>
        <time>2014-08-17T11:10:57.000Z</time>
      </trkpt>
      <trkpt lat="43.0874670" lon="-1.7048570">
        <ele>547.055969</ele>
        <time>2014-08-17T11:10:58.000Z</time>
      </trkpt>
      <trkpt lat="43.0875710" lon="-1.7049580">
        <ele>547.458984</ele>
        <time>2014-08-17T11:11:03.000Z</time>
      </trkpt>
      <trkpt lat="43.0875970" lon="-1.7049670">
        <ele>547.814026</ele>
        <time>2014-08-17T11:11:04.000Z</time>
      </trkpt>
      <trkpt lat="43.0876220" lon="-1.7049670">
        <ele>548.206970</ele>
        <time>2014-08-17T11:11:05.000Z</time>
      </trkpt>
      <trkpt lat="43.0876490" lon="-1.7049610">
        <ele>548.682007</ele>
        <time>2014-08-17T11:11:06.000Z</time>
      </trkpt>
      <trkpt lat="43.0876810" lon="-1.7049510">
        <ele>548.650024</ele>
        <time>2014-08-17T11:11:07.000Z</time>
      </trkpt>
      <trkpt lat="43.0877330" lon="-1.7049410">
        <ele>549.062988</ele>
        <time>2014-08-17T11:11:09.000Z</time>
      </trkpt>
      <trkpt lat="43.0878400" lon="-1.7049210">
        <ele>549.434998</ele>
        <time>2014-08-17T11:11:13.000Z</time>
      </trkpt>
      <trkpt lat="43.0878660" lon="-1.7049240">
        <ele>550.063965</ele>
        <time>2014-08-17T11:11:14.000Z</time>
      </trkpt>
      <trkpt lat="43.0878920" lon="-1.7049220">
        <ele>550.416016</ele>
        <time>2014-08-17T11:11:15.000Z</time>
      </trkpt>
      <trkpt lat="43.0879220" lon="-1.7049230">
        <ele>550.828979</ele>
        <time>2014-08-17T11:11:16.000Z</time>
      </trkpt>
      <trkpt lat="43.0879510" lon="-1.7049310">
        <ele>550.861023</ele>
        <time>2014-08-17T11:11:17.000Z</time>
      </trkpt>
      <trkpt lat="43.0879870" lon="-1.7049430">
        <ele>551.221008</ele>
        <time>2014-08-17T11:11:18.000Z</time>
      </trkpt>
      <trkpt lat="43.0880790" lon="-1.7049670">
        <ele>551.812988</ele>
        <time>2014-08-17T11:11:21.000Z</time>
      </trkpt>
      <trkpt lat="43.0881060" lon="-1.7049790">
        <ele>552.606995</ele>
        <time>2014-08-17T11:11:22.000Z</time>
      </trkpt>
      <trkpt lat="43.0881320" lon="-1.7049920">
        <ele>553.043030</ele>
        <time>2014-08-17T11:11:23.000Z</time>
      </trkpt>
      <trkpt lat="43.0881530" lon="-1.7050030">
        <ele>553.010986</ele>
        <time>2014-08-17T11:11:24.000Z</time>
      </trkpt>
      <trkpt lat="43.0881940" lon="-1.7050250">
        <ele>553.484009</ele>
        <time>2014-08-17T11:11:26.000Z</time>
      </trkpt>
      <trkpt lat="43.0883220" lon="-1.7051290">
        <ele>553.846008</ele>
        <time>2014-08-17T11:11:31.000Z</time>
      </trkpt>
      <trkpt lat="43.0883470" lon="-1.7051540">
        <ele>554.265015</ele>
        <time>2014-08-17T11:11:32.000Z</time>
      </trkpt>
      <trkpt lat="43.0883740" lon="-1.7051760">
        <ele>554.617004</ele>
        <time>2014-08-17T11:11:33.000Z</time>
      </trkpt>
      <trkpt lat="43.0883980" lon="-1.7052030">
        <ele>555.270020</ele>
        <time>2014-08-17T11:11:34.000Z</time>
      </trkpt>
      <trkpt lat="43.0884200" lon="-1.7052330">
        <ele>555.283997</ele>
        <time>2014-08-17T11:11:35.000Z</time>
      </trkpt>
      <trkpt lat="43.0885110" lon="-1.7054000">
        <ele>555.606995</ele>
        <time>2014-08-17T11:11:40.000Z</time>
      </trkpt>
      <trkpt lat="43.0885240" lon="-1.7054360">
        <ele>556.017029</ele>
        <time>2014-08-17T11:11:41.000Z</time>
      </trkpt>
      <trkpt lat="43.0885340" lon="-1.7054730">
        <ele>556.406982</ele>
        <time>2014-08-17T11:11:42.000Z</time>
      </trkpt>
      <trkpt lat="43.0885480" lon="-1.7055050">
        <ele>556.875000</ele>
        <time>2014-08-17T11:11:43.000Z</time>
      </trkpt>
      <trkpt lat="43.0885620" lon="-1.7055290">
        <ele>557.242981</ele>
        <time>2014-08-17T11:11:44.000Z</time>
      </trkpt>
      <trkpt lat="43.0885730" lon="-1.7055580">
        <ele>557.236023</ele>
        <time>2014-08-17T11:11:45.000Z</time>
      </trkpt>
      <trkpt lat="43.0885980" lon="-1.7057730">
        <ele>557.297974</ele>
        <time>2014-08-17T11:11:51.000Z</time>
      </trkpt>
      <trkpt lat="43.0886010" lon="-1.7059020">
        <ele>557.216980</ele>
        <time>2014-08-17T11:11:54.000Z</time>
      </trkpt>
      <trkpt lat="43.0886100" lon="-1.7060040">
        <ele>557.658997</ele>
        <time>2014-08-17T11:11:57.000Z</time>
      </trkpt>
      <trkpt lat="43.0886160" lon="-1.7060340">
        <ele>558.091980</ele>
        <time>2014-08-17T11:11:58.000Z</time>
      </trkpt>
      <trkpt lat="43.0886200" lon="-1.7060640">
        <ele>558.463013</ele>
        <time>2014-08-17T11:11:59.000Z</time>
      </trkpt>
      <trkpt lat="43.0886270" lon="-1.7060960">
        <ele>558.843994</ele>
        <time>2014-08-17T11:12:00.000Z</time>
      </trkpt>
      <trkpt lat="43.0886410" lon="-1.7061160">
        <ele>559.218018</ele>
        <time>2014-08-17T11:12:01.000Z</time>
      </trkpt>
      <trkpt lat="43.0886540" lon="-1.7061350">
        <ele>559.206970</ele>
        <time>2014-08-17T11:12:02.000Z</time>
      </trkpt>
      <trkpt lat="43.0886810" lon="-1.7061720">
        <ele>559.283020</ele>
        <time>2014-08-17T11:12:05.000Z</time>
      </trkpt>
      <trkpt lat="43.0887000" lon="-1.7061900">
        <ele>559.291016</ele>
        <time>2014-08-17T11:12:07.000Z</time>
      </trkpt>
      <trkpt lat="43.0887230" lon="-1.7062110">
        <ele>559.843994</ele>
        <time>2014-08-17T11:12:09.000Z</time>
      </trkpt>
      <trkpt lat="43.0887430" lon="-1.7062290">
        <ele>560.236023</ele>
        <time>2014-08-17T11:12:11.000Z</time>
      </trkpt>
      <trkpt lat="43.0887510" lon="-1.7062460">
        <ele>560.695007</ele>
        <time>2014-08-17T11:12:12.000Z</time>
      </trkpt>
      <trkpt lat="43.0887610" lon="-1.7062670">
        <ele>561.067017</ele>
        <time>2014-08-17T11:12:13.000Z</time>
      </trkpt>
      <trkpt lat="43.0887750" lon="-1.7062880">
        <ele>561.489990</ele>
        <time>2014-08-17T11:12:14.000Z</time>
      </trkpt>
      <trkpt lat="43.0887880" lon="-1.7063050">
        <ele>561.476990</ele>
        <time>2014-08-17T11:12:15.000Z</time>
      </trkpt>
      <trkpt lat="43.0888340" lon="-1.7063710">
        <ele>561.460999</ele>
        <time>2014-08-17T11:12:18.000Z</time>
      </trkpt>
      <trkpt lat="43.0888780" lon="-1.7064510">
        <ele>561.427002</ele>
        <time>2014-08-17T11:12:21.000Z</time>
      </trkpt>
      <trkpt lat="43.0889160" lon="-1.7065020">
        <ele>561.406982</ele>
        <time>2014-08-17T11:12:23.000Z</time>
      </trkpt>
      <trkpt lat="43.0889690" lon="-1.7065570">
        <ele>561.434021</ele>
        <time>2014-08-17T11:12:26.000Z</time>
      </trkpt>
      <trkpt lat="43.0889840" lon="-1.7065720">
        <ele>561.471985</ele>
        <time>2014-08-17T11:12:27.000Z</time>
      </trkpt>
      <trkpt lat="43.0890410" lon="-1.7066150">
        <ele>561.484985</ele>
        <time>2014-08-17T11:12:30.000Z</time>
      </trkpt>
      <trkpt lat="43.0890730" lon="-1.7066450">
        <ele>561.467041</ele>
        <time>2014-08-17T11:12:32.000Z</time>
      </trkpt>
      <trkpt lat="43.0890940" lon="-1.7066610">
        <ele>561.476013</ele>
        <time>2014-08-17T11:12:33.000Z</time>
      </trkpt>
      <trkpt lat="43.0892410" lon="-1.7067380">
        <ele>561.458008</ele>
        <time>2014-08-17T11:12:39.000Z</time>
      </trkpt>
      <trkpt lat="43.0892670" lon="-1.7067540">
        <ele>561.471008</ele>
        <time>2014-08-17T11:12:40.000Z</time>
      </trkpt>
      <trkpt lat="43.0893870" lon="-1.7068400">
        <ele>561.447021</ele>
        <time>2014-08-17T11:12:44.000Z</time>
      </trkpt>
      <trkpt lat="43.0894500" lon="-1.7068890">
        <ele>561.429016</ele>
        <time>2014-08-17T11:12:46.000Z</time>
      </trkpt>
      <trkpt lat="43.0897000" lon="-1.7070510">
        <ele>561.420959</ele>
        <time>2014-08-17T11:12:53.000Z</time>
      </trkpt>
      <trkpt lat="43.0897440" lon="-1.7070750">
        <ele>561.406982</ele>
        <time>2014-08-17T11:12:54.000Z</time>
      </trkpt>
      <trkpt lat="43.0898630" lon="-1.7071560">
        <ele>561.411011</ele>
        <time>2014-08-17T11:12:57.000Z</time>
      </trkpt>
      <trkpt lat="43.0899390" lon="-1.7072130">
        <ele>561.848999</ele>
        <time>2014-08-17T11:12:59.000Z</time>
      </trkpt>
      <trkpt lat="43.0900580" lon="-1.7072900">
        <ele>562.242004</ele>
        <time>2014-08-17T11:13:02.000Z</time>
      </trkpt>
      <trkpt lat="43.0900960" lon="-1.7073180">
        <ele>562.693970</ele>
        <time>2014-08-17T11:13:03.000Z</time>
      </trkpt>
      <trkpt lat="43.0901340" lon="-1.7073480">
        <ele>563.052979</ele>
        <time>2014-08-17T11:13:04.000Z</time>
      </trkpt>
      <trkpt lat="43.0901730" lon="-1.7073720">
        <ele>563.414978</ele>
        <time>2014-08-17T11:13:05.000Z</time>
      </trkpt>
      <trkpt lat="43.0902110" lon="-1.7073980">
        <ele>563.478027</ele>
        <time>2014-08-17T11:13:06.000Z</time>
      </trkpt>
      <trkpt lat="43.0903850" lon="-1.7075150">
        <ele>563.450989</ele>
        <time>2014-08-17T11:13:12.000Z</time>
      </trkpt>
      <trkpt lat="43.0905710" lon="-1.7077210">
        <ele>563.401001</ele>
        <time>2014-08-17T11:13:20.000Z</time>
      </trkpt>
      <trkpt lat="43.0907460" lon="-1.7078970">
        <ele>563.411011</ele>
        <time>2014-08-17T11:13:26.000Z</time>
      </trkpt>
      <trkpt lat="43.0908950" lon="-1.7081010">
        <ele>563.406982</ele>
        <time>2014-08-17T11:13:31.000Z</time>
      </trkpt>
      <trkpt lat="43.0909250" lon="-1.7081420">
        <ele>563.432007</ele>
        <time>2014-08-17T11:13:32.000Z</time>
      </trkpt>
      <trkpt lat="43.0909540" lon="-1.7081720">
        <ele>563.429993</ele>
        <time>2014-08-17T11:13:33.000Z</time>
      </trkpt>
      <trkpt lat="43.0910210" lon="-1.7082040">
        <ele>563.413025</ele>
        <time>2014-08-17T11:13:35.000Z</time>
      </trkpt>
      <trkpt lat="43.0911010" lon="-1.7082030">
        <ele>563.454956</ele>
        <time>2014-08-17T11:13:37.000Z</time>
      </trkpt>
      <trkpt lat="43.0911910" lon="-1.7082080">
        <ele>563.414001</ele>
        <time>2014-08-17T11:13:39.000Z</time>
      </trkpt>
      <trkpt lat="43.0912900" lon="-1.7082300">
        <ele>563.495972</ele>
        <time>2014-08-17T11:13:41.000Z</time>
      </trkpt>
      <trkpt lat="43.0913430" lon="-1.7082520">
        <ele>563.499023</ele>
        <time>2014-08-17T11:13:42.000Z</time>
      </trkpt>
      <trkpt lat="43.0915600" lon="-1.7083630">
        <ele>563.068970</ele>
        <time>2014-08-17T11:13:46.000Z</time>
      </trkpt>
      <trkpt lat="43.0916060" lon="-1.7083960">
        <ele>562.403992</ele>
        <time>2014-08-17T11:13:47.000Z</time>
      </trkpt>
      <trkpt lat="43.0916530" lon="-1.7084260">
        <ele>562.023987</ele>
        <time>2014-08-17T11:13:48.000Z</time>
      </trkpt>
      <trkpt lat="43.0916970" lon="-1.7084560">
        <ele>561.006958</ele>
        <time>2014-08-17T11:13:49.000Z</time>
      </trkpt>
      <trkpt lat="43.0917410" lon="-1.7084820">
        <ele>561.043030</ele>
        <time>2014-08-17T11:13:50.000Z</time>
      </trkpt>
      <trkpt lat="43.0918730" lon="-1.7085410">
        <ele>561.051025</ele>
        <time>2014-08-17T11:13:53.000Z</time>
      </trkpt>
      <trkpt lat="43.0919220" lon="-1.7085500">
        <ele>561.044006</ele>
        <time>2014-08-17T11:13:54.000Z</time>
      </trkpt>
      <trkpt lat="43.0920440" lon="-1.7085610">
        <ele>561.085999</ele>
        <time>2014-08-17T11:13:57.000Z</time>
      </trkpt>
      <trkpt lat="43.0921120" lon="-1.7085540">
        <ele>561.434998</ele>
        <time>2014-08-17T11:13:59.000Z</time>
      </trkpt>
      <trkpt lat="43.0921440" lon="-1.7085440">
        <ele>561.887024</ele>
        <time>2014-08-17T11:14:00.000Z</time>
      </trkpt>
      <trkpt lat="43.0921760" lon="-1.7085340">
        <ele>562.480042</ele>
        <time>2014-08-17T11:14:01.000Z</time>
      </trkpt>
      <trkpt lat="43.0922080" lon="-1.7085230">
        <ele>562.856995</ele>
        <time>2014-08-17T11:14:02.000Z</time>
      </trkpt>
      <trkpt lat="43.0922410" lon="-1.7085100">
        <ele>563.200012</ele>
        <time>2014-08-17T11:14:03.000Z</time>
      </trkpt>
      <trkpt lat="43.0922750" lon="-1.7084920">
        <ele>563.219971</ele>
        <time>2014-08-17T11:14:04.000Z</time>
      </trkpt>
      <trkpt lat="43.0923460" lon="-1.7084530">
        <ele>563.206970</ele>
        <time>2014-08-17T11:14:06.000Z</time>
      </trkpt>
      <trkpt lat="43.0925270" lon="-1.7083630">
        <ele>563.221985</ele>
        <time>2014-08-17T11:14:10.000Z</time>
      </trkpt>
      <trkpt lat="43.0925770" lon="-1.7083460">
        <ele>563.229980</ele>
        <time>2014-08-17T11:14:11.000Z</time>
      </trkpt>
      <trkpt lat="43.0927230" lon="-1.7083160">
        <ele>562.843018</ele>
        <time>2014-08-17T11:14:15.000Z</time>
      </trkpt>
      <trkpt lat="43.0927350" lon="-1.7083180">
        <ele>562.484985</ele>
        <time>2014-08-17T11:14:16.000Z</time>
      </trkpt>
      <trkpt lat="43.0927400" lon="-1.7083170">
        <ele>562.033997</ele>
        <time>2014-08-17T11:14:17.000Z</time>
      </trkpt>
      <trkpt lat="43.0927420" lon="-1.7083130">
        <ele>562.276001</ele>
        <time>2014-08-17T11:14:18.000Z</time>
      </trkpt>
      <trkpt lat="43.0927790" lon="-1.7083020">
        <ele>562.258972</ele>
        <time>2014-08-17T11:15:24.000Z</time>
      </trkpt>
      <trkpt lat="43.0927960" lon="-1.7082980">
        <ele>561.676025</ele>
        <time>2014-08-17T11:15:25.000Z</time>
      </trkpt>
      <trkpt lat="43.0928910" lon="-1.7082810">
        <ele>561.290039</ele>
        <time>2014-08-17T11:15:28.000Z</time>
      </trkpt>
      <trkpt lat="43.0929350" lon="-1.7082790">
        <ele>560.218994</ele>
        <time>2014-08-17T11:15:29.000Z</time>
      </trkpt>
      <trkpt lat="43.0929810" lon="-1.7082750">
        <ele>559.606995</ele>
        <time>2014-08-17T11:15:30.000Z</time>
      </trkpt>
      <trkpt lat="43.0930230" lon="-1.7082690">
        <ele>559.033997</ele>
        <time>2014-08-17T11:15:31.000Z</time>
      </trkpt>
      <trkpt lat="43.0930630" lon="-1.7082650">
        <ele>558.421997</ele>
        <time>2014-08-17T11:15:32.000Z</time>
      </trkpt>
      <trkpt lat="43.0930980" lon="-1.7082620">
        <ele>557.844971</ele>
        <time>2014-08-17T11:15:33.000Z</time>
      </trkpt>
      <trkpt lat="43.0931270" lon="-1.7082580">
        <ele>557.456970</ele>
        <time>2014-08-17T11:15:34.000Z</time>
      </trkpt>
      <trkpt lat="43.0931550" lon="-1.7082520">
        <ele>556.846008</ele>
        <time>2014-08-17T11:15:35.000Z</time>
      </trkpt>
      <trkpt lat="43.0931800" lon="-1.7082460">
        <ele>556.268005</ele>
        <time>2014-08-17T11:15:36.000Z</time>
      </trkpt>
      <trkpt lat="43.0931990" lon="-1.7082310">
        <ele>555.621033</ele>
        <time>2014-08-17T11:15:37.000Z</time>
      </trkpt>
      <trkpt lat="43.0932070" lon="-1.7082260">
        <ele>555.231018</ele>
        <time>2014-08-17T11:15:38.000Z</time>
      </trkpt>
      <trkpt lat="43.0932090" lon="-1.7082240">
        <ele>555.260986</ele>
        <time>2014-08-17T11:15:39.000Z</time>
      </trkpt>
      <trkpt lat="43.0932350" lon="-1.7082110">
        <ele>555.207031</ele>
        <time>2014-08-17T11:17:13.000Z</time>
      </trkpt>
      <trkpt lat="43.0932970" lon="-1.7082110">
        <ele>554.807007</ele>
        <time>2014-08-17T11:17:15.000Z</time>
      </trkpt>
      <trkpt lat="43.0933430" lon="-1.7082100">
        <ele>554.210022</ele>
        <time>2014-08-17T11:17:16.000Z</time>
      </trkpt>
      <trkpt lat="43.0933930" lon="-1.7082070">
        <ele>553.877991</ele>
        <time>2014-08-17T11:17:17.000Z</time>
      </trkpt>
      <trkpt lat="43.0934520" lon="-1.7081950">
        <ele>553.431030</ele>
        <time>2014-08-17T11:17:18.000Z</time>
      </trkpt>
      <trkpt lat="43.0935130" lon="-1.7081790">
        <ele>552.872986</ele>
        <time>2014-08-17T11:17:19.000Z</time>
      </trkpt>
      <trkpt lat="43.0935700" lon="-1.7081570">
        <ele>552.271973</ele>
        <time>2014-08-17T11:17:20.000Z</time>
      </trkpt>
      <trkpt lat="43.0936330" lon="-1.7081340">
        <ele>551.624023</ele>
        <time>2014-08-17T11:17:21.000Z</time>
      </trkpt>
      <trkpt lat="43.0937020" lon="-1.7081180">
        <ele>550.687012</ele>
        <time>2014-08-17T11:17:22.000Z</time>
      </trkpt>
      <trkpt lat="43.0937670" lon="-1.7081260">
        <ele>549.815002</ele>
        <time>2014-08-17T11:17:23.000Z</time>
      </trkpt>
      <trkpt lat="43.0938250" lon="-1.7081520">
        <ele>548.664978</ele>
        <time>2014-08-17T11:17:24.000Z</time>
      </trkpt>
      <trkpt lat="43.0938810" lon="-1.7081870">
        <ele>547.611023</ele>
        <time>2014-08-17T11:17:25.000Z</time>
      </trkpt>
      <trkpt lat="43.0939330" lon="-1.7082220">
        <ele>546.406982</ele>
        <time>2014-08-17T11:17:26.000Z</time>
      </trkpt>
      <trkpt lat="43.0939790" lon="-1.7082560">
        <ele>545.668030</ele>
        <time>2014-08-17T11:17:27.000Z</time>
      </trkpt>
      <trkpt lat="43.0940200" lon="-1.7082890">
        <ele>544.696045</ele>
        <time>2014-08-17T11:17:28.000Z</time>
      </trkpt>
      <trkpt lat="43.0940550" lon="-1.7083150">
        <ele>543.679016</ele>
        <time>2014-08-17T11:17:29.000Z</time>
      </trkpt>
      <trkpt lat="43.0940850" lon="-1.7083300">
        <ele>542.651001</ele>
        <time>2014-08-17T11:17:30.000Z</time>
      </trkpt>
      <trkpt lat="43.0941110" lon="-1.7083400">
        <ele>541.890015</ele>
        <time>2014-08-17T11:17:31.000Z</time>
      </trkpt>
      <trkpt lat="43.0941410" lon="-1.7083440">
        <ele>541.822021</ele>
        <time>2014-08-17T11:17:32.000Z</time>
      </trkpt>
      <trkpt lat="43.0942190" lon="-1.7083540">
        <ele>541.474976</ele>
        <time>2014-08-17T11:17:34.000Z</time>
      </trkpt>
      <trkpt lat="43.0942650" lon="-1.7083440">
        <ele>540.825012</ele>
        <time>2014-08-17T11:17:35.000Z</time>
      </trkpt>
      <trkpt lat="43.0943150" lon="-1.7083240">
        <ele>540.425964</ele>
        <time>2014-08-17T11:17:36.000Z</time>
      </trkpt>
      <trkpt lat="43.0943650" lon="-1.7082930">
        <ele>540.007996</ele>
        <time>2014-08-17T11:17:37.000Z</time>
      </trkpt>
      <trkpt lat="43.0944210" lon="-1.7082610">
        <ele>539.406982</ele>
        <time>2014-08-17T11:17:38.000Z</time>
      </trkpt>
      <trkpt lat="43.0944830" lon="-1.7082320">
        <ele>539.419006</ele>
        <time>2014-08-17T11:17:39.000Z</time>
      </trkpt>
      <trkpt lat="43.0945440" lon="-1.7082070">
        <ele>539.057007</ele>
        <time>2014-08-17T11:17:40.000Z</time>
      </trkpt>
      <trkpt lat="43.0946050" lon="-1.7081950">
        <ele>538.609985</ele>
        <time>2014-08-17T11:17:41.000Z</time>
      </trkpt>
      <trkpt lat="43.0946660" lon="-1.7082130">
        <ele>538.261963</ele>
        <time>2014-08-17T11:17:42.000Z</time>
      </trkpt>
      <trkpt lat="43.0947220" lon="-1.7082520">
        <ele>537.861023</ele>
        <time>2014-08-17T11:17:43.000Z</time>
      </trkpt>
      <trkpt lat="43.0947730" lon="-1.7083050">
        <ele>537.442993</ele>
        <time>2014-08-17T11:17:44.000Z</time>
      </trkpt>
      <trkpt lat="43.0948210" lon="-1.7083590">
        <ele>537.486023</ele>
        <time>2014-08-17T11:17:45.000Z</time>
      </trkpt>
      <trkpt lat="43.0949130" lon="-1.7084810">
        <ele>537.094971</ele>
        <time>2014-08-17T11:17:47.000Z</time>
      </trkpt>
      <trkpt lat="43.0949390" lon="-1.7085760">
        <ele>536.648987</ele>
        <time>2014-08-17T11:17:48.000Z</time>
      </trkpt>
      <trkpt lat="43.0949560" lon="-1.7086840">
        <ele>536.023010</ele>
        <time>2014-08-17T11:17:49.000Z</time>
      </trkpt>
      <trkpt lat="43.0949620" lon="-1.7087980">
        <ele>535.406982</ele>
        <time>2014-08-17T11:17:50.000Z</time>
      </trkpt>
      <trkpt lat="43.0949580" lon="-1.7089160">
        <ele>534.815979</ele>
        <time>2014-08-17T11:17:51.000Z</time>
      </trkpt>
      <trkpt lat="43.0949480" lon="-1.7090400">
        <ele>534.213989</ele>
        <time>2014-08-17T11:17:52.000Z</time>
      </trkpt>
      <trkpt lat="43.0949310" lon="-1.7091650">
        <ele>533.457031</ele>
        <time>2014-08-17T11:17:53.000Z</time>
      </trkpt>
      <trkpt lat="43.0949060" lon="-1.7092980">
        <ele>532.828979</ele>
        <time>2014-08-17T11:17:54.000Z</time>
      </trkpt>
      <trkpt lat="43.0948750" lon="-1.7094400">
        <ele>532.278015</ele>
        <time>2014-08-17T11:17:55.000Z</time>
      </trkpt>
      <trkpt lat="43.0948390" lon="-1.7095690">
        <ele>531.419983</ele>
        <time>2014-08-17T11:17:56.000Z</time>
      </trkpt>
      <trkpt lat="43.0947890" lon="-1.7097050">
        <ele>529.673035</ele>
        <time>2014-08-17T11:17:57.000Z</time>
      </trkpt>
      <trkpt lat="43.0947300" lon="-1.7098510">
        <ele>528.497009</ele>
        <time>2014-08-17T11:17:58.000Z</time>
      </trkpt>
      <trkpt lat="43.0946800" lon="-1.7100110">
        <ele>527.023010</ele>
        <time>2014-08-17T11:17:59.000Z</time>
      </trkpt>
      <trkpt lat="43.0946500" lon="-1.7101780">
        <ele>525.825012</ele>
        <time>2014-08-17T11:18:00.000Z</time>
      </trkpt>
      <trkpt lat="43.0946350" lon="-1.7103580">
        <ele>524.206970</ele>
        <time>2014-08-17T11:18:01.000Z</time>
      </trkpt>
      <trkpt lat="43.0946290" lon="-1.7105490">
        <ele>522.645996</ele>
        <time>2014-08-17T11:18:02.000Z</time>
      </trkpt>
      <trkpt lat="43.0946200" lon="-1.7107560">
        <ele>521.044006</ele>
        <time>2014-08-17T11:18:03.000Z</time>
      </trkpt>
      <trkpt lat="43.0946050" lon="-1.7109540">
        <ele>519.497009</ele>
        <time>2014-08-17T11:18:04.000Z</time>
      </trkpt>
      <trkpt lat="43.0945780" lon="-1.7111530">
        <ele>517.629028</ele>
        <time>2014-08-17T11:18:05.000Z</time>
      </trkpt>
      <trkpt lat="43.0945410" lon="-1.7113400">
        <ele>516.078003</ele>
        <time>2014-08-17T11:18:06.000Z</time>
      </trkpt>
      <trkpt lat="43.0945080" lon="-1.7115160">
        <ele>514.260010</ele>
        <time>2014-08-17T11:18:07.000Z</time>
      </trkpt>
      <trkpt lat="43.0944930" lon="-1.7116780">
        <ele>512.492981</ele>
        <time>2014-08-17T11:18:08.000Z</time>
      </trkpt>
      <trkpt lat="43.0945010" lon="-1.7118190">
        <ele>512.059021</ele>
        <time>2014-08-17T11:18:09.000Z</time>
      </trkpt>
      <trkpt lat="43.0945270" lon="-1.7119450">
        <ele>511.602997</ele>
        <time>2014-08-17T11:18:10.000Z</time>
      </trkpt>
      <trkpt lat="43.0945660" lon="-1.7120690">
        <ele>511.022980</ele>
        <time>2014-08-17T11:18:11.000Z</time>
      </trkpt>
      <trkpt lat="43.0946100" lon="-1.7121790">
        <ele>510.606995</ele>
        <time>2014-08-17T11:18:12.000Z</time>
      </trkpt>
      <trkpt lat="43.0946640" lon="-1.7122810">
        <ele>510.081970</ele>
        <time>2014-08-17T11:18:13.000Z</time>
      </trkpt>
      <trkpt lat="43.0947230" lon="-1.7123710">
        <ele>509.480011</ele>
        <time>2014-08-17T11:18:14.000Z</time>
      </trkpt>
      <trkpt lat="43.0947850" lon="-1.7124420">
        <ele>508.822998</ele>
        <time>2014-08-17T11:18:15.000Z</time>
      </trkpt>
      <trkpt lat="43.0948570" lon="-1.7124850">
        <ele>508.095001</ele>
        <time>2014-08-17T11:18:16.000Z</time>
      </trkpt>
      <trkpt lat="43.0949350" lon="-1.7125060">
        <ele>507.093994</ele>
        <time>2014-08-17T11:18:17.000Z</time>
      </trkpt>
      <trkpt lat="43.0950210" lon="-1.7125130">
        <ele>506.235992</ele>
        <time>2014-08-17T11:18:18.000Z</time>
      </trkpt>
      <trkpt lat="43.0951050" lon="-1.7125100">
        <ele>505.249023</ele>
        <time>2014-08-17T11:18:19.000Z</time>
      </trkpt>
      <trkpt lat="43.0951880" lon="-1.7125060">
        <ele>504.236023</ele>
        <time>2014-08-17T11:18:20.000Z</time>
      </trkpt>
      <trkpt lat="43.0952660" lon="-1.7125020">
        <ele>503.216980</ele>
        <time>2014-08-17T11:18:21.000Z</time>
      </trkpt>
      <trkpt lat="43.0953370" lon="-1.7125090">
        <ele>501.217987</ele>
        <time>2014-08-17T11:18:22.000Z</time>
      </trkpt>
      <trkpt lat="43.0954030" lon="-1.7125390">
        <ele>500.207001</ele>
        <time>2014-08-17T11:18:23.000Z</time>
      </trkpt>
      <trkpt lat="43.0954590" lon="-1.7126090">
        <ele>498.889984</ele>
        <time>2014-08-17T11:18:24.000Z</time>
      </trkpt>
      <trkpt lat="43.0955080" lon="-1.7127040">
        <ele>497.647980</ele>
        <time>2014-08-17T11:18:25.000Z</time>
      </trkpt>
      <trkpt lat="43.0955530" lon="-1.7128090">
        <ele>496.471008</ele>
        <time>2014-08-17T11:18:26.000Z</time>
      </trkpt>
      <trkpt lat="43.0955970" lon="-1.7129050">
        <ele>495.012970</ele>
        <time>2014-08-17T11:18:27.000Z</time>
      </trkpt>
      <trkpt lat="43.0956410" lon="-1.7129960">
        <ele>493.872009</ele>
        <time>2014-08-17T11:18:28.000Z</time>
      </trkpt>
      <trkpt lat="43.0956890" lon="-1.7130840">
        <ele>492.684021</ele>
        <time>2014-08-17T11:18:29.000Z</time>
      </trkpt>
      <trkpt lat="43.0957400" lon="-1.7131700">
        <ele>491.427002</ele>
        <time>2014-08-17T11:18:30.000Z</time>
      </trkpt>
      <trkpt lat="43.0957910" lon="-1.7132500">
        <ele>490.494019</ele>
        <time>2014-08-17T11:18:31.000Z</time>
      </trkpt>
      <trkpt lat="43.0958370" lon="-1.7133290">
        <ele>489.057007</ele>
        <time>2014-08-17T11:18:32.000Z</time>
      </trkpt>
      <trkpt lat="43.0958750" lon="-1.7134110">
        <ele>487.821991</ele>
        <time>2014-08-17T11:18:33.000Z</time>
      </trkpt>
      <trkpt lat="43.0959120" lon="-1.7135020">
        <ele>486.606995</ele>
        <time>2014-08-17T11:18:34.000Z</time>
      </trkpt>
      <trkpt lat="43.0959460" lon="-1.7135770">
        <ele>485.285980</ele>
        <time>2014-08-17T11:18:35.000Z</time>
      </trkpt>
      <trkpt lat="43.0959820" lon="-1.7136340">
        <ele>484.214020</ele>
        <time>2014-08-17T11:18:36.000Z</time>
      </trkpt>
      <trkpt lat="43.0960200" lon="-1.7136800">
        <ele>483.066986</ele>
        <time>2014-08-17T11:18:37.000Z</time>
      </trkpt>
      <trkpt lat="43.0960570" lon="-1.7137220">
        <ele>481.848999</ele>
        <time>2014-08-17T11:18:38.000Z</time>
      </trkpt>
      <trkpt lat="43.0960890" lon="-1.7137540">
        <ele>480.858002</ele>
        <time>2014-08-17T11:18:39.000Z</time>
      </trkpt>
      <trkpt lat="43.0961130" lon="-1.7137820">
        <ele>480.009979</ele>
        <time>2014-08-17T11:18:40.000Z</time>
      </trkpt>
      <trkpt lat="43.0961310" lon="-1.7137980">
        <ele>479.033020</ele>
        <time>2014-08-17T11:18:41.000Z</time>
      </trkpt>
      <trkpt lat="43.0961430" lon="-1.7138120">
        <ele>478.071991</ele>
        <time>2014-08-17T11:18:42.000Z</time>
      </trkpt>
      <trkpt lat="43.0961490" lon="-1.7138200">
        <ele>477.013000</ele>
        <time>2014-08-17T11:18:43.000Z</time>
      </trkpt>
      <trkpt lat="43.0961510" lon="-1.7138200">
        <ele>477.014008</ele>
        <time>2014-08-17T11:18:44.000Z</time>
      </trkpt>
      <trkpt lat="43.0961510" lon="-1.7138220">
        <ele>475.006989</ele>
        <time>2014-08-17T11:18:45.000Z</time>
      </trkpt>
      <trkpt lat="43.0961650" lon="-1.7138410">
        <ele>475.063995</ele>
        <time>2014-08-17T11:19:42.000Z</time>
      </trkpt>
      <trkpt lat="43.0961750" lon="-1.7138610">
        <ele>475.062012</ele>
        <time>2014-08-17T11:19:43.000Z</time>
      </trkpt>
      <trkpt lat="43.0961910" lon="-1.7138930">
        <ele>474.665009</ele>
        <time>2014-08-17T11:19:44.000Z</time>
      </trkpt>
      <trkpt lat="43.0962160" lon="-1.7139790">
        <ele>474.267029</ele>
        <time>2014-08-17T11:19:46.000Z</time>
      </trkpt>
      <trkpt lat="43.0962250" lon="-1.7140370">
        <ele>473.876007</ele>
        <time>2014-08-17T11:19:47.000Z</time>
      </trkpt>
      <trkpt lat="43.0962310" lon="-1.7140870">
        <ele>473.497986</ele>
        <time>2014-08-17T11:19:48.000Z</time>
      </trkpt>
      <trkpt lat="43.0962300" lon="-1.7141370">
        <ele>472.850983</ele>
        <time>2014-08-17T11:19:49.000Z</time>
      </trkpt>
      <trkpt lat="43.0962180" lon="-1.7141880">
        <ele>472.411987</ele>
        <time>2014-08-17T11:19:50.000Z</time>
      </trkpt>
      <trkpt lat="43.0961970" lon="-1.7142360">
        <ele>471.832001</ele>
        <time>2014-08-17T11:19:51.000Z</time>
      </trkpt>
      <trkpt lat="43.0961690" lon="-1.7142790">
        <ele>471.204987</ele>
        <time>2014-08-17T11:19:52.000Z</time>
      </trkpt>
      <trkpt lat="43.0961350" lon="-1.7143130">
        <ele>470.806976</ele>
        <time>2014-08-17T11:19:53.000Z</time>
      </trkpt>
      <trkpt lat="43.0960970" lon="-1.7143420">
        <ele>470.227997</ele>
        <time>2014-08-17T11:19:54.000Z</time>
      </trkpt>
      <trkpt lat="43.0960560" lon="-1.7143680">
        <ele>469.895996</ele>
        <time>2014-08-17T11:19:55.000Z</time>
      </trkpt>
      <trkpt lat="43.0960170" lon="-1.7143940">
        <ele>469.489014</ele>
        <time>2014-08-17T11:19:56.000Z</time>
      </trkpt>
      <trkpt lat="43.0959770" lon="-1.7144150">
        <ele>468.830994</ele>
        <time>2014-08-17T11:19:57.000Z</time>
      </trkpt>
      <trkpt lat="43.0959420" lon="-1.7144360">
        <ele>468.439972</ele>
        <time>2014-08-17T11:19:58.000Z</time>
      </trkpt>
      <trkpt lat="43.0959100" lon="-1.7144540">
        <ele>468.071991</ele>
        <time>2014-08-17T11:19:59.000Z</time>
      </trkpt>
      <trkpt lat="43.0958460" lon="-1.7145020">
        <ele>467.434998</ele>
        <time>2014-08-17T11:20:01.000Z</time>
      </trkpt>
      <trkpt lat="43.0958160" lon="-1.7145240">
        <ele>467.021973</ele>
        <time>2014-08-17T11:20:02.000Z</time>
      </trkpt>
      <trkpt lat="43.0957870" lon="-1.7145480">
        <ele>466.662018</ele>
        <time>2014-08-17T11:20:03.000Z</time>
      </trkpt>
      <trkpt lat="43.0957540" lon="-1.7145790">
        <ele>466.007996</ele>
        <time>2014-08-17T11:20:04.000Z</time>
      </trkpt>
      <trkpt lat="43.0957180" lon="-1.7146100">
        <ele>465.606995</ele>
        <time>2014-08-17T11:20:05.000Z</time>
      </trkpt>
      <trkpt lat="43.0956820" lon="-1.7146390">
        <ele>465.218994</ele>
        <time>2014-08-17T11:20:06.000Z</time>
      </trkpt>
      <trkpt lat="43.0956450" lon="-1.7146720">
        <ele>464.847015</ele>
        <time>2014-08-17T11:20:07.000Z</time>
      </trkpt>
      <trkpt lat="43.0956030" lon="-1.7147090">
        <ele>464.209991</ele>
        <time>2014-08-17T11:20:08.000Z</time>
      </trkpt>
      <trkpt lat="43.0955630" lon="-1.7147400">
        <ele>463.462006</ele>
        <time>2014-08-17T11:20:09.000Z</time>
      </trkpt>
      <trkpt lat="43.0955240" lon="-1.7147670">
        <ele>462.841003</ele>
        <time>2014-08-17T11:20:10.000Z</time>
      </trkpt>
      <trkpt lat="43.0954850" lon="-1.7147910">
        <ele>462.083008</ele>
        <time>2014-08-17T11:20:11.000Z</time>
      </trkpt>
      <trkpt lat="43.0954440" lon="-1.7148150">
        <ele>461.256012</ele>
        <time>2014-08-17T11:20:12.000Z</time>
      </trkpt>
      <trkpt lat="43.0953740" lon="-1.7148090">
        <ele>460.495972</ele>
        <time>2014-08-17T11:20:13.000Z</time>
      </trkpt>
      <trkpt lat="43.0953060" lon="-1.7148020">
        <ele>459.431000</ele>
        <time>2014-08-17T11:20:14.000Z</time>
      </trkpt>
      <trkpt lat="43.0952460" lon="-1.7147870">
        <ele>458.623993</ele>
        <time>2014-08-17T11:20:15.000Z</time>
      </trkpt>
      <trkpt lat="43.0951870" lon="-1.7147760">
        <ele>457.807007</ele>
        <time>2014-08-17T11:20:16.000Z</time>
      </trkpt>
      <trkpt lat="43.0951280" lon="-1.7147610">
        <ele>456.815979</ele>
        <time>2014-08-17T11:20:17.000Z</time>
      </trkpt>
      <trkpt lat="43.0950620" lon="-1.7147360">
        <ele>456.294006</ele>
        <time>2014-08-17T11:20:18.000Z</time>
      </trkpt>
      <trkpt lat="43.0950020" lon="-1.7147010">
        <ele>455.436981</ele>
        <time>2014-08-17T11:20:19.000Z</time>
      </trkpt>
      <trkpt lat="43.0949470" lon="-1.7146680">
        <ele>454.838989</ele>
        <time>2014-08-17T11:20:20.000Z</time>
      </trkpt>
      <trkpt lat="43.0948980" lon="-1.7146510">
        <ele>454.018005</ele>
        <time>2014-08-17T11:20:21.000Z</time>
      </trkpt>
      <trkpt lat="43.0948570" lon="-1.7146540">
        <ele>453.450012</ele>
        <time>2014-08-17T11:20:22.000Z</time>
      </trkpt>
      <trkpt lat="43.0948210" lon="-1.7146640">
        <ele>452.822998</ele>
        <time>2014-08-17T11:20:23.000Z</time>
      </trkpt>
      <trkpt lat="43.0947880" lon="-1.7146690">
        <ele>452.213989</ele>
        <time>2014-08-17T11:20:24.000Z</time>
      </trkpt>
      <trkpt lat="43.0947570" lon="-1.7146800">
        <ele>451.053986</ele>
        <time>2014-08-17T11:20:25.000Z</time>
      </trkpt>
      <trkpt lat="43.0947250" lon="-1.7146920">
        <ele>450.408997</ele>
        <time>2014-08-17T11:20:26.000Z</time>
      </trkpt>
      <trkpt lat="43.0946960" lon="-1.7147070">
        <ele>449.607025</ele>
        <time>2014-08-17T11:20:27.000Z</time>
      </trkpt>
      <trkpt lat="43.0946740" lon="-1.7147290">
        <ele>449.097992</ele>
        <time>2014-08-17T11:20:28.000Z</time>
      </trkpt>
      <trkpt lat="43.0946570" lon="-1.7147510">
        <ele>448.015991</ele>
        <time>2014-08-17T11:20:29.000Z</time>
      </trkpt>
      <trkpt lat="43.0946440" lon="-1.7147750">
        <ele>447.229004</ele>
        <time>2014-08-17T11:20:30.000Z</time>
      </trkpt>
      <trkpt lat="43.0946370" lon="-1.7148040">
        <ele>446.260986</ele>
        <time>2014-08-17T11:20:31.000Z</time>
      </trkpt>
      <trkpt lat="43.0946330" lon="-1.7148340">
        <ele>445.230011</ele>
        <time>2014-08-17T11:20:32.000Z</time>
      </trkpt>
      <trkpt lat="43.0946320" lon="-1.7148680">
        <ele>444.272003</ele>
        <time>2014-08-17T11:20:33.000Z</time>
      </trkpt>
      <trkpt lat="43.0946470" lon="-1.7149770">
        <ele>443.054993</ele>
        <time>2014-08-17T11:20:34.000Z</time>
      </trkpt>
      <trkpt lat="43.0946370" lon="-1.7150630">
        <ele>441.822998</ele>
        <time>2014-08-17T11:20:35.000Z</time>
      </trkpt>
      <trkpt lat="43.0946440" lon="-1.7152230">
        <ele>440.483002</ele>
        <time>2014-08-17T11:20:36.000Z</time>
      </trkpt>
      <trkpt lat="43.0946370" lon="-1.7153520">
        <ele>439.011017</ele>
        <time>2014-08-17T11:20:37.000Z</time>
      </trkpt>
      <trkpt lat="43.0946300" lon="-1.7154930">
        <ele>437.407013</ele>
        <time>2014-08-17T11:20:38.000Z</time>
      </trkpt>
      <trkpt lat="43.0946210" lon="-1.7156210">
        <ele>436.048981</ele>
        <time>2014-08-17T11:20:39.000Z</time>
      </trkpt>
      <trkpt lat="43.0946210" lon="-1.7157370">
        <ele>434.497009</ele>
        <time>2014-08-17T11:20:40.000Z</time>
      </trkpt>
      <trkpt lat="43.0946270" lon="-1.7158440">
        <ele>432.850006</ele>
        <time>2014-08-17T11:20:41.000Z</time>
      </trkpt>
      <trkpt lat="43.0946490" lon="-1.7159290">
        <ele>431.231995</ele>
        <time>2014-08-17T11:20:42.000Z</time>
      </trkpt>
      <trkpt lat="43.0946840" lon="-1.7160020">
        <ele>429.610992</ele>
        <time>2014-08-17T11:20:44.000Z</time>
      </trkpt>
      <trkpt lat="43.0947130" lon="-1.7160510">
        <time>2014-08-17T11:20:45.000Z</time>
      </trkpt>
      <trkpt lat="43.0951230" lon="-1.7165080">
        <ele>386.580017</ele>
        <time>2019-01-09T16:23:44.000Z</time>
      </trkpt>
      <trkpt lat="43.0950800" lon="-1.7164420">
        <ele>385.928009</ele>
        <time>2019-01-09T16:23:45.000Z</time>
      </trkpt>
      <trkpt lat="43.0950430" lon="-1.7163510">
        <ele>385.514984</ele>
        <time>2019-01-09T16:23:46.000Z</time>
      </trkpt>
      <trkpt lat="43.0950290" lon="-1.7162620">
        <ele>385.388000</ele>
        <time>2019-01-09T16:23:47.000Z</time>
      </trkpt>
      <trkpt lat="43.0950190" lon="-1.7161650">
        <ele>385.221985</ele>
        <time>2019-01-09T16:23:48.000Z</time>
      </trkpt>
      <trkpt lat="43.0950250" lon="-1.7160800">
        <ele>385.114990</ele>
        <time>2019-01-09T16:23:49.000Z</time>
      </trkpt>
      <trkpt lat="43.0950330" lon="-1.7159770">
        <ele>385.544983</ele>
        <time>2019-01-09T16:23:50.000Z</time>
      </trkpt>
      <trkpt lat="43.0950570" lon="-1.7158630">
        <ele>386.574982</ele>
        <time>2019-01-09T16:23:52.000Z</time>
      </trkpt>
      <trkpt lat="43.0951410" lon="-1.7157780">
        <ele>385.928009</ele>
        <time>2019-01-09T16:23:54.000Z</time>
      </trkpt>
      <trkpt lat="43.0952170" lon="-1.7157430">
        <ele>385.519989</ele>
        <time>2019-01-09T16:23:55.000Z</time>
      </trkpt>
      <trkpt lat="43.0952660" lon="-1.7157540">
        <ele>385.308014</ele>
        <time>2019-01-09T16:23:56.000Z</time>
      </trkpt>
      <trkpt lat="43.0953390" lon="-1.7157690">
        <ele>385.229980</ele>
        <time>2019-01-09T16:23:57.000Z</time>
      </trkpt>
      <trkpt lat="43.0954190" lon="-1.7157810">
        <ele>384.749023</ele>
        <time>2019-01-09T16:23:58.000Z</time>
      </trkpt>
      <trkpt lat="43.0954870" lon="-1.7157870">
        <ele>383.666992</ele>
        <time>2019-01-09T16:23:59.000Z</time>
      </trkpt>
      <trkpt lat="43.0955790" lon="-1.7158140">
        <ele>382.983978</ele>
        <time>2019-01-09T16:24:00.000Z</time>
      </trkpt>
      <trkpt lat="43.0956730" lon="-1.7158350">
        <ele>383.387024</ele>
        <time>2019-01-09T16:24:01.000Z</time>
      </trkpt>
      <trkpt lat="43.0957480" lon="-1.7158590">
        <ele>383.120972</ele>
        <time>2019-01-09T16:24:02.000Z</time>
      </trkpt>
      <trkpt lat="43.0958390" lon="-1.7158740">
        <ele>383.054016</ele>
        <time>2019-01-09T16:24:03.000Z</time>
      </trkpt>
      <trkpt lat="43.0959150" lon="-1.7158890">
        <ele>382.593994</ele>
        <time>2019-01-09T16:24:04.000Z</time>
      </trkpt>
      <trkpt lat="43.0960010" lon="-1.7158550">
        <ele>382.633972</ele>
        <time>2019-01-09T16:24:05.000Z</time>
      </trkpt>
      <trkpt lat="43.0961010" lon="-1.7158140">
        <ele>382.355011</ele>
        <time>2019-01-09T16:24:06.000Z</time>
      </trkpt>
      <trkpt lat="43.0961780" lon="-1.7157560">
        <ele>382.109985</ele>
        <time>2019-01-09T16:24:07.000Z</time>
      </trkpt>
      <trkpt lat="43.0962610" lon="-1.7156830">
        <ele>381.608002</ele>
        <time>2019-01-09T16:24:08.000Z</time>
      </trkpt>
      <trkpt lat="43.0963350" lon="-1.7156310">
        <ele>380.915985</ele>
        <time>2019-01-09T16:24:09.000Z</time>
      </trkpt>
      <trkpt lat="43.0964100" lon="-1.7155640">
        <ele>380.534973</ele>
        <time>2019-01-09T16:24:10.000Z</time>
      </trkpt>
      <trkpt lat="43.0964830" lon="-1.7154960">
        <ele>380.632996</ele>
        <time>2019-01-09T16:24:11.000Z</time>
      </trkpt>
      <trkpt lat="43.0965380" lon="-1.7154170">
        <ele>381.149994</ele>
        <time>2019-01-09T16:24:12.000Z</time>
      </trkpt>
      <trkpt lat="43.0966020" lon="-1.7153360">
        <ele>381.492981</ele>
        <time>2019-01-09T16:24:13.000Z</time>
      </trkpt>
      <trkpt lat="43.0966390" lon="-1.7152570">
        <ele>381.256989</ele>
        <time>2019-01-09T16:24:14.000Z</time>
      </trkpt>
      <trkpt lat="43.0966770" lon="-1.7151450">
        <ele>381.149994</ele>
        <time>2019-01-09T16:24:15.000Z</time>
      </trkpt>
      <trkpt lat="43.0967280" lon="-1.7150530">
        <ele>381.050018</ele>
        <time>2019-01-09T16:24:16.000Z</time>
      </trkpt>
      <trkpt lat="43.0967840" lon="-1.7149600">
        <ele>381.442993</ele>
        <time>2019-01-09T16:24:17.000Z</time>
      </trkpt>
      <trkpt lat="43.0968310" lon="-1.7148750">
        <ele>381.664001</ele>
        <time>2019-01-09T16:24:18.000Z</time>
      </trkpt>
      <trkpt lat="43.0968800" lon="-1.7147860">
        <ele>381.709991</ele>
        <time>2019-01-09T16:24:19.000Z</time>
      </trkpt>
      <trkpt lat="43.0969240" lon="-1.7146900">
        <ele>381.408020</ele>
        <time>2019-01-09T16:24:20.000Z</time>
      </trkpt>
      <trkpt lat="43.0969600" lon="-1.7146070">
        <ele>381.287018</ele>
        <time>2019-01-09T16:24:21.000Z</time>
      </trkpt>
      <trkpt lat="43.0970170" lon="-1.7145090">
        <ele>381.556000</ele>
        <time>2019-01-09T16:24:22.000Z</time>
      </trkpt>
      <trkpt lat="43.0970640" lon="-1.7144260">
        <ele>381.783997</ele>
        <time>2019-01-09T16:24:23.000Z</time>
      </trkpt>
      <trkpt lat="43.0971010" lon="-1.7143370">
        <ele>381.851013</ele>
        <time>2019-01-09T16:24:24.000Z</time>
      </trkpt>
      <trkpt lat="43.0971390" lon="-1.7142600">
        <ele>381.523987</ele>
        <time>2019-01-09T16:24:25.000Z</time>
      </trkpt>
      <trkpt lat="43.0971680" lon="-1.7141910">
        <ele>381.328003</ele>
        <time>2019-01-09T16:24:26.000Z</time>
      </trkpt>
      <trkpt lat="43.0972020" lon="-1.7140960">
        <ele>381.251007</ele>
        <time>2019-01-09T16:24:27.000Z</time>
      </trkpt>
      <trkpt lat="43.0972370" lon="-1.7139960">
        <ele>381.121002</ele>
        <time>2019-01-09T16:24:28.000Z</time>
      </trkpt>
      <trkpt lat="43.0972660" lon="-1.7138980">
        <ele>385.134003</ele>
        <time>2019-01-09T16:24:29.000Z</time>
      </trkpt>
      <trkpt lat="43.0973040" lon="-1.7138000">
        <ele>389.154999</ele>
        <time>2019-01-09T16:24:30.000Z</time>
      </trkpt>
      <trkpt lat="43.0972660" lon="-1.7136260">
        <ele>391.509979</ele>
        <time>2019-01-09T16:24:31.000Z</time>
      </trkpt>
      <trkpt lat="43.0972870" lon="-1.7135140">
        <ele>392.907990</ele>
        <time>2019-01-09T16:24:32.000Z</time>
      </trkpt>
      <trkpt lat="43.0973210" lon="-1.7134040">
        <ele>393.385986</ele>
        <time>2019-01-09T16:24:33.000Z</time>
      </trkpt>
      <trkpt lat="43.0973830" lon="-1.7133480">
        <ele>392.014984</ele>
        <time>2019-01-09T16:24:34.000Z</time>
      </trkpt>
      <trkpt lat="43.0973760" lon="-1.7132310">
        <ele>389.673004</ele>
        <time>2019-01-09T16:24:35.000Z</time>
      </trkpt>
      <trkpt lat="43.0973970" lon="-1.7131270">
        <ele>387.440002</ele>
        <time>2019-01-09T16:24:36.000Z</time>
      </trkpt>
      <trkpt lat="43.0974070" lon="-1.7129730">
        <ele>383.462982</ele>
        <time>2019-01-09T16:24:38.000Z</time>
      </trkpt>
      <trkpt lat="43.0974230" lon="-1.7128920">
        <ele>379.726990</ele>
        <time>2019-01-09T16:24:39.000Z</time>
      </trkpt>
      <trkpt lat="43.0974350" lon="-1.7128200">
        <ele>377.120026</ele>
        <time>2019-01-09T16:24:40.000Z</time>
      </trkpt>
      <trkpt lat="43.0974480" lon="-1.7127380">
        <ele>375.179993</ele>
        <time>2019-01-09T16:24:41.000Z</time>
      </trkpt>
      <trkpt lat="43.0974730" lon="-1.7126410">
        <ele>373.931000</ele>
        <time>2019-01-09T16:24:42.000Z</time>
      </trkpt>
      <trkpt lat="43.0974980" lon="-1.7125320">
        <ele>372.860992</ele>
        <time>2019-01-09T16:24:43.000Z</time>
      </trkpt>
      <trkpt lat="43.0975370" lon="-1.7124470">
        <ele>372.507019</ele>
        <time>2019-01-09T16:24:44.000Z</time>
      </trkpt>
      <trkpt lat="43.0975800" lon="-1.7123450">
        <ele>372.307983</ele>
        <time>2019-01-09T16:24:45.000Z</time>
      </trkpt>
      <trkpt lat="43.0976210" lon="-1.7122550">
        <ele>371.816010</ele>
        <time>2019-01-09T16:24:46.000Z</time>
      </trkpt>
      <trkpt lat="43.0976640" lon="-1.7121590">
        <ele>371.135010</ele>
        <time>2019-01-09T16:24:47.000Z</time>
      </trkpt>
      <trkpt lat="43.0977040" lon="-1.7120550">
        <ele>370.782990</ele>
        <time>2019-01-09T16:24:48.000Z</time>
      </trkpt>
      <trkpt lat="43.0977270" lon="-1.7119480">
        <ele>370.449982</ele>
        <time>2019-01-09T16:24:49.000Z</time>
      </trkpt>
      <trkpt lat="43.0977500" lon="-1.7118360">
        <ele>369.833008</ele>
        <time>2019-01-09T16:24:50.000Z</time>
      </trkpt>
      <trkpt lat="43.0977710" lon="-1.7117320">
        <ele>369.136993</ele>
        <time>2019-01-09T16:24:51.000Z</time>
      </trkpt>
      <trkpt lat="43.0977800" lon="-1.7116140">
        <ele>368.789978</ele>
        <time>2019-01-09T16:24:52.000Z</time>
      </trkpt>
      <trkpt lat="43.0977810" lon="-1.7115170">
        <ele>368.489990</ele>
        <time>2019-01-09T16:24:53.000Z</time>
      </trkpt>
      <trkpt lat="43.0977800" lon="-1.7114050">
        <ele>368.233002</ele>
        <time>2019-01-09T16:24:54.000Z</time>
      </trkpt>
      <trkpt lat="43.0977820" lon="-1.7113030">
        <ele>367.722992</ele>
        <time>2019-01-09T16:24:55.000Z</time>
      </trkpt>
      <trkpt lat="43.0977880" lon="-1.7111980">
        <ele>367.014984</ele>
        <time>2019-01-09T16:24:56.000Z</time>
      </trkpt>
      <trkpt lat="43.0978020" lon="-1.7111010">
        <ele>366.607971</ele>
        <time>2019-01-09T16:24:57.000Z</time>
      </trkpt>
      <trkpt lat="43.0978190" lon="-1.7110230">
        <ele>366.386017</ele>
        <time>2019-01-09T16:24:58.000Z</time>
      </trkpt>
      <trkpt lat="43.0978990" lon="-1.7109300">
        <ele>364.924988</ele>
        <time>2019-01-09T16:25:00.000Z</time>
      </trkpt>
      <trkpt lat="43.0979630" lon="-1.7109020">
        <ele>362.933014</ele>
        <time>2019-01-09T16:25:01.000Z</time>
      </trkpt>
      <trkpt lat="43.0980390" lon="-1.7108570">
        <ele>362.130005</ele>
        <time>2019-01-09T16:25:02.000Z</time>
      </trkpt>
      <trkpt lat="43.0981200" lon="-1.7108180">
        <ele>360.493011</ele>
        <time>2019-01-09T16:25:03.000Z</time>
      </trkpt>
      <trkpt lat="43.0981950" lon="-1.7107690">
        <ele>359.036987</ele>
        <time>2019-01-09T16:25:04.000Z</time>
      </trkpt>
      <trkpt lat="43.0982640" lon="-1.7107520">
        <ele>357.869995</ele>
        <time>2019-01-09T16:25:05.000Z</time>
      </trkpt>
      <trkpt lat="43.0983340" lon="-1.7107280">
        <ele>357.179993</ele>
        <time>2019-01-09T16:25:06.000Z</time>
      </trkpt>
      <trkpt lat="43.0984010" lon="-1.7107140">
        <ele>356.722015</ele>
        <time>2019-01-09T16:25:07.000Z</time>
      </trkpt>
      <trkpt lat="43.0984700" lon="-1.7107060">
        <ele>356.462006</ele>
        <time>2019-01-09T16:25:08.000Z</time>
      </trkpt>
      <trkpt lat="43.0985360" lon="-1.7107380">
        <ele>355.808014</ele>
        <time>2019-01-09T16:25:09.000Z</time>
      </trkpt>
      <trkpt lat="43.0986020" lon="-1.7107870">
        <ele>354.707977</ele>
        <time>2019-01-09T16:25:10.000Z</time>
      </trkpt>
      <trkpt lat="43.0986390" lon="-1.7108690">
        <ele>353.625000</ele>
        <time>2019-01-09T16:25:11.000Z</time>
      </trkpt>
      <trkpt lat="43.0986760" lon="-1.7110460">
        <ele>351.544006</ele>
        <time>2019-01-09T16:25:13.000Z</time>
      </trkpt>
      <trkpt lat="43.0986760" lon="-1.7110460">
        <ele>351.541992</ele>
        <time>2019-01-09T16:25:13.000Z</time>
      </trkpt>
      <trkpt lat="43.0986870" lon="-1.7112510">
        <ele>348.759003</ele>
        <time>2019-01-09T16:25:15.000Z</time>
      </trkpt>
      <trkpt lat="43.0986870" lon="-1.7112510">
        <ele>348.772003</ele>
        <time>2019-01-09T16:25:15.000Z</time>
      </trkpt>
      <trkpt lat="43.0986810" lon="-1.7114710">
        <ele>347.056000</ele>
        <time>2019-01-09T16:25:17.000Z</time>
      </trkpt>
      <trkpt lat="43.0986810" lon="-1.7114710">
        <ele>347.069000</ele>
        <time>2019-01-09T16:25:17.000Z</time>
      </trkpt>
      <trkpt lat="43.0986740" lon="-1.7115820">
        <ele>346.259003</ele>
        <time>2019-01-09T16:25:18.000Z</time>
      </trkpt>
      <trkpt lat="43.0986680" lon="-1.7116940">
        <ele>345.364014</ele>
        <time>2019-01-09T16:25:19.000Z</time>
      </trkpt>
      <trkpt lat="43.0986680" lon="-1.7118010">
        <ele>344.806000</ele>
        <time>2019-01-09T16:25:20.000Z</time>
      </trkpt>
      <trkpt lat="43.0986600" lon="-1.7119150">
        <ele>340.816010</ele>
        <time>2019-01-09T16:25:21.000Z</time>
      </trkpt>
      <trkpt lat="43.0986540" lon="-1.7120320">
        <ele>336.808014</ele>
        <time>2019-01-09T16:25:22.000Z</time>
      </trkpt>
      <trkpt lat="43.0986550" lon="-1.7121430">
        <ele>332.819000</ele>
        <time>2019-01-09T16:25:23.000Z</time>
      </trkpt>
      <trkpt lat="43.0986520" lon="-1.7122490">
        <ele>328.828003</ele>
        <time>2019-01-09T16:25:24.000Z</time>
      </trkpt>
      <trkpt lat="43.0986460" lon="-1.7123600">
        <ele>324.865997</ele>
        <time>2019-01-09T16:25:25.000Z</time>
      </trkpt>
      <trkpt lat="43.0986450" lon="-1.7124670">
        <ele>323.352997</ele>
        <time>2019-01-09T16:25:26.000Z</time>
      </trkpt>
      <trkpt lat="43.0986410" lon="-1.7125670">
        <ele>323.626007</ele>
        <time>2019-01-09T16:25:27.000Z</time>
      </trkpt>
      <trkpt lat="43.0986400" lon="-1.7126610">
        <ele>325.049988</ele>
        <time>2019-01-09T16:25:28.000Z</time>
      </trkpt>
      <trkpt lat="43.0986260" lon="-1.7127840">
        <ele>327.072998</ele>
        <time>2019-01-09T16:25:29.000Z</time>
      </trkpt>
      <trkpt lat="43.0986290" lon="-1.7128880">
        <ele>327.863007</ele>
        <time>2019-01-09T16:25:30.000Z</time>
      </trkpt>
      <trkpt lat="43.0986420" lon="-1.7130020">
        <ele>328.386993</ele>
        <time>2019-01-09T16:25:31.000Z</time>
      </trkpt>
      <trkpt lat="43.0986540" lon="-1.7131160">
        <ele>328.641998</ele>
        <time>2019-01-09T16:25:32.000Z</time>
      </trkpt>
      <trkpt lat="43.0986770" lon="-1.7132310">
        <ele>329.226013</ele>
        <time>2019-01-09T16:25:33.000Z</time>
      </trkpt>
      <trkpt lat="43.0986980" lon="-1.7133610">
        <ele>329.908020</ele>
        <time>2019-01-09T16:25:34.000Z</time>
      </trkpt>
      <trkpt lat="43.0987340" lon="-1.7134780">
        <ele>330.341003</ele>
        <time>2019-01-09T16:25:35.000Z</time>
      </trkpt>
      <trkpt lat="43.0987510" lon="-1.7135810">
        <ele>330.249969</ele>
        <time>2019-01-09T16:25:36.000Z</time>
      </trkpt>
      <trkpt lat="43.0987800" lon="-1.7137410">
        <ele>330.977997</ele>
        <time>2019-01-09T16:25:37.000Z</time>
      </trkpt>
      <trkpt lat="43.0988050" lon="-1.7138520">
        <ele>330.985016</ele>
        <time>2019-01-09T16:25:38.000Z</time>
      </trkpt>
      <trkpt lat="43.0988340" lon="-1.7139550">
        <ele>331.368011</ele>
        <time>2019-01-09T16:25:39.000Z</time>
      </trkpt>
      <trkpt lat="43.0988630" lon="-1.7140590">
        <ele>331.652008</ele>
        <time>2019-01-09T16:25:40.000Z</time>
      </trkpt>
      <trkpt lat="43.0988930" lon="-1.7141640">
        <ele>331.445007</ele>
        <time>2019-01-09T16:25:41.000Z</time>
      </trkpt>
      <trkpt lat="43.0989220" lon="-1.7142710">
        <ele>331.325012</ele>
        <time>2019-01-09T16:25:42.000Z</time>
      </trkpt>
      <trkpt lat="43.0989490" lon="-1.7143790">
        <ele>331.263977</ele>
        <time>2019-01-09T16:25:43.000Z</time>
      </trkpt>
      <trkpt lat="43.0989770" lon="-1.7144840">
        <ele>331.106018</ele>
        <time>2019-01-09T16:25:44.000Z</time>
      </trkpt>
      <trkpt lat="43.0990050" lon="-1.7145830">
        <ele>331.115997</ele>
        <time>2019-01-09T16:25:45.000Z</time>
      </trkpt>
      <trkpt lat="43.0990380" lon="-1.7146680">
        <ele>331.108002</ele>
        <time>2019-01-09T16:25:46.000Z</time>
      </trkpt>
      <trkpt lat="43.0990680" lon="-1.7147660">
        <ele>331.189026</ele>
        <time>2019-01-09T16:25:47.000Z</time>
      </trkpt>
      <trkpt lat="43.0991050" lon="-1.7148480">
        <ele>331.117981</ele>
        <time>2019-01-09T16:25:48.000Z</time>
      </trkpt>
      <trkpt lat="43.0991440" lon="-1.7149340">
        <ele>331.156006</ele>
        <time>2019-01-09T16:25:49.000Z</time>
      </trkpt>
      <trkpt lat="43.0991930" lon="-1.7150030">
        <ele>330.712982</ele>
        <time>2019-01-09T16:25:50.000Z</time>
      </trkpt>
      <trkpt lat="43.0992490" lon="-1.7150660">
        <ele>330.156006</ele>
        <time>2019-01-09T16:25:51.000Z</time>
      </trkpt>
      <trkpt lat="43.0993190" lon="-1.7150980">
        <ele>328.519989</ele>
        <time>2019-01-09T16:25:52.000Z</time>
      </trkpt>
      <trkpt lat="43.0993840" lon="-1.7151480">
        <ele>327.932983</ele>
        <time>2019-01-09T16:25:53.000Z</time>
      </trkpt>
      <trkpt lat="43.0994600" lon="-1.7151490">
        <ele>326.493011</ele>
        <time>2019-01-09T16:25:54.000Z</time>
      </trkpt>
      <trkpt lat="43.0995330" lon="-1.7151550">
        <ele>325.556030</ele>
        <time>2019-01-09T16:25:55.000Z</time>
      </trkpt>
      <trkpt lat="43.0996040" lon="-1.7151660">
        <ele>324.958984</ele>
        <time>2019-01-09T16:25:56.000Z</time>
      </trkpt>
      <trkpt lat="43.0996840" lon="-1.7151660">
        <ele>324.614014</ele>
        <time>2019-01-09T16:25:57.000Z</time>
      </trkpt>
      <trkpt lat="43.0997540" lon="-1.7151480">
        <ele>324.407990</ele>
        <time>2019-01-09T16:25:58.000Z</time>
      </trkpt>
      <trkpt lat="43.0998490" lon="-1.7151370">
        <ele>323.958008</ele>
        <time>2019-01-09T16:25:59.000Z</time>
      </trkpt>
      <trkpt lat="43.0999310" lon="-1.7151270">
        <ele>323.617004</ele>
        <time>2019-01-09T16:26:00.000Z</time>
      </trkpt>
      <trkpt lat="43.1000100" lon="-1.7151190">
        <ele>323.474976</ele>
        <time>2019-01-09T16:26:01.000Z</time>
      </trkpt>
      <trkpt lat="43.1000990" lon="-1.7151180">
        <ele>323.311981</ele>
        <time>2019-01-09T16:26:02.000Z</time>
      </trkpt>
      <trkpt lat="43.1001740" lon="-1.7151430">
        <ele>323.235016</ele>
        <time>2019-01-09T16:26:03.000Z</time>
      </trkpt>
      <trkpt lat="43.1002510" lon="-1.7151760">
        <ele>323.229004</ele>
        <time>2019-01-09T16:26:04.000Z</time>
      </trkpt>
      <trkpt lat="43.1003380" lon="-1.7151990">
        <ele>322.851990</ele>
        <time>2019-01-09T16:26:05.000Z</time>
      </trkpt>
      <trkpt lat="43.1004160" lon="-1.7152360">
        <ele>322.532013</ele>
        <time>2019-01-09T16:26:06.000Z</time>
      </trkpt>
      <trkpt lat="43.1004940" lon="-1.7152370">
        <ele>322.371979</ele>
        <time>2019-01-09T16:26:07.000Z</time>
      </trkpt>
      <trkpt lat="43.1005760" lon="-1.7152580">
        <ele>322.213013</ele>
        <time>2019-01-09T16:26:08.000Z</time>
      </trkpt>
      <trkpt lat="43.1006590" lon="-1.7152590">
        <ele>321.713989</ele>
        <time>2019-01-09T16:26:09.000Z</time>
      </trkpt>
      <trkpt lat="43.1007460" lon="-1.7152540">
        <ele>321.808014</ele>
        <time>2019-01-09T16:26:10.000Z</time>
      </trkpt>
      <trkpt lat="43.1008880" lon="-1.7151570">
        <ele>321.340027</ele>
        <time>2019-01-09T16:26:12.000Z</time>
      </trkpt>
      <trkpt lat="43.1008880" lon="-1.7151570">
        <ele>321.358978</ele>
        <time>2019-01-09T16:26:12.000Z</time>
      </trkpt>
      <trkpt lat="43.1009460" lon="-1.7150890">
        <ele>320.466980</ele>
        <time>2019-01-09T16:26:13.000Z</time>
      </trkpt>
      <trkpt lat="43.1009950" lon="-1.7150160">
        <ele>319.954010</ele>
        <time>2019-01-09T16:26:14.000Z</time>
      </trkpt>
      <trkpt lat="43.1010510" lon="-1.7149370">
        <ele>319.617004</ele>
        <time>2019-01-09T16:26:15.000Z</time>
      </trkpt>
      <trkpt lat="43.1011070" lon="-1.7148560">
        <ele>319.071014</ele>
        <time>2019-01-09T16:26:16.000Z</time>
      </trkpt>
      <trkpt lat="43.1011640" lon="-1.7147750">
        <ele>319.063995</ele>
        <time>2019-01-09T16:26:17.000Z</time>
      </trkpt>
      <trkpt lat="43.1012220" lon="-1.7146930">
        <ele>319.063995</ele>
        <time>2019-01-09T16:26:18.000Z</time>
      </trkpt>
      <trkpt lat="43.1012660" lon="-1.7146080">
        <ele>319.048981</ele>
        <time>2019-01-09T16:26:19.000Z</time>
      </trkpt>
      <trkpt lat="43.1013350" lon="-1.7145120">
        <ele>319.001984</ele>
        <time>2019-01-09T16:26:20.000Z</time>
      </trkpt>
      <trkpt lat="43.1013850" lon="-1.7144130">
        <ele>319.022003</ele>
        <time>2019-01-09T16:26:21.000Z</time>
      </trkpt>
      <trkpt lat="43.1014290" lon="-1.7143150">
        <ele>318.608002</ele>
        <time>2019-01-09T16:26:22.000Z</time>
      </trkpt>
      <trkpt lat="43.1014820" lon="-1.7142160">
        <ele>317.636993</ele>
        <time>2019-01-09T16:26:23.000Z</time>
      </trkpt>
      <trkpt lat="43.1015300" lon="-1.7141240">
        <ele>316.655975</ele>
        <time>2019-01-09T16:26:24.000Z</time>
      </trkpt>
      <trkpt lat="43.1015740" lon="-1.7140370">
        <ele>316.023987</ele>
        <time>2019-01-09T16:26:25.000Z</time>
      </trkpt>
      <trkpt lat="43.1016140" lon="-1.7139480">
        <ele>315.261017</ele>
        <time>2019-01-09T16:26:26.000Z</time>
      </trkpt>
      <trkpt lat="43.1016550" lon="-1.7138400">
        <ele>314.753998</ele>
        <time>2019-01-09T16:26:27.000Z</time>
      </trkpt>
      <trkpt lat="43.1016970" lon="-1.7137370">
        <ele>314.817993</ele>
        <time>2019-01-09T16:26:28.000Z</time>
      </trkpt>
      <trkpt lat="43.1017260" lon="-1.7136560">
        <ele>314.571014</ele>
        <time>2019-01-09T16:26:29.000Z</time>
      </trkpt>
      <trkpt lat="43.1017510" lon="-1.7135670">
        <ele>313.130981</ele>
        <time>2019-01-09T16:26:30.000Z</time>
      </trkpt>
      <trkpt lat="43.1017800" lon="-1.7134990">
        <ele>312.360992</ele>
        <time>2019-01-09T16:26:31.000Z</time>
      </trkpt>
      <trkpt lat="43.1018050" lon="-1.7134090">
        <ele>311.420990</ele>
        <time>2019-01-09T16:26:32.000Z</time>
      </trkpt>
      <trkpt lat="43.1018240" lon="-1.7132910">
        <ele>310.513000</ele>
        <time>2019-01-09T16:26:33.000Z</time>
      </trkpt>
      <trkpt lat="43.1018380" lon="-1.7131780">
        <ele>309.907990</ele>
        <time>2019-01-09T16:26:34.000Z</time>
      </trkpt>
      <trkpt lat="43.1018460" lon="-1.7130480">
        <ele>309.618988</ele>
        <time>2019-01-09T16:26:35.000Z</time>
      </trkpt>
      <trkpt lat="43.1018480" lon="-1.7129330">
        <ele>309.458008</ele>
        <time>2019-01-09T16:26:36.000Z</time>
      </trkpt>
      <trkpt lat="43.1018390" lon="-1.7128200">
        <ele>309.355988</ele>
        <time>2019-01-09T16:26:37.000Z</time>
      </trkpt>
      <trkpt lat="43.1018310" lon="-1.7127020">
        <ele>309.682983</ele>
        <time>2019-01-09T16:26:38.000Z</time>
      </trkpt>
      <trkpt lat="43.1018140" lon="-1.7125880">
        <ele>309.876007</ele>
        <time>2019-01-09T16:26:39.000Z</time>
      </trkpt>
      <trkpt lat="43.1017720" lon="-1.7125120">
        <ele>308.790009</ele>
        <time>2019-01-09T16:26:40.000Z</time>
      </trkpt>
      <trkpt lat="43.1017400" lon="-1.7124250">
        <ele>308.153015</ele>
        <time>2019-01-09T16:26:41.000Z</time>
      </trkpt>
      <trkpt lat="43.1016950" lon="-1.7123360">
        <ele>308.162994</ele>
        <time>2019-01-09T16:26:42.000Z</time>
      </trkpt>
      <trkpt lat="43.1016510" lon="-1.7122550">
        <ele>308.149017</ele>
        <time>2019-01-09T16:26:43.000Z</time>
      </trkpt>
      <trkpt lat="43.1016260" lon="-1.7121620">
        <ele>308.101990</ele>
        <time>2019-01-09T16:26:44.000Z</time>
      </trkpt>
      <trkpt lat="43.1016080" lon="-1.7120530">
        <ele>308.121979</ele>
        <time>2019-01-09T16:26:45.000Z</time>
      </trkpt>
      <trkpt lat="43.1016080" lon="-1.7119480">
        <ele>307.708008</ele>
        <time>2019-01-09T16:26:46.000Z</time>
      </trkpt>
      <trkpt lat="43.1016200" lon="-1.7118450">
        <ele>307.916992</ele>
        <time>2019-01-09T16:26:47.000Z</time>
      </trkpt>
      <trkpt lat="43.1016490" lon="-1.7117630">
        <ele>307.656006</ele>
        <time>2019-01-09T16:26:48.000Z</time>
      </trkpt>
      <trkpt lat="43.1016760" lon="-1.7116790">
        <ele>303.643982</ele>
        <time>2019-01-09T16:26:49.000Z</time>
      </trkpt>
      <trkpt lat="43.1017140" lon="-1.7116080">
        <ele>299.820984</ele>
        <time>2019-01-09T16:26:50.000Z</time>
      </trkpt>
      <trkpt lat="43.1017560" lon="-1.7115140">
        <ele>297.923981</ele>
        <time>2019-01-09T16:26:51.000Z</time>
      </trkpt>
      <trkpt lat="43.1017930" lon="-1.7114290">
        <ele>297.287994</ele>
        <time>2019-01-09T16:26:52.000Z</time>
      </trkpt>
      <trkpt lat="43.1018160" lon="-1.7113240">
        <ele>297.681000</ele>
        <time>2019-01-09T16:26:53.000Z</time>
      </trkpt>
      <trkpt lat="43.1018580" lon="-1.7111590">
        <ele>297.490997</ele>
        <time>2019-01-09T16:26:55.000Z</time>
      </trkpt>
      <trkpt lat="43.1018720" lon="-1.7110710">
        <ele>297.382996</ele>
        <time>2019-01-09T16:26:56.000Z</time>
      </trkpt>
      <trkpt lat="43.1018870" lon="-1.7109760">
        <ele>298.024994</ele>
        <time>2019-01-09T16:26:57.000Z</time>
      </trkpt>
      <trkpt lat="43.1018910" lon="-1.7108830">
        <ele>298.416992</ele>
        <time>2019-01-09T16:26:58.000Z</time>
      </trkpt>
      <trkpt lat="43.1018990" lon="-1.7107850">
        <ele>298.708008</ele>
        <time>2019-01-09T16:26:59.000Z</time>
      </trkpt>
      <trkpt lat="43.1019110" lon="-1.7106890">
        <ele>298.591003</ele>
        <time>2019-01-09T16:27:00.000Z</time>
      </trkpt>
      <trkpt lat="43.1019060" lon="-1.7105920">
        <ele>298.470001</ele>
        <time>2019-01-09T16:27:01.000Z</time>
      </trkpt>
      <trkpt lat="43.1019060" lon="-1.7105000">
        <ele>298.337982</ele>
        <time>2019-01-09T16:27:02.000Z</time>
      </trkpt>
      <trkpt lat="43.1018960" lon="-1.7104000">
        <ele>298.264984</ele>
        <time>2019-01-09T16:27:03.000Z</time>
      </trkpt>
      <trkpt lat="43.1018830" lon="-1.7103050">
        <ele>297.847992</ele>
        <time>2019-01-09T16:27:04.000Z</time>
      </trkpt>
      <trkpt lat="43.1018670" lon="-1.7102100">
        <ele>297.992004</ele>
        <time>2019-01-09T16:27:05.000Z</time>
      </trkpt>
      <trkpt lat="43.1018460" lon="-1.7101050">
        <ele>297.615021</ele>
        <time>2019-01-09T16:27:06.000Z</time>
      </trkpt>
      <trkpt lat="43.1018040" lon="-1.7100190">
        <ele>297.415009</ele>
        <time>2019-01-09T16:27:07.000Z</time>
      </trkpt>
      <trkpt lat="43.1017550" lon="-1.7099380">
        <ele>297.393005</ele>
        <time>2019-01-09T16:27:08.000Z</time>
      </trkpt>
      <trkpt lat="43.1017040" lon="-1.7098560">
        <ele>297.265015</ele>
        <time>2019-01-09T16:27:09.000Z</time>
      </trkpt>
      <trkpt lat="43.1016530" lon="-1.7097780">
        <ele>297.621002</ele>
        <time>2019-01-09T16:27:10.000Z</time>
      </trkpt>
      <trkpt lat="43.1016110" lon="-1.7096690">
        <ele>297.808014</ele>
        <time>2019-01-09T16:27:11.000Z</time>
      </trkpt>
      <trkpt lat="43.1015580" lon="-1.7095830">
        <ele>297.911987</ele>
        <time>2019-01-09T16:27:12.000Z</time>
      </trkpt>
      <trkpt lat="43.1015170" lon="-1.7095000">
        <ele>298.091003</ele>
        <time>2019-01-09T16:27:13.000Z</time>
      </trkpt>
      <trkpt lat="43.1014740" lon="-1.7094190">
        <ele>298.058990</ele>
        <time>2019-01-09T16:27:14.000Z</time>
      </trkpt>
      <trkpt lat="43.1014260" lon="-1.7093340">
        <ele>298.096008</ele>
        <time>2019-01-09T16:27:15.000Z</time>
      </trkpt>
      <trkpt lat="43.1013840" lon="-1.7092470">
        <ele>297.628998</ele>
        <time>2019-01-09T16:27:16.000Z</time>
      </trkpt>
      <trkpt lat="43.1013350" lon="-1.7091690">
        <ele>297.423004</ele>
        <time>2019-01-09T16:27:17.000Z</time>
      </trkpt>
      <trkpt lat="43.1012920" lon="-1.7090650">
        <ele>297.346008</ele>
        <time>2019-01-09T16:27:18.000Z</time>
      </trkpt>
      <trkpt lat="43.1012480" lon="-1.7089770">
        <ele>297.246002</ele>
        <time>2019-01-09T16:27:19.000Z</time>
      </trkpt>
      <trkpt lat="43.1012040" lon="-1.7088950">
        <ele>297.265991</ele>
        <time>2019-01-09T16:27:20.000Z</time>
      </trkpt>
      <trkpt lat="43.1011580" lon="-1.7088130">
        <ele>296.829010</ele>
        <time>2019-01-09T16:27:21.000Z</time>
      </trkpt>
      <trkpt lat="43.1010320" lon="-1.7087150">
        <ele>295.321014</ele>
        <time>2019-01-09T16:27:23.000Z</time>
      </trkpt>
      <trkpt lat="43.1010320" lon="-1.7087150">
        <ele>295.308014</ele>
        <time>2019-01-09T16:27:23.000Z</time>
      </trkpt>
      <trkpt lat="43.1008860" lon="-1.7087200">
        <ele>292.699005</ele>
        <time>2019-01-09T16:27:25.000Z</time>
      </trkpt>
      <trkpt lat="43.1008860" lon="-1.7087200">
        <ele>292.667999</ele>
        <time>2019-01-09T16:27:25.000Z</time>
      </trkpt>
      <trkpt lat="43.1007060" lon="-1.7086820">
        <ele>290.145996</ele>
        <time>2019-01-09T16:27:28.000Z</time>
      </trkpt>
      <trkpt lat="43.1007060" lon="-1.7086820">
        <ele>290.113007</ele>
        <time>2019-01-09T16:27:28.000Z</time>
      </trkpt>
      <trkpt lat="43.1007060" lon="-1.7086820">
        <ele>290.195984</ele>
        <time>2019-01-09T16:27:28.000Z</time>
      </trkpt>
      <trkpt lat="43.1005090" lon="-1.7085960">
        <ele>288.929993</ele>
        <time>2019-01-09T16:27:32.000Z</time>
      </trkpt>
      <trkpt lat="43.1005090" lon="-1.7085960">
        <ele>288.912994</ele>
        <time>2019-01-09T16:27:32.000Z</time>
      </trkpt>
      <trkpt lat="43.1005090" lon="-1.7085960">
        <ele>288.942993</ele>
        <time>2019-01-09T16:27:32.000Z</time>
      </trkpt>
      <trkpt lat="43.1005090" lon="-1.7085960">
        <ele>288.994995</ele>
        <time>2019-01-09T16:27:32.000Z</time>
      </trkpt>
      <trkpt lat="43.1004970" lon="-1.7084550">
        <ele>285.248993</ele>
        <time>2019-01-09T16:27:37.000Z</time>
      </trkpt>
      <trkpt lat="43.1004970" lon="-1.7084550">
        <ele>285.222992</ele>
        <time>2019-01-09T16:27:37.000Z</time>
      </trkpt>
      <trkpt lat="43.1004970" lon="-1.7084550">
        <ele>285.208008</ele>
        <time>2019-01-09T16:27:37.000Z</time>
      </trkpt>
      <trkpt lat="43.1004970" lon="-1.7084550">
        <ele>285.242004</ele>
        <time>2019-01-09T16:27:37.000Z</time>
      </trkpt>
      <trkpt lat="43.1004970" lon="-1.7084550">
        <ele>285.261017</ele>
        <time>2019-01-09T16:27:37.000Z</time>
      </trkpt>
      <trkpt lat="43.1008750" lon="-1.7082000">
        <ele>282.998993</ele>
        <time>2019-01-09T16:27:44.000Z</time>
      </trkpt>
      <trkpt lat="43.1008750" lon="-1.7082000">
        <ele>282.985992</ele>
        <time>2019-01-09T16:27:44.000Z</time>
      </trkpt>
      <trkpt lat="43.1008750" lon="-1.7082000">
        <ele>282.979004</ele>
        <time>2019-01-09T16:27:44.000Z</time>
      </trkpt>
      <trkpt lat="43.1008750" lon="-1.7082000">
        <ele>282.912994</ele>
        <time>2019-01-09T16:27:44.000Z</time>
      </trkpt>
      <trkpt lat="43.1008750" lon="-1.7082000">
        <ele>282.925995</ele>
        <time>2019-01-09T16:27:44.000Z</time>
      </trkpt>
      <trkpt lat="43.1008750" lon="-1.7082000">
        <ele>282.966003</ele>
        <time>2019-01-09T16:27:44.000Z</time>
      </trkpt>
      <trkpt lat="43.1008750" lon="-1.7082000">
        <ele>282.932007</ele>
        <time>2019-01-09T16:27:44.000Z</time>
      </trkpt>
      <trkpt lat="43.1010760" lon="-1.7079990">
        <ele>279.791992</ele>
        <time>2019-01-09T16:27:48.000Z</time>
      </trkpt>
      <trkpt lat="43.1010760" lon="-1.7079990">
        <ele>279.710999</ele>
        <time>2019-01-09T16:27:48.000Z</time>
      </trkpt>
      <trkpt lat="43.1010760" lon="-1.7079990">
        <ele>279.708008</ele>
        <time>2019-01-09T16:27:48.000Z</time>
      </trkpt>
      <trkpt lat="43.1010760" lon="-1.7079990">
        <ele>279.746002</ele>
        <time>2019-01-09T16:27:48.000Z</time>
      </trkpt>
      <trkpt lat="43.1010910" lon="-1.7079280">
        <ele>278.625000</ele>
        <time>2019-01-09T16:27:49.000Z</time>
      </trkpt>
      <trkpt lat="43.1010910" lon="-1.7078420">
        <ele>277.643005</ele>
        <time>2019-01-09T16:27:50.000Z</time>
      </trkpt>
      <trkpt lat="43.1010500" lon="-1.7077540">
        <ele>277.019989</ele>
        <time>2019-01-09T16:27:51.000Z</time>
      </trkpt>
      <trkpt lat="43.1010400" lon="-1.7076620">
        <ele>276.233002</ele>
        <time>2019-01-09T16:27:52.000Z</time>
      </trkpt>
      <trkpt lat="43.1010580" lon="-1.7075760">
        <ele>275.376984</ele>
        <time>2019-01-09T16:27:53.000Z</time>
      </trkpt>
      <trkpt lat="43.1011570" lon="-1.7074670">
        <ele>274.309998</ele>
        <time>2019-01-09T16:27:55.000Z</time>
      </trkpt>
      <trkpt lat="43.1011570" lon="-1.7074670">
        <ele>274.339996</ele>
        <time>2019-01-09T16:27:55.000Z</time>
      </trkpt>
      <trkpt lat="43.1012110" lon="-1.7074550">
        <ele>273.415985</ele>
        <time>2019-01-09T16:27:56.000Z</time>
      </trkpt>
      <trkpt lat="43.1012730" lon="-1.7074650">
        <ele>272.476013</ele>
        <time>2019-01-09T16:27:57.000Z</time>
      </trkpt>
      <trkpt lat="43.1013100" lon="-1.7075330">
        <ele>271.412994</ele>
        <time>2019-01-09T16:27:58.000Z</time>
      </trkpt>
      <trkpt lat="43.1013650" lon="-1.7076040">
        <ele>270.407990</ele>
        <time>2019-01-09T16:27:59.000Z</time>
      </trkpt>
      <trkpt lat="43.1014300" lon="-1.7076830">
        <ele>270.244019</ele>
        <time>2019-01-09T16:28:00.000Z</time>
      </trkpt>
      <trkpt lat="43.1014910" lon="-1.7077460">
        <ele>269.722992</ele>
        <time>2019-01-09T16:28:01.000Z</time>
      </trkpt>
      <trkpt lat="43.1015480" lon="-1.7078290">
        <ele>269.031006</ele>
        <time>2019-01-09T16:28:02.000Z</time>
      </trkpt>
      <trkpt lat="43.1015920" lon="-1.7079000">
        <ele>268.657990</ele>
        <time>2019-01-09T16:28:03.000Z</time>
      </trkpt>
      <trkpt lat="43.1016650" lon="-1.7079580">
        <ele>267.931000</ele>
        <time>2019-01-09T16:28:04.000Z</time>
      </trkpt>
      <trkpt lat="43.1017380" lon="-1.7080260">
        <ele>267.575012</ele>
        <time>2019-01-09T16:28:05.000Z</time>
      </trkpt>
      <trkpt lat="43.1018290" lon="-1.7080820">
        <ele>266.917999</ele>
        <time>2019-01-09T16:28:06.000Z</time>
      </trkpt>
      <trkpt lat="43.1019050" lon="-1.7081410">
        <ele>266.588013</ele>
        <time>2019-01-09T16:28:07.000Z</time>
      </trkpt>
      <trkpt lat="43.1019830" lon="-1.7081760">
        <ele>266.391998</ele>
        <time>2019-01-09T16:28:08.000Z</time>
      </trkpt>
      <trkpt lat="43.1020680" lon="-1.7082170">
        <ele>265.872986</ele>
        <time>2019-01-09T16:28:09.000Z</time>
      </trkpt>
      <trkpt lat="43.1021470" lon="-1.7082470">
        <ele>264.720001</ele>
        <time>2019-01-09T16:28:10.000Z</time>
      </trkpt>
      <trkpt lat="43.1022120" lon="-1.7083050">
        <ele>264.007996</ele>
        <time>2019-01-09T16:28:11.000Z</time>
      </trkpt>
      <trkpt lat="43.1022700" lon="-1.7083610">
        <ele>263.652008</ele>
        <time>2019-01-09T16:28:12.000Z</time>
      </trkpt>
      <trkpt lat="43.1023390" lon="-1.7084070">
        <ele>263.041016</ele>
        <time>2019-01-09T16:28:13.000Z</time>
      </trkpt>
      <trkpt lat="43.1024150" lon="-1.7084330">
        <ele>262.289001</ele>
        <time>2019-01-09T16:28:14.000Z</time>
      </trkpt>
      <trkpt lat="43.1024960" lon="-1.7084550">
        <ele>262.156006</ele>
        <time>2019-01-09T16:28:15.000Z</time>
      </trkpt>
      <trkpt lat="43.1025550" lon="-1.7084420">
        <ele>261.799011</ele>
        <time>2019-01-09T16:28:16.000Z</time>
      </trkpt>
      <trkpt lat="43.1026410" lon="-1.7084370">
        <ele>262.223022</ele>
        <time>2019-01-09T16:28:17.000Z</time>
      </trkpt>
      <trkpt lat="43.1027150" lon="-1.7084250">
        <ele>262.115997</ele>
        <time>2019-01-09T16:28:18.000Z</time>
      </trkpt>
      <trkpt lat="43.1028050" lon="-1.7084090">
        <ele>262.575989</ele>
        <time>2019-01-09T16:28:19.000Z</time>
      </trkpt>
      <trkpt lat="43.1028970" lon="-1.7083770">
        <ele>262.332977</ele>
        <time>2019-01-09T16:28:20.000Z</time>
      </trkpt>
      <trkpt lat="43.1029580" lon="-1.7083410">
        <ele>261.023010</ele>
        <time>2019-01-09T16:28:21.000Z</time>
      </trkpt>
      <trkpt lat="43.1030390" lon="-1.7083110">
        <ele>259.815002</ele>
        <time>2019-01-09T16:28:22.000Z</time>
      </trkpt>
      <trkpt lat="43.1031210" lon="-1.7082880">
        <ele>258.708008</ele>
        <time>2019-01-09T16:28:23.000Z</time>
      </trkpt>
      <trkpt lat="43.1032050" lon="-1.7082670">
        <ele>258.096008</ele>
        <time>2019-01-09T16:28:24.000Z</time>
      </trkpt>
      <trkpt lat="43.1032640" lon="-1.7082440">
        <ele>256.885010</ele>
        <time>2019-01-09T16:28:25.000Z</time>
      </trkpt>
      <trkpt lat="43.1033390" lon="-1.7082300">
        <ele>256.173004</ele>
        <time>2019-01-09T16:28:26.000Z</time>
      </trkpt>
      <trkpt lat="43.1034180" lon="-1.7082100">
        <ele>255.740005</ele>
        <time>2019-01-09T16:28:27.000Z</time>
      </trkpt>
      <trkpt lat="43.1034930" lon="-1.7081870">
        <ele>255.053009</ele>
        <time>2019-01-09T16:28:28.000Z</time>
      </trkpt>
      <trkpt lat="43.1035620" lon="-1.7081670">
        <ele>254.237000</ele>
        <time>2019-01-09T16:28:29.000Z</time>
      </trkpt>
      <trkpt lat="43.1036370" lon="-1.7081490">
        <ele>253.719986</ele>
        <time>2019-01-09T16:28:30.000Z</time>
      </trkpt>
      <trkpt lat="43.1037170" lon="-1.7081260">
        <ele>253.430008</ele>
        <time>2019-01-09T16:28:31.000Z</time>
      </trkpt>
      <trkpt lat="43.1037970" lon="-1.7081050">
        <ele>253.255005</ele>
        <time>2019-01-09T16:28:32.000Z</time>
      </trkpt>
      <trkpt lat="43.1038810" lon="-1.7080800">
        <ele>253.107010</ele>
        <time>2019-01-09T16:28:33.000Z</time>
      </trkpt>
      <trkpt lat="43.1039650" lon="-1.7080580">
        <ele>252.617004</ele>
        <time>2019-01-09T16:28:34.000Z</time>
      </trkpt>
      <trkpt lat="43.1040550" lon="-1.7080350">
        <ele>252.707993</ele>
        <time>2019-01-09T16:28:35.000Z</time>
      </trkpt>
      <trkpt lat="43.1042390" lon="-1.7079890">
        <ele>252.417999</ele>
        <time>2019-01-09T16:28:37.000Z</time>
      </trkpt>
      <trkpt lat="43.1043340" lon="-1.7079620">
        <ele>253.046997</ele>
        <time>2019-01-09T16:28:38.000Z</time>
      </trkpt>
      <trkpt lat="43.1044100" lon="-1.7079460">
        <ele>252.684998</ele>
        <time>2019-01-09T16:28:39.000Z</time>
      </trkpt>
      <trkpt lat="43.1044990" lon="-1.7079290">
        <ele>252.341995</ele>
        <time>2019-01-09T16:28:40.000Z</time>
      </trkpt>
      <trkpt lat="43.1045830" lon="-1.7078870">
        <ele>252.145004</ele>
        <time>2019-01-09T16:28:41.000Z</time>
      </trkpt>
      <trkpt lat="43.1046660" lon="-1.7078520">
        <ele>252.058990</ele>
        <time>2019-01-09T16:28:42.000Z</time>
      </trkpt>
      <trkpt lat="43.1047410" lon="-1.7077940">
        <ele>251.571991</ele>
        <time>2019-01-09T16:28:43.000Z</time>
      </trkpt>
      <trkpt lat="43.1048670" lon="-1.7076860">
        <ele>251.151993</ele>
        <time>2019-01-09T16:28:45.000Z</time>
      </trkpt>
      <trkpt lat="43.1048670" lon="-1.7076860">
        <ele>251.190994</ele>
        <time>2019-01-09T16:28:45.000Z</time>
      </trkpt>
      <trkpt lat="43.1049820" lon="-1.7075290">
        <ele>251.380997</ele>
        <time>2019-01-09T16:28:47.000Z</time>
      </trkpt>
      <trkpt lat="43.1049820" lon="-1.7075290">
        <ele>251.319000</ele>
        <time>2019-01-09T16:28:47.000Z</time>
      </trkpt>
      <trkpt lat="43.1050110" lon="-1.7074470">
        <ele>251.108002</ele>
        <time>2019-01-09T16:28:48.000Z</time>
      </trkpt>
      <trkpt lat="43.1050620" lon="-1.7072720">
        <ele>250.362000</ele>
        <time>2019-01-09T16:28:50.000Z</time>
      </trkpt>
      <trkpt lat="43.1050620" lon="-1.7072720">
        <ele>250.371002</ele>
        <time>2019-01-09T16:28:50.000Z</time>
      </trkpt>
      <trkpt lat="43.1051000" lon="-1.7071900">
        <ele>249.719009</ele>
        <time>2019-01-09T16:28:51.000Z</time>
      </trkpt>
      <trkpt lat="43.1051490" lon="-1.7071190">
        <ele>249.315994</ele>
        <time>2019-01-09T16:28:52.000Z</time>
      </trkpt>
      <trkpt lat="43.1052180" lon="-1.7070390">
        <ele>249.159012</ele>
        <time>2019-01-09T16:28:53.000Z</time>
      </trkpt>
      <trkpt lat="43.1052760" lon="-1.7069720">
        <ele>249.463013</ele>
        <time>2019-01-09T16:28:54.000Z</time>
      </trkpt>
      <trkpt lat="43.1053380" lon="-1.7068730">
        <ele>249.615997</ele>
        <time>2019-01-09T16:28:55.000Z</time>
      </trkpt>
      <trkpt lat="43.1054020" lon="-1.7067810">
        <ele>249.315994</ele>
        <time>2019-01-09T16:28:56.000Z</time>
      </trkpt>
      <trkpt lat="43.1054680" lon="-1.7066730">
        <ele>248.758011</ele>
        <time>2019-01-09T16:28:57.000Z</time>
      </trkpt>
      <trkpt lat="43.1055280" lon="-1.7065800">
        <ele>247.652008</ele>
        <time>2019-01-09T16:28:58.000Z</time>
      </trkpt>
      <trkpt lat="43.1055810" lon="-1.7064870">
        <ele>246.917007</ele>
        <time>2019-01-09T16:28:59.000Z</time>
      </trkpt>
      <trkpt lat="43.1056380" lon="-1.7063870">
        <ele>246.107986</ele>
        <time>2019-01-09T16:29:00.000Z</time>
      </trkpt>
      <trkpt lat="43.1056880" lon="-1.7062910">
        <ele>245.248001</ele>
        <time>2019-01-09T16:29:01.000Z</time>
      </trkpt>
      <trkpt lat="43.1057380" lon="-1.7061870">
        <ele>244.726990</ele>
        <time>2019-01-09T16:29:02.000Z</time>
      </trkpt>
      <trkpt lat="43.1057830" lon="-1.7060840">
        <ele>244.464996</ele>
        <time>2019-01-09T16:29:03.000Z</time>
      </trkpt>
      <trkpt lat="43.1058290" lon="-1.7059800">
        <ele>244.291992</ele>
        <time>2019-01-09T16:29:04.000Z</time>
      </trkpt>
      <trkpt lat="43.1058470" lon="-1.7059190">
        <ele>242.945007</ele>
        <time>2019-01-09T16:29:05.000Z</time>
      </trkpt>
      <trkpt lat="43.1058630" lon="-1.7058080">
        <ele>240.948990</ele>
        <time>2019-01-09T16:29:06.000Z</time>
      </trkpt>
      <trkpt lat="43.1058850" lon="-1.7057020">
        <ele>239.391998</ele>
        <time>2019-01-09T16:29:07.000Z</time>
      </trkpt>
      <trkpt lat="43.1059000" lon="-1.7055880">
        <ele>235.332001</ele>
        <time>2019-01-09T16:29:08.000Z</time>
      </trkpt>
      <trkpt lat="43.1059270" lon="-1.7053630">
        <ele>232.376999</ele>
        <time>2019-01-09T16:29:10.000Z</time>
      </trkpt>
      <trkpt lat="43.1059580" lon="-1.7051420">
        <ele>230.560989</ele>
        <time>2019-01-09T16:29:12.000Z</time>
      </trkpt>
      <trkpt lat="43.1059580" lon="-1.7051420">
        <ele>230.527008</ele>
        <time>2019-01-09T16:29:12.000Z</time>
      </trkpt>
      <trkpt lat="43.1059720" lon="-1.7050310">
        <ele>230.207993</ele>
        <time>2019-01-09T16:29:13.000Z</time>
      </trkpt>
      <trkpt lat="43.1059870" lon="-1.7049160">
        <ele>230.029999</ele>
        <time>2019-01-09T16:29:14.000Z</time>
      </trkpt>
      <trkpt lat="43.1059990" lon="-1.7048000">
        <ele>230.399002</ele>
        <time>2019-01-09T16:29:15.000Z</time>
      </trkpt>
      <trkpt lat="43.1059990" lon="-1.7047060">
        <ele>230.547012</ele>
        <time>2019-01-09T16:29:16.000Z</time>
      </trkpt>
      <trkpt lat="43.1060240" lon="-1.7045990">
        <ele>229.414001</ele>
        <time>2019-01-09T16:29:18.000Z</time>
      </trkpt>
      <trkpt lat="43.1060630" lon="-1.7045010">
        <ele>228.756989</ele>
        <time>2019-01-09T16:29:19.000Z</time>
      </trkpt>
      <trkpt lat="43.1061100" lon="-1.7044300">
        <ele>228.380997</ele>
        <time>2019-01-09T16:29:20.000Z</time>
      </trkpt>
      <trkpt lat="43.1061740" lon="-1.7043630">
        <ele>228.554001</ele>
        <time>2019-01-09T16:29:21.000Z</time>
      </trkpt>
      <trkpt lat="43.1062250" lon="-1.7042950">
        <ele>228.623993</ele>
        <time>2019-01-09T16:29:22.000Z</time>
      </trkpt>
      <trkpt lat="43.1062860" lon="-1.7042150">
        <ele>229.193008</ele>
        <time>2019-01-09T16:29:23.000Z</time>
      </trkpt>
      <trkpt lat="43.1063660" lon="-1.7041410">
        <ele>229.865005</ele>
        <time>2019-01-09T16:29:24.000Z</time>
      </trkpt>
      <trkpt lat="43.1064360" lon="-1.7040690">
        <ele>230.220993</ele>
        <time>2019-01-09T16:29:25.000Z</time>
      </trkpt>
      <trkpt lat="43.1065080" lon="-1.7039940">
        <ele>230.807999</ele>
        <time>2019-01-09T16:29:26.000Z</time>
      </trkpt>
      <trkpt lat="43.1065600" lon="-1.7039270">
        <ele>231.632004</ele>
        <time>2019-01-09T16:29:27.000Z</time>
      </trkpt>
      <trkpt lat="43.1066210" lon="-1.7038470">
        <ele>232.160995</ele>
        <time>2019-01-09T16:29:28.000Z</time>
      </trkpt>
      <trkpt lat="43.1066770" lon="-1.7037700">
        <ele>232.468994</ele>
        <time>2019-01-09T16:29:29.000Z</time>
      </trkpt>
      <trkpt lat="43.1067350" lon="-1.7036810">
        <ele>232.626007</ele>
        <time>2019-01-09T16:29:30.000Z</time>
      </trkpt>
      <trkpt lat="43.1068060" lon="-1.7035930">
        <ele>232.388992</ele>
        <time>2019-01-09T16:29:31.000Z</time>
      </trkpt>
      <trkpt lat="43.1068570" lon="-1.7034960">
        <ele>231.792999</ele>
        <time>2019-01-09T16:29:32.000Z</time>
      </trkpt>
      <trkpt lat="43.1068960" lon="-1.7033950">
        <ele>231.445999</ele>
        <time>2019-01-09T16:29:33.000Z</time>
      </trkpt>
      <trkpt lat="43.1069460" lon="-1.7032740">
        <ele>230.815994</ele>
        <time>2019-01-09T16:29:34.000Z</time>
      </trkpt>
      <trkpt lat="43.1069790" lon="-1.7032100">
        <ele>230.049011</ele>
        <time>2019-01-09T16:29:35.000Z</time>
      </trkpt>
      <trkpt lat="43.1070160" lon="-1.7030910">
        <ele>228.302002</ele>
        <time>2019-01-09T16:29:36.000Z</time>
      </trkpt>
      <trkpt lat="43.1070230" lon="-1.7029800">
        <ele>228.121994</ele>
        <time>2019-01-09T16:29:37.000Z</time>
      </trkpt>
      <trkpt lat="43.1070190" lon="-1.7028570">
        <ele>228.007996</ele>
        <time>2019-01-09T16:29:38.000Z</time>
      </trkpt>
      <trkpt lat="43.1070080" lon="-1.7027390">
        <ele>227.196991</ele>
        <time>2019-01-09T16:29:39.000Z</time>
      </trkpt>
      <trkpt lat="43.1070110" lon="-1.7026310">
        <ele>226.216003</ele>
        <time>2019-01-09T16:29:40.000Z</time>
      </trkpt>
      <trkpt lat="43.1069990" lon="-1.7025210">
        <ele>224.853989</ele>
        <time>2019-01-09T16:29:41.000Z</time>
      </trkpt>
      <trkpt lat="43.1069860" lon="-1.7024080">
        <ele>223.690994</ele>
        <time>2019-01-09T16:29:42.000Z</time>
      </trkpt>
      <trkpt lat="43.1069920" lon="-1.7023130">
        <ele>222.534012</ele>
        <time>2019-01-09T16:29:43.000Z</time>
      </trkpt>
      <trkpt lat="43.1069830" lon="-1.7019990">
        <ele>226.587997</ele>
        <time>2019-01-09T16:29:46.000Z</time>
      </trkpt>
      <trkpt lat="43.1069730" lon="-1.7019090">
        <ele>226.291000</ele>
        <time>2019-01-09T16:29:47.000Z</time>
      </trkpt>
      <trkpt lat="43.1069770" lon="-1.7018090">
        <ele>225.241013</ele>
        <time>2019-01-09T16:29:48.000Z</time>
      </trkpt>
      <trkpt lat="43.1069710" lon="-1.7017070">
        <ele>224.296005</ele>
        <time>2019-01-09T16:29:49.000Z</time>
      </trkpt>
      <trkpt lat="43.1069850" lon="-1.7015850">
        <ele>223.630997</ele>
        <time>2019-01-09T16:29:50.000Z</time>
      </trkpt>
      <trkpt lat="43.1070110" lon="-1.7014780">
        <ele>223.624008</ele>
        <time>2019-01-09T16:29:51.000Z</time>
      </trkpt>
      <trkpt lat="43.1070320" lon="-1.7013800">
        <ele>224.407990</ele>
        <time>2019-01-09T16:29:52.000Z</time>
      </trkpt>
      <trkpt lat="43.1070850" lon="-1.7012610">
        <ele>222.962006</ele>
        <time>2019-01-09T16:29:54.000Z</time>
      </trkpt>
      <trkpt lat="43.1071210" lon="-1.7011740">
        <ele>221.681000</ele>
        <time>2019-01-09T16:29:55.000Z</time>
      </trkpt>
      <trkpt lat="43.1071540" lon="-1.7010770">
        <ele>220.878998</ele>
        <time>2019-01-09T16:29:56.000Z</time>
      </trkpt>
      <trkpt lat="43.1071880" lon="-1.7009670">
        <ele>219.936005</ele>
        <time>2019-01-09T16:29:57.000Z</time>
      </trkpt>
      <trkpt lat="43.1072150" lon="-1.7008820">
        <ele>219.089005</ele>
        <time>2019-01-09T16:29:58.000Z</time>
      </trkpt>
      <trkpt lat="43.1072490" lon="-1.7007910">
        <ele>218.473007</ele>
        <time>2019-01-09T16:29:59.000Z</time>
      </trkpt>
      <trkpt lat="43.1072710" lon="-1.7006970">
        <ele>218.546005</ele>
        <time>2019-01-09T16:30:00.000Z</time>
      </trkpt>
      <trkpt lat="43.1072940" lon="-1.7005970">
        <ele>218.166000</ele>
        <time>2019-01-09T16:30:01.000Z</time>
      </trkpt>
      <trkpt lat="43.1073000" lon="-1.7004940">
        <ele>217.154007</ele>
        <time>2019-01-09T16:30:02.000Z</time>
      </trkpt>
      <trkpt lat="43.1073060" lon="-1.7003930">
        <ele>216.155991</ele>
        <time>2019-01-09T16:30:03.000Z</time>
      </trkpt>
      <trkpt lat="43.1073060" lon="-1.7002800">
        <ele>215.111008</ele>
        <time>2019-01-09T16:30:04.000Z</time>
      </trkpt>
      <trkpt lat="43.1072950" lon="-1.7001870">
        <ele>214.508011</ele>
        <time>2019-01-09T16:30:05.000Z</time>
      </trkpt>
      <trkpt lat="43.1072880" lon="-1.7000750">
        <ele>214.158005</ele>
        <time>2019-01-09T16:30:06.000Z</time>
      </trkpt>
      <trkpt lat="43.1072690" lon="-1.6999750">
        <ele>213.527008</ele>
        <time>2019-01-09T16:30:07.000Z</time>
      </trkpt>
      <trkpt lat="43.1072530" lon="-1.6998710">
        <ele>213.164993</ele>
        <time>2019-01-09T16:30:08.000Z</time>
      </trkpt>
      <trkpt lat="43.1072380" lon="-1.6997610">
        <ele>212.961990</ele>
        <time>2019-01-09T16:30:09.000Z</time>
      </trkpt>
      <trkpt lat="43.1072070" lon="-1.6996840">
        <ele>212.474991</ele>
        <time>2019-01-09T16:30:10.000Z</time>
      </trkpt>
      <trkpt lat="43.1071810" lon="-1.6995890">
        <ele>212.169006</ele>
        <time>2019-01-09T16:30:11.000Z</time>
      </trkpt>
      <trkpt lat="43.1071490" lon="-1.6994910">
        <ele>211.951996</ele>
        <time>2019-01-09T16:30:12.000Z</time>
      </trkpt>
      <trkpt lat="43.1071360" lon="-1.6993970">
        <ele>211.461990</ele>
        <time>2019-01-09T16:30:13.000Z</time>
      </trkpt>
      <trkpt lat="43.1071190" lon="-1.6992840">
        <ele>211.134995</ele>
        <time>2019-01-09T16:30:14.000Z</time>
      </trkpt>
      <trkpt lat="43.1070990" lon="-1.6991810">
        <ele>211.386002</ele>
        <time>2019-01-09T16:30:15.000Z</time>
      </trkpt>
      <trkpt lat="43.1070920" lon="-1.6991000">
        <ele>211.014008</ele>
        <time>2019-01-09T16:30:16.000Z</time>
      </trkpt>
      <trkpt lat="43.1071150" lon="-1.6989600">
        <ele>211.608002</ele>
        <time>2019-01-09T16:30:17.000Z</time>
      </trkpt>
      <trkpt lat="43.1071350" lon="-1.6988850">
        <ele>211.666000</ele>
        <time>2019-01-09T16:30:18.000Z</time>
      </trkpt>
      <trkpt lat="43.1071610" lon="-1.6987840">
        <ele>211.214996</ele>
        <time>2019-01-09T16:30:19.000Z</time>
      </trkpt>
      <trkpt lat="43.1072010" lon="-1.6986780">
        <ele>210.662994</ele>
        <time>2019-01-09T16:30:20.000Z</time>
      </trkpt>
      <trkpt lat="43.1072490" lon="-1.6986040">
        <ele>209.839996</ele>
        <time>2019-01-09T16:30:21.000Z</time>
      </trkpt>
      <trkpt lat="43.1072940" lon="-1.6985120">
        <ele>208.912994</ele>
        <time>2019-01-09T16:30:22.000Z</time>
      </trkpt>
      <trkpt lat="43.1073400" lon="-1.6984650">
        <ele>208.046997</ele>
        <time>2019-01-09T16:30:23.000Z</time>
      </trkpt>
      <trkpt lat="43.1073910" lon="-1.6983760">
        <ele>207.059998</ele>
        <time>2019-01-09T16:30:24.000Z</time>
      </trkpt>
      <trkpt lat="43.1074340" lon="-1.6983210">
        <ele>206.059998</ele>
        <time>2019-01-09T16:30:25.000Z</time>
      </trkpt>
      <trkpt lat="43.1074860" lon="-1.6982270">
        <ele>205.063004</ele>
        <time>2019-01-09T16:30:26.000Z</time>
      </trkpt>
      <trkpt lat="43.1075540" lon="-1.6981430">
        <ele>204.843994</ele>
        <time>2019-01-09T16:30:27.000Z</time>
      </trkpt>
      <trkpt lat="43.1076140" lon="-1.6980460">
        <ele>204.318008</ele>
        <time>2019-01-09T16:30:28.000Z</time>
      </trkpt>
      <trkpt lat="43.1076930" lon="-1.6979140">
        <ele>205.207993</ele>
        <time>2019-01-09T16:30:29.000Z</time>
      </trkpt>
      <trkpt lat="43.1077580" lon="-1.6978170">
        <ele>205.768997</ele>
        <time>2019-01-09T16:30:30.000Z</time>
      </trkpt>
      <trkpt lat="43.1078040" lon="-1.6977080">
        <ele>206.058014</ele>
        <time>2019-01-09T16:30:31.000Z</time>
      </trkpt>
      <trkpt lat="43.1078590" lon="-1.6975520">
        <ele>206.666016</ele>
        <time>2019-01-09T16:30:32.000Z</time>
      </trkpt>
      <trkpt lat="43.1078910" lon="-1.6974320">
        <ele>207.462997</ele>
        <time>2019-01-09T16:30:33.000Z</time>
      </trkpt>
      <trkpt lat="43.1078910" lon="-1.6973300">
        <ele>207.916000</ele>
        <time>2019-01-09T16:30:34.000Z</time>
      </trkpt>
      <trkpt lat="43.1078660" lon="-1.6972310">
        <ele>207.050003</ele>
        <time>2019-01-09T16:30:35.000Z</time>
      </trkpt>
      <trkpt lat="43.1078280" lon="-1.6971490">
        <ele>206.463013</ele>
        <time>2019-01-09T16:30:36.000Z</time>
      </trkpt>
      <trkpt lat="43.1077900" lon="-1.6970600">
        <ele>205.332993</ele>
        <time>2019-01-09T16:30:37.000Z</time>
      </trkpt>
      <trkpt lat="43.1077560" lon="-1.6969740">
        <ele>204.281006</ele>
        <time>2019-01-09T16:30:38.000Z</time>
      </trkpt>
      <trkpt lat="43.1077160" lon="-1.6969010">
        <ele>202.860992</ele>
        <time>2019-01-09T16:30:39.000Z</time>
      </trkpt>
      <trkpt lat="43.1076860" lon="-1.6968170">
        <ele>201.916992</ele>
        <time>2019-01-09T16:30:40.000Z</time>
      </trkpt>
      <trkpt lat="43.1076330" lon="-1.6967290">
        <ele>201.007996</ele>
        <time>2019-01-09T16:30:41.000Z</time>
      </trkpt>
      <trkpt lat="43.1076170" lon="-1.6966530">
        <ele>199.661011</ele>
        <time>2019-01-09T16:30:42.000Z</time>
      </trkpt>
      <trkpt lat="43.1075870" lon="-1.6965790">
        <ele>198.479996</ele>
        <time>2019-01-09T16:30:43.000Z</time>
      </trkpt>
      <trkpt lat="43.1075590" lon="-1.6964920">
        <ele>197.397995</ele>
        <time>2019-01-09T16:30:44.000Z</time>
      </trkpt>
      <trkpt lat="43.1075490" lon="-1.6964090">
        <ele>197.014999</ele>
        <time>2019-01-09T16:30:45.000Z</time>
      </trkpt>
      <trkpt lat="43.1075600" lon="-1.6963250">
        <ele>196.828003</ele>
        <time>2019-01-09T16:30:46.000Z</time>
      </trkpt>
      <trkpt lat="43.1075700" lon="-1.6962480">
        <ele>196.731995</ele>
        <time>2019-01-09T16:30:47.000Z</time>
      </trkpt>
      <trkpt lat="43.1076150" lon="-1.6962340">
        <ele>195.855011</ele>
        <time>2019-01-09T16:30:48.000Z</time>
      </trkpt>
      <trkpt lat="43.1076830" lon="-1.6962140">
        <ele>194.184998</ele>
        <time>2019-01-09T16:30:49.000Z</time>
      </trkpt>
      <trkpt lat="43.1077220" lon="-1.6961740">
        <ele>193.116013</ele>
        <time>2019-01-09T16:30:50.000Z</time>
      </trkpt>
      <trkpt lat="43.1077740" lon="-1.6961310">
        <ele>192.576004</ele>
        <time>2019-01-09T16:30:51.000Z</time>
      </trkpt>
      <trkpt lat="43.1078700" lon="-1.6961010">
        <ele>191.712997</ele>
        <time>2019-01-09T16:30:52.000Z</time>
      </trkpt>
      <trkpt lat="43.1079340" lon="-1.6960510">
        <ele>191.207993</ele>
        <time>2019-01-09T16:30:53.000Z</time>
      </trkpt>
      <trkpt lat="43.1079890" lon="-1.6959910">
        <ele>190.914001</ele>
        <time>2019-01-09T16:30:54.000Z</time>
      </trkpt>
      <trkpt lat="43.1080630" lon="-1.6959110">
        <ele>190.782990</ele>
        <time>2019-01-09T16:30:55.000Z</time>
      </trkpt>
      <trkpt lat="43.1080560" lon="-1.6958120">
        <ele>190.240997</ele>
        <time>2019-01-09T16:30:56.000Z</time>
      </trkpt>
      <trkpt lat="43.1080670" lon="-1.6957210">
        <ele>188.727997</ele>
        <time>2019-01-09T16:30:57.000Z</time>
      </trkpt>
      <trkpt lat="43.1080770" lon="-1.6956260">
        <ele>187.851013</ele>
        <time>2019-01-09T16:30:58.000Z</time>
      </trkpt>
      <trkpt lat="43.1080920" lon="-1.6955200">
        <ele>186.544998</ele>
        <time>2019-01-09T16:30:59.000Z</time>
      </trkpt>
      <trkpt lat="43.1081010" lon="-1.6954380">
        <ele>186.578003</ele>
        <time>2019-01-09T16:31:00.000Z</time>
      </trkpt>
      <trkpt lat="43.1081160" lon="-1.6953060">
        <ele>186.157990</ele>
        <time>2019-01-09T16:31:01.000Z</time>
      </trkpt>
      <trkpt lat="43.1081290" lon="-1.6952240">
        <ele>185.155991</ele>
        <time>2019-01-09T16:31:02.000Z</time>
      </trkpt>
      <trkpt lat="43.1081560" lon="-1.6951350">
        <ele>184.959000</ele>
        <time>2019-01-09T16:31:03.000Z</time>
      </trkpt>
      <trkpt lat="43.1081810" lon="-1.6950460">
        <ele>184.813995</ele>
        <time>2019-01-09T16:31:04.000Z</time>
      </trkpt>
      <trkpt lat="43.1082030" lon="-1.6949510">
        <ele>184.307999</ele>
        <time>2019-01-09T16:31:05.000Z</time>
      </trkpt>
      <trkpt lat="43.1082340" lon="-1.6948190">
        <ele>184.468002</ele>
        <time>2019-01-09T16:31:06.000Z</time>
      </trkpt>
      <trkpt lat="43.1082640" lon="-1.6947600">
        <ele>184.537003</ele>
        <time>2019-01-09T16:31:07.000Z</time>
      </trkpt>
      <trkpt lat="43.1082920" lon="-1.6946810">
        <ele>184.134995</ele>
        <time>2019-01-09T16:31:08.000Z</time>
      </trkpt>
      <trkpt lat="43.1083220" lon="-1.6945970">
        <ele>183.952011</ele>
        <time>2019-01-09T16:31:09.000Z</time>
      </trkpt>
      <trkpt lat="43.1083560" lon="-1.6945050">
        <ele>184.284988</ele>
        <time>2019-01-09T16:31:10.000Z</time>
      </trkpt>
      <trkpt lat="43.1084070" lon="-1.6944020">
        <ele>184.418991</ele>
        <time>2019-01-09T16:31:11.000Z</time>
      </trkpt>
      <trkpt lat="43.1084490" lon="-1.6943200">
        <ele>184.981995</ele>
        <time>2019-01-09T16:31:12.000Z</time>
      </trkpt>
      <trkpt lat="43.1085030" lon="-1.6942310">
        <ele>184.822006</ele>
        <time>2019-01-09T16:31:13.000Z</time>
      </trkpt>
      <trkpt lat="43.1085780" lon="-1.6941340">
        <ele>184.738007</ele>
        <time>2019-01-09T16:31:14.000Z</time>
      </trkpt>
      <trkpt lat="43.1087150" lon="-1.6940480">
        <ele>184.770004</ele>
        <time>2019-01-09T16:31:15.000Z</time>
      </trkpt>
      <trkpt lat="43.1087980" lon="-1.6939880">
        <ele>185.117004</ele>
        <time>2019-01-09T16:31:16.000Z</time>
      </trkpt>
      <trkpt lat="43.1088670" lon="-1.6939470">
        <ele>184.507996</ele>
        <time>2019-01-09T16:31:17.000Z</time>
      </trkpt>
      <trkpt lat="43.1089490" lon="-1.6939130">
        <ele>184.675995</ele>
        <time>2019-01-09T16:31:18.000Z</time>
      </trkpt>
      <trkpt lat="43.1090250" lon="-1.6938550">
        <ele>185.034988</ele>
        <time>2019-01-09T16:31:19.000Z</time>
      </trkpt>
      <trkpt lat="43.1090310" lon="-1.6937650">
        <ele>183.763000</ele>
        <time>2019-01-09T16:31:20.000Z</time>
      </trkpt>
      <trkpt lat="43.1090430" lon="-1.6936750">
        <ele>182.130005</ele>
        <time>2019-01-09T16:31:21.000Z</time>
      </trkpt>
      <trkpt lat="43.1090670" lon="-1.6935190">
        <ele>179.582993</ele>
        <time>2019-01-09T16:31:23.000Z</time>
      </trkpt>
      <trkpt lat="43.1090650" lon="-1.6933810">
        <ele>177.256989</ele>
        <time>2019-01-09T16:31:24.000Z</time>
      </trkpt>
      <trkpt lat="43.1090610" lon="-1.6931550">
        <ele>174.619995</ele>
        <time>2019-01-09T16:31:26.000Z</time>
      </trkpt>
      <trkpt lat="43.1090610" lon="-1.6931550">
        <ele>174.649994</ele>
        <time>2019-01-09T16:31:26.000Z</time>
      </trkpt>
      <trkpt lat="43.1090260" lon="-1.6927030">
        <ele>170.938995</ele>
        <time>2019-01-09T16:31:30.000Z</time>
      </trkpt>
      <trkpt lat="43.1090260" lon="-1.6927030">
        <ele>170.900986</ele>
        <time>2019-01-09T16:31:30.000Z</time>
      </trkpt>
      <trkpt lat="43.1090260" lon="-1.6927030">
        <ele>170.921005</ele>
        <time>2019-01-09T16:31:30.000Z</time>
      </trkpt>
      <trkpt lat="43.1090260" lon="-1.6927030">
        <ele>170.908005</ele>
        <time>2019-01-09T16:31:30.000Z</time>
      </trkpt>
      <trkpt lat="43.1090200" lon="-1.6923660">
        <ele>167.426010</ele>
        <time>2019-01-09T16:31:33.000Z</time>
      </trkpt>
      <trkpt lat="43.1090200" lon="-1.6923660">
        <ele>167.455002</ele>
        <time>2019-01-09T16:31:33.000Z</time>
      </trkpt>
      <trkpt lat="43.1090200" lon="-1.6923660">
        <ele>167.412994</ele>
        <time>2019-01-09T16:31:33.000Z</time>
      </trkpt>
      <trkpt lat="43.1090260" lon="-1.6922490">
        <ele>166.360001</ele>
        <time>2019-01-09T16:31:34.000Z</time>
      </trkpt>
      <trkpt lat="43.1090370" lon="-1.6921410">
        <ele>166.173004</ele>
        <time>2019-01-09T16:31:35.000Z</time>
      </trkpt>
      <trkpt lat="43.1090420" lon="-1.6920230">
        <ele>165.667007</ele>
        <time>2019-01-09T16:31:36.000Z</time>
      </trkpt>
      <trkpt lat="43.1090410" lon="-1.6919080">
        <ele>165.709991</ele>
        <time>2019-01-09T16:31:37.000Z</time>
      </trkpt>
      <trkpt lat="43.1090210" lon="-1.6918160">
        <ele>164.569992</ele>
        <time>2019-01-09T16:31:38.000Z</time>
      </trkpt>
      <trkpt lat="43.1089930" lon="-1.6917160">
        <ele>163.472992</ele>
        <time>2019-01-09T16:31:39.000Z</time>
      </trkpt>
      <trkpt lat="43.1089480" lon="-1.6916120">
        <ele>162.785004</ele>
        <time>2019-01-09T16:31:40.000Z</time>
      </trkpt>
      <trkpt lat="43.1089060" lon="-1.6915200">
        <ele>161.912994</ele>
        <time>2019-01-09T16:31:41.000Z</time>
      </trkpt>
      <trkpt lat="43.1088720" lon="-1.6914220">
        <ele>161.408005</ele>
        <time>2019-01-09T16:31:42.000Z</time>
      </trkpt>
      <trkpt lat="43.1088320" lon="-1.6913430">
        <ele>161.509995</ele>
        <time>2019-01-09T16:31:43.000Z</time>
      </trkpt>
      <trkpt lat="43.1087950" lon="-1.6912630">
        <ele>161.649002</ele>
        <time>2019-01-09T16:31:44.000Z</time>
      </trkpt>
      <trkpt lat="43.1087420" lon="-1.6911830">
        <ele>161.246994</ele>
        <time>2019-01-09T16:31:45.000Z</time>
      </trkpt>
      <trkpt lat="43.1086960" lon="-1.6911220">
        <ele>161.014008</ele>
        <time>2019-01-09T16:31:46.000Z</time>
      </trkpt>
      <trkpt lat="43.1086220" lon="-1.6910830">
        <ele>160.966995</ele>
        <time>2019-01-09T16:31:47.000Z</time>
      </trkpt>
      <trkpt lat="43.1085500" lon="-1.6910730">
        <ele>160.490997</ele>
        <time>2019-01-09T16:31:48.000Z</time>
      </trkpt>
      <trkpt lat="43.1084590" lon="-1.6910450">
        <ele>160.194000</ele>
        <time>2019-01-09T16:31:49.000Z</time>
      </trkpt>
      <trkpt lat="43.1083630" lon="-1.6910440">
        <ele>159.584015</ele>
        <time>2019-01-09T16:31:50.000Z</time>
      </trkpt>
      <trkpt lat="43.1082690" lon="-1.6910230">
        <ele>159.280991</ele>
        <time>2019-01-09T16:31:51.000Z</time>
      </trkpt>
      <trkpt lat="43.1081920" lon="-1.6910140">
        <ele>158.660995</ele>
        <time>2019-01-09T16:31:52.000Z</time>
      </trkpt>
      <trkpt lat="43.1081100" lon="-1.6910030">
        <ele>158.217010</ele>
        <time>2019-01-09T16:31:53.000Z</time>
      </trkpt>
      <trkpt lat="43.1080290" lon="-1.6910010">
        <ele>158.007996</ele>
        <time>2019-01-09T16:31:54.000Z</time>
      </trkpt>
      <trkpt lat="43.1078920" lon="-1.6910040">
        <ele>156.630997</ele>
        <time>2019-01-09T16:31:56.000Z</time>
      </trkpt>
      <trkpt lat="43.1078920" lon="-1.6910040">
        <ele>156.620010</ele>
        <time>2019-01-09T16:31:56.000Z</time>
      </trkpt>
      <trkpt lat="43.1076550" lon="-1.6909820">
        <ele>154.018005</ele>
        <time>2019-01-09T16:31:59.000Z</time>
      </trkpt>
      <trkpt lat="43.1076550" lon="-1.6909820">
        <ele>154.065002</ele>
        <time>2019-01-09T16:31:59.000Z</time>
      </trkpt>
      <trkpt lat="43.1076550" lon="-1.6909820">
        <ele>154.018005</ele>
        <time>2019-01-09T16:31:59.000Z</time>
      </trkpt>
      <trkpt lat="43.1072710" lon="-1.6908830">
        <ele>151.412003</ele>
        <time>2019-01-09T16:32:04.000Z</time>
      </trkpt>
      <trkpt lat="43.1072710" lon="-1.6908830">
        <ele>151.495010</ele>
        <time>2019-01-09T16:32:04.000Z</time>
      </trkpt>
      <trkpt lat="43.1072710" lon="-1.6908830">
        <ele>151.455002</ele>
        <time>2019-01-09T16:32:04.000Z</time>
      </trkpt>
      <trkpt lat="43.1072710" lon="-1.6908830">
        <ele>151.472992</ele>
        <time>2019-01-09T16:32:04.000Z</time>
      </trkpt>
      <trkpt lat="43.1072710" lon="-1.6908830">
        <ele>151.485001</ele>
        <time>2019-01-09T16:32:04.000Z</time>
      </trkpt>
      <trkpt lat="43.1067520" lon="-1.6901440">
        <ele>151.313004</ele>
        <time>2019-01-09T16:32:12.000Z</time>
      </trkpt>
      <trkpt lat="43.1067520" lon="-1.6901440">
        <ele>151.307999</ele>
        <time>2019-01-09T16:32:12.000Z</time>
      </trkpt>
      <trkpt lat="43.1067520" lon="-1.6901440">
        <ele>151.379990</ele>
        <time>2019-01-09T16:32:12.000Z</time>
      </trkpt>
      <trkpt lat="43.1067520" lon="-1.6901440">
        <ele>151.319000</ele>
        <time>2019-01-09T16:32:12.000Z</time>
      </trkpt>
      <trkpt lat="43.1067520" lon="-1.6901440">
        <ele>151.347000</ele>
        <time>2019-01-09T16:32:12.000Z</time>
      </trkpt>
      <trkpt lat="43.1067520" lon="-1.6901440">
        <ele>151.384003</ele>
        <time>2019-01-09T16:32:12.000Z</time>
      </trkpt>
      <trkpt lat="43.1067520" lon="-1.6901440">
        <ele>151.337006</ele>
        <time>2019-01-09T16:32:12.000Z</time>
      </trkpt>
      <trkpt lat="43.1067520" lon="-1.6901440">
        <ele>151.371002</ele>
        <time>2019-01-09T16:32:12.000Z</time>
      </trkpt>
      <trkpt lat="43.1063620" lon="-1.6891050">
        <ele>151.093994</ele>
        <time>2019-01-09T16:32:21.000Z</time>
      </trkpt>
      <trkpt lat="43.1063620" lon="-1.6891050">
        <ele>151.014008</ele>
        <time>2019-01-09T16:32:21.000Z</time>
      </trkpt>
      <trkpt lat="43.1063620" lon="-1.6891050">
        <ele>151.020996</ele>
        <time>2019-01-09T16:32:21.000Z</time>
      </trkpt>
      <trkpt lat="43.1063620" lon="-1.6891050">
        <ele>151.041000</ele>
        <time>2019-01-09T16:32:21.000Z</time>
      </trkpt>
      <trkpt lat="43.1063620" lon="-1.6891050">
        <ele>151.004990</ele>
        <time>2019-01-09T16:32:21.000Z</time>
      </trkpt>
      <trkpt lat="43.1063620" lon="-1.6891050">
        <ele>151.007996</ele>
        <time>2019-01-09T16:32:21.000Z</time>
      </trkpt>
      <trkpt lat="43.1063620" lon="-1.6891050">
        <ele>151.055008</ele>
        <time>2019-01-09T16:32:21.000Z</time>
      </trkpt>
      <trkpt lat="43.1063620" lon="-1.6891050">
        <ele>151.093994</ele>
        <time>2019-01-09T16:32:21.000Z</time>
      </trkpt>
      <trkpt lat="43.1063620" lon="-1.6891050">
        <ele>151.031998</ele>
        <time>2019-01-09T16:32:21.000Z</time>
      </trkpt>
      <trkpt lat="43.1063410" lon="-1.6889890">
        <ele>150.459000</ele>
        <time>2019-01-09T16:32:22.000Z</time>
      </trkpt>
      <trkpt lat="43.1063310" lon="-1.6888390">
        <ele>150.141998</ele>
        <time>2019-01-09T16:32:23.000Z</time>
      </trkpt>
      <trkpt lat="43.1063100" lon="-1.6887260">
        <ele>149.535995</ele>
        <time>2019-01-09T16:32:24.000Z</time>
      </trkpt>
      <trkpt lat="43.1062950" lon="-1.6886160">
        <ele>149.529007</ele>
        <time>2019-01-09T16:32:25.000Z</time>
      </trkpt>
      <trkpt lat="43.1062810" lon="-1.6884600">
        <ele>149.589005</ele>
        <time>2019-01-09T16:32:26.000Z</time>
      </trkpt>
      <trkpt lat="43.1062440" lon="-1.6882460">
        <ele>147.356003</ele>
        <time>2019-01-09T16:32:28.000Z</time>
      </trkpt>
      <trkpt lat="43.1062440" lon="-1.6882460">
        <ele>147.358994</ele>
        <time>2019-01-09T16:32:28.000Z</time>
      </trkpt>
      <trkpt lat="43.1062020" lon="-1.6877180">
        <ele>146.213989</ele>
        <time>2019-01-09T16:32:32.000Z</time>
      </trkpt>
      <trkpt lat="43.1062020" lon="-1.6877180">
        <ele>146.207993</ele>
        <time>2019-01-09T16:32:32.000Z</time>
      </trkpt>
      <trkpt lat="43.1062020" lon="-1.6877180">
        <ele>146.287994</ele>
        <time>2019-01-09T16:32:32.000Z</time>
      </trkpt>
      <trkpt lat="43.1062020" lon="-1.6877180">
        <ele>146.246994</ele>
        <time>2019-01-09T16:32:32.000Z</time>
      </trkpt>
      <trkpt lat="43.1061370" lon="-1.6870350">
        <ele>141.434998</ele>
        <time>2019-01-09T16:32:38.000Z</time>
      </trkpt>
      <trkpt lat="43.1061370" lon="-1.6870350">
        <ele>141.451996</ele>
        <time>2019-01-09T16:32:38.000Z</time>
      </trkpt>
      <trkpt lat="43.1061370" lon="-1.6870350">
        <ele>141.445007</ele>
        <time>2019-01-09T16:32:38.000Z</time>
      </trkpt>
      <trkpt lat="43.1061370" lon="-1.6870350">
        <ele>141.418991</ele>
        <time>2019-01-09T16:32:38.000Z</time>
      </trkpt>
      <trkpt lat="43.1061370" lon="-1.6870350">
        <ele>141.461990</ele>
        <time>2019-01-09T16:32:38.000Z</time>
      </trkpt>
      <trkpt lat="43.1061370" lon="-1.6870350">
        <ele>141.481995</ele>
        <time>2019-01-09T16:32:38.000Z</time>
      </trkpt>
      <trkpt lat="43.1060800" lon="-1.6866130">
        <ele>141.186996</ele>
        <time>2019-01-09T16:32:42.000Z</time>
      </trkpt>
      <trkpt lat="43.1060800" lon="-1.6866130">
        <ele>141.141998</ele>
        <time>2019-01-09T16:32:42.000Z</time>
      </trkpt>
      <trkpt lat="43.1060800" lon="-1.6866130">
        <ele>141.126007</ele>
        <time>2019-01-09T16:32:42.000Z</time>
      </trkpt>
      <trkpt lat="43.1060800" lon="-1.6866130">
        <ele>141.108002</ele>
        <time>2019-01-09T16:32:42.000Z</time>
      </trkpt>
      <trkpt lat="43.1060510" lon="-1.6865240">
        <ele>141.311005</ele>
        <time>2019-01-09T16:32:43.000Z</time>
      </trkpt>
      <trkpt lat="43.1060340" lon="-1.6864632">
        <ele>141.410004</ele>
        <time>2022-08-25T11:10:25.267Z</time>
      </trkpt>
      <trkpt lat="43.1060104" lon="-1.6864417">
        <ele>141.117996</ele>
        <time>2022-08-25T11:10:27.387Z</time>
      </trkpt>
      <trkpt lat="43.1060080" lon="-1.6864390">
        <ele>140.175003</ele>
        <time>2019-01-09T16:32:44.000Z</time>
      </trkpt>
      <trkpt lat="43.1059640" lon="-1.6863750">
        <time>2019-01-09T16:32:45.000Z</time>
      </trkpt>
      <trkpt lat="43.1060341" lon="-1.6863130">
        <time>2022-08-25T11:11:00.650Z</time>
      </trkpt>
      <trkpt lat="43.1062770" lon="-1.6863451">
        <time>2022-08-25T11:11:01.467Z</time>
      </trkpt>
      <trkpt lat="43.1067078" lon="-1.6863451">
        <time>2022-08-25T11:11:02.546Z</time>
      </trkpt>
      <trkpt lat="43.1070211" lon="-1.6864202">
        <time>2022-08-25T11:11:03.322Z</time>
      </trkpt>
      <trkpt lat="43.1072639" lon="-1.6864632">
        <time>2022-08-25T11:11:03.915Z</time>
      </trkpt>
      <trkpt lat="43.1074989" lon="-1.6865383">
        <time>2022-08-25T11:11:04.482Z</time>
      </trkpt>
      <trkpt lat="43.1077731" lon="-1.6866885">
        <time>2022-08-25T11:11:05.027Z</time>
      </trkpt>
      <trkpt lat="43.1079219" lon="-1.6868279">
        <time>2022-08-25T11:11:05.530Z</time>
      </trkpt>
      <trkpt lat="43.1080707" lon="-1.6868816">
        <time>2022-08-25T11:11:06.075Z</time>
      </trkpt>
      <trkpt lat="43.1082430" lon="-1.6867421">
        <time>2022-08-25T11:11:07.154Z</time>
      </trkpt>
      <trkpt lat="43.1083762" lon="-1.6865490">
        <time>2022-08-25T11:11:07.746Z</time>
      </trkpt>
      <trkpt lat="43.1084937" lon="-1.6863988">
        <time>2022-08-25T11:11:08.362Z</time>
      </trkpt>
      <trkpt lat="43.1086268" lon="-1.6862593">
        <time>2022-08-25T11:11:09.010Z</time>
      </trkpt>
      <trkpt lat="43.1087443" lon="-1.6861842">
        <time>2022-08-25T11:11:09.722Z</time>
      </trkpt>
      <trkpt lat="43.1089166" lon="-1.6861091">
        <time>2022-08-25T11:11:10.290Z</time>
      </trkpt>
      <trkpt lat="43.1090263" lon="-1.6860877">
        <time>2022-08-25T11:11:11.010Z</time>
      </trkpt>
      <trkpt lat="43.1090701" lon="-1.6859857">
        <time>2022-08-25T11:11:15.731Z</time>
      </trkpt>
      <trkpt lat="43.1091562" lon="-1.6858624">
        <time>2022-08-25T11:11:16.562Z</time>
      </trkpt>
      <trkpt lat="43.1092111" lon="-1.6857765">
        <time>2022-08-25T11:11:17.242Z</time>
      </trkpt>
      <trkpt lat="43.1092776" lon="-1.6857390">
        <time>2022-08-25T11:11:17.850Z</time>
      </trkpt>
      <trkpt lat="43.1093638" lon="-1.6857175">
        <time>2022-08-25T11:11:18.506Z</time>
      </trkpt>
      <trkpt lat="43.1094147" lon="-1.6857229">
        <time>2022-08-25T11:11:19.162Z</time>
      </trkpt>
      <trkpt lat="43.1094578" lon="-1.6858194">
        <time>2022-08-25T11:11:19.754Z</time>
      </trkpt>
      <trkpt lat="43.1095126" lon="-1.6859160">
        <time>2022-08-25T11:11:20.378Z</time>
      </trkpt>
      <trkpt lat="43.1095949" lon="-1.6859160">
        <time>2022-08-25T11:11:20.970Z</time>
      </trkpt>
      <trkpt lat="43.1096614" lon="-1.6859160">
        <time>2022-08-25T11:11:21.602Z</time>
      </trkpt>
      <trkpt lat="43.1097469" lon="-1.6859375">
        <time>2019-01-09T16:32:46.000Z</time>
      </trkpt>
    </trkseg>
  </trk>
</gpx>
